# Wetter Temperatur Luftdruck Luftfeuchtigkeit Sichtweite Windgeschwindigkeit Windrichtung Zeit
1 Clouds 27 1010 26 10000 2.06 240 08:28 02.10.2022
2 Clouds 26 1013 26 10000 5.14 300 05:19 02.10.2022
3 Clouds 22 1015 33 10000 3.09 20 00:58 02.10.2022
4 Clouds 20 1015 47 10000 3.09 30 00:38 02.10.2022
5 Clouds 17 1014 43 10000 3.09 20 23:28 01.10.2022
6 Clouds 16 1013 41 10000 3.6 50 21:39 01.10.2022
7 Clouds 18 1013 31 10000 3.6 70 18:54 01.10.2022
8 Clouds 20 1014 31 10000 3.6 60 17:28 01.10.2022
9 Clouds 21 1016 27 10000 2.57 150 14:50 01.10.2022
10 Clouds 22 1015 30 10000 2.57 140 13:44 01.10.2022
11 Clouds 23 1015 23 10000 2.57 130 12:34 01.10.2022
12 Clouds 24 1014 22 10000 3.09 130 11:22 01.10.2022
13 Rain 25 1013 21 10000 3.6 130 10:47 01.10.2022
14 Clouds 25 1013 21 10000 4.63 120 10:26 01.10.2022
15 Clouds 25 1014 21 10000 4.63 110 09:21 01.10.2022
16 Clouds 26 1014 21 10000 4.12 120 08:26 01.10.2022
17 Clouds 24 1017 20 10000 5.66 100 03:39 01.10.2022
18 Clouds 25 1017 21 10000 7.2 60 02:37 01.10.2022
19 Clouds 16 1018 41 10000 0 0 23:21 30.09.2022
20 Clouds 16 1017 36 10000 2.06 300 21:58 30.09.2022
21 Clouds 17 1017 34 10000 2.57 290 20:45 30.09.2022
22 Clouds 17 1017 34 10000 2.57 310 20:20 30.09.2022
23 Clouds 18 1018 31 10000 0 0 17:59 30.09.2022
24 Clouds 19 1019 26 10000 0.51 250 16:31 30.09.2022
25 Clouds 21 1019 23 10000 0.45 215 14:23 30.09.2022
26 Clouds 22 1019 21 10000 3.6 140 12:29 30.09.2022
27 Clouds 23 1018 20 10000 4.63 140 11:55 30.09.2022
28 Clouds 27 1017 20 10000 5.14 160 08:57 30.09.2022
29 Clouds 28 1018 15 10000 4.63 70 06:38 30.09.2022
30 Clouds 25 1022 22 10000 6.69 90 02:51 30.09.2022
31 Clouds 18 1022 32 10000 4.63 100 00:53 30.09.2022
32 Clouds 13 1020 41 10000 2.57 110 21:39 29.09.2022
33 Clouds 13 1020 41 10000 2.57 110 21:19 29.09.2022
34 Clouds 15 1020 36 10000 3.6 90 18:54 29.09.2022
35 Clouds 15 1021 32 10000 2.57 60 17:48 29.09.2022
36 Clear 15 1021 32 10000 2.57 100 16:29 29.09.2022
37 Clear 17 1021 30 10000 2.57 100 15:36 29.09.2022
38 Clear 17 1021 30 10000 3.09 110 14:59 29.09.2022
39 Clear 21 1020 22 10000 3.6 130 11:54 29.09.2022
40 Clouds 28 1018 15 10000 3.6 150 07:39 29.09.2022
41 Clear 23 1021 21 10000 6.69 90 03:24 29.09.2022
42 Clear 16 1021 40 10000 0.89 235 00:29 29.09.2022
43 Clear 11 1020 60 10000 0 0 23:19 28.09.2022
44 Clear 6 1019 65 10000 0 0 21:31 28.09.2022
45 Clear 7 1019 65 10000 1.03 160 20:45 28.09.2022
46 Clear 8 1019 57 10000 0 0 18:53 28.09.2022
47 Clear 17 1019 30 10000 2.06 80 15:46 28.09.2022
48 Clear 19 1019 27 10000 4.12 130 13:28 28.09.2022
49 Clear 19 1019 27 10000 4.12 130 13:28 28.09.2022
50 Clear 21 1018 31 10000 5.66 130 11:43 28.09.2022
51 Clear 26 1016 24 10000 5.14 120 09:34 28.09.2022
52 Clear 27 1017 25 10000 5.14 120 07:41 28.09.2022
53 Clear 25 1019 27 10000 4.12 100 05:31 28.09.2022
54 Clear 17 1020 53 10000 3.6 90 01:40 28.09.2022
55 Clear 12 1018 79 10000 1.34 186 23:31 27.09.2022
56 Clear 13 1018 71 10000 2.06 200 22:32 27.09.2022
57 Clear 11 1017 85 10000 0 0 20:56 27.09.2022
58 Clouds 12 1017 84 10000 2.06 190 20:19 27.09.2022
59 Clouds 11 1018 85 10000 1.54 240 19:36 27.09.2022
60 Clouds 12 1018 81 10000 1.03 120 17:46 27.09.2022
61 Clouds 14 1018 71 10000 3.09 130 16:20 27.09.2022
62 Clouds 15 1018 66 10000 4.12 140 15:18 27.09.2022
63 Clouds 16 1019 64 10000 3.09 110 13:36 27.09.2022
64 Clouds 16 1019 63 10000 4.63 100 12:36 27.09.2022
65 Clouds 18 1018 55 10000 5.66 140 09:54 27.09.2022
66 Clouds 20 1017 50 10000 7.2 100 07:41 27.09.2022
67 Clouds 15 1020 72 10000 8.23 90 03:51 27.09.2022
68 Clouds 15 1021 67 10000 3.6 70 01:36 27.09.2022
69 Clouds 16 1018 61 10000 5.14 130 23:45 26.09.2022
70 Clouds 16 1018 61 10000 5.66 140 23:21 26.09.2022
71 Clouds 17 1016 67 10000 2.24 239 20:58 26.09.2022
72 Clouds 18 1016 60 10000 4.63 110 19:42 26.09.2022
73 Clouds 18 1016 60 10000 4.12 130 18:38 26.09.2022
74 Clouds 18 1017 60 10000 4.12 120 17:24 26.09.2022
75 Clouds 20 1017 57 10000 4.02 261 14:48 26.09.2022
76 Clouds 20 1016 54 10000 4.63 140 11:37 26.09.2022
77 Clouds 22 1015 53 10000 5.14 130 10:41 26.09.2022
78 Clouds 22 1015 53 10000 5.14 130 10:22 26.09.2022
79 Clouds 21 1015 53 10000 5.14 170 09:56 26.09.2022
80 Clouds 22 1015 50 10000 5.14 100 09:25 26.09.2022
81 Clouds 23 1015 41 10000 6.69 120 08:58 26.09.2022
82 Clouds 23 1017 33 10000 6.69 70 02:59 26.09.2022
83 Clouds 22 1016 34 10000 3.6 50 01:31 26.09.2022
84 Clouds 21 1016 33 10000 2.57 240 23:20 25.09.2022
85 Clouds 22 1014 30 10000 1.34 242 21:44 25.09.2022
86 Clouds 22 1014 24 10000 4.63 260 20:54 25.09.2022
87 Clouds 23 1014 23 10000 1.34 260 19:55 25.09.2022
88 Clouds 23 1014 22 10000 4.12 100 18:43 25.09.2022
89 Clouds 23 1014 22 10000 4.12 100 18:20 25.09.2022
90 Clouds 24 1016 21 10000 2.68 232 16:55 25.09.2022
91 Clouds 24 1015 20 10000 1.79 239 15:46 25.09.2022
92 Clouds 25 1015 20 10000 3.09 110 14:30 25.09.2022
93 Clouds 26 1015 20 10000 3.13 243 13:19 25.09.2022
94 Clouds 31 1012 14 10000 10.29 170 10:36 25.09.2022
95 Clouds 37 1010 15 10000 2.57 280 08:25 25.09.2022
96 Clouds 35 1011 15 10000 4.63 330 06:24 25.09.2022
97 Clouds 30 1013 15 10000 8.23 350 03:20 25.09.2022
98 Clear 20 1013 21 10000 4.12 10 23:23 24.09.2022
99 Clear 20 1012 20 10000 5.66 20 21:19 24.09.2022
100 Clear 19 1013 21 10000 3.6 50 19:23 24.09.2022
101 Clear 18 1013 22 10000 3.6 40 18:18 24.09.2022
102 Clear 22 1014 18 10000 5.14 30 16:36 24.09.2022
103 Clear 21 1014 19 10000 2.57 50 15:22 24.09.2022
104 Clear 22 1014 18 10000 3.6 60 13:35 24.09.2022
105 Clear 23 1014 17 10000 3.09 60 12:58 24.09.2022
106 Clear 28 1012 12 10000 3.6 90 11:42 24.09.2022
107 Clear 31 1012 10 10000 1.54 70 09:54 24.09.2022
108 Clear 31 1012 10 10000 1.54 170 08:47 24.09.2022
109 Clear 31 1013 11 10000 3.09 350 07:39 24.09.2022
110 Clear 31 1016 15 10000 5.14 80 04:48 24.09.2022
111 Clear 31 1017 15 10000 6.17 70 03:42 24.09.2022
112 Clear 13 1015 42 10000 0 0 22:36 23.09.2022
113 Clear 10 1015 53 10000 0 0 21:28 23.09.2022
114 Clear 15 1015 40 10000 0 0 20:56 23.09.2022
115 Clear 11 1015 54 10000 0 0 20:20 23.09.2022
116 Clear 16 1016 33 10000 3.09 110 18:50 23.09.2022
117 Clear 20 1017 26 10000 2.57 70 14:55 23.09.2022
118 Clear 28 1016 14 10000 5.66 110 10:55 23.09.2022
119 Clear 31 1015 15 10000 4.63 90 09:32 23.09.2022
120 Clear 29 1017 14 10000 1.54 0 05:58 23.09.2022
121 Clear 21 1018 31 10000 0 0 00:32 23.09.2022
122 Clear 9 1017 61 10000 0 0 23:21 22.09.2022
123 Clear 9 1016 57 10000 0 0 22:26 22.09.2022
124 Clear 11 1016 50 10000 0 0 20:51 22.09.2022
125 Clear 13 1016 44 10000 2.57 310 19:37 22.09.2022
126 Clear 15 1017 38 10000 2.06 140 16:57 22.09.2022
127 Clear 25 1016 20 10000 3.6 110 12:20 22.09.2022
128 Clear 30 1015 13 10000 5.14 110 10:32 22.09.2022
129 Clear 30 1015 13 10000 3.09 100 08:52 22.09.2022
130 Clear 29 1016 15 10000 2.06 360 06:45 22.09.2022
131 Clear 22 1020 24 10000 4.12 90 02:52 22.09.2022
132 Clear 8 1019 66 10000 0 0 23:25 21.09.2022
133 Clear 9 1018 61 10000 0 0 21:41 21.09.2022
134 Clear 9 1018 61 10000 0 0 19:55 21.09.2022
135 Clear 11 1019 54 10000 0 0 17:48 21.09.2022
136 Clear 15 1019 40 10000 0 0 16:30 21.09.2022
137 Clear 18 1020 30 10000 2.57 110 14:31 21.09.2022
138 Clear 21 1019 27 10000 3.6 140 12:42 21.09.2022
139 Clear 23 1018 25 10000 3.09 140 11:29 21.09.2022
140 Clear 25 1017 22 10000 3.6 180 09:50 21.09.2022
141 Clear 25 1017 22 10000 3.6 160 08:58 21.09.2022
142 Clear 23 1019 28 10000 3.09 130 06:22 21.09.2022
143 Clear 19 1022 39 10000 7.2 110 02:45 21.09.2022
144 Clear 18 1023 45 10000 6.17 130 02:23 21.09.2022
145 Clear 14 1020 26 10000 3.09 140 00:34 21.09.2022
146 Clear 14 1020 26 10000 2.57 180 22:41 20.09.2022
147 Clear 14 1020 26 10000 3.09 200 20:45 20.09.2022
148 Clear 14 1020 26 10000 0 0 19:32 20.09.2022
149 Clear 17 1018 34 10000 4.63 190 16:25 20.09.2022
150 Clear 21 1018 24 10000 4.63 230 14:45 20.09.2022
151 Clouds 24 1015 29 10000 2.57 250 12:58 20.09.2022
152 Clouds 32 1010 14 10000 9.77 240 09:19 20.09.2022
153 Clouds 33 1010 13 10000 9.77 250 08:26 20.09.2022
154 Clear 34 1011 14 10000 7.72 300 04:46 20.09.2022
155 Clear 33 1012 17 10000 7.72 290 03:48 20.09.2022
156 Clear 26 1010 44 10000 6.17 340 22:55 19.09.2022
157 Clouds 27 1009 39 10000 6.69 340 21:40 19.09.2022
158 Clouds 27 1008 39 10000 10.29 350 20:47 19.09.2022
159 Clouds 27 1008 36 10000 8.75 350 20:24 19.09.2022
160 Clouds 29 1010 26 10000 5.14 350 17:44 19.09.2022
161 Clouds 27 1011 24 10000 3.6 350 14:18 19.09.2022
162 Clouds 28 1011 23 10000 3.09 350 13:18 19.09.2022
163 Clouds 33 1009 16 10000 5.14 310 10:48 19.09.2022
164 Clouds 34 1010 12 10000 5.66 350 08:51 19.09.2022
165 Clouds 33 1013 17 10000 8.75 330 05:53 19.09.2022
166 Clouds 26 1016 18 10000 5.66 360 01:53 19.09.2022
167 Clear 14 1020 26 10000 2.57 280 23:22 18.09.2022
168 Clear 12 1014 54 10000 0 0 21:34 18.09.2022
169 Clouds 13 1014 50 10000 0 0 20:23 18.09.2022
170 Clouds 16 1015 31 10000 2.06 130 17:54 18.09.2022
171 Clouds 18 1015 29 10000 2.57 110 17:19 18.09.2022
172 Clouds 19 1015 27 10000 5.66 90 15:36 18.09.2022
173 Clear 20 1015 28 10000 3.6 100 13:47 18.09.2022
174 Clear 23 1014 23 10000 5.14 90 12:34 18.09.2022
175 Clear 28 1014 17 10000 5.66 90 10:45 18.09.2022
176 Clear 23 1019 25 10000 5.66 80 03:40 18.09.2022
177 Clear 17 1019 42 10000 3.6 60 01:24 18.09.2022
178 Clear 14 1020 26 10000 2.06 350 00:21 18.09.2022
179 Clear 14 1020 26 10000 0 0 21:39 17.09.2022
180 Clear 14 1020 26 10000 0 0 19:42 17.09.2022
181 Clear 14 1020 26 10000 0 0 18:57 17.09.2022
182 Clear 14 1020 26 10000 0 0 15:58 17.09.2022
183 Clear 18 1019 34 10000 4.63 120 13:56 17.09.2022
184 Clear 24 1016 22 10000 3.6 130 10:56 17.09.2022
185 Clear 25 1016 20 10000 3.6 160 08:34 17.09.2022
186 Clear 25 1017 23 10000 3.09 130 06:24 17.09.2022
187 Clear 14 1020 26 10000 2.57 270 23:57 16.09.2022
188 Clear 14 1020 26 10000 2.57 250 22:52 16.09.2022
189 Clouds 14 1020 26 10000 3.6 200 20:59 16.09.2022
190 Clouds 16 1016 33 10000 3.6 240 19:50 16.09.2022
191 Clear 16 1015 36 10000 2.57 280 16:30 16.09.2022
192 Clear 17 1015 27 10000 0 0 14:53 16.09.2022
193 Clear 18 1014 24 10000 2.57 160 13:43 16.09.2022
194 Clear 26 1012 12 10000 3.6 210 10:50 16.09.2022
195 Clear 27 1012 11 10000 2.57 180 08:19 16.09.2022
196 Clear 26 1013 11 10000 3.6 190 06:48 16.09.2022
197 Clear 26 1014 12 10000 2.06 160 06:25 16.09.2022
198 Clear 21 1015 21 10000 2.9 140 02:38 16.09.2022
199 Clear 14 1020 26 10000 2.57 270 22:43 15.09.2022
200 Clear 14 1020 26 10000 2.06 330 20:48 15.09.2022
201 Clear 14 1020 26 10000 2.57 270 19:46 15.09.2022
202 Clear 14 1020 26 10000 2.06 280 18:29 15.09.2022
203 Clear 16 1015 31 10000 3.09 290 17:31 15.09.2022
204 Clear 17 1015 34 10000 2.06 300 15:50 15.09.2022
205 Clear 18 1015 34 10000 3.6 210 14:20 15.09.2022
206 Clear 23 1013 23 10000 3.09 180 11:48 15.09.2022
207 Clear 28 1012 17 10000 5.14 180 09:52 15.09.2022
208 Clear 29 1013 18 10000 5.66 230 07:45 15.09.2022
209 Clear 26 1016 29 10000 6.69 240 03:49 15.09.2022
210 Clouds 17 1014 63 10000 0 0 23:32 14.09.2022
211 Clouds 18 1013 59 10000 0 0 21:26 14.09.2022
212 Clouds 20 1014 49 10000 2.57 260 19:33 14.09.2022
213 Clouds 19 1014 52 10000 3.09 280 18:30 14.09.2022
214 Clouds 22 1015 37 10000 2.57 210 16:40 14.09.2022
215 Clouds 27 1015 28 10000 5.66 170 15:29 14.09.2022
216 Clouds 29 1014 26 10000 4.63 310 13:36 14.09.2022
217 Clouds 32 1013 20 10000 6.69 300 10:47 14.09.2022
218 Clouds 33 1012 19 10000 8.23 310 09:27 14.09.2022
219 Clouds 34 1014 18 10000 9.77 300 06:51 14.09.2022
220 Clear 33 1014 18 10000 9.77 290 06:33 14.09.2022
221 Clear 30 1017 19 10000 10.29 340 03:54 14.09.2022
222 Clear 25 1016 23 10000 6.69 350 01:41 14.09.2022
223 Clear 25 1016 23 10000 6.69 350 01:19 14.09.2022
224 Clear 21 1016 32 10000 6.17 360 23:55 13.09.2022
225 Clear 22 1016 30 10000 7.2 360 23:37 13.09.2022
226 Clear 22 1016 30 10000 7.2 360 23:37 13.09.2022
227 Clear 22 1016 30 10000 7.2 360 23:19 13.09.2022
228 Clear 22 1016 33 10000 8.23 10 22:32 13.09.2022
229 Clear 23 1017 31 10000 8.23 360 21:40 13.09.2022
230 Clear 23 1017 31 10000 7.2 360 19:26 13.09.2022
231 Clear 22 1018 33 10000 3.6 50 16:45 13.09.2022
232 Clear 23 1017 31 10000 7.15 10 15:38 13.09.2022
233 Clear 22 1018 37 10000 4.12 70 13:50 13.09.2022
234 Clear 28 1016 20 10000 2.06 360 11:34 13.09.2022
235 Clear 31 1016 16 10000 3.6 330 08:20 13.09.2022
236 Clear 25 1021 36 10000 3.6 10 02:58 13.09.2022
237 Clear 14 1020 26 10000 2.57 120 23:23 12.09.2022
238 Clear 14 1020 26 10000 2.06 130 22:45 12.09.2022
239 Clear 14 1020 26 10000 2.57 70 21:35 12.09.2022
240 Clear 14 1020 26 10000 3.09 80 20:23 12.09.2022
241 Clouds 15 1020 72 10000 3.6 110 18:41 12.09.2022
242 Clear 17 1020 63 10000 3.6 100 15:53 12.09.2022
243 Clear 20 1019 52 10000 3.6 90 12:57 12.09.2022
244 Clear 25 1017 36 10000 5.66 100 10:34 12.09.2022
245 Clear 26 1017 36 10000 5.14 110 08:58 12.09.2022
246 Clear 20 1020 56 10000 4.63 100 04:39 12.09.2022
247 Clear 17 1021 67 10000 4.63 80 02:57 12.09.2022
248 Clouds 14 1020 26 10000 2.57 110 22:51 11.09.2022
249 Clouds 14 1020 26 10000 6.17 100 21:40 11.09.2022
250 Clouds 14 1020 26 10000 4.12 110 20:44 11.09.2022
251 Clouds 14 1020 26 10000 4.12 110 19:45 11.09.2022
252 Clouds 14 1020 26 10000 5.14 90 19:21 11.09.2022
253 Clouds 14 1020 26 10000 3.6 120 17:47 11.09.2022
254 Clouds 14 1019 94 10000 5.14 120 15:51 11.09.2022
255 Clouds 20 1017 45 10000 5.66 120 13:52 11.09.2022
256 Clouds 23 1014 38 10000 6.17 120 11:35 11.09.2022
257 Clouds 27 1013 29 10000 4.12 20 08:25 11.09.2022
258 Clouds 24 1015 35 10000 6.69 30 05:49 11.09.2022
259 Clouds 14 1020 26 10000 2.57 90 00:23 11.09.2022
260 Clouds 14 1020 26 10000 3.6 30 22:23 10.09.2022
261 Clouds 14 1020 26 10000 3.09 50 20:35 10.09.2022
262 Clouds 14 1020 26 10000 3.09 50 20:35 10.09.2022
263 Rain 14 1020 26 10000 2.06 160 19:44 10.09.2022
264 Rain 14 1020 26 10000 2.06 140 19:25 10.09.2022
265 Clouds 14 1020 26 10000 3.09 120 17:51 10.09.2022
266 Clouds 16 1018 48 10000 3.09 140 15:37 10.09.2022
267 Clouds 16 1018 48 10000 3.6 120 13:55 10.09.2022
268 Clouds 17 1018 48 10000 3.6 130 12:51 10.09.2022
269 Clouds 19 1017 37 10000 3.6 150 10:34 10.09.2022
270 Clouds 20 1016 34 10000 5.66 110 08:42 10.09.2022
271 Clouds 20 1016 34 10000 5.66 110 08:20 10.09.2022
272 Clouds 20 1016 34 10000 5.66 110 08:20 10.09.2022
273 Clouds 19 1019 39 10000 7.2 80 04:30 10.09.2022
274 Clouds 14 1020 26 10000 2.57 90 23:37 09.09.2022
275 Clouds 14 1020 26 10000 3.6 70 22:36 09.09.2022
276 Clouds 14 1020 26 10000 3.09 110 20:59 09.09.2022
277 Clouds 14 1020 26 10000 2.57 90 20:20 09.09.2022
278 Clear 14 1020 26 10000 0 0 19:23 09.09.2022
279 Clear 14 1020 26 10000 0 0 17:50 09.09.2022
280 Clear 14 1020 26 10000 4.12 100 15:23 09.09.2022
281 Clouds 17 1018 42 10000 3.09 90 13:33 09.09.2022
282 Clear 20 1017 30 10000 3.09 140 11:27 09.09.2022
283 Clouds 23 1017 27 10000 2.06 190 07:57 09.09.2022
284 Clear 18 1021 42 10000 4.12 100 03:37 09.09.2022
285 Clear 9 1018 66 10000 2.57 280 22:40 08.09.2022
286 Clear 9 1018 66 10000 2.57 270 21:51 08.09.2022
287 Clear 14 1020 26 10000 3.6 290 20:49 08.09.2022
288 Clear 14 1020 26 10000 3.6 290 20:49 08.09.2022
289 Clear 14 1020 26 10000 2.57 280 20:27 08.09.2022
290 Clear 14 1020 26 10000 3.09 260 19:18 08.09.2022
291 Clear 14 1020 26 10000 3.6 280 17:25 08.09.2022
292 Clear 14 1020 26 10000 3.6 290 15:35 08.09.2022
293 Clear 15 1016 31 10000 0 0 13:30 08.09.2022
294 Clear 17 1015 27 10000 3.6 210 12:40 08.09.2022
295 Clear 20 1015 19 10000 3.09 230 11:22 08.09.2022
296 Clear 25 1014 12 10000 7.2 250 09:35 08.09.2022
297 Clear 24 1014 15 10000 5.66 270 07:18 08.09.2022
298 Clear 19 1018 30 10000 3.6 160 03:37 08.09.2022
299 Clear 14 1020 26 10000 4.63 150 02:36 08.09.2022
300 Clear 14 1020 26 10000 4.63 150 02:18 08.09.2022
301 Clear 14 1020 26 10000 2.57 270 22:58 07.09.2022
302 Clear 14 1020 26 10000 3.6 280 21:44 07.09.2022
303 Clear 14 1020 26 10000 3.09 300 21:21 07.09.2022
304 Clear 14 1020 26 10000 3.09 260 20:25 07.09.2022
305 Clear 14 1020 26 10000 5.14 250 18:54 07.09.2022
306 Clear 18 1014 36 10000 5.14 250 15:51 07.09.2022
307 Clear 27 1008 21 10000 8.75 280 10:51 07.09.2022
308 Clear 27 1008 19 10000 9.77 290 10:32 07.09.2022
309 Clouds 29 1007 18 10000 9.77 300 07:46 07.09.2022
310 Clouds 27 1010 28 10000 8.75 310 04:59 07.09.2022
311 Clouds 17 1012 72 10000 2.57 350 00:26 07.09.2022
312 Clouds 11 1010 93 10000 1.03 220 21:48 06.09.2022
313 Clouds 11 1010 93 10000 0 0 21:30 06.09.2022
314 Clouds 12 1011 94 10000 2.06 240 19:27 06.09.2022
315 Clouds 13 1011 88 10000 0.51 250 18:29 06.09.2022
316 Clouds 14 1012 82 10000 0 0 17:23 06.09.2022
317 Clouds 15 1012 77 10000 5.14 50 16:40 06.09.2022
318 Clouds 16 1013 72 10000 2.06 30 15:26 06.09.2022
319 Clouds 16 1013 77 10000 3.6 30 13:47 06.09.2022
320 Clouds 16 1013 82 10000 0 0 13:26 06.09.2022
321 Clouds 16 1013 82 10000 2.06 100 12:37 06.09.2022
322 Clouds 20 1012 56 10000 2.57 140 10:46 06.09.2022
323 Clouds 25 1010 36 10000 11.83 290 08:56 06.09.2022
324 Clouds 28 1010 23 10000 7.72 340 07:52 06.09.2022
325 Clouds 26 1013 21 10000 6.17 350 04:48 06.09.2022
326 Clear 14 1020 26 10000 0 0 23:52 05.09.2022
327 Clear 14 1020 26 10000 2.57 80 22:40 05.09.2022
328 Clouds 14 1020 26 10000 0.51 50 20:58 05.09.2022
329 Clouds 14 1020 26 10000 2.57 90 19:50 05.09.2022
330 Clouds 14 1020 26 10000 2.06 40 18:49 05.09.2022
331 Clouds 14 1020 26 10000 2.57 80 18:22 05.09.2022
332 Clear 14 1020 26 10000 0 0 17:30 05.09.2022
333 Clear 14 1020 26 10000 2.57 100 15:52 05.09.2022
334 Clear 14 1020 26 10000 3.6 90 13:39 05.09.2022
335 Clear 17 1017 39 10000 3.09 90 12:29 05.09.2022
336 Clear 22 1016 26 10000 3.6 90 10:30 05.09.2022
337 Clear 22 1016 24 10000 3.09 130 07:36 05.09.2022
338 Clear 14 1020 26 10000 5.66 70 02:49 05.09.2022
339 Clouds 3 1020 87 10000 2.06 310 23:40 04.09.2022
340 Clouds 3 1020 87 10000 2.06 300 22:28 04.09.2022
341 Clouds 3 1020 87 10000 2.57 270 21:40 04.09.2022
342 Clouds 3 1020 93 10000 3.09 270 19:39 04.09.2022
343 Clouds 4 1020 87 10000 3.09 260 18:20 04.09.2022
344 Clear 5 1020 81 10000 2.57 290 17:19 04.09.2022
345 Clouds 14 1020 26 10000 2.06 170 14:36 04.09.2022
346 Clouds 14 1020 26 10000 3.6 110 13:52 04.09.2022
347 Clouds 14 1020 26 10000 4.12 100 12:18 04.09.2022
348 Clouds 14 1020 26 10000 0.51 160 10:47 04.09.2022
349 Clouds 15 1020 33 10000 5.14 190 08:20 04.09.2022
350 Clouds 13 1022 41 10000 4.12 110 05:35 04.09.2022
351 Clouds 9 1022 71 10000 6.69 80 00:50 04.09.2022
352 Clouds 7 1021 81 10000 4.12 90 22:24 03.09.2022
353 Clouds 7 1020 81 10000 3.6 70 21:23 03.09.2022
354 Clouds 7 1020 81 10000 3.6 70 21:23 03.09.2022
355 Clouds 7 1021 81 10000 0 0 19:42 03.09.2022
356 Clouds 14 1020 26 10000 3.6 110 17:28 03.09.2022
357 Clouds 14 1020 26 10000 3.6 130 16:31 03.09.2022
358 Clouds 14 1020 26 10000 3.09 120 14:45 03.09.2022
359 Clouds 14 1020 26 10000 3.09 120 14:22 03.09.2022
360 Clouds 14 1020 26 10000 4.12 110 12:24 03.09.2022
361 Clouds 14 1020 26 10000 8.23 110 10:41 03.09.2022
362 Clouds 20 1021 32 10000 7.72 110 08:28 03.09.2022
363 Clouds 18 1022 36 10000 7.72 110 06:58 03.09.2022
364 Clouds 14 1020 26 10000 10.29 110 04:33 03.09.2022
365 Clouds 4 1024 100 10000 0 0 23:55 02.09.2022
366 Clouds 3 1023 100 10000 0 0 22:45 02.09.2022
367 Clouds 4 1023 100 10000 0 0 20:59 02.09.2022
368 Clear 4 1023 93 10000 0 0 20:27 02.09.2022
369 Clear 5 1024 100 10000 0 0 19:00 02.09.2022
370 Clear 6 1024 93 10000 1.54 150 18:28 02.09.2022
371 Clear 6 1024 93 10000 2.57 120 17:43 02.09.2022
372 Clear 14 1020 26 10000 1.54 110 16:47 02.09.2022
373 Clear 14 1020 26 10000 2.57 130 13:55 02.09.2022
374 Clear 14 1020 26 10000 3.6 130 12:24 02.09.2022
375 Clear 14 1020 26 10000 7.72 100 10:19 02.09.2022
376 Clear 18 1023 34 10000 7.2 130 09:39 02.09.2022
377 Clear 18 1023 39 10000 7.72 130 07:30 02.09.2022
378 Clear 18 1023 39 10000 7.72 130 07:30 02.09.2022
379 Clear 18 1024 42 10000 7.72 120 06:36 02.09.2022
380 Clouds 14 1020 26 10000 4.63 110 02:37 02.09.2022
381 Fog 6 1023 100 350 0 0 22:30 01.09.2022
382 Fog 7 1023 100 250 0 0 21:43 01.09.2022
383 Fog 7 1023 100 600 2.06 210 21:23 01.09.2022
384 Fog 7 1022 100 250 0 0 20:37 01.09.2022
385 Mist 8 1023 100 1000 0 0 18:49 01.09.2022
386 Clouds 10 1023 100 10000 1.54 130 17:21 01.09.2022
387 Clouds 11 1024 100 10000 3.09 150 15:34 01.09.2022
388 Clouds 12 1023 94 10000 2.57 130 13:48 01.09.2022
389 Clouds 12 1023 94 10000 3.6 130 12:57 01.09.2022
390 Clouds 12 1022 100 10000 5.66 120 11:52 01.09.2022
391 Clouds 13 1022 94 10000 3.6 130 11:29 01.09.2022
392 Clouds 13 1020 94 10000 4.12 140 09:49 01.09.2022
393 Clouds 13 1019 94 10000 4.63 130 07:50 01.09.2022
394 Clouds 12 1021 94 10000 1.03 130 05:56 01.09.2022
395 Rain 11 1022 93 6000 4.63 200 01:31 01.09.2022
396 Clouds 12 1021 100 10000 4.12 240 23:19 31.08.2022
397 Rain 13 1018 88 10000 2.57 270 20:48 31.08.2022
398 Rain 13 1017 88 10000 3.09 70 19:23 31.08.2022
399 Clouds 14 1018 77 10000 3.6 120 16:49 31.08.2022
400 Clouds 15 1019 72 10000 3.6 110 15:28 31.08.2022
401 Clouds 17 1019 48 10000 4.63 90 13:37 31.08.2022
402 Rain 17 1018 48 10000 4.12 60 12:18 31.08.2022
403 Clouds 21 1016 28 10000 6.17 100 09:36 31.08.2022
404 Clouds 21 1016 28 10000 4.63 90 08:26 31.08.2022
405 Clouds 15 1021 38 10000 6.17 90 02:58 31.08.2022
406 Clouds 10 1020 50 10000 2.06 110 22:29 30.08.2022
407 Clouds 10 1020 50 10000 2.06 110 22:29 30.08.2022
408 Clouds 9 1019 53 10000 0 0 21:29 30.08.2022
409 Clouds 9 1020 53 10000 0 0 20:35 30.08.2022
410 Clouds 9 1021 49 10000 2.57 110 16:58 30.08.2022
411 Clouds 13 1021 41 10000 3.09 120 13:53 30.08.2022
412 Clouds 15 1020 36 10000 3.6 130 12:25 30.08.2022
413 Clouds 17 1019 31 10000 4.63 130 11:20 30.08.2022
414 Clouds 20 1019 24 10000 6.17 120 09:39 30.08.2022
415 Clouds 20 1020 22 10000 6.69 120 06:48 30.08.2022
416 Clouds 13 1024 35 10000 5.66 120 01:18 30.08.2022
417 Clear 9 1022 49 10000 3.09 130 22:38 29.08.2022
418 Clouds 10 1022 46 10000 2.57 140 21:53 29.08.2022
419 Clear 9 1021 61 10000 3.6 130 20:47 29.08.2022
420 Clear 8 1021 66 10000 3.09 130 18:59 29.08.2022
421 Clear 10 1022 53 10000 0 0 17:33 29.08.2022
422 Clear 10 1022 57 10000 1.54 130 16:58 29.08.2022
423 Clear 12 1021 47 10000 3.6 170 15:19 29.08.2022
424 Clear 15 1021 38 10000 2.57 160 13:54 29.08.2022
425 Clear 18 1019 32 10000 3.6 140 12:24 29.08.2022
426 Clear 23 1018 20 10000 5.66 150 10:43 29.08.2022
427 Clear 24 1018 17 10000 4.63 140 09:18 29.08.2022
428 Clouds 24 1018 17 10000 6.17 120 06:52 29.08.2022
429 Clouds 20 1020 24 10000 6.17 170 02:25 29.08.2022
430 Clouds 7 1017 45 10000 1.03 280 23:35 28.08.2022
431 Clouds 11 1014 37 10000 2.57 310 21:48 28.08.2022
432 Clouds 12 1014 32 10000 3.09 320 21:25 28.08.2022
433 Clouds 13 1014 33 10000 2.57 330 20:18 28.08.2022
434 Clouds 13 1014 33 10000 2.57 330 20:18 28.08.2022
435 Clouds 14 1015 30 10000 3.6 360 18:22 28.08.2022
436 Clouds 14 1015 30 10000 3.09 350 17:51 28.08.2022
437 Clouds 14 1015 33 10000 2.57 280 16:44 28.08.2022
438 Clouds 14 1016 33 10000 0 0 15:00 28.08.2022
439 Clouds 17 1016 27 10000 0 0 12:57 28.08.2022
440 Clouds 19 1014 22 10000 0 0 11:24 28.08.2022
441 Clouds 22 1014 17 10000 0 0 10:20 28.08.2022
442 Clouds 24 1014 15 10000 3.6 310 08:49 28.08.2022
443 Clouds 24 1014 15 10000 4.12 350 07:51 28.08.2022
444 Clouds 24 1016 13 10000 7.72 350 04:55 28.08.2022
445 Clear 5 1016 45 10000 2.06 320 00:34 28.08.2022
446 Clear 3 1015 48 10000 2.57 290 22:58 27.08.2022
447 Clear 4 1015 45 10000 2.06 300 22:24 27.08.2022
448 Clear 4 1015 45 10000 0 0 20:34 27.08.2022
449 Clear 7 1015 39 10000 0 0 18:50 27.08.2022
450 Clear 8 1017 34 10000 0 0 16:26 27.08.2022
451 Clear 9 1017 31 10000 2.57 80 15:30 27.08.2022
452 Clear 16 1016 21 10000 3.09 100 12:55 27.08.2022
453 Clear 17 1015 20 10000 3.6 120 11:56 27.08.2022
454 Clear 24 1014 12 10000 4.63 110 09:52 27.08.2022
455 Clear 24 1014 13 10000 4.12 140 09:25 27.08.2022
456 Clear 21 1018 16 10000 3.6 130 05:24 27.08.2022
457 Clouds 2 1020 55 10000 2.06 290 00:25 27.08.2022
458 Clouds 1 1020 60 10000 2.57 300 23:24 26.08.2022
459 Clouds 2 1020 55 10000 2.57 280 21:45 26.08.2022
460 Clouds 4 1021 52 10000 0 0 19:40 26.08.2022
461 Clear 5 1022 48 10000 0 0 17:29 26.08.2022
462 Clear 8 1022 36 10000 1.54 10 15:37 26.08.2022
463 Clear 8 1022 39 10000 0.51 50 14:44 26.08.2022
464 Clouds 12 1021 30 10000 3.6 120 12:54 26.08.2022
465 Clouds 14 1020 26 10000 4.12 120 11:37 26.08.2022
466 Clouds 14 1020 26 10000 4.63 120 10:47 26.08.2022
467 Clouds 19 1020 19 10000 3.09 120 07:37 26.08.2022
468 Clouds 14 1020 26 10000 7.2 80 02:31 26.08.2022
469 Clear 0 1023 64 10000 0 0 23:45 25.08.2022
470 Clear 0 1022 64 10000 0 0 21:46 25.08.2022
471 Clear 2 1023 60 10000 0 0 20:51 25.08.2022
472 Clear 1 1023 60 10000 0 0 19:24 25.08.2022
473 Clear 3 1024 56 10000 0 0 18:18 25.08.2022
474 Clear 4 1024 48 10000 0 0 17:31 25.08.2022
475 Clear 5 1024 48 10000 0 0 16:25 25.08.2022
476 Clear 6 1024 49 10000 0 0 15:27 25.08.2022
477 Clear 10 1024 37 10000 3.09 120 12:47 25.08.2022
478 Clear 14 1020 26 10000 5.66 130 10:49 25.08.2022
479 Clear 14 1020 26 10000 6.17 120 09:21 25.08.2022
480 Clear 14 1020 26 10000 7.2 120 06:31 25.08.2022
481 Clear 7 1028 49 10000 0 0 01:43 25.08.2022
482 Clear -1 1027 59 10000 0.51 290 23:27 24.08.2022
483 Clear 1 1026 60 10000 0.51 330 22:41 24.08.2022
484 Clear 1 1026 60 10000 1.03 270 21:36 24.08.2022
485 Clear 1 1026 55 10000 0 0 20:55 24.08.2022
486 Clear 1 1026 51 10000 0 0 19:19 24.08.2022
487 Clear 3 1027 44 10000 2.57 160 16:47 24.08.2022
488 Clear 4 1027 41 10000 3.6 140 15:52 24.08.2022
489 Clear 8 1028 34 10000 3.6 150 13:40 24.08.2022
490 Clear 14 1026 23 10000 5.14 140 11:38 24.08.2022
491 Clear 14 1020 26 10000 6.17 140 09:39 24.08.2022
492 Clear 14 1020 26 10000 7.72 120 07:59 24.08.2022
493 Clear 14 1020 26 10000 9.77 110 02:36 24.08.2022
494 Clear 0 1029 64 10000 2.06 160 23:32 23.08.2022
495 Clear -1 1028 69 10000 0 0 22:32 23.08.2022
496 Clear 1 1028 55 10000 2.57 160 21:29 23.08.2022
497 Clear 1 1028 60 10000 0 0 20:20 23.08.2022
498 Clear 2 1028 55 10000 0.51 170 18:46 23.08.2022
499 Clear 4 1029 48 10000 2.57 160 17:49 23.08.2022
500 Clear 3 1029 52 10000 3.09 170 16:53 23.08.2022
501 Clear 5 1029 45 10000 3.6 170 15:37 23.08.2022
502 Clear 8 1028 34 10000 3.09 140 13:26 23.08.2022
503 Clear 12 1027 28 10000 4.63 130 11:31 23.08.2022
504 Clear 14 1020 26 10000 7.72 130 10:36 23.08.2022
505 Clear 14 1020 26 10000 7.72 130 09:54 23.08.2022
506 Clear 14 1020 26 10000 7.72 120 08:51 23.08.2022
507 Clear 14 1020 26 10000 7.72 120 08:20 23.08.2022
508 Clear 14 1020 26 10000 7.72 120 08:20 23.08.2022
509 Clear 14 1020 26 10000 7.2 150 07:34 23.08.2022
510 Clear 14 1020 26 10000 7.72 150 06:27 23.08.2022
511 Clear 14 1020 26 10000 8.23 140 03:24 23.08.2022
512 Clear 8 1029 53 10000 5.14 170 00:28 23.08.2022
513 Clear 9 1028 57 10000 7.2 160 23:33 22.08.2022
514 Clouds 10 1027 66 10000 7.72 160 22:44 22.08.2022
515 Clouds 12 1025 62 10000 10.8 150 21:25 22.08.2022
516 Clouds 14 1024 62 10000 8.75 160 19:48 22.08.2022
517 Clear 13 1023 33 10000 3.6 210 18:45 22.08.2022
518 Clear 14 1020 26 10000 7.51 179 17:18 22.08.2022
519 Clear 14 1020 26 10000 2.06 330 15:39 22.08.2022
520 Clear 14 1020 26 10000 2.06 330 15:39 22.08.2022
521 Clear 14 1020 26 10000 1.54 320 13:47 22.08.2022
522 Clear 25 1018 15 10000 5.66 210 10:43 22.08.2022
523 Clear 25 1018 13 10000 4.63 200 07:59 22.08.2022
524 Clear 22 1021 23 10000 2.57 300 04:22 22.08.2022
525 Clear 9 1022 53 10000 2.57 280 00:41 22.08.2022
526 Clear 9 1022 53 10000 2.57 280 00:22 22.08.2022
527 Clear 4 1021 65 10000 2.06 310 22:20 21.08.2022
528 Clear 4 1021 70 10000 2.57 310 21:23 21.08.2022
529 Clear 5 1021 65 10000 2.06 350 20:36 21.08.2022
530 Clear 6 1021 61 10000 2.57 350 19:24 21.08.2022
531 Clear 7 1022 57 10000 0 0 16:55 21.08.2022
532 Clear 8 1022 51 10000 0 0 15:53 21.08.2022
533 Clear 11 1023 50 10000 2.06 350 15:20 21.08.2022
534 Clear 12 1023 43 10000 2.57 150 13:52 21.08.2022
535 Clear 13 1022 41 10000 3.6 140 13:24 21.08.2022
536 Clear 18 1022 27 10000 2.57 70 11:29 21.08.2022
537 Clear 22 1021 23 10000 3.09 110 09:31 21.08.2022
538 Clear 22 1022 21 10000 4.63 70 08:56 21.08.2022
539 Clear 22 1021 23 10000 3.6 120 08:38 21.08.2022
540 Clear 21 1022 26 10000 3.09 120 07:26 21.08.2022
541 Clear 18 1026 36 10000 8.75 90 03:24 21.08.2022
542 Clear 2 1026 75 10000 0 0 23:45 20.08.2022
543 Clear 3 1024 70 10000 0 0 22:24 20.08.2022
544 Clear 3 1024 70 10000 0 0 21:26 20.08.2022
545 Clear 4 1025 65 10000 0 0 19:58 20.08.2022
546 Clear 5 1025 65 10000 0 0 19:39 20.08.2022
547 Clear 5 1025 60 10000 0 0 18:27 20.08.2022
548 Clear 6 1026 56 10000 0 0 17:40 20.08.2022
549 Clear 7 1026 57 10000 0 0 16:40 20.08.2022
550 Clear 9 1026 49 10000 0 0 15:23 20.08.2022
551 Clear 12 1026 40 10000 3.6 140 12:46 20.08.2022
552 Clear 14 1025 33 10000 3.09 130 11:47 20.08.2022
553 Clear 20 1025 24 10000 6.17 110 09:29 20.08.2022
554 Clear 20 1025 22 10000 6.17 90 08:25 20.08.2022
555 Clear 19 1026 26 10000 6.69 120 05:48 20.08.2022
556 Clear 6 1028 56 10000 0.51 290 00:58 20.08.2022
557 Clear 2 1027 69 10000 2.06 290 00:30 20.08.2022
558 Clear 2 1026 64 10000 1.54 310 22:50 19.08.2022
559 Clear 2 1026 64 10000 2.57 280 21:34 19.08.2022
560 Clear 4 1026 56 10000 2.06 270 19:41 19.08.2022
561 Clear 6 1026 49 10000 0 0 16:32 19.08.2022
562 Clear 8 1026 42 10000 2.06 140 14:37 19.08.2022
563 Clouds 10 1025 37 10000 3.6 140 12:45 19.08.2022
564 Clear 17 1024 23 10000 4.63 120 10:41 19.08.2022
565 Clear 18 1024 22 10000 4.63 140 09:36 19.08.2022
566 Clear 15 1026 33 10000 5.66 150 04:56 19.08.2022
567 Clouds 8 1027 71 10000 3.09 180 00:45 19.08.2022
568 Clouds 5 1026 81 10000 3.09 200 00:20 19.08.2022
569 Clear 5 1026 75 10000 2.57 190 22:59 18.08.2022
570 Clear 6 1025 75 10000 2.57 180 22:26 18.08.2022
571 Clear 10 1024 60 10000 4.02 273 21:51 18.08.2022
572 Clear 9 1025 66 10000 4.12 170 20:56 18.08.2022
573 Clouds 11 1024 60 10000 6.26 261 19:40 18.08.2022
574 Clouds 11 1024 65 10000 4.63 170 19:20 18.08.2022
575 Clouds 13 1024 61 10000 6.17 170 17:38 18.08.2022
576 Clouds 13 1024 67 10000 4.63 180 16:18 18.08.2022
577 Clouds 18 1021 55 10000 7.2 190 14:22 18.08.2022
578 Clouds 19 1020 52 10000 9.26 180 13:44 18.08.2022
579 Clouds 19 1020 52 10000 9.26 180 13:44 18.08.2022
580 Clouds 24 1017 25 10000 4.12 200 12:30 18.08.2022
581 Clear 27 1016 16 10000 4.63 230 11:20 18.08.2022
582 Clear 31 1015 11 10000 8.23 260 09:43 18.08.2022
583 Clear 31 1014 9 10000 7.2 270 07:27 18.08.2022
584 Clear 31 1015 8 10000 6.17 270 06:30 18.08.2022
585 Clear 21 1017 13 10000 6.17 340 01:44 18.08.2022
586 Clear 16 1016 21 10000 0.51 300 22:45 17.08.2022
587 Clear 14 1016 19 10000 2.57 300 20:30 17.08.2022
588 Clouds 17 1016 15 10000 3.09 340 19:58 17.08.2022
589 Clear 14 1017 21 10000 5.14 350 18:33 17.08.2022
590 Clear 14 1017 23 10000 2.57 350 17:21 17.08.2022
591 Clear 14 1018 23 10000 3.6 310 15:46 17.08.2022
592 Clear 18 1018 16 10000 3.6 330 14:40 17.08.2022
593 Clear 20 1018 13 10000 3.09 330 12:29 17.08.2022
594 Clear 23 1017 11 10000 2.57 330 11:23 17.08.2022
595 Clear 27 1017 9 10000 3.09 340 09:19 17.08.2022
596 Clear 26 1019 11 10000 4.12 330 06:29 17.08.2022
597 Clear 6 1022 45 10000 0 0 00:50 17.08.2022
598 Clear 1 1021 55 10000 2.06 310 23:18 16.08.2022
599 Clear 2 1019 51 10000 1.54 280 21:21 16.08.2022
600 Clear 4 1020 45 10000 2.06 290 19:56 16.08.2022
601 Clear 4 1020 45 10000 2.06 290 19:26 16.08.2022
602 Clear 5 1020 45 10000 2.06 250 17:55 16.08.2022
603 Clear 6 1021 39 10000 1.03 140 16:47 16.08.2022
604 Clear 7 1021 36 10000 0 0 15:45 16.08.2022
605 Clear 10 1021 32 10000 0 0 14:54 16.08.2022
606 Clear 9 1021 31 10000 0 0 14:36 16.08.2022
607 Clear 15 1020 23 10000 3.6 120 12:19 16.08.2022
608 Clear 21 1019 14 10000 3.6 110 10:23 16.08.2022
609 Clear 22 1019 14 10000 3.6 110 08:53 16.08.2022
610 Clouds 22 1019 15 10000 3.09 140 08:21 16.08.2022
611 Clouds 21 1021 23 10000 3.6 130 05:55 16.08.2022
612 Clouds 3 1020 75 10000 3.6 180 23:37 15.08.2022
613 Clear 5 1020 70 10000 1.54 230 22:21 15.08.2022
614 Clear 5 1020 65 10000 0 0 21:48 15.08.2022
615 Clear 12 1020 49 10000 0.45 273 20:31 15.08.2022
616 Clear 11 1020 50 10000 0.45 145 19:18 15.08.2022
617 Clear 11 1020 47 10000 0 0 17:59 15.08.2022
618 Clear 10 1020 53 10000 2.06 290 16:24 15.08.2022
619 Clear 12 1020 47 10000 0 0 15:26 15.08.2022
620 Clear 14 1019 38 10000 2.57 170 13:27 15.08.2022
621 Clear 24 1017 19 10000 4.63 200 10:37 15.08.2022
622 Clear 25 1017 18 10000 2.57 230 09:40 15.08.2022
623 Clear 25 1018 19 10000 4.63 210 06:51 15.08.2022
624 Clear 22 1020 15 10000 5.66 190 04:32 15.08.2022
625 Clear 6 1019 45 10000 2.57 290 23:49 14.08.2022
626 Clear 5 1018 45 10000 3.09 290 22:28 14.08.2022
627 Clear 5 1018 45 10000 2.57 310 21:25 14.08.2022
628 Clear 6 1018 42 10000 3.09 290 19:46 14.08.2022
629 Clear 7 1019 42 10000 3.09 310 18:41 14.08.2022
630 Clear 7 1019 45 10000 0 0 17:44 14.08.2022
631 Clear 10 1019 34 10000 3.09 350 16:30 14.08.2022
632 Clear 11 1019 32 10000 2.57 360 15:45 14.08.2022
633 Clear 12 1019 30 10000 0 0 13:52 14.08.2022
634 Clear 12 1019 28 10000 2.57 170 13:34 14.08.2022
635 Clear 13 1018 26 10000 3.09 160 12:54 14.08.2022
636 Clear 18 1017 17 10000 3.6 180 11:31 14.08.2022
637 Clear 23 1016 12 10000 3.09 210 10:18 14.08.2022
638 Clear 24 1016 12 10000 2.57 210 08:18 14.08.2022
639 Clear 23 1018 15 10000 3.09 130 06:18 14.08.2022
640 Clear 13 1020 44 10000 0 0 01:48 14.08.2022
641 Clear 1 1019 75 10000 0 0 23:23 13.08.2022
642 Clear 2 1018 75 10000 0.51 330 22:28 13.08.2022
643 Clear 3 1019 70 10000 2.06 300 20:56 13.08.2022
644 Clear 3 1019 65 10000 2.06 320 19:50 13.08.2022
645 Clear 3 1019 65 10000 2.57 290 19:19 13.08.2022
646 Clear 5 1020 56 10000 0 0 17:22 13.08.2022
647 Clear 8 1020 53 10000 2.57 60 15:18 13.08.2022
648 Clear 9 1020 46 10000 1.54 60 14:24 13.08.2022
649 Clear 11 1020 43 10000 3.6 170 13:36 13.08.2022
650 Clear 15 1019 31 10000 3.09 100 11:49 13.08.2022
651 Clear 20 1018 22 10000 1.54 50 09:27 13.08.2022
652 Clear 20 1019 22 10000 1.54 100 07:48 13.08.2022
653 Clear 12 1022 47 10000 0 0 01:56 13.08.2022
654 Clear 1 1021 69 10000 2.57 290 23:36 12.08.2022
655 Clear 3 1021 65 10000 0 0 21:40 12.08.2022
656 Clear 4 1021 60 10000 2.57 330 19:51 12.08.2022
657 Clear 4 1021 60 10000 2.57 340 19:24 12.08.2022
658 Clear 3 1021 60 10000 2.57 280 18:31 12.08.2022
659 Clear 3 1022 56 10000 0 0 16:27 12.08.2022
660 Clear 6 1022 49 10000 2.57 300 15:23 12.08.2022
661 Clear 9 1021 43 10000 2.06 260 13:50 12.08.2022
662 Clear 10 1021 37 10000 3.09 190 12:50 12.08.2022
663 Clear 19 1018 18 10000 5.66 220 09:22 12.08.2022
664 Clear 18 1019 25 10000 3.09 270 07:46 12.08.2022
665 Clear 18 1020 27 10000 5.66 210 06:24 12.08.2022
666 Clear 8 1021 60 10000 3.6 260 00:49 12.08.2022
667 Clear 7 1021 63 10000 3.09 280 23:59 11.08.2022
668 Clear 8 1021 68 10000 3.09 290 23:27 11.08.2022
669 Clear 2 1020 100 10000 3.6 280 21:55 11.08.2022
670 Clear 3 1020 100 10000 3.09 300 21:28 11.08.2022
671 Clear 3 1020 100 10000 2.57 310 20:31 11.08.2022
672 Clouds 3 1021 100 10000 2.57 300 19:34 11.08.2022
673 Clouds 4 1021 100 10000 2.57 310 18:57 11.08.2022
674 Clouds 6 1021 93 10000 2.57 310 17:22 11.08.2022
675 Clouds 8 1021 88 10000 1.34 45 15:51 11.08.2022
676 Clouds 8 1021 93 10000 2.57 290 14:46 11.08.2022
677 Clouds 11 1019 82 10000 1.03 220 11:59 11.08.2022
678 Clouds 16 1017 63 10000 6.17 340 09:22 11.08.2022
679 Clouds 14 1019 77 10000 2.06 320 06:52 11.08.2022
680 Clouds 14 1022 72 10000 0 0 02:49 11.08.2022
681 Clouds 13 1021 71 10000 0 0 00:19 11.08.2022
682 Clouds 14 1020 62 10000 2.57 240 21:56 10.08.2022
683 Clouds 14 1020 62 10000 2.57 250 21:19 10.08.2022
684 Clouds 15 1021 58 10000 4.12 240 20:36 10.08.2022
685 Clouds 16 1021 55 10000 4.63 250 18:53 10.08.2022
686 Clouds 16 1021 51 10000 2.57 280 17:27 10.08.2022
687 Clouds 16 1020 51 10000 2.06 270 14:57 10.08.2022
688 Clouds 16 1020 48 10000 3.09 220 13:34 10.08.2022
689 Clouds 19 1019 42 10000 5.66 220 10:51 10.08.2022
690 Clouds 22 1018 30 10000 4.12 200 08:42 10.08.2022
691 Clouds 22 1018 30 10000 4.63 180 07:35 10.08.2022
692 Clouds 21 1019 28 10000 2.57 200 04:50 10.08.2022
693 Clouds 17 1020 42 10000 3.6 300 01:52 10.08.2022
694 Clouds 16 1019 48 10000 0.89 40 23:32 09.08.2022
695 Clouds 15 1018 47 10000 2.57 250 22:47 09.08.2022
696 Clouds 19 1016 18 10000 4.63 360 21:33 09.08.2022
697 Clouds 18 1017 22 10000 5.66 340 19:33 09.08.2022
698 Clouds 20 1017 21 10000 3.09 10 17:53 09.08.2022
699 Clouds 20 1016 18 10000 5.14 30 17:26 09.08.2022
700 Clouds 20 1018 14 10000 2.57 330 16:30 09.08.2022
701 Clear 20 1017 14 10000 5.66 360 15:26 09.08.2022
702 Clear 20 1016 15 10000 4.12 20 11:49 09.08.2022
703 Clear 26 1014 9 10000 5.14 30 08:53 09.08.2022
704 Clear 26 1015 8 10000 4.63 30 07:59 09.08.2022
705 Clear 25 1016 10 10000 6.17 70 06:55 09.08.2022
706 Clear 13 1021 30 10000 0.51 110 01:57 09.08.2022
707 Clear 6 1020 51 10000 0 0 23:26 08.08.2022
708 Clear 6 1020 50 10000 0.89 45 22:45 08.08.2022
709 Clear 7 1020 50 10000 0 0 21:47 08.08.2022
710 Clear 3 1020 52 10000 0 0 20:43 08.08.2022
711 Clear 6 1020 50 10000 0.51 60 19:41 08.08.2022
712 Clear 7 1020 49 10000 2.57 90 18:19 08.08.2022
713 Clear 7 1021 47 10000 3.09 100 15:55 08.08.2022
714 Clear 8 1021 40 10000 2.57 90 15:37 08.08.2022
715 Clear 14 1020 26 10000 2.57 120 12:31 08.08.2022
716 Clear 20 1019 20 10000 5.66 90 10:37 08.08.2022
717 Clear 22 1019 15 10000 5.14 100 07:59 08.08.2022
718 Clear 20 1022 21 10000 5.66 70 04:31 08.08.2022
719 Clear 2 1023 69 10000 0 0 00:33 08.08.2022
720 Clear 2 1021 64 10000 0 0 21:42 07.08.2022
721 Clear 2 1021 64 10000 0 0 21:19 07.08.2022
722 Clear 3 1021 65 10000 0 0 20:23 07.08.2022
723 Clear 4 1021 60 10000 0 0 19:52 07.08.2022
724 Clear 4 1021 60 10000 0 0 19:22 07.08.2022
725 Clear 5 1022 52 10000 0 0 17:45 07.08.2022
726 Clear 6 1022 56 10000 0 0 16:52 07.08.2022
727 Clear 8 1022 49 10000 0 0 15:39 07.08.2022
728 Clear 9 1022 43 10000 0 0 14:27 07.08.2022
729 Clear 13 1020 35 10000 3.09 130 12:41 07.08.2022
730 Clear 19 1019 24 10000 5.14 110 10:51 07.08.2022
731 Clear 20 1019 22 10000 4.63 100 10:20 07.08.2022
732 Clear 17 1022 29 10000 7.72 90 04:38 07.08.2022
733 Clear 13 1023 38 10000 6.69 80 02:25 07.08.2022
734 Clear 2 1020 64 10000 0 0 22:39 06.08.2022
735 Clear 2 1020 64 10000 0 0 22:18 06.08.2022
736 Clear 3 1020 56 10000 2.06 290 19:46 06.08.2022
737 Clear 4 1020 56 10000 0 0 18:49 06.08.2022
738 Clear 6 1020 52 10000 0 0 17:45 06.08.2022
739 Clear 6 1020 49 10000 2.57 90 16:24 06.08.2022
740 Clear 10 1020 40 10000 2.06 50 13:51 06.08.2022
741 Clear 12 1018 32 10000 4.12 130 12:27 06.08.2022
742 Clear 12 1018 32 10000 4.12 130 12:27 06.08.2022
743 Clear 18 1017 24 10000 3.6 130 10:53 06.08.2022
744 Clear 20 1017 21 10000 2.06 150 09:41 06.08.2022
745 Clear 18 1019 25 10000 5.66 110 04:43 06.08.2022
746 Clear 6 1020 61 10000 2.06 250 00:49 06.08.2022
747 Clear 5 1018 60 10000 2.57 270 22:35 05.08.2022
748 Clear 5 1017 60 10000 3.09 260 20:50 05.08.2022
749 Clear 5 1017 65 10000 2.06 270 18:56 05.08.2022
750 Clear 6 1017 61 10000 2.06 270 18:38 05.08.2022
751 Clear 8 1017 53 10000 2.06 300 16:52 05.08.2022
752 Clear 9 1016 53 10000 0 0 15:24 05.08.2022
753 Clear 10 1016 46 10000 0 0 14:35 05.08.2022
754 Clear 12 1015 37 10000 2.57 170 13:36 05.08.2022
755 Clear 12 1015 37 10000 2.57 170 13:18 05.08.2022
756 Clear 17 1014 29 10000 3.6 170 11:29 05.08.2022
757 Clear 21 1004 32 10000 3.09 180 08:57 05.08.2022
758 Clear 21 1004 32 10000 3.6 210 07:53 05.08.2022
759 Clear 21 1004 32 10000 4.63 210 04:19 05.08.2022
760 Clouds 11 1014 71 10000 2.57 280 23:18 04.08.2022
761 Clouds 12 1012 66 10000 2.06 260 21:28 04.08.2022
762 Clouds 12 1012 66 10000 2.06 270 20:57 04.08.2022
763 Clouds 13 1012 67 10000 3.6 270 20:36 04.08.2022
764 Clear 13 1012 71 10000 4.63 250 18:58 04.08.2022
765 Clear 12 1012 76 10000 4.12 250 18:33 04.08.2022
766 Clouds 16 1011 59 10000 3.09 280 15:53 04.08.2022
767 Clouds 21 1004 32 10000 2.57 270 13:26 04.08.2022
768 Clouds 21 1004 32 10000 2.57 270 13:26 04.08.2022
769 Clouds 21 1004 32 10000 4.63 290 11:39 04.08.2022
770 Clouds 25 1009 33 10000 5.14 290 10:21 04.08.2022
771 Clouds 21 1004 32 10000 4.63 300 07:45 04.08.2022
772 Clouds 21 1004 32 10000 5.66 270 02:48 04.08.2022
773 Clouds 21 1004 32 10000 3.6 310 00:33 04.08.2022
774 Clouds 22 1009 40 10000 3.6 340 23:39 03.08.2022
775 Clouds 22 1008 35 10000 4.63 340 21:27 03.08.2022
776 Clouds 22 1008 35 10000 4.12 320 20:21 03.08.2022
777 Clouds 21 1004 32 10000 7.2 300 19:19 03.08.2022
778 Clear 21 1004 32 10000 10.29 310 16:48 03.08.2022
779 Clear 21 1004 32 10000 9.77 310 16:22 03.08.2022
780 Clear 21 1004 32 10000 8.75 320 13:40 03.08.2022
781 Clear 29 1007 17 10000 6.17 310 10:50 03.08.2022
782 Clouds 31 1008 14 10000 10.29 310 07:23 03.08.2022
783 Clouds 28 1012 20 10000 6.17 310 04:22 03.08.2022
784 Clouds 26 1012 21 10000 7.72 310 03:23 03.08.2022
785 Clouds 21 1004 32 10000 7.2 330 00:49 03.08.2022
786 Clouds 21 1004 32 10000 4.63 320 22:37 02.08.2022
787 Clouds 21 1004 32 10000 4.63 320 21:51 02.08.2022
788 Clouds 23 1011 20 10000 4.63 310 20:29 02.08.2022
789 Clouds 22 1011 21 10000 3.09 290 17:47 02.08.2022
790 Clouds 25 1012 18 10000 5.66 350 14:39 02.08.2022
791 Clouds 27 1010 14 10000 6.69 320 10:50 02.08.2022
792 Clouds 30 1009 13 10000 9.77 340 08:54 02.08.2022
793 Clouds 30 1009 13 10000 9.77 340 08:54 02.08.2022
794 Clouds 28 1010 17 10000 10.29 330 07:52 02.08.2022
795 Clouds 24 1012 23 10000 8.75 360 04:59 02.08.2022
796 Clouds 25 1013 21 10000 12.05 354 03:36 02.08.2022
797 Clouds 19 1014 30 10000 3.6 10 23:32 01.08.2022
798 Clouds 20 1013 30 10000 3.09 20 21:54 01.08.2022
799 Clouds 20 1014 28 10000 4.12 360 20:34 01.08.2022
800 Clouds 19 1014 32 10000 2.06 50 19:22 01.08.2022
801 Clouds 19 1016 30 10000 3.6 40 17:22 01.08.2022
802 Clouds 19 1015 30 10000 3.6 50 16:49 01.08.2022
803 Clouds 17 1016 31 10000 3.09 70 15:46 01.08.2022
804 Clouds 17 1016 31 10000 3.09 70 15:19 01.08.2022
805 Clouds 17 1017 34 10000 2.06 90 13:39 01.08.2022
806 Clouds 21 1015 26 10000 3.6 120 11:18 01.08.2022
807 Clouds 23 1015 21 10000 4.63 130 09:38 01.08.2022
808 Clouds 25 1015 19 10000 2.57 90 08:18 01.08.2022
809 Clouds 19 1018 30 10000 6.17 80 04:43 01.08.2022
810 Clear 14 1020 44 10000 6.69 90 02:24 01.08.2022
811 Clear 6 1018 65 10000 1.03 160 22:54 31.07.2022
812 Clear 6 1017 61 10000 2.57 140 22:35 31.07.2022
813 Clear 7 1018 61 10000 2.57 90 20:44 31.07.2022
814 Clouds 11 1018 46 10000 0 0 18:42 31.07.2022
815 Clear 11 1018 73 10000 2.55 113 17:34 31.07.2022
816 Clear 12 1018 48 10000 3.36 136 14:57 31.07.2022
817 Clouds 14 1017 35 10000 2.57 80 13:19 31.07.2022
818 Clear 18 1016 27 10000 3.09 140 11:44 31.07.2022
819 Clouds 24 1015 20 10000 4.12 170 08:47 31.07.2022
820 Clouds 21 1004 32 10000 3.09 220 05:38 31.07.2022
821 Clouds 17 1017 25 10000 2.57 290 02:31 31.07.2022
822 Clouds 8 1015 46 10000 0 0 22:50 30.07.2022
823 Clouds 8 1015 42 10000 0 0 21:52 30.07.2022
824 Clouds 8 1015 46 10000 0 0 21:33 30.07.2022
825 Clouds 10 1016 37 10000 2.57 330 20:38 30.07.2022
826 Clouds 9 1016 43 10000 1.54 290 19:57 30.07.2022
827 Clouds 8 1016 42 10000 0 0 18:20 30.07.2022
828 Clouds 11 1016 35 10000 2.57 310 16:40 30.07.2022
829 Clouds 12 1016 32 10000 0 0 15:33 30.07.2022
830 Clouds 13 1016 33 10000 0.51 10 14:23 30.07.2022
831 Clouds 16 1016 27 10000 0.51 200 12:32 30.07.2022
832 Clouds 17 1016 25 10000 2.57 200 11:53 30.07.2022
833 Clouds 21 1004 32 10000 0 0 10:20 30.07.2022
834 Clouds 21 1004 32 10000 2.57 360 09:32 30.07.2022
835 Clouds 21 1004 32 10000 4.63 310 07:33 30.07.2022
836 Clouds 15 1020 31 10000 4.12 40 02:33 30.07.2022
837 Clouds 5 1020 52 10000 0 0 00:30 30.07.2022
838 Clouds 5 1019 48 10000 0 0 21:38 29.07.2022
839 Clouds 5 1020 48 10000 3.09 270 20:51 29.07.2022
840 Clouds 6 1020 45 10000 0 0 19:47 29.07.2022
841 Clouds 10 1020 34 10000 2.57 60 17:34 29.07.2022
842 Clear 9 1021 34 10000 0 0 14:50 29.07.2022
843 Clouds 13 1020 26 10000 2.57 90 12:55 29.07.2022
844 Clouds 21 1004 32 10000 5.66 110 09:34 29.07.2022
845 Clouds 21 1004 32 10000 5.14 80 08:41 29.07.2022
846 Clouds 21 1004 32 10000 5.14 80 06:40 29.07.2022
847 Clouds 7 1024 45 10000 0 0 01:19 29.07.2022
848 Clouds 2 1022 51 10000 0 0 21:45 28.07.2022
849 Clouds 3 1022 48 10000 0 0 20:54 28.07.2022
850 Clouds 2 1023 51 10000 0 0 20:21 28.07.2022
851 Clouds 7 1023 37 10000 2.97 102 19:40 28.07.2022
852 Clouds 3 1023 48 10000 2.57 310 18:25 28.07.2022
853 Clouds 4 1023 41 10000 0 0 17:42 28.07.2022
854 Clouds 4 1024 41 10000 0 0 16:41 28.07.2022
855 Clouds 7 1023 33 10000 0 0 14:30 28.07.2022
856 Clear 13 1022 22 10000 3.09 110 12:41 28.07.2022
857 Clear 21 1004 32 10000 5.14 110 09:25 28.07.2022
858 Clear 21 1004 32 10000 4.63 100 05:45 28.07.2022
859 Clear 17 1024 22 10000 6.69 110 05:21 28.07.2022
860 Clouds -2 1025 69 10000 0 0 00:29 28.07.2022
861 Clear -3 1023 74 10000 1.03 220 22:25 27.07.2022
862 Clear -1 1024 64 10000 2.06 270 20:20 27.07.2022
863 Clear -1 1024 59 10000 0 0 19:32 27.07.2022
864 Clear 3 1025 52 10000 0 0 16:34 27.07.2022
865 Clear 4 1025 45 10000 0 0 15:51 27.07.2022
866 Clear 6 1025 42 10000 1.54 110 14:42 27.07.2022
867 Clear 7 1025 39 10000 3.09 150 13:58 27.07.2022
868 Clear 10 1023 29 10000 3.09 120 11:49 27.07.2022
869 Clear 21 1004 32 10000 5.14 120 07:53 27.07.2022
870 Clear 15 1024 29 10000 5.66 110 05:23 27.07.2022
871 Clear -2 1024 93 10000 0 0 23:41 26.07.2022
872 Clear 0 1023 93 10000 0 0 22:20 26.07.2022
873 Clear 1 1023 80 10000 0 0 21:18 26.07.2022
874 Clear 1 1023 75 10000 0 0 19:33 26.07.2022
875 Clear 2 1024 75 10000 0 0 18:41 26.07.2022
876 Clear 2 1024 69 10000 0 0 17:54 26.07.2022
877 Clear 5 1025 70 10000 0 0 15:47 26.07.2022
878 Clear 6 1025 65 10000 2.57 130 14:43 26.07.2022
879 Clear 10 1023 50 10000 3.6 140 12:35 26.07.2022
880 Clear 16 1022 33 10000 5.66 110 10:35 26.07.2022
881 Clear 18 1023 29 10000 6.69 110 08:29 26.07.2022
882 Clear 12 1026 50 10000 8.23 110 02:25 26.07.2022
883 Clear 3 1025 87 10000 0 0 00:22 26.07.2022
884 Clear 4 1023 87 10000 1.03 170 22:41 25.07.2022
885 Clear 4 1023 87 10000 1.03 170 22:21 25.07.2022
886 Clear 4 1023 87 10000 1.54 230 21:31 25.07.2022
887 Clear 5 1023 81 10000 0 0 20:39 25.07.2022
888 Clear 6 1023 81 10000 0 0 19:25 25.07.2022
889 Clear 6 1023 75 10000 0 0 18:18 25.07.2022
890 Clear 9 1023 71 10000 0 0 17:23 25.07.2022
891 Clear 12 1022 62 10000 3.09 170 14:19 25.07.2022
892 Clear 19 1020 42 10000 3.6 150 10:56 25.07.2022
893 Clear 21 1004 32 10000 5.66 150 08:22 25.07.2022
894 Clear 14 1020 62 10000 2.57 250 01:44 25.07.2022
895 Clear 8 1019 81 10000 3.09 260 23:46 24.07.2022
896 Clear 10 1018 71 10000 3.6 270 22:49 24.07.2022
897 Clear 10 1017 71 10000 3.09 270 21:48 24.07.2022
898 Clear 12 1017 62 10000 2.06 280 21:18 24.07.2022
899 Clear 12 1017 58 10000 0 0 20:44 24.07.2022
900 Clear 10 1016 43 10000 5.66 200 19:23 24.07.2022
901 Clear 12 1015 37 10000 2.57 300 18:26 24.07.2022
902 Clear 14 1015 33 10000 2.57 320 15:55 24.07.2022
903 Clear 14 1015 30 10000 2.06 230 14:57 24.07.2022
904 Clear 19 1014 24 10000 2.57 330 13:50 24.07.2022
905 Clear 21 1004 32 10000 3.6 310 12:28 24.07.2022
906 Clear 21 1004 32 10000 3.09 330 11:31 24.07.2022
907 Clear 27 1012 12 10000 4.12 310 09:55 24.07.2022
908 Clear 28 1012 13 10000 5.66 330 08:29 24.07.2022
909 Clear 28 1012 12 10000 4.63 330 07:44 24.07.2022
910 Clear 21 1004 32 10000 5.66 350 03:35 24.07.2022
911 Clear 10 1015 32 10000 3.09 10 23:36 23.07.2022
912 Clear 6 1015 45 10000 0.51 140 20:49 23.07.2022
913 Clear 9 1015 37 10000 3.6 50 19:30 23.07.2022
914 Clear 9 1016 40 10000 0 0 18:40 23.07.2022
915 Clear 13 1016 28 10000 3.6 50 17:28 23.07.2022
916 Clear 12 1016 32 10000 0 0 16:29 23.07.2022
917 Clear 10 1016 37 10000 2.57 60 15:22 23.07.2022
918 Clear 14 1016 28 10000 2.57 70 14:55 23.07.2022
919 Clear 15 1016 26 10000 3.09 60 14:24 23.07.2022
920 Clear 20 1015 21 10000 4.12 90 11:56 23.07.2022
921 Clear 21 1004 32 10000 4.63 100 10:44 23.07.2022
922 Clear 21 1004 32 10000 4.63 80 09:44 23.07.2022
923 Clear 26 1014 14 10000 4.12 130 08:24 23.07.2022
924 Clear 21 1004 32 10000 2.57 20 03:38 23.07.2022
925 Clear 7 1018 53 10000 0 0 00:39 23.07.2022
926 Clear 8 1017 49 10000 0 0 21:38 22.07.2022
927 Clear 8 1017 49 10000 0 0 20:33 22.07.2022
928 Clear 7 1017 53 10000 0 0 18:56 22.07.2022
929 Clear 8 1018 49 10000 1.03 310 17:40 22.07.2022
930 Clear 9 1018 46 10000 0 0 16:26 22.07.2022
931 Clear 14 1017 33 10000 3.6 110 13:24 22.07.2022
932 Clear 24 1015 17 10000 2.57 110 10:23 22.07.2022
933 Clear 24 1015 17 10000 3.09 170 09:24 22.07.2022
934 Clear 25 1015 16 10000 2.06 120 08:26 22.07.2022
935 Clear 20 1019 22 10000 2.06 10 04:24 22.07.2022
936 Haze 1 1019 75 3600 0 0 23:44 21.07.2022
937 Clear 2 1019 75 10000 0 0 21:55 21.07.2022
938 Clear 6 1020 46 10000 2.4 63 20:28 21.07.2022
939 Clear 6 1021 48 10000 2.38 70 18:43 21.07.2022
940 Clear 5 1020 56 10000 1.54 50 17:22 21.07.2022
941 Clear 7 1020 53 10000 3.09 90 16:31 21.07.2022
942 Clear 10 1020 46 10000 2.57 100 14:46 21.07.2022
943 Clear 9 1020 43 10000 2.06 90 13:58 21.07.2022
944 Clear 12 1019 37 10000 3.09 110 12:18 21.07.2022
945 Clear 18 1018 25 10000 3.6 80 10:21 21.07.2022
946 Clear 19 1018 24 10000 3.6 110 08:53 21.07.2022
947 Clear 19 1018 24 10000 3.6 100 08:18 21.07.2022
948 Clear 18 1019 25 10000 4.12 120 06:45 21.07.2022
949 Clouds 11 1023 40 10000 6.69 80 02:59 21.07.2022
950 Clear 1 1021 75 10000 0 0 22:49 20.07.2022
951 Clear 1 1022 75 10000 0 0 22:19 20.07.2022
952 Clear 2 1022 69 10000 0 0 20:46 20.07.2022
953 Clear 1 1021 75 10000 0 0 19:47 20.07.2022
954 Clear 3 1021 65 10000 0 0 18:54 20.07.2022
955 Clear 3 1021 70 10000 0 0 18:31 20.07.2022
956 Clear 5 1022 65 10000 0 0 17:28 20.07.2022
957 Clear 8 1023 53 10000 0 0 15:33 20.07.2022
958 Clear 9 1022 49 10000 1.03 90 14:49 20.07.2022
959 Clear 11 1021 43 10000 3.6 130 13:21 20.07.2022
960 Clear 17 1020 29 10000 4.63 130 10:59 20.07.2022
961 Clear 21 1020 26 10000 4.63 100 06:35 20.07.2022
962 Clouds 13 1021 44 10000 5.66 90 01:47 20.07.2022
963 Clouds 8 1020 57 10000 2.57 90 00:42 20.07.2022
964 Clouds 9 1019 53 10000 2.57 110 22:37 19.07.2022
965 Clouds 9 1019 53 10000 2.57 110 22:18 19.07.2022
966 Clouds 11 1019 46 10000 3.6 90 20:50 19.07.2022
967 Clouds 12 1019 43 10000 2.57 70 19:32 19.07.2022
968 Clouds 13 1019 41 10000 2.06 110 18:42 19.07.2022
969 Clouds 14 1019 38 10000 3.09 100 17:54 19.07.2022
970 Clouds 16 1019 31 10000 6.69 90 15:49 19.07.2022
971 Clouds 16 1018 31 10000 3.6 70 13:46 19.07.2022
972 Clouds 19 1017 26 10000 4.12 120 11:34 19.07.2022
973 Clear 23 1016 18 10000 5.66 110 09:53 19.07.2022
974 Clear 25 1016 16 10000 4.63 110 08:48 19.07.2022
975 Clear 24 1016 17 10000 3.6 130 07:57 19.07.2022
976 Clear 24 1016 19 10000 3.6 20 07:18 19.07.2022
977 Clear 22 1019 21 10000 3.6 70 05:19 19.07.2022
978 Clear 18 1020 32 10000 4.12 70 03:40 19.07.2022
979 Clouds 4 1020 52 10000 0 0 00:18 19.07.2022
980 Clouds 5 1019 48 10000 0.51 110 23:20 18.07.2022
981 Clouds 7 1019 42 10000 2.06 130 22:42 18.07.2022
982 Clouds 7 1019 42 10000 0 0 21:26 18.07.2022
983 Clouds 7 1018 39 10000 0 0 20:45 18.07.2022
984 Clouds 7 1019 36 10000 0 0 18:50 18.07.2022
985 Clouds 7 1020 33 10000 3.09 40 16:45 18.07.2022
986 Clouds 8 1020 31 10000 0 0 15:40 18.07.2022
987 Clouds 13 1019 21 10000 3.6 80 13:40 18.07.2022
988 Clear 14 1019 19 10000 3.6 80 12:21 18.07.2022
989 Clear 22 1018 12 10000 6.69 110 09:56 18.07.2022
990 Clear 23 1018 12 10000 6.17 90 08:20 18.07.2022
991 Clear 22 1019 12 10000 5.66 100 06:39 18.07.2022
992 Clear 1 1020 47 10000 0 0 23:19 17.07.2022
993 Clear 2 1019 41 10000 0 0 22:32 17.07.2022
994 Clear 2 1019 41 10000 0 0 21:40 17.07.2022
995 Clear 3 1019 38 10000 0 0 20:46 17.07.2022
996 Clear 3 1019 38 10000 0 0 20:18 17.07.2022
997 Clear 4 1019 35 10000 0 0 19:25 17.07.2022
998 Clear 4 1020 38 10000 0 0 17:55 17.07.2022
999 Clear 3 1020 38 10000 0 0 17:36 17.07.2022
1000 Clear 5 1020 30 10000 2.06 340 16:45 17.07.2022
1001 Clear 6 1020 31 10000 2.57 340 16:22 17.07.2022
1002 Clear 9 1020 21 10000 2.06 280 13:58 17.07.2022
1003 Clear 12 1020 19 10000 1.03 70 12:56 17.07.2022
1004 Clear 22 1018 8 10000 3.09 120 10:21 17.07.2022
1005 Clear 23 1019 8 10000 2.57 100 07:31 17.07.2022
1006 Clear 13 1022 19 10000 0.51 220 02:35 17.07.2022
1007 Clear 2 1021 41 9000 2.57 300 00:33 17.07.2022
1008 Clear 2 1020 41 10000 3.09 300 22:43 16.07.2022
1009 Clear 3 1020 38 10000 2.57 310 20:45 16.07.2022
1010 Clear 4 1020 33 10000 2.57 330 18:58 16.07.2022
1011 Clear 4 1020 35 10000 2.57 290 17:48 16.07.2022
1012 Clear 5 1020 30 10000 2.57 320 16:22 16.07.2022
1013 Clear 10 1020 20 10000 0.51 110 13:26 16.07.2022
1014 Clear 23 1019 7 10000 0 0 10:29 16.07.2022
1015 Clear 23 1019 7 10000 1.54 230 09:26 16.07.2022
1016 Clear 23 1019 6 10000 3.09 230 08:41 16.07.2022
1017 Clear 23 1020 9 10000 3.09 210 07:23 16.07.2022
1018 Clear 17 1023 19 10000 4.12 350 03:35 16.07.2022
1019 Clear 2 1022 55 10000 2.06 350 00:45 16.07.2022
1020 Clear 6 1021 39 10000 0 0 22:57 15.07.2022
1021 Clear 5 1021 42 10000 3.6 10 22:26 15.07.2022
1022 Clear 2 1022 55 10000 0 0 20:41 15.07.2022
1023 Clear 0 1022 59 10000 0 0 19:34 15.07.2022
1024 Clear 1 1022 51 10000 2.06 290 18:23 15.07.2022
1025 Clear 1 1022 55 10000 0 0 16:53 15.07.2022
1026 Clear 10 1022 29 10000 3.6 100 14:19 15.07.2022
1027 Clear 12 1021 26 10000 3.6 70 12:37 15.07.2022
1028 Clear 17 1021 17 10000 3.6 90 10:52 15.07.2022
1029 Clear 20 1021 14 10000 4.12 120 07:48 15.07.2022
1030 Clear 12 1026 32 10000 4.63 90 03:41 15.07.2022
1031 Clear -3 1025 80 10000 0 0 00:40 15.07.2022
1032 Clear -2 1024 80 10000 1.03 320 22:56 14.07.2022
1033 Clear -2 1024 80 10000 0 0 22:24 14.07.2022
1034 Clear -1 1024 74 10000 3.09 60 21:39 14.07.2022
1035 Clear -1 1024 74 10000 3.09 60 21:19 14.07.2022
1036 Clear -1 1024 74 10000 0 0 20:42 14.07.2022
1037 Clouds -1 1024 74 10000 0 0 20:18 14.07.2022
1038 Clouds 1 1024 69 10000 0 0 17:59 14.07.2022
1039 Clear 1 1025 69 10000 0 0 16:19 14.07.2022
1040 Clear 4 1025 56 10000 2.06 90 14:55 14.07.2022
1041 Clear 9 1025 46 10000 3.09 70 13:51 14.07.2022
1042 Clear 9 1024 43 10000 3.09 110 12:34 14.07.2022
1043 Clear 13 1023 38 10000 3.6 80 11:26 14.07.2022
1044 Clear 14 1023 33 10000 4.63 90 10:51 14.07.2022
1045 Clear 17 1023 29 10000 5.66 90 08:45 14.07.2022
1046 Clear 14 1026 44 10000 6.17 80 04:18 14.07.2022
1047 Clear 3 1026 75 10000 0 0 01:18 14.07.2022
1048 Clear 0 1025 80 10000 0 0 00:50 14.07.2022
1049 Clear -2 1024 86 10000 2.06 250 22:30 13.07.2022
1050 Clear -1 1024 80 10000 1.54 260 21:38 13.07.2022
1051 Clear -1 1024 80 10000 0 0 20:38 13.07.2022
1052 Clear 1 1024 80 10000 0 0 18:26 13.07.2022
1053 Clear 1 1024 75 10000 0 0 17:22 13.07.2022
1054 Clear 2 1024 75 10000 0 0 16:18 13.07.2022
1055 Clear 5 1025 60 10000 2.57 140 13:57 13.07.2022
1056 Clear 11 1023 43 10000 3.6 130 11:33 13.07.2022
1057 Clear 14 1023 35 10000 5.66 120 10:44 13.07.2022
1058 Clear 15 1022 33 10000 5.14 140 09:30 13.07.2022
1059 Clear 16 1022 33 10000 6.17 110 08:24 13.07.2022
1060 Clear 14 1025 44 10000 6.69 110 04:50 13.07.2022
1061 Clear 2 1024 87 10000 0 0 00:47 13.07.2022
1062 Clear 0 1023 93 10000 0 0 22:47 12.07.2022
1063 Clear 1 1022 93 10000 0 0 21:49 12.07.2022
1064 Clear 1 1022 86 10000 1.03 180 20:53 12.07.2022
1065 Clear 3 1022 81 10000 2.57 180 20:21 12.07.2022
1066 Clear 2 1023 80 10000 0 0 18:51 12.07.2022
1067 Clear 3 1023 75 10000 0 0 17:23 12.07.2022
1068 Clear 4 1023 70 10000 2.06 170 15:32 12.07.2022
1069 Clear 8 1022 57 10000 3.09 150 13:43 12.07.2022
1070 Clear 11 1021 50 10000 3.6 130 11:54 12.07.2022
1071 Clear 14 1020 38 10000 4.12 140 10:45 12.07.2022
1072 Clear 17 1020 31 10000 6.69 150 08:58 12.07.2022
1073 Clear 17 1020 34 10000 4.63 140 07:48 12.07.2022
1074 Clear 17 1020 34 10000 4.63 140 07:48 12.07.2022
1075 Clear 16 1022 36 10000 5.66 110 05:47 12.07.2022
1076 Clear 16 1023 39 10000 5.66 140 05:29 12.07.2022
1077 Clear 7 1023 45 10000 3.6 270 01:31 12.07.2022
1078 Clear 1 1021 60 10000 2.57 320 22:43 11.07.2022
1079 Clear 2 1021 55 10000 3.09 290 21:34 11.07.2022
1080 Clear 1 1020 55 10000 2.57 270 20:32 11.07.2022
1081 Clear 2 1021 51 10000 0 0 19:18 11.07.2022
1082 Clear 3 1021 48 10000 0 0 18:29 11.07.2022
1083 Clear 4 1021 45 10000 0 0 16:30 11.07.2022
1084 Clear 3 1021 44 10000 0 0 15:28 11.07.2022
1085 Clear 8 1021 34 10000 0.51 170 13:19 11.07.2022
1086 Clear 12 1020 24 10000 3.6 190 11:23 11.07.2022
1087 Clear 18 1019 14 10000 4.12 190 09:55 11.07.2022
1088 Clear 21 1004 32 10000 4.12 190 09:27 11.07.2022
1089 Clear 21 1004 32 10000 3.09 140 08:32 11.07.2022
1090 Clear 3 1023 70 10000 0 0 01:20 11.07.2022
1091 Clear -3 1022 80 10000 0 0 23:54 10.07.2022
1092 Clear -2 1021 80 10000 3.09 340 22:45 10.07.2022
1093 Clear -2 1021 80 10000 2.06 250 20:56 10.07.2022
1094 Clear -2 1021 74 10000 2.06 310 20:36 10.07.2022
1095 Clear 0 1021 74 10000 0 0 19:30 10.07.2022
1096 Clear 0 1021 74 10000 0 0 19:30 10.07.2022
1097 Clear -1 1022 74 10000 2.06 240 18:35 10.07.2022
1098 Clear 1 1022 69 10000 0 0 17:35 10.07.2022
1099 Clear 2 1022 64 10000 0 0 16:24 10.07.2022
1100 Clear 3 1022 56 10000 0 0 14:47 10.07.2022
1101 Clear 6 1022 49 10000 1.03 130 13:31 10.07.2022
1102 Clear 11 1022 35 10000 3.09 90 11:57 10.07.2022
1103 Clear 16 1021 25 10000 4.12 70 09:46 10.07.2022
1104 Clear 17 1021 23 10000 4.63 70 08:44 10.07.2022
1105 Clear 16 1021 27 10000 5.14 80 07:20 10.07.2022
1106 Clear -2 1023 93 10000 3.6 100 23:53 09.07.2022
1107 Clear 0 1022 86 10000 2.57 180 22:26 09.07.2022
1108 Clear -1 1022 93 10000 0 0 21:47 09.07.2022
1109 Clear 1 1023 80 10000 2.06 290 19:50 09.07.2022
1110 Clear 1 1024 80 10000 0 0 18:32 09.07.2022
1111 Clear 2 1024 80 10000 0 0 17:32 09.07.2022
1112 Clear 2 1024 75 10000 0 0 16:36 09.07.2022
1113 Clear 4 1024 75 10000 0 0 15:39 09.07.2022
1114 Clear 5 1024 65 10000 0 0 14:24 09.07.2022
1115 Clear 6 1024 61 10000 2.57 150 13:48 09.07.2022
1116 Clear 8 1023 57 10000 3.09 140 12:22 09.07.2022
1117 Clear 14 1022 38 10000 5.14 110 10:27 09.07.2022
1118 Clear 15 1021 33 10000 6.69 120 09:57 09.07.2022
1119 Clear 16 1021 33 10000 7.2 100 07:44 09.07.2022
1120 Clear 14 1024 44 10000 7.2 110 04:50 09.07.2022
1121 Clear -1 1024 93 10000 0 0 00:43 09.07.2022
1122 Clear 0 1022 93 10000 0 0 22:41 08.07.2022
1123 Clear 0 1022 86 10000 0 0 21:27 08.07.2022
1124 Clear 1 1022 80 10000 0 0 20:40 08.07.2022
1125 Clear 1 1022 86 10000 0 0 19:48 08.07.2022
1126 Clear 2 1023 80 10000 1.54 200 17:57 08.07.2022
1127 Clear 3 1023 75 10000 0 0 16:37 08.07.2022
1128 Clear 5 1023 70 10000 2.57 150 14:51 08.07.2022
1129 Clear 8 1022 57 10000 3.6 140 12:42 08.07.2022
1130 Clear 11 1021 43 10000 3.6 150 11:24 08.07.2022
1131 Clear 14 1020 35 10000 4.63 130 10:21 08.07.2022
1132 Clear 16 1020 29 10000 3.6 140 07:55 08.07.2022
1133 Clear 15 1021 31 10000 5.14 130 06:23 08.07.2022
1134 Clear -2 1023 80 10000 2.57 270 00:41 08.07.2022
1135 Clear -1 1022 69 10000 3.09 290 22:57 07.07.2022
1136 Clear -1 1022 64 10000 2.06 270 21:52 07.07.2022
1137 Clear -1 1022 64 10000 0 0 19:35 07.07.2022
1138 Clear 2 1022 55 10000 0 0 17:50 07.07.2022
1139 Clear 0 1023 59 10000 0 0 16:23 07.07.2022
1140 Clear 4 1023 45 10000 0 0 14:21 07.07.2022
1141 Clear 7 1022 33 10000 2.57 160 12:43 07.07.2022
1142 Clear 7 1022 33 10000 2.57 160 12:23 07.07.2022
1143 Clear 10 1021 27 10000 3.6 130 11:33 07.07.2022
1144 Clear 12 1021 24 10000 3.6 130 10:45 07.07.2022
1145 Clear 15 1021 21 10000 4.12 140 10:27 07.07.2022
1146 Clear 16 1020 20 10000 4.63 160 09:32 07.07.2022
1147 Clear 16 1021 25 10000 5.14 120 06:26 07.07.2022
1148 Clear 2 1025 47 10000 2.56 161 00:28 07.07.2022
1149 Clear 2 1025 47 10000 2.56 161 23:36 06.07.2022
1150 Clear -2 1022 69 10000 3.09 290 23:18 06.07.2022
1151 Clear -2 1022 69 10000 3.09 290 22:51 06.07.2022
1152 Clear -2 1022 69 10000 2.57 290 22:33 06.07.2022
1153 Clear -1 1022 69 10000 2.57 270 20:19 06.07.2022
1154 Clear 0 1022 64 10000 2.06 320 18:48 06.07.2022
1155 Clear 3 1022 52 10000 2.06 310 16:58 06.07.2022
1156 Clear 3 1023 48 10000 0 0 15:44 06.07.2022
1157 Clear 7 1022 33 10000 2.57 180 12:44 06.07.2022
1158 Clear 9 1021 31 10000 3.6 170 11:52 06.07.2022
1159 Clear 13 1021 22 10000 3.09 140 10:48 06.07.2022
1160 Clear 18 1020 16 10000 4.63 130 08:46 06.07.2022
1161 Clear 17 1020 20 10000 3.09 150 07:41 06.07.2022
1162 Clear 16 1021 23 10000 3.6 160 06:40 06.07.2022
1163 Clear -2 1022 74 10000 2.57 300 22:50 05.07.2022
1164 Clear -2 1022 80 10000 2.57 300 22:28 05.07.2022
1165 Clear -1 1022 74 10000 2.57 300 20:42 05.07.2022
1166 Clear -1 1022 74 10000 2.06 270 19:44 05.07.2022
1167 Clear -1 1022 69 10000 2.57 290 19:26 05.07.2022
1168 Clear -1 1022 69 10000 2.57 270 17:48 05.07.2022
1169 Clear 1 1022 64 10000 0 0 16:57 05.07.2022
1170 Clear 3 1022 56 10000 0 0 15:38 05.07.2022
1171 Clear 4 1022 52 10000 0 0 14:33 05.07.2022
1172 Clear 6 1021 45 10000 2.57 160 12:48 05.07.2022
1173 Clear 7 1021 42 10000 3.09 170 12:19 05.07.2022
1174 Clear 11 1020 32 10000 3.09 130 10:44 05.07.2022
1175 Clear 15 1020 26 10000 4.63 130 09:28 05.07.2022
1176 Clear 16 1020 27 10000 4.63 120 08:18 05.07.2022
1177 Clear 13 1021 33 10000 4.12 120 05:45 05.07.2022
1178 Clear 11 1023 43 10000 4.63 140 04:25 05.07.2022
1179 Clear -3 1023 93 10000 3.09 270 00:37 05.07.2022
1180 Clear -1 1023 86 10000 3.09 290 23:34 04.07.2022
1181 Clear -2 1022 93 10000 3.09 280 22:47 04.07.2022
1182 Clear -2 1022 93 10000 4.12 280 21:46 04.07.2022
1183 Clear -1 1023 80 10000 2.57 260 20:53 04.07.2022
1184 Clear -1 1023 80 10000 2.57 290 20:34 04.07.2022
1185 Clear 0 1023 80 10000 3.09 310 19:55 04.07.2022
1186 Clear -1 1023 86 10000 2.57 270 19:35 04.07.2022
1187 Clear 0 1023 74 10000 2.06 280 18:18 04.07.2022
1188 Clear 0 1024 74 10000 0 0 15:58 04.07.2022
1189 Clear 2 1024 69 10000 0 0 15:33 04.07.2022
1190 Clear 4 1023 60 10000 3.09 190 13:29 04.07.2022
1191 Clear 7 1023 53 10000 2.57 160 12:30 04.07.2022
1192 Clear 12 1022 35 10000 4.63 140 10:34 04.07.2022
1193 Clear 13 1022 33 10000 5.66 150 09:52 04.07.2022
1194 Clear 14 1022 30 10000 5.14 130 07:37 04.07.2022
1195 Clear 11 1024 46 10000 5.14 150 04:48 04.07.2022
1196 Clear -2 1024 93 10000 3.09 260 00:39 04.07.2022
1197 Clear -2 1024 93 10000 3.09 260 22:59 03.07.2022
1198 Clear -2 1023 93 10000 2.57 270 20:58 03.07.2022
1199 Clear -1 1023 86 10000 3.09 250 20:31 03.07.2022
1200 Clear 0 1024 80 10000 2.57 260 19:27 03.07.2022
1201 Clear 0 1024 80 10000 2.57 250 18:43 03.07.2022
1202 Clear 0 1024 80 10000 2.06 260 17:43 03.07.2022
1203 Clear 2 1024 69 10000 0 0 15:51 03.07.2022
1204 Clear 4 1024 60 10000 3.09 180 14:59 03.07.2022
1205 Clear 3 1024 65 10000 3.09 180 14:18 03.07.2022
1206 Clear 3 1024 65 10000 3.6 170 13:48 03.07.2022
1207 Clear 7 1023 53 10000 3.6 170 12:33 03.07.2022
1208 Clear 9 1022 43 10000 2.57 160 11:28 03.07.2022
1209 Clear 12 1022 35 10000 4.63 150 10:38 03.07.2022
1210 Clear 14 1022 30 10000 5.66 150 09:31 03.07.2022
1211 Clear 13 1022 38 10000 6.69 170 07:35 03.07.2022
1212 Clear 8 1026 61 10000 5.66 140 02:49 03.07.2022
1213 Clear -2 1026 93 10000 0 0 00:20 03.07.2022
1214 Clear -1 1025 93 10000 3.09 190 22:33 02.07.2022
1215 Clear -1 1024 93 10000 0 0 20:58 02.07.2022
1216 Clear 0 1024 86 10000 2.06 270 19:52 02.07.2022
1217 Clear 1 1025 80 10000 0 0 19:20 02.07.2022
1218 Clear 2 1025 80 10000 0 0 17:41 02.07.2022
1219 Clear 2 1025 80 10000 2.57 170 16:53 02.07.2022
1220 Clear 6 1025 61 10000 1.54 180 14:31 02.07.2022
1221 Clear 7 1025 57 10000 3.09 140 12:21 02.07.2022
1222 Clear 11 1024 46 10000 5.14 130 11:26 02.07.2022
1223 Clear 13 1024 38 10000 6.17 130 10:37 02.07.2022
1224 Clear 15 1023 36 10000 6.69 140 08:55 02.07.2022
1225 Clear 14 1024 38 10000 7.2 140 08:20 02.07.2022
1226 Clear 15 1024 38 10000 6.69 140 06:59 02.07.2022
1227 Clear 9 1027 71 10000 6.17 120 01:53 02.07.2022
1228 Clear 6 1026 81 10000 3.6 130 23:56 01.07.2022
1229 Clear 9 1025 66 10000 4.63 130 22:41 01.07.2022
1230 Clear 10 1026 62 10000 6.17 120 21:47 01.07.2022
1231 Clear 10 1026 62 10000 6.17 130 21:27 01.07.2022
1232 Clear 10 1026 62 10000 4.63 130 20:38 01.07.2022
1233 Clear 10 1026 62 10000 3.6 130 19:42 01.07.2022
1234 Clear 10 1026 62 10000 3.6 140 17:53 01.07.2022
1235 Clear 9 1027 66 10000 3.09 170 15:50 01.07.2022
1236 Clear 7 1027 70 10000 2.57 170 13:54 01.07.2022
1237 Clear 11 1026 50 10000 3.6 140 11:56 01.07.2022
1238 Clear 14 1024 38 10000 6.17 120 10:20 01.07.2022
1239 Clear 14 1024 38 10000 6.17 120 10:20 01.07.2022
1240 Clear 16 1024 36 10000 7.2 150 09:31 01.07.2022
1241 Clear 13 1027 58 10000 7.72 130 03:42 01.07.2022
1242 Clouds 4 1026 93 10000 2.57 180 00:26 01.07.2022
1243 Clouds 5 1025 87 10000 3.09 190 22:58 30.06.2022
1244 Clouds 6 1025 81 10000 2.06 190 22:33 30.06.2022
1245 Clouds 9 1025 71 10000 3.09 150 21:59 30.06.2022
1246 Clouds 9 1025 71 10000 4.63 160 21:41 30.06.2022
1247 Clouds 10 1025 71 10000 4.63 160 20:29 30.06.2022
1248 Clouds 10 1026 71 10000 4.12 150 19:54 30.06.2022
1249 Clouds 10 1025 66 10000 4.12 150 19:19 30.06.2022
1250 Clouds 11 1026 62 10000 5.14 150 18:42 30.06.2022
1251 Clouds 11 1026 66 10000 4.63 150 17:38 30.06.2022
1252 Clouds 10 1026 66 10000 3.6 150 16:48 30.06.2022
1253 Clouds 9 1026 71 10000 3.6 170 15:38 30.06.2022
1254 Clouds 9 1025 61 10000 3.09 170 13:34 30.06.2022
1255 Clouds 11 1024 54 10000 3.6 150 12:35 30.06.2022
1256 Clouds 12 1024 47 10000 3.6 130 11:37 30.06.2022
1257 Clear 15 1022 31 10000 6.69 140 09:54 30.06.2022
1258 Clear 16 1022 31 10000 7.2 150 09:34 30.06.2022
1259 Clear 16 1022 29 10000 6.17 150 07:51 30.06.2022
1260 Clear 16 1024 23 10000 6.17 160 05:57 30.06.2022
1261 Clear 2 1024 80 10000 2.06 240 00:32 30.06.2022
1262 Clear 2 1023 80 10000 2.57 260 23:21 29.06.2022
1263 Clear 2 1023 75 10000 2.57 210 22:39 29.06.2022
1264 Clear 3 1023 70 10000 2.06 250 21:34 29.06.2022
1265 Clear 3 1023 70 10000 0 0 20:33 29.06.2022
1266 Clouds 4 1023 65 10000 0 0 19:37 29.06.2022
1267 Clouds 7 1023 53 10000 3.09 180 17:43 29.06.2022
1268 Clouds 9 1023 46 10000 2.57 150 16:37 29.06.2022
1269 Clouds 12 1023 37 10000 3.6 130 14:56 29.06.2022
1270 Clouds 12 1021 40 10000 4.12 150 12:40 29.06.2022
1271 Clouds 15 1020 31 10000 4.12 140 10:56 29.06.2022
1272 Clouds 18 1019 27 10000 6.17 130 09:32 29.06.2022
1273 Clear 18 1019 29 10000 4.63 130 07:39 29.06.2022
1274 Clear 16 1020 28 10000 5.31 120 04:51 29.06.2022
1275 Clouds 11 1022 54 10000 3.09 150 00:57 29.06.2022
1276 Clouds 11 1022 54 10000 2.57 170 00:35 29.06.2022
1277 Clouds 11 1022 54 10000 3.09 200 22:53 28.06.2022
1278 Clouds 11 1021 54 10000 2.57 210 22:24 28.06.2022
1279 Clouds 11 1020 54 10000 3.6 200 21:54 28.06.2022
1280 Clouds 10 1020 57 10000 3.09 170 21:32 28.06.2022
1281 Clouds 11 1021 54 10000 2.57 160 20:34 28.06.2022
1282 Clouds 11 1021 58 10000 0 0 19:33 28.06.2022
1283 Clouds 11 1021 58 10000 1.03 150 18:45 28.06.2022
1284 Clouds 11 1021 58 10000 1.03 150 18:45 28.06.2022
1285 Clouds 11 1021 58 10000 4.12 120 17:39 28.06.2022
1286 Clouds 10 1022 62 10000 2.57 110 15:57 28.06.2022
1287 Clouds 10 1022 57 10000 0 0 15:21 28.06.2022
1288 Clouds 11 1023 54 10000 3.09 110 14:20 28.06.2022
1289 Clouds 11 1022 54 10000 2.57 120 13:50 28.06.2022
1290 Clouds 12 1023 50 10000 3.09 90 12:54 28.06.2022
1291 Clouds 13 1023 47 10000 3.09 120 11:18 28.06.2022
1292 Clouds 14 1022 41 10000 3.09 100 09:28 28.06.2022
1293 Clouds 14 1022 41 10000 3.6 60 08:43 28.06.2022
1294 Clouds 15 1022 38 10000 4.63 100 07:42 28.06.2022
1295 Clouds 14 1023 44 10000 4.63 110 05:58 28.06.2022
1296 Clouds 9 1025 61 10000 2.06 80 00:00 28.06.2022
1297 Clouds 10 1025 57 10000 3.09 80 23:36 27.06.2022
1298 Clouds 10 1025 57 10000 2.57 120 22:51 27.06.2022
1299 Clouds 11 1025 54 10000 4.63 120 21:33 27.06.2022
1300 Clouds 11 1025 54 10000 4.12 120 20:48 27.06.2022
1301 Clouds 12 1026 50 10000 4.12 130 18:58 27.06.2022
1302 Clouds 12 1026 54 10000 4.12 120 18:19 27.06.2022
1303 Clouds 13 1026 47 10000 5.14 120 16:19 27.06.2022
1304 Clouds 12 1027 54 10000 3.6 130 14:44 27.06.2022
1305 Clouds 14 1026 47 10000 3.6 130 13:25 27.06.2022
1306 Clouds 14 1026 47 10000 4.12 130 12:52 27.06.2022
1307 Clouds 17 1025 39 10000 7.2 110 10:22 27.06.2022
1308 Clouds 20 1025 32 10000 8.23 120 08:48 27.06.2022
1309 Clouds 18 1025 36 10000 8.23 120 08:19 27.06.2022
1310 Clouds 19 1026 34 10000 8.75 90 06:38 27.06.2022
1311 Clouds 11 1029 71 10000 2.57 90 02:23 27.06.2022
1312 Clouds 6 1028 87 10000 2.57 150 23:49 26.06.2022
1313 Clouds 5 1027 87 10000 2.57 110 21:58 26.06.2022
1314 Clouds 5 1027 87 10000 2.57 110 20:34 26.06.2022
1315 Clouds 5 1027 87 10000 2.06 140 19:23 26.06.2022
1316 Clouds 7 1027 81 10000 2.57 170 18:24 26.06.2022
1317 Clouds 7 1027 81 10000 3.6 150 15:53 26.06.2022
1318 Clouds 8 1027 71 10000 3.6 170 14:34 26.06.2022
1319 Clouds 10 1026 62 10000 2.57 150 13:30 26.06.2022
1320 Clouds 10 1026 62 10000 3.09 130 12:52 26.06.2022
1321 Clouds 15 1025 44 10000 5.66 130 11:21 26.06.2022
1322 Clouds 17 1024 36 10000 8.23 120 10:23 26.06.2022
1323 Clear 18 1023 32 10000 8.23 140 08:46 26.06.2022
1324 Clouds 19 1024 26 10000 8.23 120 07:23 26.06.2022
1325 Clear 5 1026 81 10000 2.57 270 00:48 26.06.2022
1326 Clear 4 1025 81 10000 2.57 280 00:20 26.06.2022
1327 Clear 2 1024 87 10000 2.57 270 23:33 25.06.2022
1328 Clear 4 1024 81 10000 2.57 250 22:51 25.06.2022
1329 Clear 3 1024 87 10000 2.57 270 22:26 25.06.2022
1330 Clear 3 1023 81 10000 2.06 250 21:23 25.06.2022
1331 Clear 4 1023 81 10000 0 0 20:59 25.06.2022
1332 Clouds 5 1023 75 10000 0 0 20:25 25.06.2022
1333 Clouds 5 1023 75 10000 0 0 18:42 25.06.2022
1334 Clouds 7 1023 65 10000 0.51 330 17:28 25.06.2022
1335 Clouds 7 1023 61 10000 0.51 290 16:31 25.06.2022
1336 Clouds 8 1023 57 10000 0 0 14:47 25.06.2022
1337 Clouds 12 1022 43 10000 3.09 160 12:51 25.06.2022
1338 Clouds 12 1022 43 10000 3.6 150 12:32 25.06.2022
1339 Clouds 12 1022 43 10000 3.6 150 12:32 25.06.2022
1340 Clouds 21 1020 23 10000 6.69 130 09:35 25.06.2022
1341 Clouds 21 1020 23 10000 6.69 140 08:55 25.06.2022
1342 Clouds 21 1019 23 10000 5.66 130 08:25 25.06.2022
1343 Clouds 21 1020 26 10000 6.17 100 06:36 25.06.2022
1344 Clouds 10 1022 66 10000 0 0 01:31 25.06.2022
1345 Clouds 4 1021 81 10000 2.57 300 23:58 24.06.2022
1346 Clouds 4 1021 81 10000 0 0 22:29 24.06.2022
1347 Clouds 6 1020 75 10000 2.57 330 21:28 24.06.2022
1348 Clouds 5 1020 75 10000 2.06 290 20:24 24.06.2022
1349 Clouds 5 1020 75 10000 2.57 300 19:39 24.06.2022
1350 Clouds 5 1020 75 10000 2.57 300 19:18 24.06.2022
1351 Clouds 5 1020 75 10000 1.54 290 18:44 24.06.2022
1352 Clouds 6 1020 70 10000 1.54 290 18:24 24.06.2022
1353 Clear 7 1021 65 10000 0 0 16:47 24.06.2022
1354 Clear 9 1021 57 10000 0 0 14:50 24.06.2022
1355 Clear 9 1021 57 10000 1.54 120 14:23 24.06.2022
1356 Clear 12 1021 47 10000 0 0 13:41 24.06.2022
1357 Clear 16 1019 33 10000 3.6 140 11:41 24.06.2022
1358 Clear 21 1019 23 10000 2.57 130 10:36 24.06.2022
1359 Clear 23 1018 20 10000 3.09 130 09:42 24.06.2022
1360 Clear 23 1018 20 10000 3.6 150 08:54 24.06.2022
1361 Clear 23 1018 18 10000 2.06 110 07:57 24.06.2022
1362 Clear 23 1019 20 10000 3.6 150 06:43 24.06.2022
1363 Clear 23 1020 21 10000 3.6 170 06:20 24.06.2022
1364 Clear 21 1022 26 10000 0 0 04:41 24.06.2022
1365 Clear 3 1021 87 10000 0 0 23:24 23.06.2022
1366 Clear 4 1021 87 10000 1.54 320 22:42 23.06.2022
1367 Clear 5 1022 81 10000 2.06 330 20:59 23.06.2022
1368 Clear 5 1022 87 10000 0 0 20:36 23.06.2022
1369 Clear 6 1022 81 10000 0 0 19:40 23.06.2022
1370 Clear 5 1023 81 10000 0 0 17:53 23.06.2022
1371 Clear 7 1023 76 10000 2.06 330 17:33 23.06.2022
1372 Clear 8 1023 71 10000 2.06 280 16:23 23.06.2022
1373 Clear 9 1023 66 10000 1.54 120 15:25 23.06.2022
1374 Clear 11 1022 58 10000 0 0 13:46 23.06.2022
1375 Clear 17 1021 39 10000 3.09 130 11:27 23.06.2022
1376 Clear 21 1004 32 10000 3.09 130 10:40 23.06.2022
1377 Clear 21 1004 32 10000 3.6 130 09:18 23.06.2022
1378 Clear 17 1026 45 10000 5.66 70 03:40 23.06.2022
1379 Clear 2 1026 93 10000 0 0 00:27 23.06.2022
1380 Clear 3 1026 93 10000 2.06 280 23:41 22.06.2022
1381 Clear 4 1026 93 10000 2.57 270 22:48 22.06.2022
1382 Clear 4 1026 93 10000 2.57 270 22:48 22.06.2022
1383 Clear 4 1026 87 10000 3.09 310 21:22 22.06.2022
1384 Clear 4 1026 87 10000 2.06 270 20:45 22.06.2022
1385 Clear 5 1026 87 10000 2.57 300 19:58 22.06.2022
1386 Clear 5 1026 87 10000 0 0 18:49 22.06.2022
1387 Clear 6 1026 75 10000 0 0 17:28 22.06.2022
1388 Clear 7 1026 81 10000 0 0 16:33 22.06.2022
1389 Clear 10 1026 66 10000 0 0 15:27 22.06.2022
1390 Clear 10 1026 66 10000 2.06 130 14:21 22.06.2022
1391 Clear 10 1026 66 10000 2.57 140 13:41 22.06.2022
1392 Clear 10 1026 66 10000 2.57 140 13:23 22.06.2022
1393 Clear 13 1025 54 10000 2.57 140 11:50 22.06.2022
1394 Clear 16 1025 44 10000 3.6 140 10:57 22.06.2022
1395 Clear 21 1004 32 10000 4.63 130 10:19 22.06.2022
1396 Clear 21 1004 32 10000 5.66 100 08:28 22.06.2022
1397 Clear 21 1004 32 10000 5.66 130 05:38 22.06.2022
1398 Clear 8 1027 87 10000 0 0 01:39 22.06.2022
1399 Clear 4 1026 93 10000 0 0 00:29 22.06.2022
1400 Clear 5 1025 87 10000 0.51 250 22:37 21.06.2022
1401 Clear 7 1025 81 10000 2.57 310 19:57 21.06.2022
1402 Clear 7 1025 81 10000 0 0 18:36 21.06.2022
1403 Clear 7 1025 81 10000 0 0 17:39 21.06.2022
1404 Clear 11 1025 62 10000 0 0 14:22 21.06.2022
1405 Clear 15 1023 47 10000 3.09 140 11:49 21.06.2022
1406 Clear 21 1004 32 10000 4.63 120 10:18 21.06.2022
1407 Clear 21 1004 32 10000 6.69 120 08:48 21.06.2022
1408 Clear 21 1004 32 10000 5.66 140 07:23 21.06.2022
1409 Clear 13 1023 58 10000 2.06 250 01:43 21.06.2022
1410 Clear 5 1021 87 10000 2.06 240 23:26 20.06.2022
1411 Clear 7 1020 81 10000 1.54 320 21:55 20.06.2022
1412 Clear 7 1020 81 10000 2.06 320 21:30 20.06.2022
1413 Clear 8 1020 76 10000 2.57 220 19:44 20.06.2022
1414 Clear 8 1020 76 10000 0 0 18:48 20.06.2022
1415 Clear 9 1020 76 10000 0.51 140 18:23 20.06.2022
1416 Clear 9 1020 76 10000 0 0 17:36 20.06.2022
1417 Clear 10 1020 71 10000 0 0 15:58 20.06.2022
1418 Clear 14 1019 54 10000 2.06 100 13:34 20.06.2022
1419 Clear 21 1004 32 10000 3.6 120 11:25 20.06.2022
1420 Clear 21 1004 32 10000 4.12 130 09:47 20.06.2022
1421 Clear 25 1016 22 10000 5.14 110 08:45 20.06.2022
1422 Clear 25 1017 22 10000 2.06 110 06:49 20.06.2022
1423 Clear 21 1004 32 10000 0 0 03:20 20.06.2022
1424 Clouds 6 1018 87 10000 0 0 00:37 20.06.2022
1425 Clouds 7 1018 81 10000 0 0 23:24 19.06.2022
1426 Clouds 8 1017 76 10000 2.06 320 22:18 19.06.2022
1427 Clouds 8 1017 81 10000 2.06 330 21:41 19.06.2022
1428 Clouds 8 1018 76 10000 1.54 340 20:46 19.06.2022
1429 Clouds 8 1018 81 10000 0 0 19:48 19.06.2022
1430 Clouds 8 1018 81 10000 0 0 19:23 19.06.2022
1431 Clouds 10 1018 71 10000 0 0 18:31 19.06.2022
1432 Clouds 11 1018 66 10000 2.57 330 17:34 19.06.2022
1433 Clouds 11 1019 66 10000 1.54 310 16:38 19.06.2022
1434 Clouds 10 1019 71 10000 1.54 220 15:44 19.06.2022
1435 Clouds 11 1019 66 10000 0 0 15:26 19.06.2022
1436 Clouds 12 1018 62 10000 0 0 14:30 19.06.2022
1437 Clouds 13 1018 54 10000 0 0 13:43 19.06.2022
1438 Clouds 17 1017 39 10000 0 0 11:53 19.06.2022
1439 Clouds 21 1004 32 10000 2.57 80 10:51 19.06.2022
1440 Clouds 21 1004 32 10000 3.6 160 08:55 19.06.2022
1441 Clouds 21 1004 32 10000 3.6 180 08:30 19.06.2022
1442 Clouds 21 1004 32 10000 1.54 230 06:41 19.06.2022
1443 Clouds 19 1020 32 10000 2.06 20 03:19 19.06.2022
1444 Clouds 9 1019 71 10000 0 0 00:27 19.06.2022
1445 Clouds 10 1019 66 10000 1.54 100 23:37 18.06.2022
1446 Clouds 10 1019 66 10000 1.54 100 23:19 18.06.2022
1447 Clouds 13 1018 50 10000 0 0 21:54 18.06.2022
1448 Clouds 12 1019 54 10000 2.57 50 20:50 18.06.2022
1449 Clouds 10 1019 71 10000 3.09 40 19:50 18.06.2022
1450 Clouds 10 1020 71 10000 0 0 18:54 18.06.2022
1451 Clouds 10 1020 71 10000 0 0 18:30 18.06.2022
1452 Clouds 10 1020 66 10000 0 0 17:28 18.06.2022
1453 Clouds 12 1020 58 10000 2.57 60 15:39 18.06.2022
1454 Clouds 13 1020 54 10000 1.54 80 14:50 18.06.2022
1455 Clouds 13 1020 54 10000 0 0 13:54 18.06.2022
1456 Clouds 16 1019 41 10000 3.09 110 12:25 18.06.2022
1457 Clouds 17 1018 36 10000 3.6 100 10:59 18.06.2022
1458 Clouds 21 1004 32 10000 5.14 100 09:29 18.06.2022
1459 Clouds 21 1004 32 10000 5.14 110 08:37 18.06.2022
1460 Clouds 21 1004 32 10000 3.6 120 07:33 18.06.2022
1461 Clear 19 1021 37 10000 6.69 70 04:43 18.06.2022
1462 Clear 9 1022 81 10000 0.51 30 01:27 18.06.2022
1463 Clear 6 1022 93 10000 0 0 00:55 18.06.2022
1464 Clear 4 1022 93 10000 0 0 00:23 18.06.2022
1465 Clear 5 1021 87 10000 0 0 23:33 17.06.2022
1466 Clear 5 1020 93 10000 0 0 21:57 17.06.2022
1467 Clouds 6 1021 87 10000 0 0 20:29 17.06.2022
1468 Clouds 6 1022 87 10000 0 0 19:20 17.06.2022
1469 Clouds 7 1021 81 10000 0 0 17:47 17.06.2022
1470 Clouds 7 1021 81 10000 0 0 16:44 17.06.2022
1471 Clouds 8 1022 81 10000 0 0 16:21 17.06.2022
1472 Clouds 9 1022 71 10000 0 0 15:37 17.06.2022
1473 Clouds 11 1022 66 10000 0 0 14:23 17.06.2022
1474 Clouds 11 1022 62 10000 0 0 13:57 17.06.2022
1475 Clouds 12 1021 58 10000 0 0 13:37 17.06.2022
1476 Clear 13 1021 54 10000 3.09 130 12:20 17.06.2022
1477 Clear 15 1020 47 10000 2.57 110 11:49 17.06.2022
1478 Clear 16 1020 44 10000 3.6 120 11:30 17.06.2022
1479 Clear 21 1004 32 10000 4.63 110 08:45 17.06.2022
1480 Clear 21 1004 32 10000 5.66 100 08:24 17.06.2022
1481 Clear 21 1004 32 10000 5.66 110 06:35 17.06.2022
1482 Clear 18 1023 39 10000 3.09 90 03:42 17.06.2022
1483 Clear 11 1023 71 10000 0 0 01:55 17.06.2022
1484 Clear 6 1021 87 10000 0 0 23:34 16.06.2022
1485 Clear 5 1021 93 10000 0 0 22:40 16.06.2022
1486 Clouds 6 1020 87 10000 0 0 21:21 16.06.2022
1487 Clouds 7 1021 81 10000 0 0 20:50 16.06.2022
1488 Clouds 7 1021 87 10000 0 0 20:21 16.06.2022
1489 Clouds 8 1021 81 10000 0 0 18:51 16.06.2022
1490 Clouds 9 1021 76 10000 0 0 17:50 16.06.2022
1491 Clouds 9 1021 76 10000 0 0 17:27 16.06.2022
1492 Clouds 9 1022 76 10000 0 0 16:20 16.06.2022
1493 Clouds 10 1022 71 10000 0 0 15:21 16.06.2022
1494 Clouds 12 1022 62 10000 0 0 14:27 16.06.2022
1495 Clear 14 1022 51 10000 3.09 120 12:53 16.06.2022
1496 Clear 15 1021 51 10000 3.6 120 12:34 16.06.2022
1497 Clear 16 1021 44 10000 3.6 130 11:48 16.06.2022
1498 Clear 21 1004 32 10000 4.63 120 10:41 16.06.2022
1499 Clear 21 1004 32 10000 3.6 150 09:43 16.06.2022
1500 Clear 21 1004 32 10000 4.63 160 08:57 16.06.2022
1501 Clear 21 1004 32 10000 5.14 100 07:41 16.06.2022
1502 Clear 21 1004 32 10000 4.63 120 05:51 16.06.2022
1503 Clear 21 1004 32 10000 5.14 80 03:56 16.06.2022
1504 Clouds 13 1024 67 10000 0 0 01:52 16.06.2022
1505 Clouds 10 1023 76 10000 0 0 01:22 16.06.2022
1506 Clouds 6 1022 87 10000 2.06 300 00:22 16.06.2022
1507 Clouds 5 1022 87 10000 2.06 330 22:53 15.06.2022
1508 Clouds 6 1022 81 10000 0 0 21:37 15.06.2022
1509 Clear 6 1022 87 10000 0 0 20:59 15.06.2022
1510 Clear 6 1022 87 10000 0 0 20:36 15.06.2022
1511 Clear 7 1022 81 10000 0 0 19:57 15.06.2022
1512 Clear 8 1022 76 10000 0.51 350 18:37 15.06.2022
1513 Clear 10 1022 66 10000 2.57 350 17:46 15.06.2022
1514 Clear 10 1022 66 10000 0 0 16:27 15.06.2022
1515 Clear 11 1022 62 10000 0 0 15:19 15.06.2022
1516 Clouds 13 1022 54 10000 0 0 13:29 15.06.2022
1517 Clouds 12 1021 54 10000 2.57 160 12:47 15.06.2022
1518 Clouds 21 1004 32 10000 3.09 150 11:25 15.06.2022
1519 Clouds 21 1004 32 10000 3.6 140 10:22 15.06.2022
1520 Clear 21 1004 32 10000 5.66 160 08:59 15.06.2022
1521 Clear 21 1004 32 10000 5.14 170 07:36 15.06.2022
1522 Clear 21 1004 32 10000 1.54 180 05:36 15.06.2022
1523 Clear 21 1004 32 10000 1.03 280 02:47 15.06.2022
1524 Clear 11 1022 66 10000 0 0 01:36 15.06.2022
1525 Clear 5 1021 81 10000 0 0 00:19 15.06.2022
1526 Clear 5 1021 81 10000 0 0 23:38 14.06.2022
1527 Clear 5 1021 81 10000 0 0 22:46 14.06.2022
1528 Clear 6 1020 81 10000 3.6 280 21:43 14.06.2022
1529 Clear 6 1020 81 10000 0 0 20:58 14.06.2022
1530 Clear 6 1021 81 10000 0 0 20:38 14.06.2022
1531 Clear 8 1021 71 10000 0 0 19:47 14.06.2022
1532 Clear 8 1021 71 10000 2.06 280 18:39 14.06.2022
1533 Clear 7 1021 76 10000 0 0 16:53 14.06.2022
1534 Clear 8 1021 71 10000 0 0 16:34 14.06.2022
1535 Clear 10 1021 62 10000 0 0 15:41 14.06.2022
1536 Clear 11 1021 58 10000 3.09 10 14:53 14.06.2022
1537 Clear 11 1021 62 10000 0.51 310 13:59 14.06.2022
1538 Clear 13 1020 50 10000 0 0 12:59 14.06.2022
1539 Clear 17 1020 34 10000 3.09 130 11:56 14.06.2022
1540 Clear 21 1004 32 10000 2.57 140 10:51 14.06.2022
1541 Clear 21 1004 32 10000 3.09 170 10:28 14.06.2022
1542 Clear 21 1004 32 10000 2.57 180 09:18 14.06.2022
1543 Clear 21 1004 32 10000 2.57 130 08:24 14.06.2022
1544 Clear 21 1004 32 10000 2.06 210 06:20 14.06.2022
1545 Clear 20 1021 30 10000 0 0 03:45 14.06.2022
1546 Clear 8 1021 76 10000 0 0 01:37 14.06.2022
1547 Clear 4 1021 87 10000 0 0 00:21 14.06.2022
1548 Clear 3 1020 87 10000 0 0 22:39 13.06.2022
1549 Clear 3 1020 87 10000 0 0 22:19 13.06.2022
1550 Clear 3 1020 87 10000 0 0 21:24 13.06.2022
1551 Clear 4 1020 81 10000 0 0 19:48 13.06.2022
1552 Clear 5 1021 75 10000 0 0 18:52 13.06.2022
1553 Clear 5 1021 81 10000 0 0 17:52 13.06.2022
1554 Clear 6 1020 75 10000 0 0 17:21 13.06.2022
1555 Clouds 8 1021 66 10000 0 0 16:22 13.06.2022
1556 Clouds 8 1020 66 10000 3.09 50 14:48 13.06.2022
1557 Clouds 9 1021 57 10000 2.57 40 14:18 13.06.2022
1558 Clouds 12 1020 37 10000 2.57 100 13:23 13.06.2022
1559 Clouds 14 1020 33 10000 2.57 100 11:50 13.06.2022
1560 Clouds 21 1004 32 10000 3.09 130 10:36 13.06.2022
1561 Clear 21 1004 32 10000 3.09 120 09:42 13.06.2022
1562 Clear 21 1004 32 10000 2.57 130 08:30 13.06.2022
1563 Clear 21 1004 32 10000 3.09 90 06:34 13.06.2022
1564 Clear 17 1022 42 10000 4.63 70 04:23 13.06.2022
1565 Clear 9 1023 81 10000 0 0 01:44 13.06.2022
1566 Clear 6 1023 87 10000 0 0 01:18 13.06.2022
1567 Clear 2 1022 100 10000 0 0 23:37 12.06.2022
1568 Clear 2 1021 93 10000 0 0 22:29 12.06.2022
1569 Clear 2 1021 93 10000 0 0 21:41 12.06.2022
1570 Clear 3 1021 93 10000 0 0 20:43 12.06.2022
1571 Clear 4 1022 87 10000 1.54 270 19:42 12.06.2022
1572 Clear 4 1022 87 10000 0 0 18:46 12.06.2022
1573 Clear 5 1022 81 10000 0 0 16:57 12.06.2022
1574 Clear 6 1022 81 10000 0 0 15:33 12.06.2022
1575 Clear 7 1022 70 10000 0 0 14:41 12.06.2022
1576 Clear 7 1022 70 10000 0 0 14:18 12.06.2022
1577 Clear 8 1022 66 10000 0 0 13:43 12.06.2022
1578 Clear 11 1021 54 10000 3.09 130 11:58 12.06.2022
1579 Clear 14 1020 41 10000 3.09 80 10:46 12.06.2022
1580 Clear 21 1004 32 10000 4.63 100 09:36 12.06.2022
1581 Clear 21 1004 32 10000 4.12 120 08:49 12.06.2022
1582 Clear 21 1004 32 10000 4.63 90 07:47 12.06.2022
1583 Clear 17 1022 36 10000 5.14 110 05:51 12.06.2022
1584 Clear 14 1024 51 10000 5.66 110 03:38 12.06.2022
1585 Clear 14 1024 51 10000 5.66 110 03:38 12.06.2022
1586 Clouds 11 1024 62 10000 4.12 110 01:44 12.06.2022
1587 Clouds 6 1023 93 10000 2.57 190 00:59 12.06.2022
1588 Clouds 5 1023 93 10000 0.51 200 00:28 12.06.2022
1589 Clouds 5 1023 93 10000 0 0 23:56 11.06.2022
1590 Clouds 7 1022 81 10000 2.06 170 22:49 11.06.2022
1591 Clouds 8 1022 81 10000 2.57 170 22:29 11.06.2022
1592 Clouds 9 1023 76 10000 2.06 180 20:55 11.06.2022
1593 Clouds 9 1023 76 10000 0 0 20:24 11.06.2022
1594 Clouds 10 1022 66 10000 2.57 150 19:32 11.06.2022
1595 Clouds 10 1022 66 10000 2.57 100 18:36 11.06.2022
1596 Clouds 10 1022 66 10000 3.09 130 17:52 11.06.2022
1597 Clouds 10 1022 66 10000 3.6 120 17:29 11.06.2022
1598 Clouds 9 1023 71 10000 3.09 130 16:59 11.06.2022
1599 Clouds 10 1023 66 10000 2.06 150 16:38 11.06.2022
1600 Clouds 10 1023 66 10000 3.09 120 15:45 11.06.2022
1601 Clouds 10 1023 66 10000 3.09 120 15:45 11.06.2022
1602 Clouds 10 1024 62 10000 3.09 120 13:54 11.06.2022
1603 Clouds 10 1024 62 10000 3.09 160 13:25 11.06.2022
1604 Clouds 12 1023 50 10000 3.6 120 10:58 11.06.2022
1605 Clouds 12 1022 50 10000 4.12 110 10:22 11.06.2022
1606 Rain 12 1022 47 10000 4.63 130 09:38 11.06.2022
1607 Clouds 13 1022 47 10000 3.6 100 07:52 11.06.2022
1608 Clouds 13 1022 47 10000 4.12 100 06:31 11.06.2022
1609 Clouds 12 1023 50 10000 6.69 90 05:21 11.06.2022
1610 Clouds 6 1025 87 10000 2.06 90 01:53 11.06.2022
1611 Clouds 5 1024 87 10000 0 0 01:33 11.06.2022
1612 Clouds 3 1024 93 10000 0 0 00:22 11.06.2022
1613 Clouds 2 1023 93 10000 0 0 22:33 10.06.2022
1614 Clouds 2 1022 93 10000 0 0 21:53 10.06.2022
1615 Clouds 3 1023 93 10000 0 0 20:43 10.06.2022
1616 Clouds 3 1023 93 10000 0 0 20:22 10.06.2022
1617 Clouds 3 1023 93 10000 0 0 19:48 10.06.2022
1618 Clouds 3 1023 87 10000 0 0 19:18 10.06.2022
1619 Clouds 4 1023 87 10000 0 0 18:19 10.06.2022
1620 Clouds 4 1024 81 10000 0 0 17:36 10.06.2022
1621 Clouds 5 1024 81 10000 0 0 16:55 10.06.2022
1622 Clouds 5 1024 81 10000 0 0 15:47 10.06.2022
1623 Clouds 7 1024 70 10000 2.06 90 14:57 10.06.2022
1624 Clouds 7 1024 70 10000 2.57 120 13:44 10.06.2022
1625 Clouds 8 1023 66 10000 3.09 120 12:28 10.06.2022
1626 Clouds 11 1022 50 10000 3.6 120 11:40 10.06.2022
1627 Clouds 13 1022 41 10000 5.14 120 10:37 10.06.2022
1628 Clouds 14 1022 41 10000 4.63 130 09:40 10.06.2022
1629 Clouds 15 1022 38 10000 5.66 120 08:23 10.06.2022
1630 Clouds 15 1022 41 10000 5.66 130 06:51 10.06.2022
1631 Clouds 14 1023 41 10000 5.66 140 06:32 10.06.2022
1632 Clouds 14 1024 44 10000 5.66 100 05:35 10.06.2022
1633 Clouds 9 1026 76 10000 3.6 100 02:54 10.06.2022
1634 Clouds 4 1026 93 10000 0 0 01:37 10.06.2022
1635 Clouds 0 1024 93 10000 0 0 23:58 09.06.2022
1636 Clouds 1 1024 93 10000 0 0 22:56 09.06.2022
1637 Clouds 1 1024 93 10000 0 0 21:46 09.06.2022
1638 Clouds 1 1024 100 10000 0 0 21:28 09.06.2022
1639 Clouds 1 1023 93 10000 0 0 20:40 09.06.2022
1640 Clouds 2 1023 93 10000 0 0 19:51 09.06.2022
1641 Clouds 3 1024 93 10000 2.57 310 18:43 09.06.2022
1642 Clouds 3 1024 87 10000 0.51 290 17:56 09.06.2022
1643 Clouds 4 1024 87 10000 0 0 16:38 09.06.2022
1644 Clouds 4 1024 87 10000 2.06 170 15:42 09.06.2022
1645 Clouds 5 1024 81 10000 3.09 150 14:34 09.06.2022
1646 Clear 6 1024 75 10000 3.09 110 13:46 09.06.2022
1647 Clear 7 1024 76 10000 2.57 120 13:25 09.06.2022
1648 Clear 10 1023 62 10000 3.6 130 11:52 09.06.2022
1649 Clear 13 1022 47 10000 3.6 130 10:36 09.06.2022
1650 Clear 15 1022 44 10000 5.66 150 09:40 09.06.2022
1651 Clear 15 1022 44 10000 5.66 150 09:21 09.06.2022
1652 Clear 14 1022 47 10000 5.14 130 07:29 09.06.2022
1653 Clouds 13 1025 54 10000 6.69 90 04:47 09.06.2022
1654 Clouds 2 1025 100 10000 0 0 00:36 09.06.2022
1655 Clouds 1 1024 93 10000 0 0 23:23 08.06.2022
1656 Clear 2 1024 93 10000 0 0 22:44 08.06.2022
1657 Clear 2 1023 93 10000 0 0 22:24 08.06.2022
1658 Clear 2 1023 100 10000 0 0 21:40 08.06.2022
1659 Clouds 3 1023 93 10000 0 0 20:25 08.06.2022
1660 Clear 3 1023 100 10000 0 0 19:46 08.06.2022
1661 Clear 3 1023 93 10000 0 0 18:48 08.06.2022
1662 Clear 4 1023 87 10000 0 0 17:48 08.06.2022
1663 Clear 5 1024 87 10000 0 0 16:18 08.06.2022
1664 Clouds 6 1024 81 10000 2.57 140 14:46 08.06.2022
1665 Clear 8 1024 71 10000 2.06 130 12:55 08.06.2022
1666 Clear 10 1023 57 10000 3.6 130 11:44 08.06.2022
1667 Clear 11 1022 54 10000 3.6 130 11:19 08.06.2022
1668 Clear 15 1022 38 10000 6.17 130 09:45 08.06.2022
1669 Clear 15 1022 41 10000 6.17 120 09:18 08.06.2022
1670 Clear 15 1022 41 10000 6.17 100 07:22 08.06.2022
1671 Clear 14 1024 44 10000 6.69 120 04:51 08.06.2022
1672 Clear 10 1025 71 10000 0.51 70 02:19 08.06.2022
1673 Clear 2 1024 93 10000 0 0 23:41 07.06.2022
1674 Clear 2 1024 93 10000 0 0 23:22 07.06.2022
1675 Clear 3 1023 93 10000 0.51 310 22:38 07.06.2022
1676 Clear 2 1023 93 10000 0 0 21:41 07.06.2022
1677 Clear 2 1023 93 10000 0 0 21:23 07.06.2022
1678 Clear 3 1023 93 10000 1.54 290 20:42 07.06.2022
1679 Clear 4 1023 93 10000 1.54 330 19:58 07.06.2022
1680 Clear 4 1023 93 10000 0 0 18:38 07.06.2022
1681 Clear 4 1024 93 10000 1.54 130 17:36 07.06.2022
1682 Clear 4 1023 93 10000 0 0 16:47 07.06.2022
1683 Clear 5 1024 93 10000 0 0 16:28 07.06.2022
1684 Clear 6 1024 87 10000 1.03 130 15:37 07.06.2022
1685 Clear 6 1024 87 10000 1.03 130 15:18 07.06.2022
1686 Clear 6 1024 87 10000 2.57 150 14:43 07.06.2022
1687 Clear 9 1023 71 10000 2.57 120 13:38 07.06.2022
1688 Clear 9 1023 71 10000 2.57 120 13:20 07.06.2022
1689 Clear 10 1022 66 10000 3.09 130 11:55 07.06.2022
1690 Clear 13 1021 54 10000 3.6 130 10:53 07.06.2022
1691 Clear 16 1020 41 10000 5.14 110 08:58 07.06.2022
1692 Clear 16 1020 41 10000 5.66 150 08:22 07.06.2022
1693 Clear 15 1021 44 10000 5.66 130 06:42 07.06.2022
1694 Clear 14 1022 51 10000 6.69 110 04:47 07.06.2022
1695 Clouds 8 1023 93 10000 2.06 160 01:28 07.06.2022
1696 Clouds 5 1022 100 10000 0 0 23:58 06.06.2022
1697 Clouds 6 1021 100 10000 0 0 22:56 06.06.2022
1698 Clouds 6 1021 93 10000 2.57 170 22:30 06.06.2022
1699 Clouds 7 1021 93 10000 2.06 170 21:18 06.06.2022
1700 Clouds 6 1021 100 10000 0 0 19:29 06.06.2022
1701 Clouds 7 1021 93 10000 0 0 18:53 06.06.2022
1702 Clouds 7 1021 93 10000 0 0 18:26 06.06.2022
1703 Clouds 8 1021 87 10000 0.51 140 17:26 06.06.2022
1704 Clouds 8 1021 87 10000 1.54 160 16:18 06.06.2022
1705 Clear 9 1021 87 10000 2.06 70 15:33 06.06.2022
1706 Clear 10 1021 81 10000 3.09 160 14:32 06.06.2022
1707 Clouds 11 1021 76 10000 2.57 140 13:25 06.06.2022
1708 Clouds 13 1020 67 10000 3.09 140 12:36 06.06.2022
1709 Clouds 14 1019 62 10000 3.6 140 11:53 06.06.2022
1710 Clouds 15 1019 58 10000 3.6 130 10:40 06.06.2022
1711 Clouds 16 1018 55 10000 4.63 130 09:33 06.06.2022
1712 Clouds 21 1004 32 10000 4.63 110 08:32 06.06.2022
1713 Clouds 21 1004 32 10000 5.14 140 07:28 06.06.2022
1714 Clouds 16 1020 55 10000 4.12 130 05:27 06.06.2022
1715 Clouds 12 1021 71 10000 5.66 120 02:55 06.06.2022
1716 Clouds 9 1021 87 10000 0 0 01:18 06.06.2022
1717 Clear 7 1019 87 10000 0 0 00:37 06.06.2022
1718 Clouds 6 1019 93 10000 3.09 240 23:33 05.06.2022
1719 Clear 6 1019 93 10000 2.57 240 22:45 05.06.2022
1720 Clear 6 1019 93 10000 2.57 240 22:45 05.06.2022
1721 Clouds 7 1018 93 10000 0 0 20:46 05.06.2022
1722 Clouds 8 1018 87 10000 2.06 210 19:38 05.06.2022
1723 Clear 10 1018 81 10000 0.51 190 18:29 05.06.2022
1724 Clear 10 1018 87 10000 0 0 17:51 05.06.2022
1725 Clear 10 1018 87 10000 0 0 17:24 05.06.2022
1726 Clear 9 1018 93 10000 0 0 16:49 05.06.2022
1727 Clear 11 1018 82 10000 2.06 310 15:50 05.06.2022
1728 Clear 11 1018 87 10000 2.57 220 14:24 05.06.2022
1729 Clear 14 1017 72 10000 2.06 140 12:49 05.06.2022
1730 Clear 21 1004 32 10000 3.09 150 11:43 05.06.2022
1731 Clouds 21 1004 32 10000 4.12 160 10:25 05.06.2022
1732 Clouds 21 1004 32 10000 4.12 170 09:58 05.06.2022
1733 Clouds 21 1004 32 10000 4.12 200 08:28 05.06.2022
1734 Clouds 21 1004 32 10000 4.63 190 06:54 05.06.2022
1735 Clouds 21 1004 32 10000 5.14 190 05:20 05.06.2022
1736 Clouds 18 1016 59 10000 4.12 230 03:43 05.06.2022
1737 Clouds 13 1016 82 10000 2.57 210 01:32 05.06.2022
1738 Clouds 12 1015 94 10000 0 0 23:58 04.06.2022
1739 Clouds 8 1014 100 10000 0 0 21:58 04.06.2022
1740 Clouds 9 1015 93 10000 0 0 20:21 04.06.2022
1741 Clouds 9 1016 93 10000 0 0 18:18 04.06.2022
1742 Clouds 10 1016 93 10000 0 0 16:42 04.06.2022
1743 Clouds 10 1016 93 10000 0 0 16:18 04.06.2022
1744 Clouds 10 1016 93 10000 0 0 16:18 04.06.2022
1745 Clear 11 1016 87 10000 1.54 130 14:37 04.06.2022
1746 Clear 14 1016 72 10000 2.57 100 11:51 04.06.2022
1747 Clear 16 1015 59 10000 2.57 130 10:57 04.06.2022
1748 Clear 21 1004 32 10000 3.09 120 10:22 04.06.2022
1749 Clear 21 1004 32 10000 3.09 140 09:41 04.06.2022
1750 Clear 21 1004 32 10000 2.57 110 08:40 04.06.2022
1751 Clear 21 1004 32 10000 2.57 130 07:40 04.06.2022
1752 Clear 16 1019 59 10000 5.14 70 04:38 04.06.2022
1753 Clear 6 1020 100 10000 0 0 00:56 04.06.2022
1754 Clear 4 1020 100 10000 0 0 23:53 03.06.2022
1755 Clear 5 1019 100 10000 0 0 22:30 03.06.2022
1756 Clear 5 1019 100 10000 0 0 21:21 03.06.2022
1757 Clear 6 1019 100 10000 0 0 20:33 03.06.2022
1758 Clear 7 1019 100 10000 0 0 17:58 03.06.2022
1759 Clear 7 1020 100 10000 0 0 16:47 03.06.2022
1760 Clear 9 1020 93 10000 0 0 15:18 03.06.2022
1761 Clear 11 1020 87 10000 3.09 160 13:20 03.06.2022
1762 Clear 15 1018 67 10000 3.09 170 11:19 03.06.2022
1763 Clear 18 1017 52 10000 3.6 180 09:38 03.06.2022
1764 Clear 18 1017 52 10000 4.63 190 08:45 03.06.2022
1765 Clouds 17 1017 55 10000 4.12 190 07:26 03.06.2022
1766 Clouds 17 1017 63 10000 4.12 190 06:34 03.06.2022
1767 Clouds 16 1018 67 10000 4.63 190 05:35 03.06.2022
1768 Clouds 14 1017 94 10000 6.17 210 00:28 03.06.2022
1769 Clouds 15 1015 94 10000 4.12 210 22:41 02.06.2022
1770 Clouds 15 1014 100 10000 3.6 210 21:40 02.06.2022
1771 Clouds 16 1014 94 10000 2.57 220 20:22 02.06.2022
1772 Clouds 16 1014 94 10000 0 0 19:46 02.06.2022
1773 Clouds 16 1014 94 10000 2.06 230 19:28 02.06.2022
1774 Clouds 16 1014 94 10000 2.57 210 17:32 02.06.2022
1775 Clouds 16 1014 94 10000 3.6 210 16:27 02.06.2022
1776 Clouds 18 1014 82 10000 0 0 14:19 02.06.2022
1777 Clouds 18 1014 82 10000 0 0 13:29 02.06.2022
1778 Clouds 19 1013 72 10000 0 0 11:24 02.06.2022
1779 Clouds 21 1004 32 10000 3.09 330 10:20 02.06.2022
1780 Clouds 21 1004 32 10000 0 0 09:27 02.06.2022
1781 Clouds 21 1004 32 10000 4.12 300 08:26 02.06.2022
1782 Clouds 20 1012 68 10000 3.6 320 07:21 02.06.2022
1783 Clouds 19 1014 77 10000 2.57 330 04:49 02.06.2022
1784 Clouds 16 1015 88 10000 6.17 330 02:38 02.06.2022
1785 Clouds 14 1015 94 10000 3.09 350 23:47 01.06.2022
1786 Clouds 13 1015 100 10000 3.09 40 22:31 01.06.2022
1787 Clouds 13 1015 100 10000 3.6 60 21:35 01.06.2022
1788 Clouds 12 1015 100 10000 2.57 70 20:40 01.06.2022
1789 Clouds 13 1015 94 10000 2.57 80 19:59 01.06.2022
1790 Clouds 13 1015 94 10000 3.09 80 19:19 01.06.2022
1791 Clouds 12 1016 100 10000 3.6 80 17:44 01.06.2022
1792 Clouds 11 1016 100 10000 3.6 80 16:34 01.06.2022
1793 Clouds 10 1017 100 10000 4.12 70 14:54 01.06.2022
1794 Clouds 10 1017 100 8000 5.14 70 13:51 01.06.2022
1795 Clouds 10 1017 100 10000 6.69 90 12:26 01.06.2022
1796 Clouds 10 1015 100 9000 4.63 80 09:41 01.06.2022
1797 Clouds 10 1015 100 3200 5.66 90 08:40 01.06.2022
1798 Mist 10 1015 100 4200 5.66 90 07:22 01.06.2022
1799 Clouds 10 1016 100 6000 6.69 90 05:23 01.06.2022
1800 Rain 9 1018 100 10000 2.57 70 00:22 01.06.2022
1801 Rain 9 1016 100 10000 6.17 50 23:28 31.05.2022
1802 Clouds 9 1018 100 10000 3.09 40 22:36 31.05.2022
1803 Rain 9 1018 100 10000 2.57 70 21:45 31.05.2022
1804 Rain 10 1018 87 10000 2.57 130 20:45 31.05.2022
1805 Rain 10 1017 87 10000 3.09 110 20:18 31.05.2022
1806 Rain 12 1018 66 10000 0 0 18:52 31.05.2022
1807 Rain 13 1017 50 10000 3.09 70 17:50 31.05.2022
1808 Clouds 13 1017 50 10000 3.6 80 16:56 31.05.2022
1809 Clouds 13 1018 47 10000 2.57 80 15:40 31.05.2022
1810 Clouds 13 1017 47 10000 2.57 110 13:52 31.05.2022
1811 Clouds 14 1017 44 10000 2.57 70 12:20 31.05.2022
1812 Clouds 14 1016 44 10000 0 0 10:53 31.05.2022
1813 Clouds 14 1016 41 10000 3.09 100 08:49 31.05.2022
1814 Clouds 14 1016 44 10000 3.09 90 07:21 31.05.2022
1815 Clouds 14 1019 44 10000 4.63 150 04:53 31.05.2022
1816 Clouds 10 1018 50 10000 0 0 00:26 31.05.2022
1817 Clouds 9 1017 49 10000 2.57 280 23:26 30.05.2022
1818 Clouds 9 1017 49 10000 2.06 250 22:48 30.05.2022
1819 Clouds 8 1016 53 10000 2.57 300 21:51 30.05.2022
1820 Clouds 9 1016 49 10000 2.57 230 21:32 30.05.2022
1821 Clouds 9 1016 49 10000 2.57 220 19:51 30.05.2022
1822 Clouds 11 1016 43 10000 0 0 18:34 30.05.2022
1823 Clouds 12 1016 40 10000 2.57 260 17:24 30.05.2022
1824 Clouds 12 1016 37 10000 0 0 16:39 30.05.2022
1825 Clouds 13 1016 35 10000 2.57 170 13:44 30.05.2022
1826 Clouds 14 1015 30 10000 3.09 190 12:19 30.05.2022
1827 Clouds 16 1014 27 10000 3.6 210 10:26 30.05.2022
1828 Clouds 16 1014 25 10000 3.09 170 09:19 30.05.2022
1829 Clouds 16 1014 25 10000 3.09 170 09:19 30.05.2022
1830 Clouds 17 1014 25 10000 5.66 200 06:30 30.05.2022
1831 Clouds 17 1014 25 10000 6.69 220 05:47 30.05.2022
1832 Clouds 14 1014 35 10000 5.66 200 01:32 30.05.2022
1833 Clouds 18 1010 55 10000 6.69 230 22:50 29.05.2022
1834 Clouds 18 1010 59 10000 7.2 210 22:31 29.05.2022
1835 Clouds 21 1009 52 10000 7.2 240 20:51 29.05.2022
1836 Clouds 22 1008 46 10000 5.66 270 19:30 29.05.2022
1837 Clouds 21 1004 32 10000 8.75 270 18:35 29.05.2022
1838 Clouds 21 1004 32 10000 5.66 260 16:51 29.05.2022
1839 Clouds 21 1004 32 10000 6.69 280 15:47 29.05.2022
1840 Clouds 21 1004 32 10000 7.72 290 14:56 29.05.2022
1841 Clouds 21 1004 32 10000 8.75 300 13:46 29.05.2022
1842 Clouds 21 1004 32 10000 7.72 300 11:31 29.05.2022
1843 Clouds 27 1007 22 10000 7.72 300 10:37 29.05.2022
1844 Clouds 27 1007 24 10000 10.29 310 08:39 29.05.2022
1845 Clouds 25 1010 27 10000 10.29 300 05:22 29.05.2022
1846 Clouds 24 1012 31 10000 5.66 310 04:41 29.05.2022
1847 Clouds 21 1004 32 10000 3.6 290 02:24 29.05.2022
1848 Clouds 19 1012 42 10000 4.63 350 23:48 28.05.2022
1849 Clouds 19 1012 42 10000 3.09 360 23:25 28.05.2022
1850 Clouds 19 1012 42 10000 4.63 330 22:21 28.05.2022
1851 Clouds 20 1012 40 10000 3.6 330 21:19 28.05.2022
1852 Clouds 20 1012 40 10000 3.6 330 21:19 28.05.2022
1853 Clouds 14 1013 54 10000 0.51 360 19:21 28.05.2022
1854 Clouds 21 1004 32 10000 2.57 40 18:40 28.05.2022
1855 Clouds 21 1004 32 10000 1.54 80 17:34 28.05.2022
1856 Clouds 21 1004 32 10000 0 0 16:22 28.05.2022
1857 Clouds 21 1004 32 10000 3.09 80 15:38 28.05.2022
1858 Clouds 21 1004 32 10000 3.6 100 13:42 28.05.2022
1859 Clouds 21 1004 32 10000 3.6 90 12:43 28.05.2022
1860 Clouds 21 1004 32 10000 4.12 70 11:50 28.05.2022
1861 Clouds 24 1013 31 10000 5.14 90 10:41 28.05.2022
1862 Clouds 25 1012 29 10000 5.14 90 09:55 28.05.2022
1863 Clouds 27 1012 26 10000 1.54 110 08:33 28.05.2022
1864 Clouds 26 1013 27 10000 3.09 80 06:53 28.05.2022
1865 Clouds 24 1016 31 10000 1.03 60 05:24 28.05.2022
1866 Clouds 21 1004 32 10000 4.12 80 02:27 28.05.2022
1867 Clouds 12 1017 66 10000 4.12 80 23:58 27.05.2022
1868 Clouds 11 1017 71 10000 2.06 100 22:48 27.05.2022
1869 Clouds 13 1017 62 10000 2.57 100 21:29 27.05.2022
1870 Clouds 13 1017 62 10000 3.09 80 20:45 27.05.2022
1871 Clouds 13 1017 62 10000 3.09 100 20:19 27.05.2022
1872 Clouds 13 1017 62 10000 0 0 19:38 27.05.2022
1873 Clouds 13 1017 62 10000 0 0 19:19 27.05.2022
1874 Clouds 14 1018 58 10000 3.09 70 17:24 27.05.2022
1875 Clouds 15 1018 58 10000 3.6 80 15:57 27.05.2022
1876 Clouds 15 1019 58 10000 3.6 70 14:57 27.05.2022
1877 Clouds 21 1004 32 10000 3.09 110 13:40 27.05.2022
1878 Clouds 21 1004 32 10000 3.09 110 12:20 27.05.2022
1879 Clouds 21 1004 32 10000 3.09 130 11:30 27.05.2022
1880 Clouds 21 1004 32 10000 5.14 100 10:41 27.05.2022
1881 Clouds 21 1004 32 10000 5.66 110 09:59 27.05.2022
1882 Clouds 23 1016 35 10000 5.14 120 09:29 27.05.2022
1883 Clear 23 1016 35 10000 5.66 110 07:30 27.05.2022
1884 Clear 21 1004 32 10000 6.69 80 03:38 27.05.2022
1885 Clear 14 1020 67 10000 0 0 01:19 27.05.2022
1886 Clear 8 1019 87 10000 0 0 23:23 26.05.2022
1887 Clear 8 1019 87 10000 0 0 23:23 26.05.2022
1888 Clear 9 1018 81 10000 0 0 21:53 26.05.2022
1889 Clear 9 1018 81 10000 0 0 21:27 26.05.2022
1890 Clouds 11 1018 71 10000 2.06 100 19:34 26.05.2022
1891 Clouds 13 1018 67 10000 2.06 90 18:31 26.05.2022
1892 Clouds 12 1019 66 10000 0 0 17:36 26.05.2022
1893 Clouds 13 1019 67 10000 0 0 16:18 26.05.2022
1894 Clouds 15 1019 58 10000 0 0 15:19 26.05.2022
1895 Clouds 17 1019 55 10000 2.57 100 13:56 26.05.2022
1896 Clouds 21 1004 32 10000 4.63 120 11:49 26.05.2022
1897 Clear 21 1004 32 10000 4.63 140 10:39 26.05.2022
1898 Clear 25 1016 31 10000 2.57 190 09:38 26.05.2022
1899 Clear 26 1016 29 10000 3.6 90 08:38 26.05.2022
1900 Clear 21 1004 32 10000 3.09 90 05:26 26.05.2022
1901 Clear 21 1004 32 10000 4.63 110 02:19 26.05.2022
1902 Clear 9 1018 81 10000 2.06 310 23:50 25.05.2022
1903 Clouds 10 1018 81 10000 2.57 270 22:51 25.05.2022
1904 Clear 11 1017 71 10000 3.09 340 21:41 25.05.2022
1905 Clear 10 1017 76 10000 2.57 190 20:47 25.05.2022
1906 Clouds 12 1016 66 10000 0 0 19:32 25.05.2022
1907 Clouds 13 1017 67 10000 2.57 300 18:36 25.05.2022
1908 Clouds 13 1017 67 10000 0 0 16:53 25.05.2022
1909 Clouds 21 1004 32 10000 0 0 16:25 25.05.2022
1910 Clouds 21 1004 32 10000 1.54 340 15:36 25.05.2022
1911 Clouds 21 1004 32 10000 0.51 110 14:42 25.05.2022
1912 Clouds 21 1004 32 10000 0.51 110 14:24 25.05.2022
1913 Clouds 21 1004 32 10000 0 0 13:21 25.05.2022
1914 Clouds 21 1004 32 10000 2.09 147 11:32 25.05.2022
1915 Clouds 24 1015 31 10000 2.57 100 10:23 25.05.2022
1916 Clouds 27 1013 25 10000 3.57 268 08:53 25.05.2022
1917 Clouds 27 1014 27 10000 2.66 290 07:23 25.05.2022
1918 Clouds 27 1017 28 10000 2.57 310 05:27 25.05.2022
1919 Clouds 12 1018 71 10000 0 0 00:38 25.05.2022
1920 Clouds 12 1018 76 10000 0 0 23:48 24.05.2022
1921 Clouds 12 1018 71 10000 0 0 22:53 24.05.2022
1922 Clouds 13 1018 67 10000 0 0 21:46 24.05.2022
1923 Clouds 12 1017 76 10000 0 0 21:22 24.05.2022
1924 Clouds 12 1018 71 10000 0 0 20:44 24.05.2022
1925 Clouds 14 1018 67 10000 0 0 18:59 24.05.2022
1926 Clouds 16 1019 59 10000 2.57 90 17:19 24.05.2022
1927 Clouds 21 1004 32 10000 0 0 16:29 24.05.2022
1928 Clouds 21 1004 32 10000 0 0 15:27 24.05.2022
1929 Clouds 21 1004 32 10000 2.57 140 14:36 24.05.2022
1930 Clouds 21 1004 32 10000 3.09 140 13:34 24.05.2022
1931 Clouds 21 1004 32 10000 3.09 120 12:18 24.05.2022
1932 Clouds 25 1016 33 10000 3.6 90 09:50 24.05.2022
1933 Clouds 26 1016 29 10000 2.57 160 08:51 24.05.2022
1934 Clouds 25 1017 31 10000 5.66 180 07:32 24.05.2022
1935 Clouds 26 1018 31 10000 3.09 230 06:27 24.05.2022
1936 Clouds 21 1004 32 10000 3.09 40 02:58 24.05.2022
1937 Clouds 21 1004 32 10000 0 0 01:44 24.05.2022
1938 Clouds 10 1020 76 10000 0 0 23:59 23.05.2022
1939 Clouds 10 1018 76 10000 0 0 22:22 23.05.2022
1940 Clouds 13 1018 71 10000 3.6 90 21:42 23.05.2022
1941 Clouds 12 1018 66 10000 2.06 120 20:45 23.05.2022
1942 Clouds 11 1019 66 10000 1.54 110 19:44 23.05.2022
1943 Clouds 11 1018 66 10000 0 0 19:18 23.05.2022
1944 Clouds 11 1019 66 10000 0 0 18:37 23.05.2022
1945 Clouds 12 1019 62 10000 0 0 17:56 23.05.2022
1946 Clouds 15 1020 55 10000 0 0 15:54 23.05.2022
1947 Clouds 17 1020 48 10000 0 0 13:44 23.05.2022
1948 Clouds 21 1004 32 10000 3.09 120 11:40 23.05.2022
1949 Clouds 21 1004 32 10000 2.57 130 10:44 23.05.2022
1950 Clouds 24 1017 29 10000 3.6 100 09:47 23.05.2022
1951 Clouds 25 1017 25 10000 4.63 110 08:46 23.05.2022
1952 Clouds 21 1004 32 10000 3.6 60 06:49 23.05.2022
1953 Clouds 21 1004 32 10000 3.09 130 06:31 23.05.2022
1954 Clouds 19 1021 52 10000 3.6 80 02:55 23.05.2022
1955 Clouds 15 1021 58 10000 0 0 01:50 23.05.2022
1956 Clouds 10 1021 71 10000 2.06 270 01:23 23.05.2022
1957 Clouds 7 1019 76 10000 0 0 22:48 22.05.2022
1958 Clouds 6 1019 75 10000 0 0 22:21 22.05.2022
1959 Clouds 7 1019 70 10000 0 0 21:50 22.05.2022
1960 Clouds 8 1019 71 10000 0 0 20:42 22.05.2022
1961 Clouds 8 1019 71 10000 0 0 20:20 22.05.2022
1962 Clouds 9 1019 66 10000 0 0 18:58 22.05.2022
1963 Clouds 9 1019 66 10000 2.06 290 18:37 22.05.2022
1964 Clear 9 1019 66 10000 2.06 290 18:18 22.05.2022
1965 Clear 9 1020 66 10000 0 0 16:51 22.05.2022
1966 Clear 11 1020 58 10000 0 0 15:24 22.05.2022
1967 Clear 12 1019 50 10000 0 0 14:36 22.05.2022
1968 Clear 16 1018 44 10000 3.09 110 12:54 22.05.2022
1969 Clear 16 1018 41 10000 3.6 130 12:24 22.05.2022
1970 Clear 21 1004 32 10000 3.09 110 10:45 22.05.2022
1971 Clear 21 1004 32 10000 2.06 140 09:29 22.05.2022
1972 Clear 21 1004 32 10000 1.54 50 07:44 22.05.2022
1973 Clear 21 1004 32 10000 2.57 120 06:41 22.05.2022
1974 Clear 18 1021 36 10000 3.09 100 03:53 22.05.2022
1975 Clear 7 1021 65 10000 2.06 300 00:49 22.05.2022
1976 Clear 4 1020 75 10000 0 0 23:56 21.05.2022
1977 Clear 4 1020 75 10000 2.06 260 23:29 21.05.2022
1978 Clear 6 1020 65 10000 2.06 310 21:59 21.05.2022
1979 Clear 5 1020 65 10000 0 0 21:37 21.05.2022
1980 Clear 7 1020 61 10000 2.06 260 20:41 21.05.2022
1981 Clouds 7 1020 65 10000 2.06 290 19:53 21.05.2022
1982 Clouds 8 1021 61 10000 2.06 290 18:54 21.05.2022
1983 Clouds 9 1021 53 10000 0 0 16:58 21.05.2022
1984 Clear 11 1022 50 10000 2.06 110 14:51 21.05.2022
1985 Clouds 13 1022 44 10000 2.57 110 13:55 21.05.2022
1986 Clouds 13 1022 44 10000 3.6 130 13:25 21.05.2022
1987 Clouds 14 1021 38 10000 4.12 140 12:39 21.05.2022
1988 Clouds 16 1020 31 10000 3.6 140 11:38 21.05.2022
1989 Clouds 21 1004 32 10000 4.63 140 10:21 21.05.2022
1990 Clear 21 1004 32 10000 5.14 140 08:59 21.05.2022
1991 Clear 21 1004 32 10000 4.12 140 08:38 21.05.2022
1992 Clouds 21 1004 32 10000 6.45 129 06:20 21.05.2022
1993 Clouds 11 1024 76 10000 0 0 01:42 21.05.2022
1994 Clear 5 1023 93 10000 0 0 23:35 20.05.2022
1995 Clear 6 1022 87 10000 0 0 22:30 20.05.2022
1996 Clear 6 1022 93 10000 0 0 21:56 20.05.2022
1997 Clear 6 1022 87 10000 0 0 21:19 20.05.2022
1998 Clear 6 1022 93 10000 0 0 20:47 20.05.2022
1999 Clear 7 1022 87 10000 0 0 19:45 20.05.2022
2000 Clear 8 1023 81 10000 0 0 18:53 20.05.2022
2001 Clear 9 1023 81 10000 2.06 130 17:53 20.05.2022
2002 Clear 10 1023 81 10000 0 0 16:23 20.05.2022
2003 Clear 11 1023 76 10000 1.03 90 15:54 20.05.2022
2004 Clear 13 1023 71 10000 2.06 110 14:32 20.05.2022
2005 Clear 14 1023 67 10000 2.57 130 13:59 20.05.2022
2006 Clear 17 1022 55 10000 3.6 150 11:51 20.05.2022
2007 Clear 21 1004 32 10000 4.63 130 10:34 20.05.2022
2008 Clear 21 1004 32 10000 4.63 130 08:59 20.05.2022
2009 Clear 21 1004 32 10000 5.14 110 07:42 20.05.2022
2010 Clear 21 1004 32 10000 3.6 90 06:39 20.05.2022
2011 Clear 21 1004 32 10000 4.12 80 05:39 20.05.2022
2012 Clear 12 1024 82 10000 0 0 01:29 20.05.2022
2013 Clear 6 1022 100 10000 0 0 23:31 19.05.2022
2014 Clear 6 1022 93 10000 0 0 22:34 19.05.2022
2015 Clear 6 1022 100 10000 0 0 21:49 19.05.2022
2016 Clear 6 1022 100 10000 0 0 21:49 19.05.2022
2017 Clear 6 1022 93 10000 0 0 21:23 19.05.2022
2018 Clear 8 1022 93 10000 0 0 20:43 19.05.2022
2019 Clear 9 1022 93 10000 2.06 110 19:54 19.05.2022
2020 Clear 8 1023 93 10000 0 0 18:58 19.05.2022
2021 Clear 11 1023 82 10000 2.06 110 17:35 19.05.2022
2022 Clear 13 1023 71 10000 4.12 130 15:33 19.05.2022
2023 Clouds 14 1023 58 10000 4.12 120 14:30 19.05.2022
2024 Clouds 14 1022 62 10000 2.57 110 13:53 19.05.2022
2025 Clouds 16 1021 55 10000 3.6 120 11:46 19.05.2022
2026 Clouds 21 1004 32 10000 4.63 90 10:25 19.05.2022
2027 Clouds 21 1004 32 10000 5.14 120 08:31 19.05.2022
2028 Clouds 21 1004 32 10000 3.6 100 06:39 19.05.2022
2029 Clouds 21 1004 32 10000 4.63 100 02:57 19.05.2022
2030 Clouds 17 1022 48 10000 4.63 80 00:47 19.05.2022
2031 Clouds 17 1021 45 10000 4.63 90 22:53 18.05.2022
2032 Clouds 17 1020 45 10000 4.63 90 22:35 18.05.2022
2033 Clouds 17 1020 42 10000 3.6 100 21:31 18.05.2022
2034 Clouds 18 1020 42 10000 4.63 90 20:55 18.05.2022
2035 Clouds 18 1020 39 10000 4.63 80 20:19 18.05.2022
2036 Clouds 17 1021 45 10000 1.54 90 18:43 18.05.2022
2037 Clouds 18 1022 34 10000 2.57 140 17:41 18.05.2022
2038 Clouds 18 1022 34 10000 2.57 140 17:23 18.05.2022
2039 Clouds 18 1022 34 10000 0 0 16:35 18.05.2022
2040 Clouds 17 1022 34 10000 0 0 15:42 18.05.2022
2041 Clouds 18 1022 32 10000 0 0 14:54 18.05.2022
2042 Clouds 19 1022 30 10000 2.57 140 13:47 18.05.2022
2043 Clouds 21 1004 32 10000 3.09 140 12:51 18.05.2022
2044 Clouds 21 1004 32 10000 3.6 130 11:37 18.05.2022
2045 Clouds 21 1004 32 10000 3.6 130 11:19 18.05.2022
2046 Clouds 21 1004 32 10000 4.63 130 09:56 18.05.2022
2047 Clouds 21 1004 32 10000 5.14 100 07:54 18.05.2022
2048 Clouds 21 1004 32 10000 5.14 100 06:48 18.05.2022
2049 Clouds 21 1004 32 10000 3.6 100 02:23 18.05.2022
2050 Clouds 14 1021 44 10000 1.03 90 00:23 18.05.2022
2051 Clouds 13 1020 47 10000 3.6 80 22:18 17.05.2022
2052 Clouds 14 1020 44 10000 3.09 100 21:20 17.05.2022
2053 Clouds 15 1020 41 10000 4.63 90 20:22 17.05.2022
2054 Clouds 15 1020 47 10000 0 0 19:28 17.05.2022
2055 Clouds 16 1020 44 10000 3.09 100 17:52 17.05.2022
2056 Clouds 16 1021 44 10000 3.6 90 17:18 17.05.2022
2057 Clouds 17 1021 42 10000 3.6 90 16:31 17.05.2022
2058 Clouds 18 1021 39 10000 3.6 90 15:32 17.05.2022
2059 Clouds 17 1021 42 10000 2.06 60 14:30 17.05.2022
2060 Clouds 17 1020 42 10000 1.54 100 13:37 17.05.2022
2061 Clouds 21 1004 32 10000 3.6 100 11:58 17.05.2022
2062 Clouds 25 1018 25 10000 6.17 100 09:38 17.05.2022
2063 Clear 26 1018 24 10000 5.66 100 08:36 17.05.2022
2064 Clear 25 1019 23 10000 5.66 100 06:50 17.05.2022
2065 Clouds 21 1004 32 10000 7.2 90 03:45 17.05.2022
2066 Clouds 14 1022 51 10000 3.6 90 00:45 17.05.2022
2067 Clouds 13 1020 54 10000 3.6 100 22:44 16.05.2022
2068 Clouds 14 1020 54 10000 2.57 60 21:45 16.05.2022
2069 Clouds 13 1019 62 10000 1.54 80 20:48 16.05.2022
2070 Clouds 11 1020 66 10000 0 0 19:49 16.05.2022
2071 Clouds 11 1020 66 10000 0 0 18:21 16.05.2022
2072 Clear 14 1021 58 10000 0 0 15:53 16.05.2022
2073 Clear 17 1020 48 10000 2.57 100 14:26 16.05.2022
2074 Clouds 19 1020 42 10000 3.09 110 13:23 16.05.2022
2075 Clouds 21 1004 32 10000 4.12 120 11:31 16.05.2022
2076 Clouds 21 1004 32 10000 6.69 110 09:47 16.05.2022
2077 Clouds 25 1018 33 10000 5.14 120 06:58 16.05.2022
2078 Clouds 21 1004 32 10000 7.2 90 03:58 16.05.2022
2079 Clouds 14 1019 67 10000 3.09 150 23:38 15.05.2022
2080 Clouds 15 1018 63 10000 2.06 170 22:32 15.05.2022
2081 Clouds 14 1018 67 10000 2.57 140 21:47 15.05.2022
2082 Clouds 15 1018 63 10000 2.06 150 20:57 15.05.2022
2083 Clouds 15 1017 63 10000 2.57 170 19:52 15.05.2022
2084 Clouds 17 1018 59 10000 0 0 17:52 15.05.2022
2085 Clouds 18 1018 55 10000 0 0 16:29 15.05.2022
2086 Clouds 21 1004 32 10000 3.09 130 13:58 15.05.2022
2087 Clouds 21 1004 32 10000 2.57 130 12:50 15.05.2022
2088 Clouds 21 1004 32 10000 3.09 140 11:40 15.05.2022
2089 Clouds 25 1016 36 10000 4.12 140 10:27 15.05.2022
2090 Clouds 25 1016 36 10000 3.09 140 08:46 15.05.2022
2091 Clouds 26 1016 34 10000 5.14 140 06:58 15.05.2022
2092 Clear 24 1017 43 10000 4.12 110 05:52 15.05.2022
2093 Clouds 15 1019 72 10000 0 0 00:49 15.05.2022
2094 Clouds 13 1018 71 10000 2.57 190 23:39 14.05.2022
2095 Clouds 13 1018 71 10000 3.09 200 22:59 14.05.2022
2096 Clouds 14 1017 67 10000 2.57 190 21:29 14.05.2022
2097 Clouds 14 1017 67 10000 2.57 210 20:53 14.05.2022
2098 Clear 15 1017 58 10000 2.57 210 19:38 14.05.2022
2099 Clear 15 1017 58 10000 2.57 210 19:19 14.05.2022
2100 Clear 16 1016 55 10000 3.09 230 18:44 14.05.2022
2101 Clear 21 1004 32 10000 0 0 16:46 14.05.2022
2102 Clear 21 1004 32 10000 2.57 130 15:30 14.05.2022
2103 Clear 21 1004 32 10000 0 0 14:34 14.05.2022
2104 Clouds 21 1004 32 10000 0 0 12:24 14.05.2022
2105 Clouds 28 1013 24 10000 2.57 170 10:59 14.05.2022
2106 Clouds 31 1012 20 10000 2.57 160 10:21 14.05.2022
2107 Clouds 32 1012 19 10000 3.6 190 09:53 14.05.2022
2108 Clouds 32 1012 19 10000 2.57 210 08:49 14.05.2022
2109 Clouds 32 1012 20 10000 3.6 210 06:41 14.05.2022
2110 Clouds 26 1015 25 10000 0 0 02:39 14.05.2022
2111 Clouds 13 1014 50 10000 0 0 23:36 13.05.2022
2112 Clouds 14 1014 44 10000 4.12 320 22:58 13.05.2022
2113 Clouds 17 1013 39 10000 2.57 340 22:25 13.05.2022
2114 Clouds 12 1013 54 10000 0 0 21:39 13.05.2022
2115 Clouds 12 1013 54 10000 0 0 20:44 13.05.2022
2116 Clouds 16 1013 41 10000 2.06 320 20:24 13.05.2022
2117 Clouds 12 1013 54 10000 1.54 250 19:25 13.05.2022
2118 Clouds 13 1014 47 10000 0 0 17:50 13.05.2022
2119 Clouds 13 1014 47 10000 0 0 17:50 13.05.2022
2120 Clouds 21 1004 32 10000 0 0 17:27 13.05.2022
2121 Clouds 21 1004 32 10000 2.06 90 16:18 13.05.2022
2122 Clear 21 1004 32 10000 1.03 310 15:20 13.05.2022
2123 Clouds 21 1004 32 10000 2.57 350 13:29 13.05.2022
2124 Clear 21 1004 32 10000 2.06 340 12:25 13.05.2022
2125 Clear 21 1004 32 10000 0 0 10:46 13.05.2022
2126 Clear 28 1012 18 10000 3.09 270 09:31 13.05.2022
2127 Clear 29 1012 18 10000 3.09 290 08:23 13.05.2022
2128 Clear 28 1012 20 10000 3.09 310 07:42 13.05.2022
2129 Clear 26 1013 22 10000 3.09 310 05:59 13.05.2022
2130 Clear 21 1004 32 10000 1.54 20 02:43 13.05.2022
2131 Clouds 6 1016 75 10000 0 0 23:44 12.05.2022
2132 Clouds 7 1015 76 10000 0 0 22:44 12.05.2022
2133 Clouds 6 1014 75 10000 0 0 21:46 12.05.2022
2134 Clouds 7 1014 70 10000 0 0 20:23 12.05.2022
2135 Clouds 9 1015 66 10000 1.03 280 18:31 12.05.2022
2136 Clouds 9 1016 61 10000 0 0 16:57 12.05.2022
2137 Clouds 11 1016 58 10000 2.57 70 15:49 12.05.2022
2138 Clouds 14 1016 47 10000 3.09 90 13:59 12.05.2022
2139 Clouds 15 1015 41 10000 3.6 80 13:21 12.05.2022
2140 Clouds 22 1014 26 10000 3.09 150 10:35 12.05.2022
2141 Clouds 21 1004 32 10000 1.03 170 08:58 12.05.2022
2142 Clouds 21 1004 32 10000 1.03 10 08:39 12.05.2022
2143 Clouds 21 1004 32 10000 2.06 180 07:37 12.05.2022
2144 Clouds 21 1004 32 10000 1.54 150 05:30 12.05.2022
2145 Clouds 15 1018 72 10000 0 0 02:21 12.05.2022
2146 Clouds 4 1017 81 10000 2.57 280 23:55 11.05.2022
2147 Clouds 4 1016 81 10000 2.06 310 22:29 11.05.2022
2148 Clouds 6 1016 70 10000 0 0 21:29 11.05.2022
2149 Clouds 6 1016 75 10000 1.03 250 20:48 11.05.2022
2150 Clouds 7 1016 65 10000 1.03 100 17:56 11.05.2022
2151 Clouds 8 1017 61 10000 0 0 16:49 11.05.2022
2152 Clouds 10 1018 62 10000 0.51 190 14:50 11.05.2022
2153 Clouds 11 1017 54 10000 2.06 160 14:26 11.05.2022
2154 Clouds 13 1017 50 10000 2.57 150 13:44 11.05.2022
2155 Clouds 16 1016 41 10000 3.09 150 11:50 11.05.2022
2156 Clouds 21 1004 32 10000 4.63 110 09:39 11.05.2022
2157 Clouds 21 1004 32 10000 3.6 150 07:52 11.05.2022
2158 Clear 21 1004 32 10000 4.12 100 03:38 11.05.2022
2159 Clear 6 1018 70 10000 2.57 270 23:45 10.05.2022
2160 Clear 6 1018 75 10000 0 0 22:30 10.05.2022
2161 Clear 6 1018 70 10000 0.51 260 21:43 10.05.2022
2162 Clear 7 1018 70 10000 2.06 260 20:48 10.05.2022
2163 Clear 7 1018 70 10000 0 0 19:18 10.05.2022
2164 Clear 8 1019 71 10000 0 0 17:44 10.05.2022
2165 Clear 10 1020 66 10000 3.09 170 16:39 10.05.2022
2166 Clear 13 1019 58 10000 2.57 160 13:54 10.05.2022
2167 Clear 15 1018 51 10000 3.09 140 12:30 10.05.2022
2168 Clear 18 1018 45 10000 3.6 130 11:42 10.05.2022
2169 Clear 18 1018 45 10000 3.6 130 11:18 10.05.2022
2170 Clear 21 1004 32 10000 5.66 140 09:52 10.05.2022
2171 Clear 21 1004 32 10000 5.66 140 08:29 10.05.2022
2172 Clear 21 1004 32 10000 5.66 120 06:21 10.05.2022
2173 Clear 15 1020 44 10000 5.14 110 02:31 10.05.2022
2174 Clouds 8 1019 66 10000 2.57 200 23:55 09.05.2022
2175 Clear 10 1019 57 10000 3.09 150 22:42 09.05.2022
2176 Clouds 12 1019 50 10000 3.6 140 21:48 09.05.2022
2177 Clouds 14 1019 44 10000 3.6 120 20:22 09.05.2022
2178 Clouds 11 1020 50 10000 3.09 130 18:29 09.05.2022
2179 Clouds 13 1020 44 10000 3.09 170 17:27 09.05.2022
2180 Clouds 11 1021 50 10000 3.09 160 16:21 09.05.2022
2181 Clouds 12 1021 47 10000 2.57 180 15:47 09.05.2022
2182 Clouds 14 1021 38 10000 2.57 180 14:41 09.05.2022
2183 Clouds 15 1021 36 10000 2.57 180 13:59 09.05.2022
2184 Clouds 15 1021 36 10000 3.09 190 13:23 09.05.2022
2185 Clouds 16 1020 31 10000 3.6 160 11:53 09.05.2022
2186 Clouds 15 1019 41 10000 2.57 170 10:48 09.05.2022
2187 Clouds 16 1019 36 10000 3.6 160 10:26 09.05.2022
2188 Clouds 21 1004 32 10000 4.63 120 07:57 09.05.2022
2189 Clouds 21 1004 32 10000 3.6 160 05:59 09.05.2022
2190 Clouds 10 1021 46 10000 3.09 270 01:59 09.05.2022
2191 Clouds 7 1020 53 10000 0 0 23:29 08.05.2022
2192 Clouds 7 1020 53 10000 2.57 250 22:32 08.05.2022
2193 Clouds 6 1019 56 10000 2.06 320 21:24 08.05.2022
2194 Clouds 5 1019 60 10000 1.54 240 20:25 08.05.2022
2195 Clouds 5 1019 56 10000 2.06 280 19:33 08.05.2022
2196 Clouds 5 1020 56 10000 0 0 18:40 08.05.2022
2197 Clouds 6 1020 49 10000 0 0 17:40 08.05.2022
2198 Clouds 7 1020 49 10000 0 0 16:22 08.05.2022
2199 Clouds 8 1021 46 10000 0 0 15:22 08.05.2022
2200 Clouds 12 1020 32 10000 3.09 130 12:49 08.05.2022
2201 Clouds 15 1020 29 10000 3.09 130 11:45 08.05.2022
2202 Clouds 21 1004 32 10000 4.63 120 10:25 08.05.2022
2203 Clouds 21 1004 32 10000 4.63 140 09:53 08.05.2022
2204 Clear 21 1004 32 10000 6.17 110 07:44 08.05.2022
2205 Clear 21 1004 32 10000 6.69 110 05:57 08.05.2022
2206 Clear 15 1023 38 10000 7.2 100 03:22 08.05.2022
2207 Clear 6 1023 65 10000 0 0 00:48 08.05.2022
2208 Clear 2 1022 80 10000 2.57 270 23:56 07.05.2022
2209 Clear 1 1022 80 10000 2.57 270 23:28 07.05.2022
2210 Clear 2 1022 75 10000 0 0 22:35 07.05.2022
2211 Clear 3 1022 70 10000 0 0 21:55 07.05.2022
2212 Clear 2 1022 69 10000 0 0 21:20 07.05.2022
2213 Clear 3 1022 70 10000 0 0 20:23 07.05.2022
2214 Clear 5 1023 60 10000 0 0 18:41 07.05.2022
2215 Clear 6 1023 56 10000 1.54 170 16:24 07.05.2022
2216 Clear 8 1024 53 10000 2.57 170 14:51 07.05.2022
2217 Clear 15 1022 33 10000 3.6 120 11:21 07.05.2022
2218 Clear 21 1004 32 10000 7.2 120 09:39 07.05.2022
2219 Clear 21 1004 32 10000 7.2 110 08:28 07.05.2022
2220 Clear 21 1004 32 10000 5.66 130 06:44 07.05.2022
2221 Clear 21 1004 32 10000 5.66 130 06:24 07.05.2022
2222 Clear 15 1024 38 10000 7.2 120 03:54 07.05.2022
2223 Clouds 2 1023 75 10000 0 0 23:41 06.05.2022
2224 Clouds 3 1023 75 10000 0 0 22:34 06.05.2022
2225 Clouds 4 1023 70 10000 1.54 130 21:47 06.05.2022
2226 Clouds 5 1022 65 10000 0 0 20:39 06.05.2022
2227 Clouds 6 1023 61 10000 0 0 19:43 06.05.2022
2228 Clouds 6 1023 61 10000 0 0 19:19 06.05.2022
2229 Clouds 8 1023 53 10000 3.6 160 18:25 06.05.2022
2230 Clouds 9 1023 49 10000 3.6 160 17:27 06.05.2022
2231 Clouds 10 1024 46 10000 2.57 160 15:49 06.05.2022
2232 Clouds 11 1023 43 10000 2.57 130 14:58 06.05.2022
2233 Clouds 13 1023 38 10000 3.6 130 13:31 06.05.2022
2234 Clouds 13 1022 38 10000 3.6 140 12:41 06.05.2022
2235 Clouds 13 1022 38 10000 3.6 140 11:49 06.05.2022
2236 Clouds 16 1021 29 10000 5.66 130 10:34 06.05.2022
2237 Clouds 17 1021 27 10000 5.14 140 09:46 06.05.2022
2238 Clouds 21 1004 32 10000 5.14 150 08:43 06.05.2022
2239 Clouds 17 1021 29 10000 4.63 100 06:50 06.05.2022
2240 Clouds 16 1022 31 10000 6.17 110 05:37 06.05.2022
2241 Clouds 14 1025 41 10000 7.2 120 02:50 06.05.2022
2242 Clear 5 1024 65 10000 0 0 00:26 06.05.2022
2243 Clear 3 1023 70 10000 0 0 22:32 05.05.2022
2244 Clear 4 1022 65 10000 3.09 170 21:22 05.05.2022
2245 Clear 5 1022 60 10000 3.09 170 19:55 05.05.2022
2246 Clear 6 1022 61 10000 3.6 160 18:34 05.05.2022
2247 Clear 8 1023 57 10000 2.57 140 16:33 05.05.2022
2248 Clear 10 1023 53 10000 3.09 130 14:50 05.05.2022
2249 Clear 12 1023 54 10000 3.6 130 13:22 05.05.2022
2250 Clear 13 1023 50 10000 3.6 140 12:49 05.05.2022
2251 Clear 17 1021 39 10000 5.14 130 10:48 05.05.2022
2252 Clear 21 1004 32 10000 5.66 120 09:40 05.05.2022
2253 Clouds 21 1004 32 10000 6.17 160 07:35 05.05.2022
2254 Clouds 21 1004 32 10000 6.69 130 05:19 05.05.2022
2255 Clouds 14 1024 62 10000 7.72 120 01:56 05.05.2022
2256 Clouds 14 1024 62 10000 7.72 140 01:27 05.05.2022
2257 Clouds 15 1022 55 10000 6.69 130 23:50 04.05.2022
2258 Clouds 16 1022 55 10000 6.17 140 22:42 04.05.2022
2259 Clouds 16 1022 55 10000 5.66 130 21:50 04.05.2022
2260 Clouds 16 1021 55 10000 6.69 140 21:26 04.05.2022
2261 Clouds 16 1021 59 10000 4.63 140 20:24 04.05.2022
2262 Clouds 16 1021 59 10000 5.66 150 19:53 04.05.2022
2263 Clouds 17 1022 59 10000 4.63 150 18:56 04.05.2022
2264 Clouds 17 1021 59 10000 6.17 140 18:22 04.05.2022
2265 Clouds 18 1021 55 10000 6.69 150 17:38 04.05.2022
2266 Clouds 19 1022 42 10000 4.12 140 15:40 04.05.2022
2267 Clouds 19 1021 37 10000 3.6 140 15:22 04.05.2022
2268 Clouds 18 1021 36 10000 2.57 140 14:21 04.05.2022
2269 Clouds 20 1020 32 10000 3.09 130 13:26 04.05.2022
2270 Clouds 21 1020 30 10000 4.12 120 12:29 04.05.2022
2271 Clouds 23 1018 27 10000 3.6 130 10:40 04.05.2022
2272 Clouds 23 1018 28 10000 4.63 110 09:43 04.05.2022
2273 Clouds 24 1018 29 10000 4.63 150 08:41 04.05.2022
2274 Clouds 25 1017 27 10000 5.66 150 06:41 04.05.2022
2275 Clouds 22 1020 33 10000 4.12 90 02:58 04.05.2022
2276 Clouds 14 1018 67 10000 0 0 00:33 04.05.2022
2277 Clouds 14 1017 67 10000 0 0 22:34 03.05.2022
2278 Clouds 15 1017 67 10000 0 0 21:43 03.05.2022
2279 Clouds 15 1017 63 10000 0.51 180 20:53 03.05.2022
2280 Clouds 18 1017 52 10000 0 0 19:57 03.05.2022
2281 Clouds 18 1017 52 10000 2.06 140 18:52 03.05.2022
2282 Clouds 19 1017 48 10000 2.57 130 18:20 03.05.2022
2283 Clouds 19 1018 52 10000 2.06 80 16:37 03.05.2022
2284 Clouds 20 1018 49 10000 2.57 110 15:35 03.05.2022
2285 Clouds 23 1018 43 10000 2.57 120 12:47 03.05.2022
2286 Clouds 23 1017 46 10000 2.57 140 12:27 03.05.2022
2287 Clouds 24 1016 43 10000 2.57 160 10:57 03.05.2022
2288 Clouds 25 1016 41 10000 3.6 180 09:29 03.05.2022
2289 Clouds 24 1017 38 10000 2.57 220 06:46 03.05.2022
2290 Clouds 23 1017 40 10000 2.57 230 05:58 03.05.2022
2291 Clouds 16 1018 55 10000 0 0 00:32 03.05.2022
2292 Clouds 15 1018 58 10000 0 0 22:36 02.05.2022
2293 Clouds 15 1017 58 10000 0 0 21:52 02.05.2022
2294 Clouds 18 1017 48 10000 2.57 110 20:51 02.05.2022
2295 Clouds 20 1017 42 10000 3.6 70 18:37 02.05.2022
2296 Clouds 20 1018 45 10000 3.6 80 17:57 02.05.2022
2297 Clouds 20 1018 45 10000 3.09 70 17:34 02.05.2022
2298 Clouds 21 1018 43 10000 3.6 100 16:21 02.05.2022
2299 Clouds 21 1018 40 10000 5.14 110 15:30 02.05.2022
2300 Clouds 21 1018 40 10000 5.14 110 15:30 02.05.2022
2301 Clouds 22 1019 37 10000 3.09 130 13:50 02.05.2022
2302 Clouds 22 1018 37 10000 3.09 130 12:19 02.05.2022
2303 Clouds 23 1017 35 10000 4.12 140 10:38 02.05.2022
2304 Clouds 25 1017 33 10000 3.09 100 08:49 02.05.2022
2305 Clouds 25 1017 33 10000 3.6 120 07:39 02.05.2022
2306 Clouds 25 1017 33 10000 3.6 120 07:39 02.05.2022
2307 Clouds 21 1021 40 10000 4.63 100 03:48 02.05.2022
2308 Clouds 14 1021 72 10000 0 0 00:24 02.05.2022
2309 Clouds 13 1021 71 10000 2.06 90 23:47 01.05.2022
2310 Clouds 14 1021 72 10000 0.51 150 22:20 01.05.2022
2311 Clouds 13 1020 76 10000 0 0 21:18 01.05.2022
2312 Clouds 13 1020 71 10000 0 0 19:50 01.05.2022
2313 Clouds 14 1021 67 10000 2.06 150 18:55 01.05.2022
2314 Clouds 14 1021 67 10000 0 0 18:22 01.05.2022
2315 Clouds 15 1021 67 10000 3.09 140 17:18 01.05.2022
2316 Clouds 16 1021 63 10000 1.03 60 16:23 01.05.2022
2317 Clouds 15 1022 63 10000 2.06 120 15:24 01.05.2022
2318 Clouds 18 1021 55 10000 3.09 140 13:42 01.05.2022
2319 Clouds 20 1020 52 10000 4.12 140 10:53 01.05.2022
2320 Clouds 21 1020 52 10000 5.14 130 08:53 01.05.2022
2321 Clouds 21 1020 52 10000 5.14 130 08:53 01.05.2022
2322 Clouds 21 1020 52 10000 4.63 120 07:53 01.05.2022
2323 Clouds 18 1023 63 10000 5.66 120 03:26 01.05.2022
2324 Clouds 14 1023 72 10000 2.57 150 23:49 30.04.2022
2325 Clouds 14 1022 72 10000 3.6 140 21:44 30.04.2022
2326 Clouds 14 1022 77 10000 3.09 130 20:36 30.04.2022
2327 Clouds 14 1022 72 10000 2.57 140 19:41 30.04.2022
2328 Clear 17 1023 63 10000 4.63 130 17:44 30.04.2022
2329 Clear 18 1024 59 10000 4.63 130 16:37 30.04.2022
2330 Clouds 21 1004 32 10000 6.17 130 15:24 30.04.2022
2331 Clouds 21 1004 32 10000 6.69 120 14:34 30.04.2022
2332 Clouds 21 1004 32 10000 5.14 110 12:40 30.04.2022
2333 Clouds 21 1004 32 10000 5.66 130 11:33 30.04.2022
2334 Clouds 21 1004 32 10000 7.2 120 10:40 30.04.2022
2335 Clouds 25 1020 44 10000 6.69 130 08:54 30.04.2022
2336 Clouds 23 1021 53 10000 5.66 120 05:51 30.04.2022
2337 Clouds 21 1004 32 10000 6.17 150 01:51 30.04.2022
2338 Clouds 17 1022 82 10000 4.63 150 23:37 29.04.2022
2339 Clouds 16 1021 82 10000 4.12 150 22:31 29.04.2022
2340 Clear 16 1021 82 10000 4.12 150 21:27 29.04.2022
2341 Clear 16 1021 82 10000 3.6 150 20:39 29.04.2022
2342 Clouds 17 1021 77 10000 4.12 150 19:38 29.04.2022
2343 Clouds 21 1004 32 10000 3.6 150 17:50 29.04.2022
2344 Clouds 21 1004 32 10000 4.12 150 16:56 29.04.2022
2345 Clouds 21 1004 32 10000 5.14 160 14:57 29.04.2022
2346 Clouds 21 1004 32 10000 6.17 160 14:20 29.04.2022
2347 Clouds 21 1004 32 10000 7.72 180 12:43 29.04.2022
2348 Clouds 28 1016 32 10000 7.72 170 10:59 29.04.2022
2349 Clouds 34 1013 18 10000 3.09 190 08:33 29.04.2022
2350 Clouds 35 1013 16 10000 0.51 330 07:27 29.04.2022
2351 Clear 35 1014 16 10000 2.06 300 06:37 29.04.2022
2352 Clear 32 1017 19 10000 4.63 340 03:34 29.04.2022
2353 Clouds 21 1004 32 10000 2.57 180 00:18 29.04.2022
2354 Clouds 21 1004 32 10000 2.06 80 23:26 28.04.2022
2355 Clouds 21 1004 32 10000 2.57 50 22:40 28.04.2022
2356 Clouds 21 1004 32 10000 0 0 21:46 28.04.2022
2357 Clouds 21 1004 32 10000 0 0 20:51 28.04.2022
2358 Clouds 21 1004 32 10000 3.09 80 19:59 28.04.2022
2359 Clouds 21 1004 32 10000 3.6 60 19:40 28.04.2022
2360 Clouds 21 1004 32 10000 3.6 60 19:20 28.04.2022
2361 Clouds 21 1014 46 10000 3.09 50 17:56 28.04.2022
2362 Clouds 20 1015 52 10000 1.03 340 16:59 28.04.2022
2363 Clouds 20 1015 52 10000 0 0 16:21 28.04.2022
2364 Clouds 20 1014 52 10000 0 0 15:57 28.04.2022
2365 Clouds 21 1015 49 10000 1.54 90 15:23 28.04.2022
2366 Clouds 24 1014 41 10000 0 0 13:43 28.04.2022
2367 Clouds 25 1013 38 10000 0 0 12:37 28.04.2022
2368 Clouds 27 1013 32 10000 0 0 11:51 28.04.2022
2369 Clouds 32 1012 23 10000 1.54 250 10:30 28.04.2022
2370 Clouds 33 1011 21 10000 3.6 260 09:51 28.04.2022
2371 Clouds 33 1012 22 10000 2.06 340 07:45 28.04.2022
2372 Clouds 32 1012 23 10000 3.6 350 06:56 28.04.2022
2373 Clouds 32 1013 23 10000 4.63 310 05:54 28.04.2022
2374 Clear 31 1013 23 10000 6.69 350 04:44 28.04.2022
2375 Clear 30 1014 26 10000 6.69 340 03:40 28.04.2022
2376 Clear 22 1013 40 10000 6.69 20 23:52 27.04.2022
2377 Clear 22 1011 37 10000 4.63 10 22:30 27.04.2022
2378 Clear 22 1011 37 10000 3.6 20 21:50 27.04.2022
2379 Clear 22 1011 40 10000 4.12 40 20:56 27.04.2022
2380 Clear 21 1011 43 10000 4.12 30 20:34 27.04.2022
2381 Clear 21 1011 43 10000 4.12 30 20:34 27.04.2022
2382 Clouds 22 1011 40 10000 4.12 20 19:37 27.04.2022
2383 Clouds 21 1012 46 10000 0 0 18:52 27.04.2022
2384 Clouds 21 1012 46 10000 1.03 70 18:21 27.04.2022
2385 Clouds 21 1012 46 10000 3.09 70 16:23 27.04.2022
2386 Clouds 22 1011 40 10000 3.6 120 13:51 27.04.2022
2387 Clouds 27 1010 29 10000 0 0 11:39 27.04.2022
2388 Clouds 27 1010 29 10000 0 0 11:18 27.04.2022
2389 Clouds 32 1009 20 10000 3.09 250 08:53 27.04.2022
2390 Clouds 31 1010 22 10000 4.12 270 06:45 27.04.2022
2391 Clouds 26 1014 34 10000 3.6 340 03:30 27.04.2022
2392 Clouds 21 1004 32 10000 3.09 340 01:27 27.04.2022
2393 Clouds 12 1013 82 10000 2.57 290 00:35 27.04.2022
2394 Clouds 11 1013 76 10000 0 0 23:24 26.04.2022
2395 Clouds 11 1013 82 10000 0 0 22:52 26.04.2022
2396 Clouds 11 1012 76 10000 0 0 22:32 26.04.2022
2397 Clouds 13 1012 76 10000 0 0 21:25 26.04.2022
2398 Clouds 12 1012 76 10000 0 0 20:40 26.04.2022
2399 Clouds 12 1012 76 10000 0 0 20:40 26.04.2022
2400 Clouds 13 1012 71 10000 0 0 19:48 26.04.2022
2401 Clouds 13 1012 71 10000 2.06 100 19:26 26.04.2022
2402 Clouds 14 1012 72 10000 0 0 18:40 26.04.2022
2403 Clouds 13 1012 71 10000 2.06 40 17:42 26.04.2022
2404 Clear 15 1012 67 10000 2.57 100 15:59 26.04.2022
2405 Clouds 19 1012 52 10000 2.57 90 13:58 26.04.2022
2406 Clouds 19 1012 52 10000 3.09 70 13:29 26.04.2022
2407 Clouds 23 1010 38 10000 3.6 110 11:29 26.04.2022
2408 Clouds 26 1010 31 10000 4.12 90 10:31 26.04.2022
2409 Clouds 27 1010 29 10000 2.06 160 08:38 26.04.2022
2410 Clouds 25 1012 44 10000 2.57 70 05:29 26.04.2022
2411 Clouds 23 1013 53 10000 3.09 90 04:23 26.04.2022
2412 Clouds 13 1013 100 10000 0 0 00:52 26.04.2022
2413 Clouds 11 1013 100 10000 0 0 23:51 25.04.2022
2414 Clouds 11 1012 100 10000 0 0 21:57 25.04.2022
2415 Clouds 11 1012 100 10000 0 0 21:33 25.04.2022
2416 Clouds 12 1011 94 10000 0 0 19:58 25.04.2022
2417 Clouds 13 1012 94 10000 0 0 18:48 25.04.2022
2418 Clouds 12 1013 94 10000 0 0 17:40 25.04.2022
2419 Clouds 13 1013 94 10000 0 0 16:44 25.04.2022
2420 Clear 14 1014 88 10000 0 0 15:23 25.04.2022
2421 Clear 16 1014 88 10000 0 0 14:34 25.04.2022
2422 Clouds 17 1013 82 10000 2.57 130 12:49 25.04.2022
2423 Clouds 21 1013 68 10000 4.12 140 10:44 25.04.2022
2424 Clouds 23 1012 56 10000 4.63 140 09:42 25.04.2022
2425 Clouds 22 1012 60 10000 4.12 170 07:49 25.04.2022
2426 Clouds 21 1014 68 10000 3.09 170 05:54 25.04.2022
2427 Clouds 17 1016 94 10000 3.6 140 01:28 25.04.2022
2428 Clouds 16 1016 100 10000 3.09 140 23:54 24.04.2022
2429 Clouds 16 1015 100 3900 2.57 150 23:24 24.04.2022
2430 Clouds 16 1015 100 10000 0 0 22:39 24.04.2022
2431 Clouds 16 1015 100 7000 1.54 170 21:56 24.04.2022
2432 Clouds 16 1015 100 6000 2.06 160 21:22 24.04.2022
2433 Clouds 16 1015 100 10000 2.06 140 20:46 24.04.2022
2434 Clouds 16 1015 100 10000 2.06 110 20:20 24.04.2022
2435 Clouds 17 1016 94 10000 3.6 90 18:38 24.04.2022
2436 Clouds 17 1016 94 10000 3.09 70 17:49 24.04.2022
2437 Clouds 17 1016 94 10000 4.63 90 17:21 24.04.2022
2438 Clouds 17 1017 94 10000 3.6 80 16:51 24.04.2022
2439 Clouds 21 1004 32 10000 6.17 100 16:25 24.04.2022
2440 Clouds 21 1004 32 10000 5.66 120 15:39 24.04.2022
2441 Clouds 21 1004 32 10000 4.63 110 14:33 24.04.2022
2442 Clouds 21 1004 32 10000 4.63 110 14:33 24.04.2022
2443 Clouds 21 1004 32 10000 4.63 100 13:26 24.04.2022
2444 Clouds 21 1004 32 6000 5.66 100 12:55 24.04.2022
2445 Clouds 21 1004 32 10000 8.23 100 11:49 24.04.2022
2446 Clouds 21 1004 32 10000 7.72 120 10:37 24.04.2022
2447 Clouds 21 1004 32 10000 7.72 120 10:37 24.04.2022
2448 Clouds 21 1004 32 10000 7.72 110 09:43 24.04.2022
2449 Clouds 21 1004 32 10000 5.66 140 07:42 24.04.2022
2450 Clouds 21 1004 32 10000 3.6 130 05:38 24.04.2022
2451 Clouds 21 1004 32 10000 4.12 170 01:58 24.04.2022
2452 Clouds 18 1019 48 10000 3.6 170 00:45 24.04.2022
2453 Clouds 14 1019 62 10000 3.6 190 23:46 23.04.2022
2454 Clouds 15 1018 58 10000 3.6 170 23:25 23.04.2022
2455 Clouds 15 1018 63 10000 2.57 180 21:56 23.04.2022
2456 Clouds 16 1018 55 10000 2.57 160 21:36 23.04.2022
2457 Clouds 16 1018 59 10000 2.57 140 20:59 23.04.2022
2458 Clouds 21 1004 32 10000 3.09 130 19:55 23.04.2022
2459 Clouds 21 1004 32 10000 3.09 130 19:20 23.04.2022
2460 Clouds 21 1004 32 10000 4.12 130 18:53 23.04.2022
2461 Clouds 19 1019 48 10000 3.6 150 18:28 23.04.2022
2462 Clouds 20 1019 42 10000 3.6 140 17:43 23.04.2022
2463 Clouds 19 1019 45 10000 2.57 150 16:43 23.04.2022
2464 Clouds 21 1004 32 10000 3.09 130 15:35 23.04.2022
2465 Clouds 21 1004 32 10000 3.6 130 12:54 23.04.2022
2466 Clouds 21 1004 32 10000 4.63 110 10:53 23.04.2022
2467 Clouds 21 1004 32 10000 5.66 130 09:38 23.04.2022
2468 Clouds 24 1018 31 10000 5.66 140 07:38 23.04.2022
2469 Clouds 21 1004 32 10000 6.69 120 03:54 23.04.2022
2470 Clouds 21 1004 32 10000 4.63 130 01:55 23.04.2022
2471 Clouds 12 1021 62 10000 3.09 140 23:33 22.04.2022
2472 Clouds 12 1020 58 10000 0 0 22:28 22.04.2022
2473 Clouds 12 1020 58 10000 3.09 150 21:44 22.04.2022
2474 Clouds 12 1020 54 10000 2.57 140 20:54 22.04.2022
2475 Clouds 12 1020 50 10000 0 0 20:27 22.04.2022
2476 Clouds 12 1020 50 10000 0 0 19:21 22.04.2022
2477 Clouds 13 1020 47 10000 0 0 18:45 22.04.2022
2478 Clouds 13 1020 47 10000 0 0 17:48 22.04.2022
2479 Clouds 13 1020 44 10000 0 0 16:46 22.04.2022
2480 Clouds 14 1020 38 10000 3.09 170 15:45 22.04.2022
2481 Clear 15 1021 36 10000 3.09 150 15:18 22.04.2022
2482 Clear 16 1021 33 10000 2.57 180 13:54 22.04.2022
2483 Clear 17 1020 31 10000 3.09 140 12:58 22.04.2022
2484 Clear 21 1004 32 10000 3.6 150 11:52 22.04.2022
2485 Clear 21 1004 32 10000 4.12 140 11:22 22.04.2022
2486 Clear 21 1004 32 10000 4.63 140 10:50 22.04.2022
2487 Clear 21 1004 32 10000 6.17 140 10:30 22.04.2022
2488 Clear 21 1004 32 10000 6.17 140 09:50 22.04.2022
2489 Clear 25 1019 19 10000 5.66 120 08:50 22.04.2022
2490 Clear 25 1019 19 10000 6.69 120 07:20 22.04.2022
2491 Clear 21 1004 32 10000 6.17 100 03:30 22.04.2022
2492 Clear 13 1022 47 10000 0 0 00:52 22.04.2022
2493 Clear 8 1021 61 10000 0 0 23:25 21.04.2022
2494 Clear 8 1021 57 10000 0 0 22:29 21.04.2022
2495 Clear 10 1020 53 10000 0 0 20:37 21.04.2022
2496 Clear 10 1020 53 10000 0 0 20:18 21.04.2022
2497 Clear 12 1020 43 10000 2.57 130 18:42 21.04.2022
2498 Clear 12 1021 43 10000 3.09 140 17:57 21.04.2022
2499 Clear 13 1021 41 10000 3.09 170 16:35 21.04.2022
2500 Clear 13 1021 41 10000 3.6 160 15:21 21.04.2022
2501 Clear 14 1021 38 10000 3.6 170 14:47 21.04.2022
2502 Clear 16 1021 33 10000 3.6 130 13:23 21.04.2022
2503 Clear 17 1020 29 10000 3.6 130 12:53 21.04.2022
2504 Clouds 21 1004 32 10000 5.66 140 10:47 21.04.2022
2505 Clouds 25 1018 16 10000 6.69 110 08:56 21.04.2022
2506 Clear 24 1019 20 10000 6.17 120 07:24 21.04.2022
2507 Clear 23 1020 27 10000 7.2 100 05:42 21.04.2022
2508 Clear 21 1004 32 10000 5.66 120 03:28 21.04.2022
2509 Clear 21 1004 32 10000 5.14 120 02:47 21.04.2022
2510 Clear 21 1004 32 10000 5.14 120 02:47 21.04.2022
2511 Clouds 11 1022 62 10000 0 0 00:43 21.04.2022
2512 Clouds 9 1022 66 10000 0 0 23:50 20.04.2022
2513 Clouds 9 1022 66 10000 1.54 220 23:22 20.04.2022
2514 Clouds 10 1021 62 10000 0 0 22:46 20.04.2022
2515 Clouds 10 1021 62 10000 0 0 22:26 20.04.2022
2516 Clouds 10 1020 57 10000 0 0 21:27 20.04.2022
2517 Clouds 10 1020 57 10000 2.06 120 20:23 20.04.2022
2518 Clouds 10 1020 57 10000 0 0 19:51 20.04.2022
2519 Clouds 12 1021 50 10000 3.09 130 19:18 20.04.2022
2520 Clouds 12 1021 50 10000 0 0 17:55 20.04.2022
2521 Clear 14 1021 44 10000 2.06 110 16:40 20.04.2022
2522 Clear 14 1021 44 10000 2.06 110 16:18 20.04.2022
2523 Clear 16 1021 39 10000 3.09 130 13:50 20.04.2022
2524 Clear 20 1020 30 10000 4.12 140 11:47 20.04.2022
2525 Clear 21 1004 32 10000 5.66 130 10:56 20.04.2022
2526 Clear 21 1004 32 10000 6.17 160 09:58 20.04.2022
2527 Clear 24 1018 23 10000 5.66 130 09:24 20.04.2022
2528 Clear 24 1018 22 10000 4.12 120 08:20 20.04.2022
2529 Clear 24 1018 22 10000 5.14 110 07:32 20.04.2022
2530 Clear 21 1004 32 10000 4.63 100 03:34 20.04.2022
2531 Clear 10 1022 62 10000 0 0 00:22 20.04.2022
2532 Clear 9 1021 61 10000 0 0 23:37 19.04.2022
2533 Clear 9 1021 61 10000 0 0 22:25 19.04.2022
2534 Clear 9 1021 61 10000 0 0 21:55 19.04.2022
2535 Clouds 10 1020 57 10000 0 0 21:22 19.04.2022
2536 Clouds 10 1020 57 10000 0 0 20:41 19.04.2022
2537 Clear 10 1020 57 10000 0 0 19:56 19.04.2022
2538 Clear 11 1021 50 10000 1.54 130 18:47 19.04.2022
2539 Clear 14 1021 41 10000 3.09 130 17:32 19.04.2022
2540 Clear 15 1021 41 10000 4.12 150 16:43 19.04.2022
2541 Clear 15 1021 41 10000 4.12 150 16:22 19.04.2022
2542 Clear 15 1021 44 10000 3.09 150 14:48 19.04.2022
2543 Clouds 16 1020 44 10000 3.6 150 13:49 19.04.2022
2544 Clouds 18 1020 39 10000 3.09 130 12:50 19.04.2022
2545 Clouds 21 1004 32 10000 3.6 130 11:55 19.04.2022
2546 Clouds 21 1004 32 10000 5.66 130 10:25 19.04.2022
2547 Clouds 23 1018 33 10000 5.66 130 09:18 19.04.2022
2548 Clouds 21 1004 32 10000 6.69 120 04:56 19.04.2022
2549 Clouds 21 1004 32 10000 6.69 120 03:25 19.04.2022
2550 Clouds 18 1021 68 10000 4.63 140 00:54 19.04.2022
2551 Clouds 18 1020 63 10000 5.66 140 23:30 18.04.2022
2552 Clouds 18 1019 59 10000 3.09 150 21:30 18.04.2022
2553 Clouds 18 1019 59 10000 3.09 150 21:30 18.04.2022
2554 Clear 18 1018 55 10000 3.09 140 20:55 18.04.2022
2555 Clear 18 1019 55 10000 3.6 160 20:32 18.04.2022
2556 Clear 18 1018 55 10000 3.09 150 19:49 18.04.2022
2557 Clear 18 1018 48 10000 3.6 150 18:56 18.04.2022
2558 Clouds 20 1018 42 10000 4.12 150 17:57 18.04.2022
2559 Clouds 21 1004 32 10000 5.66 150 17:33 18.04.2022
2560 Clear 21 1004 32 10000 6.17 150 16:55 18.04.2022
2561 Clear 21 1004 32 10000 4.63 150 16:31 18.04.2022
2562 Clear 21 1004 32 10000 7.2 150 14:45 18.04.2022
2563 Clouds 21 1004 32 10000 5.66 150 13:35 18.04.2022
2564 Clear 27 1016 21 10000 6.69 160 12:29 18.04.2022
2565 Clear 28 1015 23 10000 4.63 170 11:34 18.04.2022
2566 Clear 29 1014 23 10000 5.66 160 10:31 18.04.2022
2567 Clear 30 1014 23 10000 5.14 190 09:30 18.04.2022
2568 Clear 30 1014 26 10000 6.17 180 07:42 18.04.2022
2569 Clear 29 1015 28 10000 6.17 170 05:37 18.04.2022
2570 Clouds 21 1004 32 10000 3.09 210 00:27 18.04.2022
2571 Clouds 21 1004 32 10000 2.57 220 22:40 17.04.2022
2572 Clouds 21 1004 32 10000 3.09 190 21:42 17.04.2022
2573 Clouds 21 1004 32 10000 3.09 190 21:22 17.04.2022
2574 Clouds 21 1004 32 10000 3.09 200 20:35 17.04.2022
2575 Clouds 21 1004 32 10000 4.63 210 19:28 17.04.2022
2576 Clouds 28 1013 32 10000 6.69 190 17:45 17.04.2022
2577 Clouds 29 1012 24 10000 3.6 310 15:39 17.04.2022
2578 Clouds 30 1011 21 10000 2.06 310 14:54 17.04.2022
2579 Clouds 29 1011 26 10000 0 0 13:48 17.04.2022
2580 Clouds 30 1011 21 10000 2.57 360 12:58 17.04.2022
2581 Clouds 30 1011 23 10000 2.57 360 12:18 17.04.2022
2582 Clouds 33 1010 18 10000 2.57 320 10:46 17.04.2022
2583 Clouds 34 1010 16 10000 3.09 350 10:28 17.04.2022
2584 Clouds 34 1010 16 10000 3.09 350 10:27 17.04.2022
2585 Clouds 35 1009 15 10000 1.03 340 09:29 17.04.2022
2586 Clouds 36 1010 13 10000 4.12 290 08:42 17.04.2022
2587 Clear 36 1010 13 10000 5.66 290 07:26 17.04.2022
2588 Clouds 33 1013 17 10000 6.69 350 04:29 17.04.2022
2589 Clouds 26 1014 27 10000 2.57 70 00:55 17.04.2022
2590 Clouds 21 1004 32 10000 0 0 23:50 16.04.2022
2591 Clouds 21 1004 32 10000 2.06 250 22:29 16.04.2022
2592 Clouds 21 1004 32 10000 3.09 70 21:31 16.04.2022
2593 Clouds 21 1004 32 10000 3.09 60 20:18 16.04.2022
2594 Clear 21 1004 32 10000 3.09 50 18:59 16.04.2022
2595 Clear 21 1004 32 10000 3.6 50 17:46 16.04.2022
2596 Clear 21 1004 32 10000 3.09 40 16:38 16.04.2022
2597 Clear 21 1004 32 10000 3.6 60 15:43 16.04.2022
2598 Clear 25 1013 27 10000 4.12 60 14:55 16.04.2022
2599 Clouds 26 1013 27 10000 3.6 70 13:58 16.04.2022
2600 Clouds 27 1013 24 10000 3.6 70 13:32 16.04.2022
2601 Clouds 28 1013 23 10000 3.6 90 12:22 16.04.2022
2602 Clouds 32 1012 19 10000 5.14 90 10:49 16.04.2022
2603 Clouds 34 1012 15 10000 4.63 100 09:56 16.04.2022
2604 Clouds 35 1012 14 10000 4.12 130 08:57 16.04.2022
2605 Clouds 35 1012 15 10000 4.12 140 07:35 16.04.2022
2606 Clouds 35 1012 15 10000 4.63 80 06:58 16.04.2022
2607 Clear 30 1016 25 10000 6.17 50 02:33 16.04.2022
2608 Clouds 21 1004 32 10000 0.51 230 00:23 16.04.2022
2609 Clouds 21 1004 32 10000 0 0 22:58 15.04.2022
2610 Clouds 21 1004 32 10000 0 0 22:32 15.04.2022
2611 Clouds 21 1004 32 10000 0 0 21:50 15.04.2022
2612 Clouds 21 1004 32 10000 0 0 20:56 15.04.2022
2613 Clouds 21 1004 32 10000 3.09 100 19:59 15.04.2022
2614 Clouds 21 1004 32 10000 4.63 90 19:39 15.04.2022
2615 Clear 21 1004 32 10000 4.12 90 18:46 15.04.2022
2616 Clear 21 1004 32 10000 4.12 80 18:24 15.04.2022
2617 Clear 24 1015 35 10000 1.54 90 17:32 15.04.2022
2618 Clear 23 1016 38 10000 0 0 16:37 15.04.2022
2619 Clear 23 1016 38 10000 0 0 16:18 15.04.2022
2620 Clouds 24 1016 33 10000 0 0 14:44 15.04.2022
2621 Clear 26 1016 29 10000 2.57 110 13:34 15.04.2022
2622 Clouds 28 1015 26 10000 3.6 130 12:40 15.04.2022
2623 Clouds 30 1014 23 10000 3.09 120 11:55 15.04.2022
2624 Clouds 33 1014 19 10000 4.12 130 10:58 15.04.2022
2625 Clouds 34 1014 17 10000 4.63 120 10:40 15.04.2022
2626 Clear 35 1014 16 10000 4.63 130 09:41 15.04.2022
2627 Clear 35 1014 16 10000 4.63 130 09:19 15.04.2022
2628 Clear 36 1014 15 10000 6.17 70 07:24 15.04.2022
2629 Clear 35 1015 16 10000 2.57 100 05:58 15.04.2022
2630 Clear 30 1017 25 10000 2.06 80 02:34 15.04.2022
2631 Clear 21 1004 32 10000 0 0 23:30 14.04.2022
2632 Clouds 21 1004 32 10000 0 0 22:47 14.04.2022
2633 Clear 21 1004 32 10000 0 0 22:29 14.04.2022
2634 Clear 21 1004 32 10000 1.03 210 21:57 14.04.2022
2635 Clear 21 1004 32 10000 1.03 330 20:35 14.04.2022
2636 Clear 21 1004 32 10000 0 0 19:22 14.04.2022
2637 Clear 21 1004 32 10000 2.57 190 18:18 14.04.2022
2638 Clear 21 1004 32 10000 2.57 70 17:28 14.04.2022
2639 Clouds 21 1004 32 10000 0 0 16:33 14.04.2022
2640 Clouds 24 1016 29 10000 2.57 40 14:27 14.04.2022
2641 Clear 26 1016 25 10000 3.6 120 13:39 14.04.2022
2642 Clear 27 1015 22 10000 3.6 130 12:51 14.04.2022
2643 Clear 28 1015 21 10000 4.12 130 12:30 14.04.2022
2644 Clouds 32 1014 15 10000 5.14 130 11:23 14.04.2022
2645 Clouds 34 1013 13 10000 4.63 130 10:36 14.04.2022
2646 Clear 35 1013 12 10000 5.66 140 09:56 14.04.2022
2647 Clear 36 1012 11 10000 4.63 150 08:40 14.04.2022
2648 Clear 35 1013 14 10000 5.14 110 06:50 14.04.2022
2649 Clear 30 1017 23 10000 3.09 100 02:45 14.04.2022
2650 Clear 21 1004 32 10000 2.57 280 22:52 13.04.2022
2651 Clear 21 1004 32 10000 2.06 310 21:44 13.04.2022
2652 Clear 21 1004 32 10000 2.57 260 20:53 13.04.2022
2653 Clear 21 1004 32 10000 3.6 290 20:22 13.04.2022
2654 Clear 21 1004 32 10000 0.51 200 19:23 13.04.2022
2655 Clear 21 1004 32 10000 0 0 17:55 13.04.2022
2656 Clear 21 1004 32 10000 0 0 17:23 13.04.2022
2657 Clear 21 1004 32 10000 0 0 16:33 13.04.2022
2658 Clear 22 1016 35 10000 2.06 90 15:32 13.04.2022
2659 Clear 24 1016 29 10000 2.06 90 14:50 13.04.2022
2660 Clear 25 1015 29 10000 0.51 60 14:18 13.04.2022
2661 Clear 26 1015 27 10000 3.09 120 13:19 13.04.2022
2662 Clear 28 1014 23 10000 3.09 130 12:20 13.04.2022
2663 Clear 33 1013 17 10000 4.63 130 10:47 13.04.2022
2664 Clouds 36 1013 14 10000 5.14 110 08:57 13.04.2022
2665 Clouds 35 1013 16 10000 2.57 110 08:31 13.04.2022
2666 Clear 35 1013 16 10000 3.6 140 06:51 13.04.2022
2667 Clear 35 1014 17 10000 3.6 80 06:25 13.04.2022
2668 Clear 34 1016 18 10000 5.66 50 04:55 13.04.2022
2669 Clear 21 1004 32 10000 0.51 80 00:20 13.04.2022
2670 Clear 21 1004 32 10000 0 0 23:21 12.04.2022
2671 Clear 21 1004 32 10000 0 0 21:57 12.04.2022
2672 Clear 21 1004 32 10000 2.06 70 20:51 12.04.2022
2673 Clear 23 1014 40 10000 2.57 80 20:33 12.04.2022
2674 Clouds 22 1014 40 10000 2.57 100 19:47 12.04.2022
2675 Clouds 24 1014 35 10000 2.57 90 19:28 12.04.2022
2676 Clouds 25 1015 33 10000 3.09 70 17:59 12.04.2022
2677 Clouds 26 1015 31 10000 3.09 100 16:53 12.04.2022
2678 Clouds 26 1015 31 10000 2.57 90 16:19 12.04.2022
2679 Clouds 28 1015 28 10000 0.51 70 15:26 12.04.2022
2680 Clouds 29 1015 26 10000 3.09 120 14:21 12.04.2022
2681 Clouds 30 1014 23 10000 2.06 90 13:28 12.04.2022
2682 Clouds 31 1013 22 10000 2.57 120 12:44 12.04.2022
2683 Clouds 33 1012 19 10000 3.6 100 11:42 12.04.2022
2684 Clouds 35 1012 17 10000 5.14 100 10:30 12.04.2022
2685 Clouds 36 1011 16 10000 7.72 90 08:54 12.04.2022
2686 Clouds 36 1011 16 10000 7.72 90 08:54 12.04.2022
2687 Clouds 36 1011 16 10000 7.72 90 08:54 12.04.2022
2688 Clouds 36 1012 15 10000 4.12 90 07:50 12.04.2022
2689 Clouds 36 1013 16 10000 6.69 50 05:49 12.04.2022
2690 Clouds 34 1015 17 10000 6.17 50 03:28 12.04.2022
2691 Clouds 24 1014 43 10000 0 0 23:36 11.04.2022
2692 Clouds 25 1014 38 10000 0 0 22:44 11.04.2022
2693 Clouds 25 1014 38 10000 3.09 60 21:36 11.04.2022
2694 Clouds 26 1014 34 10000 3.09 70 20:49 11.04.2022
2695 Clouds 27 1014 32 10000 2.06 90 20:28 11.04.2022
2696 Clouds 26 1014 38 10000 0 0 19:36 11.04.2022
2697 Clouds 26 1014 38 10000 0 0 19:18 11.04.2022
2698 Clouds 26 1014 36 10000 0.51 40 18:37 11.04.2022
2699 Clouds 27 1015 34 10000 2.06 120 17:44 11.04.2022
2700 Clouds 27 1015 32 10000 0 0 16:38 11.04.2022
2701 Clouds 28 1015 30 10000 3.09 110 15:24 11.04.2022
2702 Clouds 28 1015 30 10000 2.57 80 13:51 11.04.2022
2703 Clouds 29 1014 28 10000 3.6 130 12:43 11.04.2022
2704 Clouds 29 1014 28 10000 3.6 130 12:22 11.04.2022
2705 Clouds 33 1013 22 10000 4.12 110 10:56 11.04.2022
2706 Clouds 34 1012 21 10000 3.6 130 09:58 11.04.2022
2707 Clouds 35 1013 20 10000 3.09 140 08:23 11.04.2022
2708 Clouds 33 1015 22 10000 6.17 80 04:57 11.04.2022
2709 Clouds 18 1016 42 10000 1.54 290 00:49 11.04.2022
2710 Clouds 21 1004 32 10000 3.09 290 22:27 10.04.2022
2711 Clouds 21 1004 32 10000 2.57 270 21:54 10.04.2022
2712 Clouds 21 1004 32 10000 2.06 300 21:23 10.04.2022
2713 Clouds 21 1004 32 10000 0 0 20:18 10.04.2022
2714 Clouds 21 1004 32 10000 0 0 19:36 10.04.2022
2715 Clouds 21 1004 32 10000 0 0 18:50 10.04.2022
2716 Clouds 21 1004 32 10000 0 0 18:26 10.04.2022
2717 Clouds 21 1004 32 10000 0 0 17:44 10.04.2022
2718 Clouds 21 1004 32 10000 0 0 16:57 10.04.2022
2719 Clouds 21 1004 32 10000 0 0 15:38 10.04.2022
2720 Clouds 21 1004 32 10000 0 0 14:42 10.04.2022
2721 Clouds 21 1004 32 10000 2.57 140 13:28 10.04.2022
2722 Clear 25 1014 20 10000 2.57 130 12:27 10.04.2022
2723 Clear 27 1014 18 10000 3.09 140 11:38 10.04.2022
2724 Clear 31 1013 13 10000 3.6 150 10:59 10.04.2022
2725 Clear 32 1013 12 10000 3.6 140 10:27 10.04.2022
2726 Clear 33 1013 12 10000 3.09 200 09:41 10.04.2022
2727 Clouds 33 1013 11 10000 2.57 280 08:26 10.04.2022
2728 Clouds 32 1013 12 10000 3.6 130 07:53 10.04.2022
2729 Clouds 32 1013 12 10000 1.54 150 06:48 10.04.2022
2730 Clear 28 1017 21 10000 4.63 100 03:36 10.04.2022
2731 Clear 28 1017 21 10000 4.63 100 03:36 10.04.2022
2732 Haze 21 1004 32 5000 0 0 01:30 10.04.2022
2733 Clear 21 1004 32 10000 3.09 270 23:53 09.04.2022
2734 Clear 12 1015 58 10000 2.57 310 22:52 09.04.2022
2735 Clear 12 1015 54 10000 2.57 280 21:51 09.04.2022
2736 Clear 12 1014 54 10000 2.57 270 20:58 09.04.2022
2737 Clear 12 1014 54 10000 2.57 280 20:26 09.04.2022
2738 Clear 13 1014 50 10000 2.06 260 19:43 09.04.2022
2739 Clear 13 1014 50 10000 2.06 260 19:21 09.04.2022
2740 Clear 14 1014 51 10000 2.06 280 18:22 09.04.2022
2741 Clear 14 1015 44 10000 0 0 17:42 09.04.2022
2742 Clear 16 1015 41 10000 0 0 16:55 09.04.2022
2743 Clear 21 1004 32 10000 0 0 16:24 09.04.2022
2744 Clear 21 1004 32 10000 0 0 15:43 09.04.2022
2745 Clear 21 1004 32 10000 0 0 14:44 09.04.2022
2746 Clear 21 1004 32 10000 0 0 14:44 09.04.2022
2747 Clear 21 1004 32 10000 2.06 110 14:23 09.04.2022
2748 Clear 21 1004 32 10000 3.6 110 13:21 09.04.2022
2749 Clear 21 1004 32 10000 3.6 120 12:51 09.04.2022
2750 Clear 21 1004 32 10000 3.09 120 11:40 09.04.2022
2751 Clear 30 1013 13 10000 3.09 140 10:21 09.04.2022
2752 Clear 31 1013 12 10000 2.06 160 09:47 09.04.2022
2753 Clear 31 1013 11 10000 2.57 20 08:56 09.04.2022
2754 Clear 31 1013 12 10000 2.06 220 07:32 09.04.2022
2755 Clear 25 1017 25 10000 4.12 90 02:58 09.04.2022
2756 Clear 12 1017 62 10000 2.06 290 00:25 09.04.2022
2757 Clear 10 1016 62 10000 2.57 290 22:57 08.04.2022
2758 Clear 12 1015 58 10000 0 0 21:32 08.04.2022
2759 Clear 12 1015 58 10000 2.57 310 20:40 08.04.2022
2760 Clear 12 1015 54 10000 0 0 19:32 08.04.2022
2761 Clear 13 1015 54 10000 0 0 18:31 08.04.2022
2762 Clear 13 1015 54 10000 0 0 17:52 08.04.2022
2763 Clear 14 1015 51 10000 0 0 17:26 08.04.2022
2764 Clear 15 1015 47 10000 0 0 16:51 08.04.2022
2765 Clear 16 1015 41 10000 0 0 15:59 08.04.2022
2766 Clear 17 1016 39 10000 1.54 80 15:27 08.04.2022
2767 Clear 19 1015 34 10000 2.57 80 14:39 08.04.2022
2768 Clear 20 1015 32 10000 3.6 110 13:48 08.04.2022
2769 Clear 21 1015 30 10000 3.09 120 13:29 08.04.2022
2770 Clear 22 1014 28 10000 4.12 130 12:18 08.04.2022
2771 Clear 27 1014 21 10000 4.63 120 10:37 08.04.2022
2772 Clear 28 1013 20 10000 3.6 150 09:38 08.04.2022
2773 Clear 28 1013 20 10000 4.12 170 08:51 08.04.2022
2774 Clear 28 1014 21 10000 4.63 100 06:55 08.04.2022
2775 Clear 26 1016 25 10000 4.12 110 05:23 08.04.2022
2776 Clear 19 1018 39 10000 0 0 01:29 08.04.2022
2777 Clear 13 1017 62 10000 2.06 290 00:25 08.04.2022
2778 Clear 12 1017 62 10000 2.06 320 22:59 07.04.2022
2779 Clear 11 1016 66 10000 2.06 160 22:39 07.04.2022
2780 Clear 11 1016 66 10000 2.06 160 22:21 07.04.2022
2781 Clear 12 1016 58 10000 0 0 21:53 07.04.2022
2782 Clear 13 1016 58 10000 0 0 21:19 07.04.2022
2783 Clear 15 1016 47 10000 0 0 20:37 07.04.2022
2784 Clear 15 1016 51 10000 0.51 50 18:35 07.04.2022
2785 Clear 16 1016 44 10000 2.57 160 17:27 07.04.2022
2786 Clear 17 1016 42 10000 4.12 150 16:44 07.04.2022
2787 Clear 17 1016 42 10000 4.12 150 16:22 07.04.2022
2788 Clear 17 1016 42 10000 4.12 150 16:22 07.04.2022
2789 Clear 21 1004 32 10000 2.57 150 14:50 07.04.2022
2790 Clear 21 1004 32 10000 3.6 150 13:43 07.04.2022
2791 Clear 21 1004 32 10000 3.6 170 12:50 07.04.2022
2792 Clear 26 1015 24 10000 3.6 160 11:34 07.04.2022
2793 Clear 29 1014 18 10000 7.2 170 09:37 07.04.2022
2794 Clear 30 1014 20 10000 5.66 170 08:38 07.04.2022
2795 Clear 28 1015 24 10000 4.63 150 06:42 07.04.2022
2796 Clear 24 1018 31 10000 3.6 120 02:54 07.04.2022
2797 Clear 21 1004 32 10000 4.63 150 02:25 07.04.2022
2798 Clear 21 1004 32 10000 2.06 250 00:27 07.04.2022
2799 Clear 15 1017 58 10000 2.57 290 22:51 06.04.2022
2800 Clear 15 1016 55 10000 2.57 280 22:27 06.04.2022
2801 Clear 16 1016 48 10000 0 0 21:44 06.04.2022
2802 Clear 21 1004 32 10000 2.57 310 20:36 06.04.2022
2803 Clear 21 1004 32 10000 2.06 300 19:53 06.04.2022
2804 Clear 21 1004 32 10000 2.57 280 18:51 06.04.2022
2805 Clear 21 1004 32 10000 2.06 250 18:25 06.04.2022
2806 Clear 21 1004 32 10000 0 0 17:35 06.04.2022
2807 Clear 21 1004 32 10000 0 0 16:38 06.04.2022
2808 Clear 21 1004 32 10000 2.06 140 15:48 06.04.2022
2809 Clear 21 1004 32 10000 2.57 130 14:57 06.04.2022
2810 Clouds 21 1004 32 10000 3.6 130 13:24 06.04.2022
2811 Clouds 25 1015 20 10000 3.6 130 12:26 06.04.2022
2812 Clouds 31 1014 12 10000 5.14 120 10:47 06.04.2022
2813 Clouds 32 1013 12 10000 5.66 120 10:25 06.04.2022
2814 Clouds 32 1013 12 10000 5.66 170 09:40 06.04.2022
2815 Clouds 32 1013 12 10000 3.6 150 08:32 06.04.2022
2816 Clouds 32 1013 12 10000 3.6 150 08:32 06.04.2022
2817 Clear 32 1013 12 10000 3.6 190 07:50 06.04.2022
2818 Clear 28 1017 13 10000 3.09 160 03:54 06.04.2022
2819 Clear 21 1004 32 10000 2.57 270 23:53 05.04.2022
2820 Clouds 13 1014 50 10000 1.03 260 22:57 05.04.2022
2821 Clouds 21 1004 32 10000 0 0 21:23 05.04.2022
2822 Clear 21 1004 32 10000 0 0 20:26 05.04.2022
2823 Clear 21 1004 32 10000 3.6 360 19:42 05.04.2022
2824 Clear 21 1004 32 10000 3.6 190 18:18 05.04.2022
2825 Clear 21 1004 32 10000 0 0 16:54 05.04.2022
2826 Clear 21 1004 32 10000 2.06 70 15:56 05.04.2022
2827 Clear 21 1004 32 10000 1.54 80 15:34 05.04.2022
2828 Clear 21 1004 32 10000 3.09 70 14:35 05.04.2022
2829 Clear 23 1013 25 10000 1.54 120 13:21 05.04.2022
2830 Clear 28 1012 16 10000 2.57 190 11:51 05.04.2022
2831 Clear 30 1012 14 10000 2.06 210 11:32 05.04.2022
2832 Clear 35 1012 10 10000 4.12 190 09:59 05.04.2022
2833 Clear 35 1011 10 10000 3.6 270 08:54 05.04.2022
2834 Clear 35 1013 10 10000 3.6 200 06:58 05.04.2022
2835 Clear 21 1004 32 10000 2.06 320 01:58 05.04.2022
2836 Clear 12 1015 50 10000 0 0 22:44 04.04.2022
2837 Clear 12 1015 50 10000 0 0 22:26 04.04.2022
2838 Clear 13 1015 47 10000 0 0 21:21 04.04.2022
2839 Clear 13 1015 47 10000 0 0 20:49 04.04.2022
2840 Clear 21 1004 32 10000 0 0 19:57 04.04.2022
2841 Clear 21 1004 32 10000 0 0 19:26 04.04.2022
2842 Clear 21 1004 32 10000 0 0 18:33 04.04.2022
2843 Clear 21 1004 32 10000 3.6 80 16:36 04.04.2022
2844 Clear 21 1004 32 10000 2.57 70 15:47 04.04.2022
2845 Clear 21 1004 32 10000 2.57 70 15:29 04.04.2022
2846 Clear 21 1004 32 10000 2.57 90 14:46 04.04.2022
2847 Clear 21 1004 32 10000 3.09 100 13:31 04.04.2022
2848 Clear 26 1013 18 10000 3.6 120 11:56 04.04.2022
2849 Clear 29 1013 14 10000 3.6 130 11:29 04.04.2022
2850 Clear 32 1013 12 10000 2.06 180 09:18 04.04.2022
2851 Clear 29 1016 13 10000 3.6 110 04:45 04.04.2022
2852 Clear 21 1004 32 10000 0 0 01:28 04.04.2022
2853 Clear 11 1016 54 10000 0 0 22:43 03.04.2022
2854 Clear 11 1016 58 10000 0.51 290 21:46 03.04.2022
2855 Clear 11 1016 54 10000 0 0 20:56 03.04.2022
2856 Clear 12 1016 50 10000 0 0 19:50 03.04.2022
2857 Clear 13 1016 47 10000 0 0 18:32 03.04.2022
2858 Clear 13 1016 47 10000 0 0 17:47 03.04.2022
2859 Clear 15 1016 41 10000 0 0 16:57 03.04.2022
2860 Clear 15 1016 41 10000 0 0 16:39 03.04.2022
2861 Clear 21 1004 32 10000 2.57 110 14:52 03.04.2022
2862 Clear 21 1004 32 10000 2.57 120 13:55 03.04.2022
2863 Clear 21 1004 32 10000 3.09 130 12:46 03.04.2022
2864 Clear 26 1014 18 10000 3.6 120 11:29 03.04.2022
2865 Clear 29 1013 15 10000 3.6 150 09:38 03.04.2022
2866 Clear 29 1013 15 10000 3.6 130 08:36 03.04.2022
2867 Clear 27 1015 19 10000 3.09 130 05:38 03.04.2022
2868 Clear 21 1004 32 10000 5.66 100 02:53 03.04.2022
2869 Clouds 12 1016 58 10000 0.51 90 23:21 02.04.2022
2870 Clouds 13 1015 54 10000 2.57 110 22:18 02.04.2022
2871 Clouds 13 1015 54 10000 2.06 80 21:47 02.04.2022
2872 Clouds 15 1015 47 10000 3.09 50 21:18 02.04.2022
2873 Clouds 17 1015 42 10000 2.57 110 19:54 02.04.2022
2874 Clouds 17 1015 48 10000 1.54 140 18:23 02.04.2022
2875 Clouds 18 1015 42 10000 2.57 150 17:53 02.04.2022
2876 Clear 20 1015 34 10000 2.06 120 16:29 02.04.2022
2877 Clear 20 1015 37 10000 0.51 130 15:22 02.04.2022
2878 Clear 19 1015 37 10000 0 0 14:51 02.04.2022
2879 Clouds 21 1004 32 10000 3.09 160 13:51 02.04.2022
2880 Clouds 21 1004 32 10000 3.6 160 13:19 02.04.2022
2881 Clouds 21 1004 32 10000 4.12 140 11:33 02.04.2022
2882 Clouds 28 1013 20 10000 5.66 150 09:30 02.04.2022
2883 Clouds 27 1013 22 10000 5.66 130 06:51 02.04.2022
2884 Clouds 21 1004 32 10000 5.66 140 03:55 02.04.2022
2885 Clouds 12 1017 54 10000 2.57 310 00:19 02.04.2022
2886 Clouds 9 1017 61 10000 3.09 270 23:40 01.04.2022
2887 Clouds 11 1016 50 10000 2.57 310 21:52 01.04.2022
2888 Clouds 11 1016 50 10000 1.03 270 20:52 01.04.2022
2889 Clouds 12 1016 47 10000 0 0 20:30 01.04.2022
2890 Clouds 13 1016 41 10000 3.6 170 19:37 01.04.2022
2891 Clouds 14 1016 38 10000 2.57 190 18:51 01.04.2022
2892 Clouds 14 1017 38 10000 0.51 150 17:54 01.04.2022
2893 Clouds 13 1017 44 10000 2.57 170 17:34 01.04.2022
2894 Clouds 16 1018 31 10000 2.57 170 15:42 01.04.2022
2895 Clouds 17 1017 29 10000 1.03 190 14:26 01.04.2022
2896 Clouds 18 1017 27 10000 3.09 150 13:34 01.04.2022
2897 Clouds 21 1004 32 10000 3.09 140 12:33 01.04.2022
2898 Clouds 21 1004 32 10000 3.6 140 11:44 01.04.2022
2899 Clouds 25 1015 18 10000 5.14 150 10:19 01.04.2022
2900 Clouds 26 1015 15 10000 6.17 140 09:19 01.04.2022
2901 Clear 26 1016 21 10000 5.14 150 06:54 01.04.2022
2902 Clear 23 1018 28 10000 5.66 120 04:51 01.04.2022
2903 Clear 23 1019 28 10000 6.17 120 04:33 01.04.2022
2904 Clouds 21 1004 32 10000 5.14 140 01:57 01.04.2022
2905 Clear 10 1019 71 10000 2.57 190 23:58 31.03.2022
2906 Clear 12 1018 62 10000 2.06 160 21:53 31.03.2022
2907 Clear 12 1018 58 10000 3.09 150 21:32 31.03.2022
2908 Clouds 12 1018 62 10000 3.09 180 20:29 31.03.2022
2909 Clouds 12 1018 62 10000 3.09 180 19:50 31.03.2022
2910 Clouds 13 1018 58 10000 2.57 180 18:46 31.03.2022
2911 Clouds 15 1019 51 10000 2.06 170 17:50 31.03.2022
2912 Clouds 16 1019 48 10000 2.06 170 16:38 31.03.2022
2913 Clouds 16 1019 48 10000 2.57 180 15:45 31.03.2022
2914 Clear 21 1004 32 10000 3.09 170 15:19 31.03.2022
2915 Clear 21 1004 32 10000 3.6 160 14:36 31.03.2022
2916 Clouds 21 1004 32 10000 4.63 140 12:19 31.03.2022
2917 Clouds 25 1016 29 10000 5.14 140 11:22 31.03.2022
2918 Clear 28 1016 28 10000 7.72 150 09:45 31.03.2022
2919 Clear 28 1016 28 10000 7.72 150 09:45 31.03.2022
2920 Clouds 28 1016 30 10000 6.69 150 07:59 31.03.2022
2921 Clouds 27 1018 34 10000 5.66 130 05:42 31.03.2022
2922 Clouds 16 1019 67 10000 3.6 160 23:58 30.03.2022
2923 Clouds 16 1018 63 10000 3.6 180 22:43 30.03.2022
2924 Clear 17 1018 59 10000 2.57 200 21:39 30.03.2022
2925 Clear 17 1018 59 10000 0 0 20:54 30.03.2022
2926 Clear 21 1004 32 10000 0 0 20:20 30.03.2022
2927 Clear 21 1004 32 10000 0 0 20:20 30.03.2022
2928 Clear 21 1004 32 10000 0 0 19:19 30.03.2022
2929 Clear 21 1004 32 10000 2.57 100 18:19 30.03.2022
2930 Clear 21 1004 32 10000 3.09 120 17:45 30.03.2022
2931 Clear 21 1004 32 10000 4.12 120 16:56 30.03.2022
2932 Clear 21 1004 32 10000 6.17 120 16:32 30.03.2022
2933 Clouds 21 1004 32 10000 6.17 130 14:59 30.03.2022
2934 Clouds 21 1004 32 10000 3.09 120 13:35 30.03.2022
2935 Clouds 25 1016 27 10000 3.09 120 12:47 30.03.2022
2936 Clouds 30 1014 19 10000 6.17 130 10:58 30.03.2022
2937 Clouds 32 1014 18 10000 7.2 120 09:59 30.03.2022
2938 Clouds 32 1014 18 10000 7.2 140 09:20 30.03.2022
2939 Clouds 33 1014 16 10000 7.2 140 07:31 30.03.2022
2940 Clouds 32 1016 18 10000 6.17 140 05:40 30.03.2022
2941 Clouds 30 1017 20 10000 4.63 90 03:39 30.03.2022
2942 Clouds 21 1004 32 10000 1.03 300 00:31 30.03.2022
2943 Clouds 21 1004 32 10000 0 0 22:20 29.03.2022
2944 Clouds 21 1004 32 10000 0 0 21:44 29.03.2022
2945 Clouds 21 1004 32 10000 2.06 320 20:49 29.03.2022
2946 Clouds 21 1004 32 10000 2.06 310 19:47 29.03.2022
2947 Clouds 21 1004 32 10000 2.06 340 18:54 29.03.2022
2948 Clouds 21 1004 32 10000 0 0 18:18 29.03.2022
2949 Clouds 21 1004 32 10000 0 0 17:21 29.03.2022
2950 Clouds 21 1004 32 10000 0 0 17:21 29.03.2022
2951 Clouds 21 1004 32 10000 0 0 16:56 29.03.2022
2952 Clouds 21 1004 32 10000 0 0 15:57 29.03.2022
2953 Clouds 21 1004 32 10000 3.09 130 14:48 29.03.2022
2954 Clear 21 1004 32 10000 2.57 120 13:52 29.03.2022
2955 Clear 26 1014 27 10000 3.6 130 12:46 29.03.2022
2956 Clouds 30 1013 21 10000 4.63 150 11:28 29.03.2022
2957 Clouds 31 1013 20 10000 4.63 140 10:23 29.03.2022
2958 Clouds 32 1012 18 10000 5.14 140 09:20 29.03.2022
2959 Clear 32 1013 17 10000 3.09 110 06:54 29.03.2022
2960 Clear 29 1016 20 10000 5.66 120 03:19 29.03.2022
2961 Clear 21 1004 32 10000 0 0 23:46 28.03.2022
2962 Clear 21 1004 32 10000 2.06 300 22:58 28.03.2022
2963 Clear 21 1004 32 10000 2.06 270 22:35 28.03.2022
2964 Clear 21 1004 32 10000 2.57 280 21:48 28.03.2022
2965 Clear 21 1004 32 10000 3.09 290 20:41 28.03.2022
2966 Clear 21 1004 32 10000 0 0 19:59 28.03.2022
2967 Clear 21 1004 32 10000 0 0 19:40 28.03.2022
2968 Clear 21 1004 32 10000 0 0 18:51 28.03.2022
2969 Clear 21 1004 32 10000 0 0 17:41 28.03.2022
2970 Clear 21 1004 32 10000 0 0 16:58 28.03.2022
2971 Clear 21 1004 32 10000 0 0 15:35 28.03.2022
2972 Clear 21 1004 32 10000 0 0 14:24 28.03.2022
2973 Clear 21 1004 32 10000 2.57 110 13:19 28.03.2022
2974 Clear 27 1014 18 10000 3.6 130 11:52 28.03.2022
2975 Clear 32 1013 12 10000 4.63 140 09:58 28.03.2022
2976 Clear 32 1013 12 10000 4.12 140 09:21 28.03.2022
2977 Clear 32 1013 12 10000 5.14 110 08:40 28.03.2022
2978 Clear 32 1013 12 10000 5.14 110 08:20 28.03.2022
2979 Clear 32 1014 12 10000 5.14 140 06:55 28.03.2022
2980 Clear 26 1016 19 10000 0.51 110 02:20 28.03.2022
2981 Clear 12 1014 54 10000 2.57 280 22:36 27.03.2022
2982 Clear 12 1014 54 10000 0 0 21:47 27.03.2022
2983 Clear 21 1004 32 10000 0 0 21:25 27.03.2022
2984 Clear 21 1004 32 10000 0 0 20:24 27.03.2022
2985 Clear 21 1004 32 10000 0 0 19:37 27.03.2022
2986 Clear 21 1004 32 10000 0 0 18:44 27.03.2022
2987 Clear 21 1004 32 10000 0 0 18:23 27.03.2022
2988 Clear 21 1004 32 10000 0 0 17:35 27.03.2022
2989 Clear 21 1004 32 10000 0 0 15:47 27.03.2022
2990 Clear 21 1004 32 10000 1.54 110 13:58 27.03.2022
2991 Clear 21 1004 32 10000 2.57 120 13:20 27.03.2022
2992 Clear 28 1012 13 10000 3.09 130 11:33 27.03.2022
2993 Clear 32 1011 9 10000 3.6 140 09:37 27.03.2022
2994 Clear 31 1012 10 10000 3.6 170 07:31 27.03.2022
2995 Clear 26 1016 17 10000 3.6 120 03:45 27.03.2022
2996 Clear 21 1004 32 10000 0.51 260 00:26 27.03.2022
2997 Clear 21 1004 32 10000 2.57 270 22:49 26.03.2022
2998 Clear 11 1015 62 10000 0 0 21:57 26.03.2022
2999 Clear 12 1014 58 10000 0 0 21:30 26.03.2022
3000 Clear 13 1014 54 10000 0.51 90 19:32 26.03.2022
3001 Clear 13 1014 54 10000 0.51 90 19:32 26.03.2022
3002 Clear 13 1015 54 10000 0 0 18:40 26.03.2022
3003 Clear 15 1015 47 10000 0 0 17:36 26.03.2022
3004 Clear 16 1015 44 10000 0 0 16:34 26.03.2022
3005 Clear 21 1004 32 10000 0 0 15:39 26.03.2022
3006 Clear 21 1004 32 10000 2.57 100 13:56 26.03.2022
3007 Clear 21 1004 32 10000 3.09 110 13:20 26.03.2022
3008 Clear 21 1004 32 10000 4.12 130 11:48 26.03.2022
3009 Clear 21 1004 32 10000 3.6 130 10:48 26.03.2022
3010 Clear 30 1013 19 10000 3.6 150 08:48 26.03.2022
3011 Clear 30 1013 19 10000 4.63 150 06:38 26.03.2022
3012 Clouds 29 1014 21 10000 3.6 90 05:29 26.03.2022
3013 Clouds 23 1018 31 10000 7.72 90 00:54 26.03.2022
3014 Clouds 18 1016 48 10000 3.09 110 22:21 25.03.2022
3015 Clouds 21 1004 32 10000 2.57 100 20:57 25.03.2022
3016 Clouds 21 1004 32 10000 3.09 110 20:26 25.03.2022
3017 Clear 21 1004 32 10000 4.63 110 19:18 25.03.2022
3018 Clouds 21 1004 32 10000 3.6 120 18:22 25.03.2022
3019 Clear 21 1004 32 10000 3.6 120 17:28 25.03.2022
3020 Clear 21 1004 32 10000 3.6 120 16:21 25.03.2022
3021 Clear 21 1004 32 10000 1.54 120 15:26 25.03.2022
3022 Clouds 25 1016 41 10000 4.12 130 13:28 25.03.2022
3023 Clouds 28 1015 34 10000 4.12 130 10:49 25.03.2022
3024 Clouds 29 1013 32 10000 6.69 130 09:28 25.03.2022
3025 Clouds 30 1013 30 10000 6.69 140 08:36 25.03.2022
3026 Clouds 31 1013 30 10000 5.66 110 07:30 25.03.2022
3027 Clouds 30 1014 30 10000 6.17 120 06:29 25.03.2022
3028 Clear 26 1018 44 10000 6.17 100 01:57 25.03.2022
3029 Clouds 21 1004 32 10000 3.09 110 22:56 24.03.2022
3030 Clouds 21 1004 32 10000 4.12 100 21:52 24.03.2022
3031 Clouds 21 1004 32 10000 7.72 90 20:40 24.03.2022
3032 Clouds 21 1004 32 10000 7.2 90 19:48 24.03.2022
3033 Clouds 21 1004 32 10000 6.17 110 17:50 24.03.2022
3034 Clouds 21 1004 32 10000 6.69 110 17:29 24.03.2022
3035 Clouds 21 1004 32 10000 8.23 100 15:52 24.03.2022
3036 Rain 27 1014 39 10000 7.72 110 14:50 24.03.2022
3037 Rain 26 1014 50 10000 4.12 100 14:20 24.03.2022
3038 Rain 27 1014 44 10000 0.51 30 13:24 24.03.2022
3039 Rain 29 1011 37 10000 3.09 10 11:52 24.03.2022
3040 Clouds 33 1010 24 10000 5.14 130 10:18 24.03.2022
3041 Clouds 36 1009 20 10000 6.69 140 08:49 24.03.2022
3042 Clouds 37 1008 18 10000 5.14 170 06:55 24.03.2022
3043 Clear 33 1011 22 10000 3.09 130 03:59 24.03.2022
3044 Clouds 21 1004 32 10000 0 0 23:20 23.03.2022
3045 Clouds 21 1004 32 10000 0.51 310 21:45 23.03.2022
3046 Clouds 21 1004 32 10000 2.57 270 21:20 23.03.2022
3047 Clouds 21 1004 32 10000 2.57 190 19:46 23.03.2022
3048 Clouds 21 1004 32 10000 2.57 260 18:55 23.03.2022
3049 Clear 21 1004 32 10000 1.03 250 17:37 23.03.2022
3050 Clear 21 1004 32 10000 0 0 16:39 23.03.2022
3051 Clear 24 1011 38 10000 0 0 14:51 23.03.2022
3052 Clear 24 1011 35 10000 0.51 50 14:26 23.03.2022
3053 Clouds 27 1010 28 10000 3.09 130 12:55 23.03.2022
3054 Clouds 35 1009 15 10000 3.6 160 09:45 23.03.2022
3055 Clear 36 1009 15 10000 4.12 150 06:48 23.03.2022
3056 Clear 34 1010 17 10000 5.14 100 05:23 23.03.2022
3057 Clouds 25 1013 31 10000 0 0 00:35 23.03.2022
3058 Clouds 20 1012 42 10000 2.57 230 23:39 22.03.2022
3059 Clouds 21 1004 32 10000 2.06 260 21:30 22.03.2022
3060 Clouds 21 1004 32 10000 2.57 310 20:45 22.03.2022
3061 Clouds 21 1004 32 10000 2.57 210 19:43 22.03.2022
3062 Clouds 21 1004 32 10000 2.57 210 19:19 22.03.2022
3063 Clouds 21 1004 32 10000 2.06 360 18:38 22.03.2022
3064 Clouds 21 1004 32 10000 2.57 340 17:37 22.03.2022
3065 Clouds 20 1011 42 10000 2.06 350 16:27 22.03.2022
3066 Clouds 22 1011 30 10000 2.06 300 15:23 22.03.2022
3067 Clouds 23 1011 31 10000 2.06 310 14:47 22.03.2022
3068 Clouds 23 1011 31 10000 2.06 310 14:27 22.03.2022
3069 Clouds 24 1011 29 10000 0 0 13:35 22.03.2022
3070 Clouds 27 1010 22 10000 3.6 170 11:52 22.03.2022
3071 Clouds 33 1009 14 10000 3.09 160 10:40 22.03.2022
3072 Clouds 36 1009 11 10000 4.12 180 08:29 22.03.2022
3073 Clear 36 1010 14 10000 4.63 260 05:25 22.03.2022
3074 Clear 35 1012 14 10000 1.54 260 03:47 22.03.2022
3075 Clear 26 1014 29 10000 1.03 350 00:22 22.03.2022
3076 Clear 21 1004 32 10000 2.57 250 22:29 21.03.2022
3077 Clear 21 1004 32 10000 2.57 270 20:57 21.03.2022
3078 Clear 21 1004 32 10000 0.51 350 20:38 21.03.2022
3079 Clear 21 1004 32 10000 2.57 300 19:58 21.03.2022
3080 Clear 21 1004 32 10000 2.06 290 19:27 21.03.2022
3081 Clear 21 1004 32 10000 2.57 290 18:18 21.03.2022
3082 Clear 21 1004 32 10000 0 0 17:19 21.03.2022
3083 Clear 21 1004 32 10000 2.06 30 16:44 21.03.2022
3084 Clear 21 1004 32 10000 0.51 20 15:52 21.03.2022
3085 Clear 21 1004 32 10000 0 0 15:19 21.03.2022
3086 Clear 23 1014 35 10000 2.57 130 13:58 21.03.2022
3087 Clear 26 1013 27 10000 2.57 120 12:35 21.03.2022
3088 Clear 27 1013 26 10000 3.09 140 11:45 21.03.2022
3089 Clear 32 1012 17 10000 5.14 120 10:40 21.03.2022
3090 Clear 35 1011 16 10000 6.17 150 08:30 21.03.2022
3091 Clear 34 1012 16 10000 4.12 140 06:48 21.03.2022
3092 Clear 33 1016 21 10000 5.66 80 02:51 21.03.2022
3093 Clear 20 1016 52 10000 2.06 280 23:43 20.03.2022
3094 Clear 21 1004 32 10000 2.57 300 22:44 20.03.2022
3095 Clear 21 1004 32 10000 1.54 280 21:52 20.03.2022
3096 Clear 21 1004 32 10000 2.57 330 21:23 20.03.2022
3097 Clear 21 1004 32 10000 2.06 290 20:43 20.03.2022
3098 Clear 21 1004 32 10000 0 0 19:59 20.03.2022
3099 Clear 21 1004 32 10000 0 0 19:28 20.03.2022
3100 Clear 21 1004 32 10000 1.03 360 18:19 20.03.2022
3101 Clear 21 1004 32 10000 0 0 17:33 20.03.2022
3102 Clear 21 1004 32 10000 0 0 17:33 20.03.2022
3103 Clear 21 1004 32 10000 3.09 340 16:57 20.03.2022
3104 Clear 21 1004 32 10000 0 0 15:28 20.03.2022
3105 Clear 21 1004 32 10000 0 0 14:34 20.03.2022
3106 Clear 26 1015 25 10000 3.09 130 12:30 20.03.2022
3107 Clear 28 1014 23 10000 3.09 120 11:22 20.03.2022
3108 Clear 34 1013 15 10000 7.2 130 08:59 20.03.2022
3109 Clear 35 1013 15 10000 7.72 130 07:26 20.03.2022
3110 Clear 34 1015 17 10000 8.75 110 04:23 20.03.2022
3111 Clouds 30 1017 26 10000 3.6 100 01:29 20.03.2022
3112 Clouds 26 1016 38 10000 2.57 220 00:39 20.03.2022
3113 Clouds 20 1015 56 10000 2.57 290 23:19 19.03.2022
3114 Clouds 21 1004 32 10000 0 0 21:27 19.03.2022
3115 Clouds 21 1004 32 10000 0 0 20:39 19.03.2022
3116 Clear 20 1014 60 10000 0 0 18:58 19.03.2022
3117 Clear 20 1014 56 10000 1.54 70 18:23 19.03.2022
3118 Clear 21 1014 52 10000 2.57 80 17:35 19.03.2022
3119 Clear 25 1014 33 10000 2.06 100 15:43 19.03.2022
3120 Clear 25 1014 36 10000 0 0 14:34 19.03.2022
3121 Clouds 28 1014 28 10000 3.6 110 12:59 19.03.2022
3122 Clouds 28 1013 28 10000 3.09 120 12:39 19.03.2022
3123 Clouds 30 1013 23 10000 3.6 120 11:51 19.03.2022
3124 Clouds 32 1012 20 10000 4.12 120 10:45 19.03.2022
3125 Clouds 36 1011 14 10000 2.57 130 06:51 19.03.2022
3126 Clouds 35 1014 20 10000 4.63 80 03:24 19.03.2022
3127 Clouds 34 1014 21 10000 4.12 50 02:29 19.03.2022
3128 Clear 23 1014 56 10000 0 0 23:43 18.03.2022
3129 Clouds 21 1013 68 10000 2.57 220 22:27 18.03.2022
3130 Clear 23 1012 53 10000 2.57 50 21:37 18.03.2022
3131 Clouds 25 1012 50 10000 4.63 140 19:51 18.03.2022
3132 Clouds 29 1011 30 10000 5.14 40 19:21 18.03.2022
3133 Clouds 29 1012 32 10000 1.03 320 17:43 18.03.2022
3134 Clouds 29 1013 30 10000 2.57 40 16:47 18.03.2022
3135 Clouds 25 1013 41 10000 0 0 14:51 18.03.2022
3136 Clouds 26 1012 41 10000 2.06 170 14:21 18.03.2022
3137 Clouds 28 1012 32 10000 2.57 130 12:26 18.03.2022
3138 Clouds 32 1011 22 10000 3.6 140 10:47 18.03.2022
3139 Clouds 36 1010 14 10000 6.69 150 09:28 18.03.2022
3140 Clouds 38 1010 15 10000 5.14 130 07:59 18.03.2022
3141 Clouds 38 1011 16 10000 3.09 60 06:34 18.03.2022
3142 Clouds 33 1014 24 10000 1.54 110 02:51 18.03.2022
3143 Clouds 28 1015 32 10000 2.57 220 00:22 18.03.2022
3144 Clouds 24 1015 43 10000 3.09 240 23:20 17.03.2022
3145 Clouds 21 1004 32 10000 3.09 280 22:23 17.03.2022
3146 Clouds 21 1004 32 10000 1.03 290 21:48 17.03.2022
3147 Clouds 22 1014 46 10000 3.09 240 21:20 17.03.2022
3148 Clouds 23 1013 43 10000 0 0 20:41 17.03.2022
3149 Clear 24 1013 41 10000 2.57 280 19:45 17.03.2022
3150 Clouds 24 1013 41 10000 0 0 18:57 17.03.2022
3151 Clouds 27 1013 29 10000 3.6 140 17:56 17.03.2022
3152 Clouds 24 1013 38 10000 0.51 350 16:43 17.03.2022
3153 Clouds 26 1012 36 10000 2.57 140 15:44 17.03.2022
3154 Clouds 26 1012 36 10000 2.57 140 15:22 17.03.2022
3155 Clouds 27 1012 29 10000 0.51 350 13:50 17.03.2022
3156 Clouds 29 1012 24 10000 2.57 110 12:49 17.03.2022
3157 Clouds 30 1011 21 10000 3.09 110 12:21 17.03.2022
3158 Clouds 32 1011 18 10000 3.6 130 11:25 17.03.2022
3159 Clouds 37 1010 12 10000 5.14 140 09:48 17.03.2022
3160 Clouds 39 1009 13 10000 6.17 120 08:31 17.03.2022
3161 Clouds 39 1009 12 10000 3.6 140 07:32 17.03.2022
3162 Clear 38 1011 13 10000 3.6 100 05:39 17.03.2022
3163 Clear 33 1013 19 10000 4.12 60 00:45 17.03.2022
3164 Clouds 27 1012 32 10000 3.6 70 22:59 16.03.2022
3165 Clouds 27 1012 32 10000 3.6 70 22:40 16.03.2022
3166 Clouds 27 1012 32 10000 3.6 70 22:19 16.03.2022
3167 Clouds 28 1012 30 10000 2.57 330 21:29 16.03.2022
3168 Clouds 27 1011 34 10000 0.51 340 19:26 16.03.2022
3169 Clouds 28 1011 32 10000 1.54 200 18:55 16.03.2022
3170 Clouds 28 1010 30 10000 1.54 360 18:20 16.03.2022
3171 Clouds 29 1011 28 10000 0 0 17:37 16.03.2022
3172 Clouds 29 1011 26 10000 1.03 310 16:50 16.03.2022
3173 Clouds 28 1011 32 10000 3.6 270 15:41 16.03.2022
3174 Clouds 29 1010 26 10000 1.54 60 13:44 16.03.2022
3175 Clouds 28 1010 30 10000 0 0 12:59 16.03.2022
3176 Clouds 33 1009 18 10000 2.57 70 11:44 16.03.2022
3177 Clouds 33 1009 18 10000 2.57 70 11:18 16.03.2022
3178 Clouds 38 1008 13 10000 2.06 170 09:58 16.03.2022
3179 Clouds 39 1008 12 10000 4.63 230 08:37 16.03.2022
3180 Clouds 38 1011 14 10000 4.12 360 03:33 16.03.2022
3181 Clear 23 1011 49 10000 0 0 23:39 15.03.2022
3182 Clear 21 1011 43 10000 2.57 80 22:37 15.03.2022
3183 Clear 19 1010 59 10000 0 0 21:33 15.03.2022
3184 Clear 20 1010 56 10000 0 0 19:47 15.03.2022
3185 Clear 22 1010 46 10000 0 0 18:38 15.03.2022
3186 Clear 22 1010 46 10000 0 0 16:45 15.03.2022
3187 Clear 24 1011 38 10000 0 0 15:44 15.03.2022
3188 Clear 25 1011 36 10000 2.06 100 14:55 15.03.2022
3189 Clear 27 1011 28 10000 2.57 70 14:30 15.03.2022
3190 Clouds 28 1010 28 10000 3.09 80 13:24 15.03.2022
3191 Clouds 31 1009 22 10000 4.12 130 11:34 15.03.2022
3192 Clouds 32 1009 20 10000 3.6 130 10:56 15.03.2022
3193 Clouds 37 1008 13 10000 3.09 100 09:29 15.03.2022
3194 Clouds 38 1008 14 10000 5.14 190 08:32 15.03.2022
3195 Clouds 38 1009 13 10000 3.6 200 07:39 15.03.2022
3196 Clouds 37 1009 12 10000 5.66 280 06:32 15.03.2022
3197 Clear 33 1013 17 10000 3.6 60 01:57 15.03.2022
3198 Clouds 23 1012 38 10000 0 0 23:31 14.03.2022
3199 Clouds 22 1012 40 10000 2.06 360 22:52 14.03.2022
3200 Clouds 23 1012 35 10000 0 0 21:55 14.03.2022
3201 Clouds 22 1011 40 10000 2.57 290 20:59 14.03.2022
3202 Clouds 23 1011 33 10000 3.09 330 20:28 14.03.2022
3203 Clouds 23 1011 33 10000 2.06 340 19:32 14.03.2022
3204 Clouds 22 1012 35 10000 3.09 280 17:58 14.03.2022
3205 Clouds 21 1012 40 10000 2.57 290 17:40 14.03.2022
3206 Clouds 22 1012 37 10000 2.06 240 16:33 14.03.2022
3207 Clouds 24 1013 33 10000 0 0 14:48 14.03.2022
3208 Clouds 28 1012 21 10000 2.06 130 13:29 14.03.2022
3209 Clouds 30 1010 17 10000 3.6 130 11:26 14.03.2022
3210 Clouds 36 1009 12 10000 4.63 120 09:57 14.03.2022
3211 Clouds 37 1009 12 10000 4.63 130 09:34 14.03.2022
3212 Clouds 37 1009 12 10000 4.63 140 08:57 14.03.2022
3213 Clouds 37 1009 12 10000 3.09 150 08:26 14.03.2022
3214 Clear 37 1010 12 10000 5.14 180 06:47 14.03.2022
3215 Clear 34 1014 14 10000 3.09 90 02:59 14.03.2022
3216 Clear 30 1014 19 10000 2.57 100 01:39 14.03.2022
3217 Clear 20 1014 45 10000 0 0 23:41 13.03.2022
3218 Clear 16 1014 63 10000 0 0 21:46 13.03.2022
3219 Clear 17 1014 55 10000 0 0 21:21 13.03.2022
3220 Clear 17 1013 55 10000 0 0 20:46 13.03.2022
3221 Clear 18 1013 52 10000 0 0 20:21 13.03.2022
3222 Clear 18 1013 48 10000 0 0 19:41 13.03.2022
3223 Clear 18 1013 48 10000 0 0 19:22 13.03.2022
3224 Clear 22 1013 28 10000 3.09 40 18:41 13.03.2022
3225 Clear 22 1013 28 10000 3.09 40 18:22 13.03.2022
3226 Clear 20 1014 42 10000 0 0 17:36 13.03.2022
3227 Clear 21 1014 40 10000 0 0 16:44 13.03.2022
3228 Clear 22 1014 33 10000 1.54 80 16:21 13.03.2022
3229 Clear 25 1014 23 10000 3.6 70 15:36 13.03.2022
3230 Clear 25 1014 25 10000 2.57 80 14:36 13.03.2022
3231 Clouds 26 1014 25 10000 3.09 90 13:27 13.03.2022
3232 Clouds 28 1013 23 10000 3.09 90 12:21 13.03.2022
3233 Clouds 31 1013 16 10000 4.63 90 11:36 13.03.2022
3234 Clouds 32 1012 17 10000 4.12 110 10:49 13.03.2022
3235 Clouds 34 1012 15 10000 4.63 140 10:25 13.03.2022
3236 Clouds 36 1011 13 10000 5.14 150 09:41 13.03.2022
3237 Clouds 36 1011 13 10000 4.63 150 08:49 13.03.2022
3238 Clouds 37 1011 13 10000 4.12 130 08:21 13.03.2022
3239 Clear 36 1012 12 10000 2.06 80 06:40 13.03.2022
3240 Clear 34 1015 14 10000 4.63 90 03:56 13.03.2022
3241 Clear 26 1017 22 10000 3.6 100 00:48 13.03.2022
3242 Clear 15 1016 58 10000 0 0 22:48 12.03.2022
3243 Clear 15 1015 55 10000 0 0 20:59 12.03.2022
3244 Clear 16 1014 51 10000 2.06 270 20:18 12.03.2022
3245 Clear 16 1014 55 10000 2.06 280 19:43 12.03.2022
3246 Clear 17 1014 51 10000 0 0 18:34 12.03.2022
3247 Clear 17 1014 48 10000 1.03 100 17:46 12.03.2022
3248 Clear 19 1015 45 10000 0 0 16:25 12.03.2022
3249 Clear 21 1015 32 10000 3.09 80 15:24 12.03.2022
3250 Clear 21 1015 30 10000 2.06 70 14:52 12.03.2022
3251 Clear 21 1015 32 10000 2.57 110 13:53 12.03.2022
3252 Clear 21 1015 32 10000 2.57 110 13:53 12.03.2022
3253 Clear 26 1014 24 10000 3.6 110 12:25 12.03.2022
3254 Clear 26 1013 24 10000 3.6 130 11:51 12.03.2022
3255 Clear 28 1013 20 10000 3.6 130 11:19 12.03.2022
3256 Clear 33 1012 14 10000 3.6 140 09:58 12.03.2022
3257 Clear 33 1012 14 10000 3.6 140 09:58 12.03.2022
3258 Clear 33 1012 14 10000 4.12 170 09:38 12.03.2022
3259 Clear 34 1012 13 10000 3.09 160 07:50 12.03.2022
3260 Clear 33 1014 14 10000 4.63 120 05:20 12.03.2022
3261 Clear 23 1017 28 10000 0 0 00:24 12.03.2022
3262 Clear 16 1016 59 10000 2.57 300 23:28 11.03.2022
3263 Clear 13 1015 67 10000 1.03 290 21:47 11.03.2022
3264 Clear 14 1015 62 10000 0 0 20:57 11.03.2022
3265 Clear 15 1015 58 10000 0 0 20:37 11.03.2022
3266 Clear 15 1014 58 10000 0 0 19:53 11.03.2022
3267 Clear 16 1014 55 10000 0 0 19:26 11.03.2022
3268 Clear 17 1015 51 10000 0 0 17:34 11.03.2022
3269 Clear 18 1015 45 10000 0 0 16:42 11.03.2022
3270 Clear 17 1015 51 10000 0 0 15:57 11.03.2022
3271 Clear 21 1015 32 10000 0 0 14:21 11.03.2022
3272 Clear 23 1014 28 10000 3.6 140 12:52 11.03.2022
3273 Clear 23 1014 31 10000 3.6 140 12:21 11.03.2022
3274 Clear 24 1014 27 10000 4.12 140 11:55 11.03.2022
3275 Clear 30 1013 16 10000 3.6 130 10:18 11.03.2022
3276 Clear 33 1002 13 10000 3.6 120 08:57 11.03.2022
3277 Clear 35 1002 14 10000 4.12 130 08:24 11.03.2022
3278 Clear 34 1002 14 10000 4.12 150 07:45 11.03.2022
3279 Clouds 31 1014 14 10000 5.14 130 05:44 11.03.2022
3280 Clear 30 1015 19 10000 3.6 130 03:48 11.03.2022
3281 Clouds 16 1017 55 10000 0 0 23:38 10.03.2022
3282 Clouds 12 1016 62 10000 0 0 22:30 10.03.2022
3283 Clouds 13 1016 58 10000 0 0 21:40 10.03.2022
3284 Clouds 13 1016 58 10000 0 0 21:18 10.03.2022
3285 Clouds 14 1015 54 10000 0 0 19:43 10.03.2022
3286 Clear 16 1004 41 10000 0 0 18:53 10.03.2022
3287 Clear 19 1005 31 10000 1.03 60 17:28 10.03.2022
3288 Clear 22 1005 30 10000 0.89 150 15:55 10.03.2022
3289 Clouds 23 1005 23 10000 0.89 232 14:44 10.03.2022
3290 Clear 25 1005 21 10000 3.09 130 13:19 10.03.2022
3291 Clear 26 1004 21 10000 3.09 120 11:57 10.03.2022
3292 Clear 27 1004 20 10000 3.6 130 10:53 10.03.2022
3293 Clear 30 1003 13 10000 5.14 110 09:18 10.03.2022
3294 Clear 31 1013 13 10000 4.63 150 07:33 10.03.2022
3295 Clear 29 1016 21 10000 5.14 150 04:19 10.03.2022
3296 Clear 24 1018 33 10000 5.14 120 01:40 10.03.2022
3297 Clear 13 1017 71 10000 0 0 22:46 09.03.2022
3298 Clouds 13 1017 71 10000 0 0 21:49 09.03.2022
3299 Clouds 14 1016 67 10000 0 0 21:27 09.03.2022
3300 Clouds 14 1016 67 10000 2.57 150 19:43 09.03.2022
3301 Clear 16 1016 63 10000 0 0 18:29 09.03.2022
3302 Clear 17 1017 55 10000 0 0 17:26 09.03.2022
3303 Clear 17 1017 55 10000 0 0 17:26 09.03.2022
3304 Clear 17 1017 55 10000 0 0 16:30 09.03.2022
3305 Clear 18 1017 52 10000 0 0 14:56 09.03.2022
3306 Clear 20 1016 42 10000 0 0 13:52 09.03.2022
3307 Clouds 23 1016 33 10000 3.09 130 12:39 09.03.2022
3308 Clouds 24 1015 31 10000 3.09 130 11:52 09.03.2022
3309 Clouds 25 1015 29 10000 3.09 130 11:32 09.03.2022
3310 Clear 29 1014 20 10000 6.17 130 09:45 09.03.2022
3311 Clear 30 1013 17 10000 5.14 140 08:47 09.03.2022
3312 Clear 30 1014 16 10000 6.17 140 06:51 09.03.2022
3313 Clear 24 1018 29 10000 6.17 100 01:54 09.03.2022
3314 Clear 21 1018 43 10000 1.03 110 00:26 09.03.2022
3315 Clear 14 1017 72 10000 0.51 270 22:46 08.03.2022
3316 Clear 14 1016 72 10000 2.57 290 21:52 08.03.2022
3317 Clear 15 1016 67 10000 2.57 280 21:22 08.03.2022
3318 Clear 15 1015 67 10000 3.6 160 20:24 08.03.2022
3319 Clear 16 1015 63 10000 2.57 180 19:24 08.03.2022
3320 Clear 16 1015 63 10000 3.6 160 18:23 08.03.2022
3321 Clear 17 1015 55 10000 3.09 180 16:56 08.03.2022
3322 Clear 18 1016 48 10000 3.6 180 14:58 08.03.2022
3323 Clear 20 1016 40 10000 3.09 170 13:48 08.03.2022
3324 Clear 22 1015 30 10000 3.6 150 12:23 08.03.2022
3325 Clear 25 1014 23 10000 4.12 160 11:42 08.03.2022
3326 Clear 28 1014 20 10000 5.66 160 10:28 08.03.2022
3327 Clear 30 1013 17 10000 6.17 150 08:57 08.03.2022
3328 Clear 30 1013 21 10000 6.17 160 06:30 08.03.2022
3329 Clear 27 1016 1 10000 5.14 120 02:50 08.03.2022
3330 Clear 17 1015 59 10000 2.06 250 22:48 07.03.2022
3331 Clear 17 1014 59 10000 2.57 190 21:45 07.03.2022
3332 Clear 18 1014 55 10000 2.57 150 21:22 07.03.2022
3333 Clear 17 1013 63 10000 2.06 170 20:34 07.03.2022
3334 Clear 18 1013 59 10000 1.54 170 19:50 07.03.2022
3335 Clear 19 1013 55 10000 0.51 170 19:20 07.03.2022
3336 Clear 20 1013 52 10000 0.51 180 18:29 07.03.2022
3337 Clear 21 1013 52 10000 2.57 170 17:31 07.03.2022
3338 Clear 20 1014 64 10000 3.09 160 16:43 07.03.2022
3339 Clear 23 1014 49 10000 2.57 140 14:51 07.03.2022
3340 Clear 26 1013 41 10000 3.09 150 12:34 07.03.2022
3341 Clear 28 1012 34 10000 4.63 160 11:26 07.03.2022
3342 Clouds 31 1012 27 10000 5.66 160 10:30 07.03.2022
3343 Clear 32 1011 27 10000 6.69 150 08:34 07.03.2022
3344 Clear 32 1011 27 10000 6.69 150 08:34 07.03.2022
3345 Clear 28 1015 32 10000 4.12 130 02:25 07.03.2022
3346 Clouds 26 1015 38 10000 4.12 110 00:20 07.03.2022
3347 Clouds 23 1015 46 10000 1.03 130 23:23 06.03.2022
3348 Clouds 19 1014 63 10000 2.57 140 22:27 06.03.2022
3349 Clouds 21 1014 52 10000 3.09 140 21:24 06.03.2022
3350 Clouds 23 1014 43 10000 3.6 140 20:29 06.03.2022
3351 Clouds 25 1014 38 10000 3.6 140 19:39 06.03.2022
3352 Clear 25 1014 41 10000 3.09 150 18:49 06.03.2022
3353 Clear 26 1014 38 10000 3.09 140 17:46 06.03.2022
3354 Clouds 26 1014 38 10000 2.57 130 17:19 06.03.2022
3355 Clouds 26 1014 38 10000 2.57 140 16:28 06.03.2022
3356 Clouds 27 1015 36 10000 3.09 140 15:25 06.03.2022
3357 Clouds 27 1014 36 10000 3.09 140 14:42 06.03.2022
3358 Clouds 27 1015 36 10000 3.09 140 13:48 06.03.2022
3359 Clouds 28 1014 34 10000 3.6 160 12:39 06.03.2022
3360 Clouds 29 1014 30 10000 3.6 150 11:39 06.03.2022
3361 Clear 30 1013 30 10000 4.63 140 10:33 06.03.2022
3362 Clear 32 1013 27 10000 6.69 140 08:51 06.03.2022
3363 Clear 36 1000 43 10000 5.66 160 08:27 06.03.2022
3364 Clouds 36 1000 43 10000 5.66 140 07:23 06.03.2022
3365 Clouds 26 1016 38 10000 6.69 100 01:54 06.03.2022
3366 Clouds 25 1016 41 10000 6.69 110 00:34 06.03.2022
3367 Clouds 25 1016 38 10000 5.66 110 23:57 05.03.2022
3368 Clouds 23 1016 46 10000 4.12 120 23:18 05.03.2022
3369 Clouds 22 1015 53 10000 3.09 120 22:31 05.03.2022
3370 Clouds 22 1015 53 10000 3.09 120 22:31 05.03.2022
3371 Clouds 23 1015 46 10000 3.6 130 21:25 05.03.2022
3372 Clouds 23 1014 46 10000 4.12 130 19:59 05.03.2022
3373 Clouds 24 1014 46 10000 3.6 130 19:18 05.03.2022
3374 Clouds 24 1014 46 10000 3.6 140 18:37 05.03.2022
3375 Clouds 23 1014 49 10000 3.09 140 17:31 05.03.2022
3376 Clear 23 1014 53 10000 3.6 140 16:18 05.03.2022
3377 Clear 25 1014 47 10000 3.6 150 14:53 05.03.2022
3378 Clear 25 1014 47 10000 3.09 140 14:35 05.03.2022
3379 Clear 25 1014 47 10000 3.09 140 14:35 05.03.2022
3380 Clear 26 1014 47 10000 3.09 140 13:37 05.03.2022
3381 Clear 27 1014 41 10000 3.6 140 12:33 05.03.2022
3382 Clear 29 1013 32 10000 4.63 140 11:20 05.03.2022
3383 Clear 30 1012 30 10000 4.63 140 10:48 05.03.2022
3384 Clear 32 1011 27 10000 6.17 130 09:28 05.03.2022
3385 Clear 33 1011 25 10000 7.2 110 07:59 05.03.2022
3386 Clouds 36 1000 43 10000 6.17 130 06:29 05.03.2022
3387 Clouds 36 1000 43 10000 6.17 140 04:54 05.03.2022
3388 Clear 25 1014 50 10000 4.12 130 23:59 04.03.2022
3389 Clear 22 1013 60 10000 3.09 110 22:45 04.03.2022
3390 Clear 22 1013 60 10000 3.09 110 22:23 04.03.2022
3391 Clear 21 1012 64 10000 2.06 200 21:39 04.03.2022
3392 Clear 20 1011 68 10000 0 0 20:32 04.03.2022
3393 Clear 22 1011 56 10000 0 0 19:36 04.03.2022
3394 Clear 23 1011 53 10000 0 0 18:47 04.03.2022
3395 Clear 23 1011 53 10000 0 0 18:22 04.03.2022
3396 Clear 23 1011 53 10000 0 0 17:28 04.03.2022
3397 Clear 25 1011 44 10000 1.03 140 15:48 04.03.2022
3398 Clear 27 1011 34 10000 3.09 70 14:40 04.03.2022
3399 Clear 28 1011 32 10000 3.6 90 13:27 04.03.2022
3400 Clear 36 1000 43 10000 4.12 120 11:57 04.03.2022
3401 Clear 36 1000 43 10000 5.66 120 10:58 04.03.2022
3402 Clear 36 1000 43 10000 5.66 130 10:21 04.03.2022
3403 Clear 36 1000 43 10000 4.63 130 08:48 04.03.2022
3404 Clear 36 1000 43 10000 3.6 150 07:47 04.03.2022
3405 Clear 36 1000 43 10000 4.12 120 05:26 04.03.2022
3406 Clear 29 1012 26 10000 1.03 80 00:41 04.03.2022
3407 Clouds 22 1011 49 10000 2.06 120 22:54 03.03.2022
3408 Clouds 24 1010 41 10000 2.57 80 21:58 03.03.2022
3409 Clouds 24 1010 38 10000 0 0 21:34 03.03.2022
3410 Clouds 25 1009 36 10000 3.6 90 20:21 03.03.2022
3411 Clouds 26 1009 31 10000 3.09 120 18:58 03.03.2022
3412 Clouds 28 1009 28 10000 1.54 80 18:25 03.03.2022
3413 Clouds 31 1009 22 10000 3.6 60 17:31 03.03.2022
3414 Clouds 29 1009 28 10000 4.63 60 16:28 03.03.2022
3415 Clouds 29 1010 30 10000 4.12 60 15:41 03.03.2022
3416 Clouds 36 1000 43 10000 3.09 80 14:44 03.03.2022
3417 Clouds 36 1000 43 10000 3.09 80 14:25 03.03.2022
3418 Clouds 36 1000 43 10000 3.6 90 12:28 03.03.2022
3419 Clouds 36 1000 43 10000 3.09 120 10:56 03.03.2022
3420 Clouds 36 1000 43 10000 3.6 110 09:56 03.03.2022
3421 Clouds 39 1006 14 10000 2.06 170 08:42 03.03.2022
3422 Clear 40 1007 12 10000 2.57 210 06:54 03.03.2022
3423 Clear 36 1000 43 10000 3.09 310 05:20 03.03.2022
3424 Clear 28 1010 30 10000 2.06 40 23:45 02.03.2022
3425 Clear 25 1009 38 10000 2.57 60 22:53 02.03.2022
3426 Clear 22 1009 56 10000 2.06 110 22:31 02.03.2022
3427 Clear 23 1008 49 10000 2.06 80 20:59 02.03.2022
3428 Clear 23 1008 49 10000 3.09 110 20:25 02.03.2022
3429 Clear 25 1008 41 10000 3.09 50 19:37 02.03.2022
3430 Clouds 25 1008 41 10000 2.57 60 18:58 02.03.2022
3431 Clouds 26 1008 38 10000 3.6 40 18:31 02.03.2022
3432 Clouds 27 1009 36 10000 2.57 10 17:41 02.03.2022
3433 Clouds 26 1009 41 10000 2.57 30 16:52 02.03.2022
3434 Clouds 28 1009 36 10000 3.6 60 15:46 02.03.2022
3435 Clouds 29 1009 37 10000 3.09 70 13:52 02.03.2022
3436 Clouds 36 1000 43 10000 3.6 100 12:46 02.03.2022
3437 Clouds 36 1000 43 10000 4.12 110 12:24 02.03.2022
3438 Clouds 36 1000 43 10000 3.6 120 11:26 02.03.2022
3439 Clouds 36 1000 43 10000 4.12 130 10:31 02.03.2022
3440 Clouds 36 1000 43 10000 4.12 130 09:35 02.03.2022
3441 Clouds 38 1006 17 10000 2.57 160 08:28 02.03.2022
3442 Clouds 38 1007 19 10000 5.66 230 07:23 02.03.2022
3443 Clear 36 1000 43 10000 3.6 100 04:46 02.03.2022
3444 Clear 29 1010 37 10000 0 0 00:40 02.03.2022
3445 Clear 29 1010 37 10000 0 0 00:40 02.03.2022
3446 Clear 23 1010 60 10000 1.03 300 23:24 01.03.2022
3447 Clear 20 1010 68 10000 3.09 290 22:37 01.03.2022
3448 Clear 20 1009 68 10000 0 0 21:37 01.03.2022
3449 Clear 22 1009 56 10000 2.57 120 20:38 01.03.2022
3450 Clear 22 1009 56 10000 2.57 120 20:19 01.03.2022
3451 Clouds 23 1009 56 10000 1.54 110 18:52 01.03.2022
3452 Clear 24 1009 50 10000 3.09 110 18:22 01.03.2022
3453 Clear 22 1009 64 10000 0 0 17:39 01.03.2022
3454 Clear 24 1010 57 10000 0 0 16:36 01.03.2022
3455 Clear 24 1010 57 10000 1.03 100 15:47 01.03.2022
3456 Clear 26 1010 44 10000 2.57 60 14:53 01.03.2022
3457 Clear 27 1010 39 10000 2.57 70 14:31 01.03.2022
3458 Clouds 28 1010 39 10000 2.57 70 13:26 01.03.2022
3459 Clouds 31 1009 30 10000 3.09 100 12:36 01.03.2022
3460 Clouds 36 1000 43 10000 3.09 150 10:57 01.03.2022
3461 Clouds 36 1000 43 10000 2.06 160 09:43 01.03.2022
3462 Clouds 36 1000 43 10000 3.09 140 08:20 01.03.2022
3463 Clouds 36 1000 43 10000 2.57 180 06:47 01.03.2022
3464 Clouds 36 1000 43 10000 3.6 80 03:26 01.03.2022
3465 Clouds 30 1011 35 10000 3.6 90 00:48 01.03.2022
3466 Clouds 23 1011 60 10000 0 0 23:39 28.02.2022
3467 Clouds 21 1010 68 10000 0 0 22:38 28.02.2022
3468 Clouds 21 1010 64 10000 2.57 320 21:47 28.02.2022
3469 Clouds 22 1010 64 10000 2.06 290 20:46 28.02.2022
3470 Clouds 21 1010 68 10000 2.06 290 19:51 28.02.2022
3471 Clouds 22 1010 64 10000 0 0 18:50 28.02.2022
3472 Clouds 22 1010 68 10000 0 0 17:43 28.02.2022
3473 Clouds 22 1010 68 10000 0 0 17:21 28.02.2022
3474 Clouds 23 1010 64 10000 0 0 16:21 28.02.2022
3475 Clouds 25 1010 57 10000 0 0 14:32 28.02.2022
3476 Clouds 26 1010 50 10000 0 0 13:53 28.02.2022
3477 Clouds 27 1010 44 10000 0 0 13:24 28.02.2022
3478 Clouds 30 1009 32 10000 3.09 110 12:25 28.02.2022
3479 Clouds 36 1000 43 10000 2.57 110 11:19 28.02.2022
3480 Clouds 36 1000 43 10000 4.12 110 10:23 28.02.2022
3481 Clouds 36 1000 43 10000 3.6 110 09:44 28.02.2022
3482 Clouds 36 1000 43 10000 3.6 90 08:54 28.02.2022
3483 Clouds 36 1000 43 10000 3.6 140 07:59 28.02.2022
3484 Clouds 36 1000 43 10000 3.6 110 06:31 28.02.2022
3485 Clouds 36 1000 43 10000 3.09 150 04:31 28.02.2022
3486 Clouds 31 1012 30 10000 3.09 50 00:53 28.02.2022
3487 Clear 20 1011 73 10000 2.06 290 22:53 27.02.2022
3488 Clear 20 1011 73 10000 2.57 310 22:32 27.02.2022
3489 Clear 20 1010 68 10000 0.51 270 21:42 27.02.2022
3490 Clear 20 1010 73 10000 0.51 280 20:44 27.02.2022
3491 Clear 20 1010 73 10000 0.51 280 20:18 27.02.2022
3492 Clear 20 1010 73 10000 2.06 320 19:49 27.02.2022
3493 Clear 21 1010 68 10000 0 0 19:21 27.02.2022
3494 Clear 23 1010 60 10000 2.06 350 18:33 27.02.2022
3495 Clear 22 1010 64 10000 0 0 17:49 27.02.2022
3496 Clear 23 1011 60 10000 0 0 16:25 27.02.2022
3497 Clear 23 1011 60 10000 0 0 15:24 27.02.2022
3498 Clear 29 1010 34 10000 3.09 120 12:37 27.02.2022
3499 Clear 29 1009 34 10000 3.09 140 11:54 27.02.2022
3500 Clear 36 1000 43 10000 4.12 140 10:37 27.02.2022
3501 Clear 36 1000 43 10000 5.66 120 09:58 27.02.2022
3502 Clear 36 1000 43 10000 5.14 150 09:24 27.02.2022
3503 Clear 36 1000 43 10000 4.63 130 08:48 27.02.2022
3504 Clear 36 1000 43 10000 5.14 130 06:26 27.02.2022
3505 Clear 36 1000 43 10000 5.66 90 03:44 27.02.2022
3506 Clouds 26 1011 53 10000 0.51 300 23:57 26.02.2022
3507 Clouds 20 1011 73 10000 2.06 290 22:43 26.02.2022
3508 Clouds 20 1011 73 10000 0 0 21:29 26.02.2022
3509 Clouds 21 1010 73 10000 2.06 320 20:43 26.02.2022
3510 Clouds 21 1010 73 10000 0 0 19:57 26.02.2022
3511 Clouds 21 1010 73 10000 0 0 19:33 26.02.2022
3512 Clouds 21 1010 73 10000 0 0 19:33 26.02.2022
3513 Clouds 23 1010 64 10000 3.09 350 18:33 26.02.2022
3514 Clouds 23 1011 68 10000 2.57 290 17:37 26.02.2022
3515 Clouds 23 1011 64 10000 0 0 16:39 26.02.2022
3516 Clouds 24 1011 60 10000 0 0 15:38 26.02.2022
3517 Clouds 24 1011 60 10000 0 0 15:19 26.02.2022
3518 Clouds 25 1011 57 10000 0 0 14:42 26.02.2022
3519 Clouds 25 1011 57 10000 0 0 13:53 26.02.2022
3520 Clouds 27 1011 47 10000 2.57 140 12:53 26.02.2022
3521 Clouds 29 1010 39 10000 2.57 130 11:52 26.02.2022
3522 Clouds 30 1009 32 10000 2.57 120 11:25 26.02.2022
3523 Clouds 36 1000 43 10000 5.14 130 09:44 26.02.2022
3524 Clear 36 1000 43 10000 5.14 120 08:35 26.02.2022
3525 Clouds 36 1000 43 10000 5.66 170 06:31 26.02.2022
3526 Clear 27 1012 41 10000 0 0 00:25 26.02.2022
3527 Clear 19 1011 72 10000 0 0 22:43 25.02.2022
3528 Clear 19 1011 72 10000 0 0 21:33 25.02.2022
3529 Clear 20 1010 68 10000 0 0 20:56 25.02.2022
3530 Clear 20 1010 68 10000 2.06 270 20:27 25.02.2022
3531 Clear 22 1011 60 10000 0 0 17:57 25.02.2022
3532 Clear 22 1011 64 10000 0 0 16:59 25.02.2022
3533 Clouds 24 1011 57 10000 2.06 190 15:56 25.02.2022
3534 Clouds 25 1012 47 10000 1.54 170 15:24 25.02.2022
3535 Clouds 26 1012 47 10000 1.54 180 14:56 25.02.2022
3536 Clouds 25 1012 50 10000 1.03 180 14:27 25.02.2022
3537 Clouds 26 1012 53 10000 3.09 190 13:30 25.02.2022
3538 Clouds 27 1011 39 10000 2.57 150 12:21 25.02.2022
3539 Clear 29 1010 34 10000 3.09 140 11:22 25.02.2022
3540 Clear 36 1000 43 10000 4.63 130 10:23 25.02.2022
3541 Clear 36 1000 43 10000 4.63 130 10:23 25.02.2022
3542 Clear 36 1000 43 10000 6.17 130 09:46 25.02.2022
3543 Clear 36 1000 43 10000 6.69 130 08:41 25.02.2022
3544 Clear 36 1000 43 10000 6.17 130 07:31 25.02.2022
3545 Clear 36 1000 43 10000 6.69 140 05:43 25.02.2022
3546 Clear 32 1013 31 10000 6.17 80 02:48 25.02.2022
3547 Clear 18 1013 72 10000 0 0 22:48 24.02.2022
3548 Clear 17 1012 77 10000 0 0 21:51 24.02.2022
3549 Clear 18 1012 72 10000 0 0 21:31 24.02.2022
3550 Clear 18 1012 72 10000 0 0 20:47 24.02.2022
3551 Clear 20 1012 64 10000 0 0 19:32 24.02.2022
3552 Clear 21 1012 60 10000 0 0 18:21 24.02.2022
3553 Clear 20 1012 60 10000 0 0 17:58 24.02.2022
3554 Clear 21 1012 56 10000 0 0 17:21 24.02.2022
3555 Clear 22 1012 49 10000 0 0 16:28 24.02.2022
3556 Clear 22 1012 56 10000 1.54 290 15:44 24.02.2022
3557 Clear 23 1012 53 10000 2.57 170 14:48 24.02.2022
3558 Clear 25 1012 44 10000 3.09 160 13:59 24.02.2022
3559 Clear 24 1012 46 10000 4.12 150 13:38 24.02.2022
3560 Clear 29 1011 30 10000 3.6 140 11:41 24.02.2022
3561 Clear 32 1011 23 10000 5.14 140 10:34 24.02.2022
3562 Clear 36 1000 43 10000 6.69 130 08:44 24.02.2022
3563 Clear 36 1000 43 10000 6.17 110 07:26 24.02.2022
3564 Clear 36 1000 43 10000 7.72 110 05:43 24.02.2022
3565 Clear 24 1014 33 10000 0 0 00:32 24.02.2022
3566 Clear 17 1013 63 10000 2.57 270 22:25 23.02.2022
3567 Clear 17 1012 72 10000 2.57 290 20:48 23.02.2022
3568 Clear 18 1012 63 10000 2.06 310 20:28 23.02.2022
3569 Clear 18 1012 68 10000 0 0 19:35 23.02.2022
3570 Clear 18 1012 68 10000 0 0 18:27 23.02.2022
3571 Clear 20 1013 60 10000 1.54 120 16:33 23.02.2022
3572 Clear 23 1013 43 10000 2.57 90 14:22 23.02.2022
3573 Clear 26 1012 36 10000 3.09 130 12:37 23.02.2022
3574 Clear 29 1011 28 10000 3.6 130 11:23 23.02.2022
3575 Clear 36 1000 43 10000 4.63 130 10:23 23.02.2022
3576 Clear 36 1000 43 10000 5.66 160 08:55 23.02.2022
3577 Clear 36 1000 43 10000 5.14 190 07:55 23.02.2022
3578 Clear 31 1012 23 10000 3.09 90 03:29 23.02.2022
3579 Clear 24 1013 38 10000 2.57 70 00:18 23.02.2022
3580 Clear 20 1013 56 10000 0 0 23:34 22.02.2022
3581 Clear 16 1012 77 10000 0 0 22:28 22.02.2022
3582 Clear 16 1012 77 10000 0 0 22:28 22.02.2022
3583 Clear 16 1012 77 10000 0 0 21:45 22.02.2022
3584 Clear 17 1012 72 10000 0 0 21:21 22.02.2022
3585 Clear 17 1011 72 10000 0 0 20:43 22.02.2022
3586 Clear 17 1011 72 10000 2.06 110 20:25 22.02.2022
3587 Clear 18 1011 68 10000 2.06 80 19:34 22.02.2022
3588 Clear 20 1011 56 10000 3.09 80 18:42 22.02.2022
3589 Clear 21 1011 56 10000 2.57 100 17:35 22.02.2022
3590 Clear 21 1011 52 10000 2.57 100 16:57 22.02.2022
3591 Clear 22 1011 49 10000 3.09 80 16:22 22.02.2022
3592 Clear 22 1012 53 10000 3.09 60 15:31 22.02.2022
3593 Clear 23 1011 46 10000 2.57 70 14:33 22.02.2022
3594 Clear 29 1010 28 10000 4.12 140 11:41 22.02.2022
3595 Clear 36 1000 43 10000 3.6 140 09:48 22.02.2022
3596 Clear 36 1000 43 10000 4.63 150 07:40 22.02.2022
3597 Clear 36 1000 43 10000 4.63 150 07:19 22.02.2022
3598 Clear 28 1013 32 10000 4.63 100 02:51 22.02.2022
3599 Clear 22 1013 46 10000 0 0 23:48 21.02.2022
3600 Clear 15 1013 72 10000 1.54 240 22:37 21.02.2022
3601 Clear 15 1012 72 10000 1.54 240 21:23 21.02.2022
3602 Clear 16 1011 67 10000 1.03 60 18:58 21.02.2022
3603 Clear 18 1011 59 10000 2.57 110 18:39 21.02.2022
3604 Clear 18 1011 59 10000 0 0 16:37 21.02.2022
3605 Clear 21 1011 46 10000 2.57 50 14:24 21.02.2022
3606 Clear 23 1011 40 10000 4.12 150 13:40 21.02.2022
3607 Clear 23 1011 38 10000 3.09 130 12:57 21.02.2022
3608 Clear 25 1010 33 10000 3.6 150 12:21 21.02.2022
3609 Clear 25 1010 33 10000 3.6 150 12:21 21.02.2022
3610 Clear 30 1009 20 10000 3.09 150 10:31 21.02.2022
3611 Clear 32 1009 14 10000 2.57 180 07:51 21.02.2022
3612 Clouds 23 1013 35 10000 3.09 110 00:36 21.02.2022
3613 Clouds 16 1011 67 10000 3.09 200 22:32 20.02.2022
3614 Clouds 16 1011 72 10000 3.09 290 21:44 20.02.2022
3615 Clouds 15 1010 72 10000 2.06 270 21:25 20.02.2022
3616 Clouds 15 1010 72 10000 2.57 270 20:43 20.02.2022
3617 Clouds 17 1010 63 10000 0 0 19:51 20.02.2022
3618 Clouds 17 1009 63 10000 0 0 18:57 20.02.2022
3619 Clouds 17 1010 63 10000 0 0 18:37 20.02.2022
3620 Clouds 17 1010 67 10000 0 0 17:55 20.02.2022
3621 Clouds 18 1010 63 10000 0 0 17:24 20.02.2022
3622 Clouds 19 1010 63 10000 1.03 230 15:27 20.02.2022
3623 Clouds 22 1010 46 10000 0 0 13:59 20.02.2022
3624 Clear 24 1010 35 10000 2.57 150 12:45 20.02.2022
3625 Clear 25 1010 36 10000 3.09 160 11:50 20.02.2022
3626 Clear 30 1009 21 10000 3.6 140 10:21 20.02.2022
3627 Clear 32 1009 18 10000 5.14 160 09:24 20.02.2022
3628 Clear 31 1010 22 10000 4.63 170 06:28 20.02.2022
3629 Clear 22 1014 46 10000 0.51 230 00:32 20.02.2022
3630 Clear 18 1014 68 10000 1.54 260 23:32 19.02.2022
3631 Clear 14 1014 82 10000 0 0 22:24 19.02.2022
3632 Clear 14 1013 82 10000 0 0 21:45 19.02.2022
3633 Clear 15 1012 82 10000 0 0 20:26 19.02.2022
3634 Clear 16 1012 77 10000 0 0 19:34 19.02.2022
3635 Clear 17 1013 72 10000 0 0 18:39 19.02.2022
3636 Clear 17 1013 72 10000 0 0 17:54 19.02.2022
3637 Clear 17 1013 72 10000 0 0 16:47 19.02.2022
3638 Clear 19 1014 63 10000 0 0 15:20 19.02.2022
3639 Clear 19 1014 63 10000 0 0 14:53 19.02.2022
3640 Clear 22 1014 49 10000 2.57 140 13:55 19.02.2022
3641 Clear 26 1013 31 10000 3.6 110 11:42 19.02.2022
3642 Clear 28 1013 28 10000 3.6 120 10:45 19.02.2022
3643 Clear 30 1013 21 10000 4.12 150 08:54 19.02.2022
3644 Clear 30 1013 23 10000 4.12 150 06:45 19.02.2022
3645 Clear 21 1017 49 10000 0.51 160 23:55 18.02.2022
3646 Clear 14 1017 77 10000 0 0 22:24 18.02.2022
3647 Clear 14 1016 77 10000 0 0 21:18 18.02.2022
3648 Clear 15 1016 72 10000 0 0 19:56 18.02.2022
3649 Clear 16 1016 72 10000 2.57 190 18:51 18.02.2022
3650 Clear 16 1016 72 10000 3.09 170 18:25 18.02.2022
3651 Clear 17 1016 63 10000 0 0 17:56 18.02.2022
3652 Clear 19 1017 55 10000 2.06 190 15:35 18.02.2022
3653 Clear 20 1017 52 10000 3.09 150 13:56 18.02.2022
3654 Clear 21 1017 46 10000 2.57 130 13:28 18.02.2022
3655 Clear 23 1016 38 10000 3.6 140 12:42 18.02.2022
3656 Clear 24 1016 35 10000 4.12 140 11:55 18.02.2022
3657 Clear 29 1015 26 10000 6.17 150 10:24 18.02.2022
3658 Clear 31 1015 27 10000 6.69 160 06:58 18.02.2022
3659 Clear 29 1016 32 10000 6.17 120 05:42 18.02.2022
3660 Clear 24 1017 43 10000 4.12 120 23:53 17.02.2022
3661 Clear 20 1016 77 10000 3.09 180 21:50 17.02.2022
3662 Clear 21 1015 73 10000 2.06 170 21:26 17.02.2022
3663 Clear 22 1015 73 10000 3.09 140 20:40 17.02.2022
3664 Clear 21 1015 78 10000 0 0 19:52 17.02.2022
3665 Clear 22 1015 68 10000 0 0 18:54 17.02.2022
3666 Clear 22 1015 68 10000 3.09 140 17:55 17.02.2022
3667 Clear 22 1015 68 10000 3.09 140 16:43 17.02.2022
3668 Clear 24 1015 60 10000 3.09 130 15:38 17.02.2022
3669 Clear 25 1015 53 10000 3.6 130 14:28 17.02.2022
3670 Clear 27 1014 41 10000 3.6 150 12:43 17.02.2022
3671 Clear 30 1013 32 10000 3.6 140 11:27 17.02.2022
3672 Clear 36 1000 43 10000 5.14 130 09:18 17.02.2022
3673 Clear 36 1000 43 10000 6.17 90 04:20 17.02.2022
3674 Clouds 22 1014 60 10000 2.57 310 23:21 16.02.2022
3675 Clouds 18 1013 72 10000 3.09 270 21:44 16.02.2022
3676 Clouds 20 1012 73 10000 3.6 300 19:57 16.02.2022
3677 Clouds 21 1012 60 10000 2.57 330 18:43 16.02.2022
3678 Clouds 20 1012 68 10000 2.06 280 17:53 16.02.2022
3679 Clouds 22 1014 64 10000 0 0 15:40 16.02.2022
3680 Clouds 22 1014 64 10000 0 0 15:19 16.02.2022
3681 Clouds 26 1013 38 10000 3.09 60 13:28 16.02.2022
3682 Clouds 28 1012 30 10000 3.09 90 12:20 16.02.2022
3683 Clouds 30 1012 26 10000 2.57 100 11:28 16.02.2022
3684 Clouds 36 1000 43 10000 4.12 110 10:34 16.02.2022
3685 Clouds 36 1000 43 10000 4.63 130 08:20 16.02.2022
3686 Clouds 36 1000 43 10000 3.6 60 06:29 16.02.2022
3687 Clouds 25 1015 57 10000 0 0 23:45 15.02.2022
3688 Clouds 18 1013 88 10000 0 0 22:30 15.02.2022
3689 Clouds 19 1013 82 10000 0 0 21:47 15.02.2022
3690 Clouds 19 1013 82 10000 0 0 21:27 15.02.2022
3691 Clouds 19 1013 82 10000 0 0 20:56 15.02.2022
3692 Clouds 20 1012 83 10000 0 0 19:57 15.02.2022
3693 Clouds 21 1013 73 10000 0 0 18:56 15.02.2022
3694 Clouds 21 1013 73 10000 0 0 18:22 15.02.2022
3695 Clouds 21 1013 78 10000 2.57 310 17:50 15.02.2022
3696 Clouds 22 1013 78 10000 0 0 16:50 15.02.2022
3697 Clouds 24 1014 64 10000 0 0 15:28 15.02.2022
3698 Clouds 27 1014 47 10000 2.57 80 13:27 15.02.2022
3699 Clouds 28 1014 44 10000 2.57 60 12:37 15.02.2022
3700 Clouds 36 1000 43 10000 2.57 100 11:40 15.02.2022
3701 Clouds 36 1000 43 10000 4.63 110 09:31 15.02.2022
3702 Clouds 36 1000 43 10000 3.6 100 06:58 15.02.2022
3703 Clear 36 1000 43 10000 4.63 110 04:54 15.02.2022
3704 Clouds 25 1017 65 10000 0 0 23:33 14.02.2022
3705 Clouds 21 1015 83 10000 0 0 21:36 14.02.2022
3706 Clouds 22 1015 83 10000 0 0 20:40 14.02.2022
3707 Clouds 23 1015 78 10000 0 0 19:36 14.02.2022
3708 Clouds 23 1015 78 10000 0 0 18:44 14.02.2022
3709 Clouds 24 1015 73 10000 0 0 18:22 14.02.2022
3710 Clouds 25 1015 65 10000 0 0 17:26 14.02.2022
3711 Clouds 26 1016 61 10000 1.54 190 16:24 14.02.2022
3712 Clouds 27 1016 57 10000 1.03 50 14:29 14.02.2022
3713 Clouds 28 1016 47 10000 3.09 100 13:31 14.02.2022
3714 Clear 29 1015 42 10000 4.12 80 12:48 14.02.2022
3715 Clear 30 1014 39 10000 3.09 130 11:54 14.02.2022
3716 Clear 35 1013 23 10000 3.6 130 10:43 14.02.2022
3717 Clear 36 1013 19 10000 4.12 120 08:45 14.02.2022
3718 Clear 36 1014 19 10000 3.6 130 07:31 14.02.2022
3719 Clear 30 1017 23 10000 2.57 90 01:18 14.02.2022
3720 Clear 17 1015 72 10000 2.06 310 22:42 13.02.2022
3721 Clear 17 1015 72 10000 2.06 310 22:24 13.02.2022
3722 Clear 15 1014 77 10000 2.57 270 21:32 13.02.2022
3723 Clear 16 1014 77 10000 0 0 20:35 13.02.2022
3724 Clear 18 1014 68 10000 2.57 300 19:31 13.02.2022
3725 Clear 17 1014 72 10000 2.06 310 18:46 13.02.2022
3726 Clear 17 1014 67 10000 2.57 310 18:26 13.02.2022
3727 Clear 20 1014 56 10000 0 0 15:54 13.02.2022
3728 Clear 20 1015 60 10000 0 0 15:24 13.02.2022
3729 Clear 22 1014 49 10000 0 0 14:22 13.02.2022
3730 Clear 25 1014 36 10000 3.09 140 12:51 13.02.2022
3731 Clear 26 1013 34 10000 3.09 120 11:44 13.02.2022
3732 Clear 32 1012 19 10000 3.6 140 10:33 13.02.2022
3733 Clear 36 1000 43 10000 3.6 140 09:45 13.02.2022
3734 Clear 36 1000 43 10000 2.57 210 07:48 13.02.2022
3735 Clear 23 1014 40 10000 0 0 00:35 13.02.2022
3736 Clear 18 1014 68 10000 2.06 270 23:42 12.02.2022
3737 Clear 15 1013 77 10000 2.06 290 22:33 12.02.2022
3738 Clear 15 1012 77 10000 2.57 300 21:27 12.02.2022
3739 Clear 16 1012 77 10000 2.57 290 20:34 12.02.2022
3740 Clear 16 1012 77 10000 2.06 280 19:27 12.02.2022
3741 Clear 17 1012 67 10000 3.09 310 18:53 12.02.2022
3742 Clear 17 1012 77 10000 1.54 280 18:35 12.02.2022
3743 Clear 18 1012 63 10000 2.06 280 16:58 12.02.2022
3744 Clear 18 1012 68 10000 0 0 16:25 12.02.2022
3745 Clear 18 1012 72 10000 0 0 15:51 12.02.2022
3746 Clear 21 1012 56 10000 0 0 14:31 12.02.2022
3747 Clear 24 1012 46 10000 2.06 70 13:19 12.02.2022
3748 Clear 31 1011 19 10000 4.12 130 10:41 12.02.2022
3749 Clear 32 1011 17 10000 4.12 120 09:49 12.02.2022
3750 Clear 32 1010 15 10000 4.12 120 09:26 12.02.2022
3751 Clear 32 1010 18 10000 4.12 120 08:18 12.02.2022
3752 Clear 30 1012 17 10000 4.12 130 05:33 12.02.2022
3753 Clear 31 1013 20 10000 4.63 100 04:27 12.02.2022
3754 Clear 28 1014 28 10000 7.2 130 02:18 12.02.2022
3755 Clear 16 1014 82 10000 0 0 22:29 11.02.2022
3756 Clear 16 1014 82 10000 0 0 21:55 11.02.2022
3757 Clear 17 1013 82 10000 0 0 20:41 11.02.2022
3758 Clear 17 1013 82 10000 0 0 19:46 11.02.2022
3759 Clear 18 1013 77 10000 0 0 19:27 11.02.2022
3760 Clear 19 1013 72 10000 2.06 100 17:55 11.02.2022
3761 Clear 21 1013 60 10000 0 0 17:25 11.02.2022
3762 Clear 21 1014 64 10000 0 0 16:22 11.02.2022
3763 Clear 22 1014 60 10000 3.09 170 14:43 11.02.2022
3764 Clear 22 1014 60 10000 3.09 170 14:21 11.02.2022
3765 Clear 22 1014 56 10000 3.09 150 13:57 11.02.2022
3766 Clear 23 1014 49 10000 2.57 120 13:39 11.02.2022
3767 Clear 27 1013 34 10000 3.6 140 11:41 11.02.2022
3768 Clear 31 1013 20 10000 5.14 140 09:57 11.02.2022
3769 Clear 32 1013 18 10000 6.17 150 08:42 11.02.2022
3770 Clear 32 1013 18 10000 6.17 150 08:42 11.02.2022
3771 Clear 32 1013 18 10000 6.17 150 08:22 11.02.2022
3772 Clear 36 1000 43 10000 6.17 120 06:33 11.02.2022
3773 Clear 28 1018 24 10000 6.69 140 02:26 11.02.2022
3774 Clear 25 1018 41 10000 4.12 110 00:51 11.02.2022
3775 Clear 17 1017 82 10000 2.57 280 22:49 10.02.2022
3776 Clear 16 1016 82 10000 2.57 280 21:45 10.02.2022
3777 Clear 16 1016 82 10000 2.06 290 20:57 10.02.2022
3778 Clear 17 1015 82 10000 0 0 20:30 10.02.2022
3779 Clear 18 1015 77 10000 0 0 19:25 10.02.2022
3780 Clear 18 1015 82 10000 0 0 18:44 10.02.2022
3781 Clear 20 1015 73 10000 0 0 17:26 10.02.2022
3782 Clear 20 1015 73 10000 1.54 110 16:50 10.02.2022
3783 Clear 23 1016 56 10000 2.06 70 15:47 10.02.2022
3784 Clear 23 1016 56 10000 2.57 90 15:28 10.02.2022
3785 Clear 24 1016 53 10000 1.03 80 14:46 10.02.2022
3786 Clear 24 1016 57 10000 3.09 120 14:23 10.02.2022
3787 Clear 26 1015 47 10000 4.12 140 13:22 10.02.2022
3788 Clear 26 1015 50 10000 3.09 130 12:23 10.02.2022
3789 Clear 29 1014 37 10000 3.6 120 11:33 10.02.2022
3790 Clear 31 1014 30 10000 4.63 120 10:43 10.02.2022
3791 Clear 32 1013 29 10000 5.14 120 09:50 10.02.2022
3792 Clear 36 1000 43 10000 4.63 130 09:18 10.02.2022
3793 Clouds 33 1014 27 10000 4.63 120 06:50 10.02.2022
3794 Clear 32 1015 29 10000 4.12 140 03:55 10.02.2022
3795 Clear 29 1016 32 10000 5.66 90 01:43 10.02.2022
3796 Clouds 26 1016 41 10000 4.12 100 00:42 10.02.2022
3797 Clouds 26 1016 41 10000 4.12 100 00:24 10.02.2022
3798 Clouds 23 1015 68 10000 2.06 130 22:58 09.02.2022
3799 Clouds 22 1015 73 10000 2.57 140 22:33 09.02.2022
3800 Clouds 22 1014 78 10000 1.03 100 21:49 09.02.2022
3801 Clouds 22 1014 73 10000 0 0 21:28 09.02.2022
3802 Clouds 22 1013 73 10000 2.06 140 20:45 09.02.2022
3803 Clouds 22 1013 73 10000 2.06 140 20:23 09.02.2022
3804 Clouds 23 1013 68 10000 2.57 120 19:43 09.02.2022
3805 Clouds 24 1013 73 10000 1.03 160 18:55 09.02.2022
3806 Clouds 22 1013 83 10000 2.06 120 17:24 09.02.2022
3807 Clouds 24 1013 69 10000 2.06 120 16:25 09.02.2022
3808 Clouds 24 1013 69 10000 0 0 15:32 09.02.2022
3809 Clouds 27 1013 54 10000 3.09 110 13:32 09.02.2022
3810 Clouds 28 1012 51 10000 3.09 130 11:52 09.02.2022
3811 Clouds 33 1011 33 10000 4.12 130 10:37 09.02.2022
3812 Clouds 33 1010 33 10000 4.12 130 09:56 09.02.2022
3813 Clouds 36 1000 43 10000 4.63 130 09:22 09.02.2022
3814 Clouds 36 1000 43 10000 3.6 130 08:51 09.02.2022
3815 Clouds 36 1000 43 10000 3.09 110 06:56 09.02.2022
3816 Clouds 32 1012 48 10000 3.6 90 04:36 09.02.2022
3817 Clouds 30 1012 48 10000 3.6 110 03:49 09.02.2022
3818 Clouds 25 1012 78 10000 0 0 23:45 08.02.2022
3819 Clouds 24 1012 83 10000 0 0 23:19 08.02.2022
3820 Clouds 23 1011 88 10000 0 0 22:38 08.02.2022
3821 Clouds 23 1011 88 10000 0 0 22:38 08.02.2022
3822 Clouds 23 1011 88 10000 0 0 22:20 08.02.2022
3823 Clouds 24 1010 88 10000 0 0 21:22 08.02.2022
3824 Clouds 23 1010 88 10000 0 0 20:58 08.02.2022
3825 Clouds 23 1009 83 10000 0 0 20:38 08.02.2022
3826 Clouds 23 1009 83 10000 2.57 280 19:28 08.02.2022
3827 Clouds 23 1010 83 10000 2.06 260 18:24 08.02.2022
3828 Clouds 25 1010 69 10000 2.57 240 17:30 08.02.2022
3829 Clouds 26 1010 61 10000 4.12 230 15:47 08.02.2022
3830 Clouds 26 1010 61 10000 3.6 200 15:27 08.02.2022
3831 Clouds 27 1009 54 10000 2.06 330 13:50 08.02.2022
3832 Clouds 28 1009 57 10000 2.06 160 12:24 08.02.2022
3833 Clouds 36 1000 43 10000 2.06 290 10:52 08.02.2022
3834 Clouds 36 1000 43 10000 2.57 280 09:49 08.02.2022
3835 Clouds 36 1000 43 10000 3.6 300 08:39 08.02.2022
3836 Clouds 36 1000 43 10000 0.45 37 06:49 08.02.2022
3837 Clouds 36 1000 43 10000 5.14 320 04:40 08.02.2022
3838 Clouds 36 1000 43 10000 5.14 320 04:22 08.02.2022
3839 Clouds 36 1000 43 10000 7.72 330 03:36 08.02.2022
3840 Clouds 36 1000 43 10000 7.72 330 03:18 08.02.2022
3841 Clouds 33 1010 22 10000 7.72 330 02:59 08.02.2022
3842 Clouds 33 1010 22 10000 8.23 330 02:36 08.02.2022
3843 Clouds 33 1010 22 10000 8.23 330 02:18 08.02.2022
3844 Clouds 31 1011 22 10000 6.69 340 01:44 08.02.2022
3845 Clouds 31 1011 22 10000 6.69 340 01:25 08.02.2022
3846 Clouds 31 1011 22 10000 6.69 340 01:25 08.02.2022
3847 Clear 30 1010 25 10000 5.66 330 00:55 08.02.2022
3848 Clouds 29 1010 26 10000 1.54 240 00:21 08.02.2022
3849 Clouds 25 1010 36 10000 3.6 330 23:44 07.02.2022
3850 Clouds 25 1010 36 10000 3.6 330 23:18 07.02.2022
3851 Clouds 23 1010 43 10000 2.57 360 22:59 07.02.2022
3852 Clouds 23 1010 40 10000 3.09 360 22:19 07.02.2022
3853 Clouds 21 1010 52 10000 3.09 320 21:50 07.02.2022
3854 Clouds 20 1009 64 10000 1.03 350 21:27 07.02.2022
3855 Clouds 20 1009 60 10000 4.12 340 20:43 07.02.2022
3856 Clouds 20 1009 64 10000 0 0 20:24 07.02.2022
3857 Clouds 19 1009 77 10000 0 0 19:47 07.02.2022
3858 Clouds 20 1009 77 10000 0 0 18:34 07.02.2022
3859 Clear 21 1010 73 10000 1.54 40 17:18 07.02.2022
3860 Clear 21 1010 73 10000 0.51 30 16:46 07.02.2022
3861 Clear 22 1010 68 10000 0 0 15:48 07.02.2022
3862 Clear 23 1010 56 10000 3.09 60 13:51 07.02.2022
3863 Clear 24 1009 53 10000 3.09 100 13:26 07.02.2022
3864 Clear 28 1009 36 10000 0 0 11:58 07.02.2022
3865 Clear 29 1008 30 10000 0 0 11:38 07.02.2022
3866 Clear 31 1008 23 10000 0 0 10:54 07.02.2022
3867 Clear 32 1008 25 10000 2.06 130 10:36 07.02.2022
3868 Clear 33 1008 18 10000 1.54 100 09:53 07.02.2022
3869 Clear 36 1000 43 10000 0.45 37 09:18 07.02.2022
3870 Clear 36 1000 43 10000 0.45 37 08:44 07.02.2022
3871 Clouds 33 1009 21 10000 3.09 220 07:34 07.02.2022
3872 Clear 33 1009 19 10000 4.63 310 06:34 07.02.2022
3873 Clear 31 1011 23 10000 2.57 320 04:18 07.02.2022
3874 Clear 27 1013 32 10000 3.09 100 01:29 07.02.2022
3875 Clear 21 1013 68 10000 0 0 23:50 06.02.2022
3876 Clear 19 1013 77 10000 0 0 23:19 06.02.2022
3877 Clear 15 1012 94 10000 0 0 22:37 06.02.2022
3878 Clear 15 1012 94 10000 0 0 21:37 06.02.2022
3879 Clear 16 1011 88 10000 2.06 280 20:58 06.02.2022
3880 Clear 15 1011 94 10000 3.09 270 20:37 06.02.2022
3881 Clear 16 1011 94 10000 2.06 250 19:50 06.02.2022
3882 Clear 17 1011 88 10000 2.57 270 18:52 06.02.2022
3883 Clear 17 1011 88 10000 1.03 180 18:26 06.02.2022
3884 Clear 18 1012 88 10000 0 0 17:29 06.02.2022
3885 Clear 18 1012 82 10000 0 0 16:50 06.02.2022
3886 Clear 19 1012 77 10000 0 0 15:50 06.02.2022
3887 Clear 19 1012 77 10000 0.51 160 15:28 06.02.2022
3888 Clear 20 1012 73 10000 2.06 10 14:52 06.02.2022
3889 Clear 23 1012 49 10000 3.09 110 13:53 06.02.2022
3890 Clear 23 1012 46 10000 2.06 90 13:20 06.02.2022
3891 Clear 25 1011 38 10000 2.57 90 11:44 06.02.2022
3892 Clear 29 1010 26 10000 3.6 140 10:31 06.02.2022
3893 Clear 30 1010 26 10000 3.09 150 09:26 06.02.2022
3894 Clear 30 1010 25 10000 2.57 70 08:41 06.02.2022
3895 Clear 29 1011 20 10000 3.09 80 06:19 06.02.2022
3896 Clear 27 1013 29 10000 3.6 90 03:31 06.02.2022
3897 Clear 27 1014 34 10000 3.6 90 02:24 06.02.2022
3898 Clear 21 1014 60 10000 0 0 00:30 06.02.2022
3899 Clear 17 1013 82 10000 0 0 23:18 05.02.2022
3900 Clear 14 1012 94 10000 2.06 280 21:33 05.02.2022
3901 Clear 15 1012 88 10000 2.06 290 20:25 05.02.2022
3902 Clear 15 1012 94 10000 2.57 300 19:49 05.02.2022
3903 Clear 16 1012 82 10000 2.57 320 19:27 05.02.2022
3904 Clear 15 1012 94 10000 0 0 18:23 05.02.2022
3905 Clear 16 1012 88 10000 0 0 17:31 05.02.2022
3906 Clear 18 1013 72 10000 0 0 15:42 05.02.2022
3907 Clear 18 1013 72 10000 0 0 15:24 05.02.2022
3908 Clear 21 1011 56 10000 3.09 120 12:54 05.02.2022
3909 Clear 23 1011 40 10000 3.09 100 12:33 05.02.2022
3910 Clear 26 1011 31 10000 3.6 120 10:53 05.02.2022
3911 Clear 28 1011 24 10000 4.63 120 10:25 05.02.2022
3912 Clear 28 1011 26 10000 4.12 120 09:46 05.02.2022
3913 Clear 28 1011 24 10000 5.14 90 08:20 05.02.2022
3914 Clear 28 1011 26 10000 4.63 120 06:57 05.02.2022
3915 Clear 26 1013 31 10000 5.14 130 04:30 05.02.2022
3916 Clear 23 1014 46 10000 5.66 90 01:19 05.02.2022
3917 Clear 21 1014 52 10000 1.03 120 00:53 05.02.2022
3918 Clear 18 1014 72 10000 0 0 23:58 04.02.2022
3919 Clear 16 1014 88 10000 0 0 23:30 04.02.2022
3920 Clear 14 1013 88 10000 1.03 310 21:59 04.02.2022
3921 Clear 14 1013 88 10000 3.09 330 21:36 04.02.2022
3922 Clear 14 1013 88 10000 3.09 330 21:18 04.02.2022
3923 Clear 13 1013 94 10000 0 0 20:20 04.02.2022
3924 Clear 15 1013 88 10000 0 0 17:43 04.02.2022
3925 Clear 16 1014 88 10000 0 0 15:55 04.02.2022
3926 Clear 16 1014 88 10000 0 0 15:55 04.02.2022
3927 Clear 17 1014 82 10000 0 0 14:55 04.02.2022
3928 Clear 19 1013 63 10000 0.51 110 13:39 04.02.2022
3929 Clouds 20 1012 64 10000 2.57 130 12:43 04.02.2022
3930 Clouds 22 1012 43 10000 3.6 130 11:42 04.02.2022
3931 Clouds 22 1012 43 10000 3.6 130 11:42 04.02.2022
3932 Clouds 26 1011 27 10000 6.17 120 10:36 04.02.2022
3933 Clouds 27 1011 29 10000 6.69 120 08:42 04.02.2022
3934 Clouds 26 1011 29 10000 5.66 130 06:57 04.02.2022
3935 Clouds 24 1014 35 10000 7.72 120 02:46 04.02.2022
3936 Clouds 22 1014 40 10000 8.75 110 01:52 04.02.2022
3937 Clouds 17 1014 72 10000 2.06 100 23:29 03.02.2022
3938 Clouds 14 1014 88 10000 3.09 130 22:40 03.02.2022
3939 Clouds 14 1013 88 10000 3.09 150 21:49 03.02.2022
3940 Clouds 14 1012 88 10000 2.57 150 20:39 03.02.2022
3941 Clouds 14 1012 88 10000 2.57 150 20:18 03.02.2022
3942 Clouds 15 1012 82 10000 3.09 140 19:30 03.02.2022
3943 Clouds 17 1012 72 10000 2.57 140 18:38 03.02.2022
3944 Clouds 18 1013 68 10000 3.09 140 17:32 03.02.2022
3945 Clouds 17 1013 72 10000 4.12 150 16:26 03.02.2022
3946 Clouds 18 1014 72 10000 3.6 160 14:45 03.02.2022
3947 Clouds 20 1012 73 10000 2.06 180 12:52 03.02.2022
3948 Clouds 23 1011 43 10000 4.12 130 11:22 03.02.2022
3949 Clouds 25 1010 47 10000 6.69 140 08:37 03.02.2022
3950 Clouds 25 1012 57 10000 7.2 140 05:26 03.02.2022
3951 Clouds 20 1012 77 10000 6.17 140 00:32 03.02.2022
3952 Clouds 19 1012 88 10000 5.14 150 23:39 02.02.2022
3953 Clouds 18 1011 94 10000 3.6 150 21:55 02.02.2022
3954 Clouds 19 1011 88 10000 3.6 150 21:31 02.02.2022
3955 Clouds 19 1011 88 10000 3.6 160 20:40 02.02.2022
3956 Clouds 19 1011 88 10000 3.6 150 19:58 02.02.2022
3957 Clouds 19 1011 88 10000 3.09 150 19:27 02.02.2022
3958 Clouds 19 1011 94 10000 4.12 150 18:39 02.02.2022
3959 Clouds 19 1011 94 10000 3.6 160 17:44 02.02.2022
3960 Clouds 19 1011 94 10000 3.6 150 17:19 02.02.2022
3961 Drizzle 19 1011 94 10000 3.09 150 16:31 02.02.2022
3962 Clouds 18 1011 100 6000 6.17 150 12:55 02.02.2022
3963 Clouds 19 1011 94 6000 6.17 140 12:18 02.02.2022
3964 Drizzle 19 1010 100 3200 5.14 150 11:32 02.02.2022
3965 Clouds 20 1008 100 5000 6.17 150 09:46 02.02.2022
3966 Clouds 22 1007 94 3700 5.66 170 07:32 02.02.2022
3967 Rain 22 1005 100 5000 3.09 210 22:46 01.02.2022
3968 Rain 23 1004 100 6000 4.63 150 21:36 01.02.2022
3969 Rain 23 1003 100 6000 4.12 250 19:58 01.02.2022
3970 Rain 23 1003 100 2500 2.57 300 17:41 01.02.2022
3971 Rain 24 1004 100 5000 3.6 210 16:36 01.02.2022
3972 Thunderstorm 24 1004 100 6000 3.6 150 13:32 01.02.2022
3973 Clouds 25 1003 100 10000 3.09 170 12:30 01.02.2022
3974 Clouds 24 1002 100 10000 3.09 150 10:44 01.02.2022
3975 Clouds 27 1003 78 10000 6.69 340 02:30 01.02.2022
3976 Rain 25 1002 83 10000 7.2 350 23:40 31.01.2022
3977 Clouds 25 1002 88 10000 6.69 350 22:43 31.01.2022
3978 Clouds 25 1001 83 10000 7.2 340 21:38 31.01.2022
3979 Clouds 24 1001 94 10000 8.75 350 20:44 31.01.2022
3980 Clouds 25 1001 83 10000 7.72 350 20:24 31.01.2022
3981 Clouds 25 1001 88 10000 6.17 350 18:54 31.01.2022
3982 Clouds 25 1001 88 10000 4.63 360 18:20 31.01.2022
3983 Clouds 25 1002 88 10000 5.66 360 17:25 31.01.2022
3984 Clouds 24 1003 94 10000 3.09 80 16:25 31.01.2022
3985 Clouds 23 1003 100 10000 2.57 50 14:54 31.01.2022
3986 Clouds 24 1002 100 10000 3.6 100 13:43 31.01.2022
3987 Clouds 24 1002 100 10000 3.6 100 12:38 31.01.2022
3988 Clouds 25 1001 94 10000 3.09 90 11:31 31.01.2022
3989 Clouds 25 1001 94 10000 3.6 100 10:48 31.01.2022
3990 Rain 25 1000 94 10000 2.57 70 09:38 31.01.2022
3991 Rain 25 1000 94 10000 3.09 90 08:56 31.01.2022
3992 Rain 25 1001 94 10000 2.57 90 08:20 31.01.2022
3993 Rain 25 1001 94 10000 0.51 70 07:43 31.01.2022
3994 Rain 25 1003 94 10000 3.09 340 05:33 31.01.2022
3995 Clouds 24 1004 94 10000 4.12 80 00:36 31.01.2022
3996 Clouds 23 1004 100 10000 4.63 90 22:33 30.01.2022
3997 Clouds 23 1003 100 10000 4.12 80 21:46 30.01.2022
3998 Clouds 23 1003 100 10000 3.6 70 21:26 30.01.2022
3999 Clouds 23 1003 100 10000 3.6 60 20:54 30.01.2022
4000 Clouds 23 1002 100 6000 3.6 80 20:31 30.01.2022
4001 Clouds 23 1003 100 6000 3.6 100 19:56 30.01.2022
4002 Rain 22 1003 100 10000 4.63 100 18:52 30.01.2022
4003 Rain 22 1003 100 10000 4.63 100 18:22 30.01.2022
4004 Rain 23 1004 100 5000 5.66 90 17:31 30.01.2022
4005 Rain 23 1004 100 5000 5.66 90 17:31 30.01.2022
4006 Rain 23 1004 100 5000 5.66 90 17:31 30.01.2022
4007 Clouds 23 1005 94 6000 5.14 70 16:44 30.01.2022
4008 Rain 23 1005 94 6000 6.17 60 16:23 30.01.2022
4009 Rain 23 1005 94 6000 6.69 70 15:55 30.01.2022
4010 Rain 23 1005 100 10000 5.66 80 15:33 30.01.2022
4011 Rain 23 1006 100 6000 9.77 90 14:48 30.01.2022
4012 Clouds 23 1005 100 10000 5.66 90 13:49 30.01.2022
4013 Rain 24 1005 94 6000 6.69 60 12:46 30.01.2022
4014 Rain 24 1004 94 10000 3.09 360 11:49 30.01.2022
4015 Rain 25 1003 88 10000 5.14 60 10:26 30.01.2022
4016 Rain 29 1002 70 10000 6.17 100 09:26 30.01.2022
4017 Clouds 28 1002 78 10000 5.66 90 08:32 30.01.2022
4018 Clouds 26 1006 83 10000 8.75 70 02:55 30.01.2022
4019 Drizzle 25 1007 94 6000 7.72 90 01:54 30.01.2022
4020 Clouds 25 1007 94 10000 5.66 120 23:49 29.01.2022
4021 Clouds 24 1006 100 10000 4.12 120 22:58 29.01.2022
4022 Clouds 24 1006 94 10000 3.6 120 21:35 29.01.2022
4023 Clouds 24 1005 94 10000 4.63 100 21:00 29.01.2022
4024 Clouds 23 1005 100 10000 5.14 100 20:20 29.01.2022
4025 Clouds 23 1005 100 10000 4.63 90 19:33 29.01.2022
4026 Rain 24 1005 94 10000 5.66 100 18:44 29.01.2022
4027 Rain 24 1005 100 10000 3.6 110 17:55 29.01.2022
4028 Rain 24 1006 94 10000 6.17 120 16:59 29.01.2022
4029 Rain 24 1007 94 10000 4.63 120 15:27 29.01.2022
4030 Rain 24 1007 100 10000 5.14 130 13:48 29.01.2022
4031 Rain 24 1006 94 10000 4.63 140 13:28 29.01.2022
4032 Rain 24 1006 100 10000 4.63 140 12:58 29.01.2022
4033 Rain 24 1005 100 10000 4.12 150 11:39 29.01.2022
4034 Rain 24 1005 100 10000 0 0 10:33 29.01.2022
4035 Rain 23 1005 100 10000 5.66 120 08:19 29.01.2022
4036 Clouds 27 1008 83 10000 6.17 140 02:26 29.01.2022
4037 Clouds 24 1008 100 10000 4.12 150 00:32 29.01.2022
4038 Clouds 24 1008 94 6000 4.12 120 23:29 28.01.2022
4039 Clouds 23 1007 100 10000 4.63 130 22:46 28.01.2022
4040 Clouds 23 1007 100 10000 5.14 140 22:19 28.01.2022
4041 Clouds 23 1007 100 10000 4.63 140 20:41 28.01.2022
4042 Clouds 23 1007 100 6000 5.66 150 19:57 28.01.2022
4043 Clouds 24 1006 94 10000 5.14 150 18:52 28.01.2022
4044 Clouds 24 1007 94 10000 5.14 140 17:53 28.01.2022
4045 Clouds 25 1009 88 10000 2.57 130 15:52 28.01.2022
4046 Clouds 25 1009 83 10000 6.69 150 14:50 28.01.2022
4047 Clouds 27 1007 78 10000 5.14 120 12:41 28.01.2022
4048 Clouds 28 1005 69 10000 8.23 100 11:43 28.01.2022
4049 Clouds 29 1005 65 10000 8.75 90 10:26 28.01.2022
4050 Clouds 29 1005 65 10000 8.23 80 09:46 28.01.2022
4051 Clouds 36 1004 36 10000 7.72 120 07:41 28.01.2022
4052 Clouds 34 1005 43 10000 8.75 110 05:31 28.01.2022
4053 Clouds 33 1007 46 10000 7.72 140 03:50 28.01.2022
4054 Clouds 32 1008 55 10000 7.72 150 02:24 28.01.2022
4055 Clouds 30 1008 58 10000 7.72 110 01:35 28.01.2022
4056 Clouds 29 1007 58 10000 4.63 150 00:33 28.01.2022
4057 Clouds 25 1006 78 10000 2.06 230 21:58 27.01.2022
4058 Clouds 25 1006 78 10000 0 0 21:34 27.01.2022
4059 Clouds 25 1006 78 10000 0 0 21:34 27.01.2022
4060 Clouds 25 1005 78 10000 0 0 20:58 27.01.2022
4061 Rain 26 1005 73 10000 0 0 19:35 27.01.2022
4062 Clouds 26 1005 73 10000 5.66 50 17:58 27.01.2022
4063 Clouds 29 1005 58 10000 3.09 40 15:43 27.01.2022
4064 Clouds 30 1005 54 10000 3.09 30 13:39 27.01.2022
4065 Clouds 31 1004 51 10000 2.06 120 12:46 27.01.2022
4066 Clouds 34 1003 38 10000 3.09 140 10:59 27.01.2022
4067 Clouds 35 1002 38 10000 5.66 120 09:27 27.01.2022
4068 Clouds 35 1002 38 10000 4.12 100 08:39 27.01.2022
4069 Clouds 35 1003 36 10000 3.6 130 07:23 27.01.2022
4070 Clear 32 1006 48 10000 3.6 110 02:59 27.01.2022
4071 Clouds 28 1007 69 10000 2.57 110 23:52 26.01.2022
4072 Clouds 25 1005 83 10000 0 0 22:27 26.01.2022
4073 Clouds 25 1005 83 10000 0 0 21:41 26.01.2022
4074 Clouds 25 1004 78 10000 2.06 180 20:41 26.01.2022
4075 Clouds 25 1004 78 10000 2.06 180 20:23 26.01.2022
4076 Clouds 26 1003 73 10000 4.63 20 19:28 26.01.2022
4077 Clouds 25 1004 78 10000 4.63 30 18:46 26.01.2022
4078 Clouds 24 1004 88 10000 5.14 30 17:51 26.01.2022
4079 Clouds 24 1005 88 10000 4.12 40 17:24 26.01.2022
4080 Clouds 24 1006 88 10000 5.14 130 16:35 26.01.2022
4081 Clouds 25 1007 78 10000 6.69 110 15:49 26.01.2022
4082 Rain 28 1006 65 10000 5.66 230 14:21 26.01.2022
4083 Clouds 30 1004 54 10000 2.57 40 11:54 26.01.2022
4084 Clouds 32 1003 45 10000 3.6 50 10:43 26.01.2022
4085 Clouds 34 1002 38 10000 6.17 70 09:48 26.01.2022
4086 Clouds 36 1000 43 10000 0.45 37 08:27 26.01.2022
4087 Thunderstorm 36 1000 43 10000 0.45 37 05:42 26.01.2022
4088 Clouds 28 1006 69 10000 3.09 360 23:58 25.01.2022
4089 Clouds 28 1006 69 10000 2.57 20 23:20 25.01.2022
4090 Clouds 25 1005 83 10000 0 0 22:26 25.01.2022
4091 Clouds 25 1005 83 10000 0 0 21:59 25.01.2022
4092 Clouds 26 1004 73 10000 2.57 340 20:59 25.01.2022
4093 Clouds 26 1004 73 10000 3.6 350 20:40 25.01.2022
4094 Clouds 26 1004 73 10000 3.09 10 19:53 25.01.2022
4095 Clouds 27 1004 69 10000 2.06 360 18:38 25.01.2022
4096 Clouds 27 1004 69 10000 2.57 10 17:45 25.01.2022
4097 Clouds 28 1004 65 10000 2.57 40 16:45 25.01.2022
4098 Clouds 28 1005 65 10000 4.12 360 16:21 25.01.2022
4099 Clouds 28 1005 65 10000 3.09 290 15:38 25.01.2022
4100 Clouds 29 1004 58 10000 3.09 350 14:57 25.01.2022
4101 Clouds 30 1004 54 10000 4.63 10 13:42 25.01.2022
4102 Clouds 32 1003 48 10000 7.2 20 10:51 25.01.2022
4103 Clouds 36 1000 43 10000 0.45 37 08:37 25.01.2022
4104 Clouds 36 1000 43 10000 0.45 37 07:29 25.01.2022
4105 Clouds 36 1000 43 10000 0.45 37 06:49 25.01.2022
4106 Clouds 36 1000 43 10000 0.45 37 05:22 25.01.2022
4107 Clouds 27 1005 65 10000 3.09 300 23:37 24.01.2022
4108 Clouds 27 1005 65 10000 3.09 300 23:18 24.01.2022
4109 Clouds 26 1004 73 10000 3.6 330 22:59 24.01.2022
4110 Clouds 25 1004 78 10000 3.09 330 22:41 24.01.2022
4111 Clouds 25 1003 73 10000 2.06 350 21:53 24.01.2022
4112 Clouds 25 1003 73 10000 3.09 360 21:29 24.01.2022
4113 Clouds 26 1003 69 10000 3.6 340 20:30 24.01.2022
4114 Clouds 26 1002 69 10000 4.12 350 19:50 24.01.2022
4115 Clouds 26 1002 73 10000 3.6 360 19:24 24.01.2022
4116 Clouds 27 1003 69 10000 5.14 350 18:18 24.01.2022
4117 Clouds 28 1003 65 10000 5.14 30 17:24 24.01.2022
4118 Clouds 28 1004 57 10000 5.14 40 16:52 24.01.2022
4119 Clouds 30 1004 51 10000 4.12 60 16:19 24.01.2022
4120 Clouds 32 1003 40 10000 2.06 150 14:38 24.01.2022
4121 Clouds 31 1002 58 10000 2.57 240 12:58 24.01.2022
4122 Clouds 32 1002 55 10000 4.12 270 12:23 24.01.2022
4123 Clouds 36 1000 43 10000 0.45 37 10:30 24.01.2022
4124 Clouds 36 1000 43 10000 0.45 37 10:30 24.01.2022
4125 Clouds 36 1000 43 10000 0.45 37 09:48 24.01.2022
4126 Clouds 36 1000 43 10000 0.45 37 08:34 24.01.2022
4127 Clouds 36 1000 43 10000 0.45 37 06:40 24.01.2022
4128 Clouds 30 1005 62 10000 2.06 270 01:30 24.01.2022
4129 Clouds 28 1006 74 10000 2.57 320 00:36 24.01.2022
4130 Clouds 27 1006 78 10000 1.54 280 23:52 23.01.2022
4131 Clouds 25 1005 88 10000 0 0 22:32 23.01.2022
4132 Clouds 24 1005 94 10000 0 0 21:49 23.01.2022
4133 Clouds 24 1004 94 10000 0 0 21:25 23.01.2022
4134 Clouds 24 1004 94 10000 0 0 20:44 23.01.2022
4135 Clouds 25 1004 88 10000 0.51 170 19:44 23.01.2022
4136 Clouds 26 1004 78 10000 2.06 120 18:51 23.01.2022
4137 Clouds 27 1005 74 10000 3.6 110 17:44 23.01.2022
4138 Clouds 27 1005 74 10000 4.12 100 16:47 23.01.2022
4139 Clouds 28 1006 69 10000 3.6 80 14:59 23.01.2022
4140 Clouds 28 1006 69 10000 4.63 80 14:25 23.01.2022
4141 Clouds 30 1005 62 10000 6.17 120 12:59 23.01.2022
4142 Clouds 31 1004 51 10000 7.72 150 12:22 23.01.2022
4143 Clouds 31 1003 48 10000 2.57 190 11:59 23.01.2022
4144 Clouds 32 1003 51 10000 2.06 260 11:19 23.01.2022
4145 Clouds 34 1003 38 10000 2.57 270 10:27 23.01.2022
4146 Clouds 34 1003 36 10000 2.57 250 09:51 23.01.2022
4147 Clouds 36 1000 43 10000 0.45 37 08:54 23.01.2022
4148 Clouds 36 1000 43 10000 0.45 37 05:57 23.01.2022
4149 Clouds 28 1009 65 10000 4.63 310 01:52 23.01.2022
4150 Clouds 28 1009 65 10000 4.63 310 01:27 23.01.2022
4151 Clear 27 1009 74 10000 5.14 310 00:23 23.01.2022
4152 Clouds 26 1009 78 10000 4.63 330 23:56 22.01.2022
4153 Clear 25 1008 83 10000 5.14 360 22:46 22.01.2022
4154 Clear 24 1007 88 10000 3.09 360 21:36 22.01.2022
4155 Clear 25 1007 83 10000 2.57 320 19:51 22.01.2022
4156 Clouds 26 1007 78 10000 4.12 350 18:50 22.01.2022
4157 Clouds 26 1007 78 10000 3.09 360 18:18 22.01.2022
4158 Clouds 27 1007 74 10000 4.63 20 17:40 22.01.2022
4159 Rain 27 1008 74 10000 2.57 40 16:56 22.01.2022
4160 Rain 27 1008 74 10000 2.57 90 15:50 22.01.2022
4161 Clouds 28 1009 74 10000 3.6 50 14:58 22.01.2022
4162 Clouds 28 1008 74 10000 3.6 80 13:46 22.01.2022
4163 Clouds 30 1008 66 10000 4.12 90 12:52 22.01.2022
4164 Clouds 30 1008 62 10000 3.6 110 12:29 22.01.2022
4165 Rain 31 1007 58 10000 3.09 120 11:31 22.01.2022
4166 Clouds 31 1007 58 10000 2.57 130 10:29 22.01.2022
4167 Clouds 32 1006 48 10000 3.09 160 09:59 22.01.2022
4168 Clouds 32 1006 51 10000 4.12 130 08:52 22.01.2022
4169 Clouds 33 1007 43 10000 3.6 200 07:38 22.01.2022
4170 Clouds 36 1000 43 10000 0.45 37 04:53 22.01.2022
4171 Clouds 30 1001 59 10000 0.89 114 01:35 22.01.2022
4172 Clouds 25 1011 83 10000 0 0 23:38 21.01.2022
4173 Clouds 25 1011 83 10000 0 0 23:38 21.01.2022
4174 Clouds 23 1000 95 10000 0.45 226 22:28 21.01.2022
4175 Clouds 23 999 94 10000 1.34 183 20:22 21.01.2022
4176 Clouds 23 1000 99 10000 0.89 219 18:40 21.01.2022
4177 Clouds 22 1000 98 10000 1.34 234 17:31 21.01.2022
4178 Rain 22 1002 99 10000 0 0 15:42 21.01.2022
4179 Rain 23 1003 98 10000 1.34 231 13:37 21.01.2022
4180 Rain 26 1010 64 10000 1.08 179 12:38 21.01.2022
4181 Rain 25 1001 87 10000 1.34 263 11:27 21.01.2022
4182 Clouds 28 999 64 10000 4.92 288 10:19 21.01.2022
4183 Clouds 35 1007 38 10000 3.6 10 08:24 21.01.2022
4184 Clouds 35 1008 38 10000 3.6 190 06:57 21.01.2022
4185 Clouds 27 1000 61 10000 2.24 12 23:36 20.01.2022
4186 Clouds 26 1000 62 10000 0.89 2 22:24 20.01.2022
4187 Clouds 26 1000 61 10000 0.45 30 21:43 20.01.2022
4188 Clouds 27 999 60 10000 1.34 66 20:53 20.01.2022
4189 Clouds 27 999 68 10000 0.89 45 19:20 20.01.2022
4190 Clouds 27 999 65 10000 0.45 49 18:50 20.01.2022
4191 Clouds 26 1000 83 10000 0 0 17:29 20.01.2022
4192 Rain 27 1000 73 10000 0 0 15:43 20.01.2022
4193 Rain 28 1000 64 10000 0 0 15:22 20.01.2022
4194 Clouds 27 1001 72 10000 0 0 13:41 20.01.2022
4195 Clouds 30 999 53 10000 0 0 12:35 20.01.2022
4196 Clouds 30 999 50 10000 2.57 80 11:57 20.01.2022
4197 Clouds 32 999 43 10000 1.34 201 10:40 20.01.2022
4198 Clouds 33 998 36 10000 1.34 203 09:40 20.01.2022
4199 Clouds 35 998 31 10000 1.34 263 08:32 20.01.2022
4200 Clouds 33 1011 43 10000 4.63 70 05:32 20.01.2022
4201 Clouds 27 1002 61 10000 2.24 229 23:28 19.01.2022
4202 Clouds 25 1001 64 10000 2.24 247 22:32 19.01.2022
4203 Clouds 25 1000 68 10000 0.45 247 21:24 19.01.2022
4204 Clouds 25 1000 70 10000 0.89 216 20:50 19.01.2022
4205 Clouds 26 999 68 10000 1.79 252 19:54 19.01.2022
4206 Clouds 26 999 71 10000 1.79 251 18:40 19.01.2022
4207 Clouds 25 999 82 10000 0.51 180 17:45 19.01.2022
4208 Clouds 25 1000 91 10000 1.03 230 16:57 19.01.2022
4209 Clouds 27 1011 83 10000 1.54 40 14:42 19.01.2022
4210 Rain 29 1011 61 10000 2.57 150 12:43 19.01.2022
4211 Rain 29 999 54 10000 1.34 263 11:42 19.01.2022
4212 Clouds 30 999 52 10000 2.68 259 10:35 19.01.2022
4213 Clouds 31 998 51 10000 1.34 274 09:34 19.01.2022
4214 Clouds 32 999 48 10000 2.24 283 06:56 19.01.2022
4215 Clouds 26 1001 65 10000 2.24 272 02:41 19.01.2022
4216 Clouds 22 1001 83 10000 2.68 297 23:20 18.01.2022
4217 Clouds 22 1000 87 10000 1.79 235 22:34 18.01.2022
4218 Clouds 22 1000 88 10000 1.34 257 21:01 18.01.2022
4219 Clouds 22 999 88 10000 2.68 270 19:55 18.01.2022
4220 Clouds 22 999 88 10000 2.68 270 19:36 18.01.2022
4221 Clouds 23 999 83 10000 4.02 250 18:51 18.01.2022
4222 Clouds 23 998 91 10000 2.68 251 17:58 18.01.2022
4223 Clouds 23 999 94 10000 2.24 251 16:58 18.01.2022
4224 Clouds 23 999 99 10000 0.45 199 15:47 18.01.2022
4225 Clouds 24 1010 94 10000 2.57 160 15:21 18.01.2022
4226 Clouds 24 1009 88 10000 5.14 40 12:47 18.01.2022
4227 Clouds 32 983 48 10000 2.68 273 10:47 18.01.2022
4228 Clouds 34 1005 33 10000 4.63 250 08:59 18.01.2022
4229 Clouds 37 982 31 10000 2.68 20 07:51 18.01.2022
4230 Clouds 34 985 48 10000 0.89 46 02:34 18.01.2022
4231 Clouds 27 985 77 10000 0.89 45 23:38 17.01.2022
4232 Clouds 25 985 86 10000 4.12 310 22:26 17.01.2022
4233 Clouds 23 984 91 10000 0.45 45 21:34 17.01.2022
4234 Clouds 23 983 92 10000 0.45 45 20:24 17.01.2022
4235 Clouds 24 1006 94 10000 4.12 330 18:30 17.01.2022
4236 Clouds 24 983 92 10000 3.6 340 17:25 17.01.2022
4237 Clouds 24 1007 94 10000 2.57 320 16:35 17.01.2022
4238 Clouds 25 1007 88 10000 4.63 330 15:19 17.01.2022
4239 Clouds 24 1007 94 10000 3.6 350 14:43 17.01.2022
4240 Clouds 24 1006 94 10000 3.09 360 13:22 17.01.2022
4241 Rain 24 1006 94 10000 2.57 340 12:55 17.01.2022
4242 Rain 25 1006 83 10000 5.14 310 11:48 17.01.2022
4243 Rain 24 1005 94 10000 5.14 310 10:21 17.01.2022
4244 Thunderstorm 24 1005 88 5000 10.8 330 09:34 17.01.2022
4245 Clouds 29 1005 65 10000 6.17 350 07:23 17.01.2022
4246 Clouds 28 1007 61 10000 6.69 360 02:55 17.01.2022
4247 Clouds 24 1008 83 10000 5.66 60 00:55 17.01.2022
4248 Rain 23 1008 83 10000 7.2 40 22:18 16.01.2022
4249 Clouds 22 1008 94 10000 5.66 60 20:35 16.01.2022
4250 Clouds 21 1008 100 10000 6.69 90 18:51 16.01.2022
4251 Rain 21 1009 100 10000 6.69 90 17:59 16.01.2022
4252 Rain 21 1011 100 3300 5.14 10 16:59 16.01.2022
4253 Rain 22 1011 94 6000 5.14 60 16:29 16.01.2022
4254 -273 0 0 0 0 0 14:31 16.01.2022
4255 Rain 23 1010 88 10000 9.77 330 14:30 16.01.2022
4256 Rain 29 1007 48 10000 4.12 80 13:33 16.01.2022
4257 Clouds 30 1007 42 10000 4.12 120 12:22 16.01.2022
4258 Clouds 30 1006 42 10000 5.66 120 11:38 16.01.2022
4259 Clouds 32 1006 37 10000 6.17 100 10:43 16.01.2022
4260 Clouds 32 1006 40 10000 5.66 120 09:58 16.01.2022
4261 Clouds 32 1005 40 10000 5.66 100 09:38 16.01.2022
4262 Clouds 32 1005 40 10000 5.66 100 09:19 16.01.2022
4263 Clouds 32 1007 40 10000 4.63 100 07:19 16.01.2022
4264 Clouds 26 1010 65 10000 2.57 260 00:35 16.01.2022
4265 Clouds 25 1009 73 10000 0 0 22:53 15.01.2022
4266 Clouds 24 1010 83 10000 3.09 40 21:22 15.01.2022
4267 Clouds 24 1009 78 10000 1.54 20 20:44 15.01.2022
4268 Clouds 24 1009 78 10000 1.54 20 20:21 15.01.2022
4269 Clouds 25 1008 69 10000 3.09 130 19:26 15.01.2022
4270 Clouds 26 1007 61 10000 3.6 160 18:18 15.01.2022
4271 Clouds 25 1009 69 10000 3.6 290 16:49 15.01.2022
4272 Clouds 27 1010 61 10000 2.06 160 14:36 15.01.2022
4273 Clouds 28 1009 54 10000 5.66 160 12:39 15.01.2022
4274 Clouds 28 1009 54 10000 7.2 70 11:21 15.01.2022
4275 Clouds 26 1007 65 10000 7.72 300 09:46 15.01.2022
4276 Clouds 35 1009 29 10000 9.77 310 01:27 15.01.2022
4277 Clouds 32 1008 33 10000 4.63 300 23:20 14.01.2022
4278 Clouds 31 1006 30 10000 3.6 310 20:57 14.01.2022
4279 Clouds 31 1006 30 10000 3.09 340 20:24 14.01.2022
4280 Clouds 31 1006 30 10000 3.6 350 19:49 14.01.2022
4281 Clouds 31 1006 30 10000 3.09 330 18:33 14.01.2022
4282 Clouds 31 1007 29 10000 3.09 350 16:57 14.01.2022
4283 Clouds 32 1007 25 10000 4.63 350 16:38 14.01.2022
4284 Clouds 30 1007 21 10000 2.06 90 14:50 14.01.2022
4285 Clouds 30 1007 19 10000 2.06 70 14:20 14.01.2022
4286 Clouds 34 1006 15 10000 0 0 12:37 14.01.2022
4287 Clouds 37 1006 12 10000 3.6 30 11:34 14.01.2022
4288 Clouds 40 1006 9 10000 3.09 90 10:22 14.01.2022
4289 Clouds 41 1005 11 10000 1.54 200 08:52 14.01.2022
4290 Clouds 41 1006 11 10000 3.09 50 07:27 14.01.2022
4291 Clouds 33 1011 29 10000 4.12 290 01:43 14.01.2022
4292 Clouds 29 1011 42 10000 3.09 340 23:39 13.01.2022
4293 Clouds 26 1010 50 10000 0.51 20 21:45 13.01.2022
4294 Clouds 26 1010 50 10000 2.57 360 21:27 13.01.2022
4295 Clouds 29 1010 39 10000 3.09 60 19:44 13.01.2022
4296 Clouds 29 1010 39 10000 3.09 60 19:22 13.01.2022
4297 Clouds 30 1008 37 10000 4.63 340 17:56 13.01.2022
4298 Clouds 31 1009 35 10000 0 0 16:22 13.01.2022
4299 Clouds 32 1010 31 10000 3.09 360 15:38 13.01.2022
4300 Clouds 32 1010 29 10000 1.54 310 14:49 13.01.2022
4301 Clouds 35 1009 26 10000 5.66 350 12:54 13.01.2022
4302 Clouds 41 1007 10 10000 4.12 150 10:25 13.01.2022
4303 Clouds 41 1007 11 10000 4.63 140 09:20 13.01.2022
4304 Clouds 42 1007 12 10000 5.14 90 08:27 13.01.2022
4305 Clear 41 1008 11 10000 5.14 100 07:24 13.01.2022
4306 Clear 41 1009 12 10000 2.57 240 06:38 13.01.2022
4307 Clear 40 1010 12 10000 4.12 50 05:20 13.01.2022
4308 Clear 37 1013 12 10000 3.6 100 02:33 13.01.2022
4309 Clear 34 1013 12 10000 5.14 120 00:56 13.01.2022
4310 Clear 33 1013 11 10000 6.17 110 23:49 12.01.2022
4311 Clear 32 1013 12 10000 4.63 130 23:24 12.01.2022
4312 Clear 30 1012 13 10000 4.12 140 21:57 12.01.2022
4313 Clear 31 1011 12 10000 5.14 140 21:23 12.01.2022
4314 Clear 31 1011 13 10000 4.63 140 20:57 12.01.2022
4315 Clear 31 1011 14 10000 4.63 140 19:55 12.01.2022
4316 Clouds 32 1011 25 10000 5.66 170 18:43 12.01.2022
4317 Clouds 29 1011 30 10000 0 0 17:38 12.01.2022
4318 Clouds 32 1011 25 10000 1.54 10 16:33 12.01.2022
4319 Clouds 34 1012 18 10000 3.6 110 14:48 12.01.2022
4320 Clouds 35 1011 14 10000 3.6 130 13:24 12.01.2022
4321 Clouds 38 1010 12 10000 5.66 140 11:59 12.01.2022
4322 Clouds 41 1009 10 10000 8.75 130 08:43 12.01.2022
4323 Clouds 41 1009 9 10000 5.66 110 07:50 12.01.2022
4324 Clouds 41 1010 10 10000 7.72 110 07:31 12.01.2022
4325 Clear 33 1014 17 10000 3.6 150 23:53 11.01.2022
4326 Clear 30 1014 19 10000 2.06 80 22:56 11.01.2022
4327 Clear 28 1014 21 10000 2.57 120 22:23 11.01.2022
4328 Clear 28 1012 20 10000 3.09 120 20:56 11.01.2022
4329 Clear 28 1012 20 10000 2.06 70 20:20 11.01.2022
4330 Clouds 27 1012 22 10000 3.6 140 18:32 11.01.2022
4331 Clouds 30 1012 16 10000 0 0 17:26 11.01.2022
4332 Clouds 32 1012 14 10000 4.12 160 16:38 11.01.2022
4333 Clouds 32 1012 14 10000 4.63 160 15:47 11.01.2022
4334 Clouds 32 1012 18 10000 3.6 160 14:42 11.01.2022
4335 Clear 32 1012 18 10000 3.6 150 13:56 11.01.2022
4336 Clear 34 1012 15 10000 3.6 140 13:36 11.01.2022
4337 Clear 36 1012 13 10000 4.12 140 12:48 11.01.2022
4338 Clear 37 1011 12 10000 4.63 140 11:45 11.01.2022
4339 Clear 41 1009 9 10000 7.72 130 09:39 11.01.2022
4340 Clear 41 1010 8 10000 7.72 130 07:18 11.01.2022
4341 Clear 33 1015 11 10000 3.6 90 00:33 11.01.2022
4342 Clear 27 1014 17 10000 0 0 23:44 10.01.2022
4343 Clear 27 1014 17 10000 0 0 23:24 10.01.2022
4344 Clear 21 1013 28 10000 0 0 22:19 10.01.2022
4345 Clear 21 1013 28 10000 0 0 22:19 10.01.2022
4346 Clear 21 1013 28 10000 1.54 250 21:54 10.01.2022
4347 Clear 22 1012 23 10000 0 0 21:21 10.01.2022
4348 Clear 22 1011 24 10000 1.03 200 20:57 10.01.2022
4349 Clear 24 1011 22 10000 1.03 100 20:28 10.01.2022
4350 Clear 27 1011 14 10000 2.57 90 19:44 10.01.2022
4351 Clear 27 1011 14 10000 2.57 90 19:21 10.01.2022
4352 Clear 25 1011 22 10000 2.06 100 18:49 10.01.2022
4353 Clear 25 1011 22 10000 2.06 90 17:56 10.01.2022
4354 Clear 27 1011 18 10000 3.09 80 16:42 10.01.2022
4355 Clear 29 1011 14 10000 3.6 70 15:49 10.01.2022
4356 Clear 31 1011 12 10000 3.09 100 14:34 10.01.2022
4357 Clear 36 1010 11 10000 4.12 120 12:18 10.01.2022
4358 Clear 39 1009 8 10000 4.63 120 11:25 10.01.2022
4359 Clear 41 1009 8 10000 4.12 170 09:52 10.01.2022
4360 Clear 42 1008 8 10000 5.14 200 08:22 10.01.2022
4361 Clear 42 1009 9 10000 4.63 160 05:49 10.01.2022
4362 Clear 36 1012 11 10000 5.66 10 01:33 10.01.2022
4363 Clear 34 1012 13 10000 3.6 50 00:29 10.01.2022
4364 Clear 30 1012 16 10000 2.57 70 23:43 09.01.2022
4365 Clear 26 1011 21 10000 2.57 60 22:40 09.01.2022
4366 Clear 25 1011 22 10000 2.57 50 21:47 09.01.2022
4367 Clear 24 1011 23 10000 2.57 60 21:24 09.01.2022
4368 Clear 24 1011 23 10000 2.57 60 21:24 09.01.2022
4369 Clear 24 1010 22 10000 0 0 20:53 09.01.2022
4370 Clear 23 1010 25 10000 0 0 20:34 09.01.2022
4371 Clear 23 1010 25 10000 0 0 19:45 09.01.2022
4372 Clear 24 1010 23 10000 2.06 90 19:23 09.01.2022
4373 Clear 24 1010 25 10000 2.57 100 18:56 09.01.2022
4374 Clear 25 1010 20 10000 3.09 60 18:35 09.01.2022
4375 Clear 26 1010 19 10000 3.6 80 17:45 09.01.2022
4376 Clear 26 1010 19 10000 2.57 70 17:21 09.01.2022
4377 Clear 27 1010 18 10000 3.09 50 15:59 09.01.2022
4378 Clear 27 1010 18 10000 3.6 60 15:36 09.01.2022
4379 Clear 30 1010 14 10000 3.6 90 14:41 09.01.2022
4380 Clear 31 1010 13 10000 3.6 110 13:51 09.01.2022
4381 Clear 33 1009 13 10000 5.66 90 13:25 09.01.2022
4382 Clear 35 1008 12 10000 6.17 120 11:55 09.01.2022
4383 Clear 38 1007 10 10000 3.6 140 10:53 09.01.2022
4384 Clear 39 1007 10 10000 1.54 190 09:50 09.01.2022
4385 Clear 39 1007 10 10000 3.6 220 08:52 09.01.2022
4386 Clear 38 1009 10 10000 3.6 100 05:38 09.01.2022
4387 Clear 32 1013 14 10000 5.66 70 01:24 09.01.2022
4388 Clear 27 1013 22 10000 1.03 100 23:47 08.01.2022
4389 Clear 27 1013 22 10000 1.54 90 23:26 08.01.2022
4390 Clear 18 1013 42 10000 1.54 170 22:30 08.01.2022
4391 Clear 19 1012 32 10000 2.57 100 21:26 08.01.2022
4392 Clear 21 1011 28 10000 3.6 90 20:42 08.01.2022
4393 Clear 21 1011 28 10000 3.6 90 20:21 08.01.2022
4394 Clear 22 1011 26 10000 2.57 90 18:45 08.01.2022
4395 Clear 23 1011 27 10000 3.09 90 17:23 08.01.2022
4396 Clear 24 1012 25 10000 2.57 80 15:58 08.01.2022
4397 Clear 26 1012 24 10000 3.6 100 14:46 08.01.2022
4398 Clear 29 1012 20 10000 3.6 120 13:29 08.01.2022
4399 Clear 32 1010 14 10000 5.14 130 11:28 08.01.2022
4400 Clear 34 1010 14 10000 5.14 140 10:30 08.01.2022
4401 Clear 34 1010 13 10000 5.66 140 09:48 08.01.2022
4402 Clear 35 1010 12 10000 3.6 130 09:28 08.01.2022
4403 Clear 32 1013 17 10000 3.6 80 03:45 08.01.2022
4404 Clear 27 1014 24 10000 7.72 90 00:57 08.01.2022
4405 Clear 21 1014 30 10000 0 0 22:54 07.01.2022
4406 Clear 17 1013 39 10000 2.57 140 21:21 07.01.2022
4407 Clear 18 1012 36 10000 2.06 70 20:23 07.01.2022
4408 Clear 19 1012 32 10000 2.06 80 19:26 07.01.2022
4409 Clear 21 1012 28 10000 2.06 100 18:45 07.01.2022
4410 Clear 24 1013 23 10000 3.6 120 17:28 07.01.2022
4411 Clear 23 1013 25 10000 3.09 100 16:41 07.01.2022
4412 Clear 25 1013 22 10000 3.09 130 14:37 07.01.2022
4413 Clear 27 1013 19 10000 3.6 130 13:41 07.01.2022
4414 Clear 27 1013 18 10000 3.09 130 12:50 07.01.2022
4415 Clear 33 1011 13 10000 4.63 150 09:48 07.01.2022
4416 Clear 30 1014 15 6000 4.12 90 02:58 07.01.2022
4417 Clear 29 1014 17 10000 4.63 110 02:19 07.01.2022
4418 Clear 28 1014 18 10000 4.63 110 01:41 07.01.2022
4419 Clear 28 1014 18 10000 4.63 110 01:20 07.01.2022
4420 Clouds 26 1014 21 10000 5.66 110 00:28 07.01.2022
4421 Clouds 17 1013 42 10000 0 0 21:40 06.01.2022
4422 Clouds 18 1013 39 10000 0 0 20:36 06.01.2022
4423 Clouds 19 1012 37 10000 1.54 320 19:54 06.01.2022
4424 Clear 20 1012 32 10000 0 0 19:28 06.01.2022
4425 Clear 23 1011 27 10000 3.6 130 17:42 06.01.2022
4426 Clear 23 1011 27 10000 3.6 130 17:19 06.01.2022
4427 Clear 25 1011 23 10000 3.6 130 16:21 06.01.2022
4428 Clear 26 1011 22 10000 4.63 120 15:39 06.01.2022
4429 Clear 27 1011 22 10000 6.69 120 15:19 06.01.2022
4430 Clear 27 1011 22 10000 3.6 120 14:19 06.01.2022
4431 Clear 28 1011 21 10000 3.09 130 12:58 06.01.2022
4432 Clear 31 1010 16 10000 3.6 130 11:50 06.01.2022
4433 Clear 32 1010 14 10000 4.12 140 11:28 06.01.2022
4434 Clear 35 1009 13 10000 6.69 190 08:59 06.01.2022
4435 Clear 28 1012 20 10000 3.6 130 01:51 06.01.2022
4436 Clear 25 1013 23 10000 6.17 120 23:40 05.01.2022
4437 Clear 23 1012 28 10000 4.63 130 22:59 05.01.2022
4438 Clear 22 1012 33 10000 2.57 140 22:33 05.01.2022
4439 Clear 21 1012 35 10000 3.6 130 21:54 05.01.2022
4440 Clear 20 1012 37 10000 3.09 110 21:21 05.01.2022
4441 Clear 23 1011 31 10000 3.6 120 20:19 05.01.2022
4442 Clear 23 1011 33 10000 3.6 120 18:54 05.01.2022
4443 Clear 23 1011 33 10000 2.06 110 17:45 05.01.2022
4444 Clear 25 1011 29 10000 3.09 120 16:51 05.01.2022
4445 Clear 26 1011 27 10000 3.09 80 15:46 05.01.2022
4446 Clear 29 1011 23 10000 4.12 120 14:28 05.01.2022
4447 Clear 29 1010 23 10000 3.6 120 13:32 05.01.2022
4448 Clear 32 1010 18 10000 4.63 140 11:45 05.01.2022
4449 Clear 37 1008 12 10000 6.69 150 08:20 05.01.2022
4450 Clear 36 1009 11 10000 4.63 160 06:25 05.01.2022
4451 Clear 30 1014 12 10000 5.14 110 00:59 05.01.2022
4452 Clear 27 1013 14 10000 3.09 130 23:29 04.01.2022
4453 Clear 26 1013 19 10000 2.57 160 22:58 04.01.2022
4454 Clear 23 1012 21 10000 0 0 21:31 04.01.2022
4455 Clear 23 1012 21 10000 0 0 21:31 04.01.2022
4456 Clear 25 1012 16 10000 2.06 100 19:22 04.01.2022
4457 Clear 26 1012 15 10000 0 0 17:54 04.01.2022
4458 Clear 29 1012 13 10000 4.12 130 16:53 04.01.2022
4459 Clear 31 1012 11 10000 6.17 140 16:25 04.01.2022
4460 Clear 32 1012 12 10000 5.14 140 14:54 04.01.2022
4461 Clear 33 1011 12 10000 6.69 140 14:35 04.01.2022
4462 Clouds 34 1011 15 10000 5.66 140 13:29 04.01.2022
4463 Clouds 38 1009 13 10000 6.17 180 10:41 04.01.2022
4464 Clouds 39 1008 11 10000 6.17 120 09:47 04.01.2022
4465 Clouds 39 1008 13 10000 3.6 180 08:34 04.01.2022
4466 Clear 37 1012 18 10000 6.69 130 02:52 04.01.2022
4467 Clear 33 1013 22 10000 6.69 110 00:41 04.01.2022
4468 Clear 29 1012 21 10000 2.06 170 23:34 03.01.2022
4469 Clear 24 1011 25 10000 1.54 160 21:52 03.01.2022
4470 Clear 22 1011 30 10000 0 0 21:33 03.01.2022
4471 Clear 23 1010 28 10000 2.06 110 20:22 03.01.2022
4472 Clouds 24 1009 29 10000 0 0 18:54 03.01.2022
4473 Clouds 24 1009 27 10000 0 0 18:28 03.01.2022
4474 Clouds 25 1009 25 10000 0 0 16:58 03.01.2022
4475 Clear 27 1009 22 10000 0 0 15:39 03.01.2022
4476 Clear 28 1009 20 10000 2.06 140 14:30 03.01.2022
4477 Clear 32 1008 13 10000 3.09 140 12:46 03.01.2022
4478 Clear 37 1008 11 10000 5.66 130 11:38 03.01.2022
4479 Clear 39 1007 10 10000 5.14 140 10:36 03.01.2022
4480 Clear 41 1007 9 10000 7.72 130 08:47 03.01.2022
4481 Clear 40 1008 10 10000 5.66 110 07:36 03.01.2022
4482 Clear 33 1010 18 10000 5.66 110 23:56 02.01.2022
4483 Clear 31 1010 20 10000 3.09 130 23:22 02.01.2022
4484 Clear 27 1010 29 10000 0 0 22:53 02.01.2022
4485 Clear 23 1009 35 10000 0 0 21:42 02.01.2022
4486 Clear 24 1008 33 10000 0 0 20:33 02.01.2022
4487 Clear 24 1008 33 10000 0 0 19:55 02.01.2022
4488 Clear 25 1008 31 10000 0 0 19:30 02.01.2022
4489 Clear 25 1008 33 10000 0 0 18:44 02.01.2022
4490 Clear 27 1008 28 10000 1.03 90 17:44 02.01.2022
4491 Clear 27 1008 28 10000 1.03 90 17:22 02.01.2022
4492 Clear 28 1008 24 10000 2.57 90 16:59 02.01.2022
4493 Clear 29 1008 23 10000 2.57 40 16:24 02.01.2022
4494 Clear 31 1008 20 10000 3.09 130 14:22 02.01.2022
4495 Clear 34 1007 16 10000 4.12 160 12:49 02.01.2022
4496 Clouds 36 1006 14 10000 3.6 160 11:57 02.01.2022
4497 Clouds 37 1006 12 10000 4.12 170 11:23 02.01.2022
4498 Clouds 39 1006 11 10000 6.17 190 10:44 02.01.2022
4499 Clouds 42 1005 9 10000 4.12 170 08:42 02.01.2022
4500 Clear 39 1008 13 10000 2.06 170 03:25 02.01.2022
4501 Clear 34 1008 18 10000 2.57 270 00:58 02.01.2022
4502 Clear 29 1008 24 10000 3.09 270 23:39 01.01.2022
4503 Clear 27 1008 28 10000 3.09 280 22:55 01.01.2022
4504 Clear 25 1007 31 10000 2.57 270 22:21 01.01.2022
4505 Clear 23 1007 38 10000 2.57 280 21:43 01.01.2022
4506 Clear 23 1006 40 10000 3.6 280 20:53 01.01.2022
4507 Clear 25 1006 36 10000 3.6 290 19:55 01.01.2022
4508 Clouds 24 1006 41 10000 3.6 290 18:58 01.01.2022
4509 Clouds 26 1006 38 10000 3.09 330 17:57 01.01.2022
4510 Clouds 28 1006 34 10000 2.57 300 16:35 01.01.2022
4511 Clouds 29 1006 32 10000 1.54 320 15:57 01.01.2022
4512 Clouds 30 1007 32 10000 0 0 14:57 01.01.2022
4513 Clouds 31 1006 29 10000 0 0 13:42 01.01.2022
4514 Clouds 33 1006 25 10000 0 0 12:49 01.01.2022
4515 Clouds 35 1005 21 10000 0 0 11:47 01.01.2022
4516 Clouds 36 1005 20 10000 2.57 230 11:20 01.01.2022
4517 Clouds 38 1004 17 10000 6.69 240 09:49 01.01.2022
4518 Clouds 39 1004 16 10000 7.2 230 09:21 01.01.2022
4519 Clouds 40 1004 13 10000 7.2 270 08:24 01.01.2022
4520 Clouds 39 1004 15 10000 6.69 280 07:41 01.01.2022
4521 Clouds 40 1004 15 10000 5.66 270 06:45 01.01.2022
4522 Clouds 39 1006 16 10000 7.72 270 05:26 01.01.2022
4523 Clear 39 1006 17 10000 7.72 300 04:37 01.01.2022
4524 Clouds 34 1007 27 10000 7.72 330 00:41 01.01.2022
4525 Clouds 30 1007 32 10000 3.6 350 22:59 31.12.2021
4526 Clouds 24 1007 57 10000 1.03 310 21:52 31.12.2021
4527 Clear 25 1006 57 10000 0 0 20:32 31.12.2021
4528 Clouds 25 1006 57 10000 0.51 250 19:29 31.12.2021
4529 Clouds 25 1006 53 10000 2.06 230 18:30 31.12.2021
4530 Clouds 24 1006 57 10000 0 0 17:37 31.12.2021
4531 Clouds 24 1006 57 10000 0 0 17:18 31.12.2021
4532 Clouds 25 1007 53 10000 1.54 60 16:19 31.12.2021
4533 Clouds 26 1007 50 10000 2.06 80 15:53 31.12.2021
4534 Clouds 26 1007 50 10000 0 0 15:28 31.12.2021
4535 Clouds 28 1007 42 10000 3.09 70 14:41 31.12.2021
4536 Clouds 28 1007 42 10000 2.57 60 13:58 31.12.2021
4537 Clouds 29 1007 39 10000 3.6 70 13:35 31.12.2021
4538 Clouds 30 1007 35 10000 4.12 80 12:44 31.12.2021
4539 Clouds 31 1006 30 10000 4.63 110 11:43 31.12.2021
4540 Clouds 31 1006 30 10000 4.63 110 11:19 31.12.2021
4541 Clouds 32 1007 31 10000 1.03 350 10:30 31.12.2021
4542 Clouds 33 1006 25 10000 3.09 110 09:35 31.12.2021
4543 Clouds 33 1006 27 10000 4.12 210 08:56 31.12.2021
4544 Clouds 34 1005 24 10000 4.63 70 08:25 31.12.2021
4545 Clouds 37 1005 19 10000 3.6 110 06:39 31.12.2021
4546 Clouds 30 1008 25 10000 4.12 40 23:23 30.12.2021
4547 Clouds 26 1008 31 10000 1.54 120 22:32 30.12.2021
4548 Clouds 26 1007 31 10000 4.63 50 21:41 30.12.2021
4549 Clouds 26 1007 31 10000 4.63 50 21:22 30.12.2021
4550 Clouds 25 1007 33 10000 3.09 50 20:43 30.12.2021
4551 Clouds 25 1007 33 10000 3.09 50 20:23 30.12.2021
4552 Clouds 23 1007 35 10000 3.09 70 19:36 30.12.2021
4553 Clouds 23 1007 40 10000 3.09 110 18:29 30.12.2021
4554 Clouds 24 1008 41 10000 0 0 17:38 30.12.2021
4555 Clouds 28 1008 26 10000 2.57 90 15:55 30.12.2021
4556 Clouds 28 1008 26 10000 2.57 80 15:36 30.12.2021
4557 Clouds 29 1008 24 10000 2.57 40 14:36 30.12.2021
4558 Clouds 31 1008 22 10000 3.6 110 13:31 30.12.2021
4559 Clouds 33 1008 18 10000 5.14 130 11:59 30.12.2021
4560 Clouds 35 1007 14 10000 7.2 140 10:44 30.12.2021
4561 Clouds 35 1007 13 10000 7.72 140 09:50 30.12.2021
4562 Clouds 38 1007 13 10000 4.63 70 07:42 30.12.2021
4563 Clouds 37 1007 12 10000 2.57 40 06:38 30.12.2021
4564 Clouds 36 1009 13 10000 5.66 100 03:41 30.12.2021
4565 Clouds 34 1010 15 10000 4.12 90 02:35 30.12.2021
4566 Clouds 26 1009 18 10000 2.57 280 23:40 29.12.2021
4567 Clouds 23 1009 23 10000 2.57 270 22:59 29.12.2021
4568 Clouds 20 1009 30 10000 3.09 260 22:18 29.12.2021
4569 Clouds 18 1008 34 10000 0.51 240 21:19 29.12.2021
4570 Clouds 21 1008 28 10000 0 0 20:30 29.12.2021
4571 Clouds 21 1008 28 10000 0 0 20:30 29.12.2021
4572 Clouds 21 1008 26 10000 0 0 19:43 29.12.2021
4573 Clouds 21 1008 28 10000 0 0 18:44 29.12.2021
4574 Clouds 20 1008 26 10000 0 0 17:52 29.12.2021
4575 Clouds 21 1009 23 10000 0 0 17:27 29.12.2021
4576 Clear 22 1009 21 10000 0 0 16:22 29.12.2021
4577 Clear 23 1010 18 10000 0 0 15:26 29.12.2021
4578 Clear 26 1010 13 10000 2.57 170 13:42 29.12.2021
4579 Clear 29 1009 10 10000 3.6 150 12:35 29.12.2021
4580 Clear 31 1008 10 10000 3.6 140 11:25 29.12.2021
4581 Clear 35 1007 8 10000 6.69 130 09:46 29.12.2021
4582 Clear 36 1007 9 10000 4.63 180 07:47 29.12.2021
4583 Clear 35 1007 9 10000 3.6 150 06:37 29.12.2021
4584 Clear 35 1008 8 10000 4.12 110 05:57 29.12.2021
4585 Clear 35 1008 8 10000 5.66 90 05:30 29.12.2021
4586 Clear 32 1009 10 10000 7.72 90 01:45 29.12.2021
4587 Clouds 26 1010 14 10000 3.09 90 00:00 29.12.2021
4588 Clouds 24 1010 17 10000 0 0 23:18 28.12.2021
4589 Clouds 16 1010 36 10000 0 0 22:26 28.12.2021
4590 Clouds 15 1010 38 10000 0 0 21:56 28.12.2021
4591 Clouds 15 1009 38 10000 2.06 340 21:35 28.12.2021
4592 Clear 17 1009 27 10000 1.54 280 20:32 28.12.2021
4593 Clear 17 1009 31 10000 2.57 280 18:56 28.12.2021
4594 Clear 17 1009 31 10000 2.06 270 18:28 28.12.2021
4595 Clear 19 1009 26 10000 0 0 17:42 28.12.2021
4596 Clear 20 1009 24 10000 0 0 16:25 28.12.2021
4597 Clear 21 1010 21 10000 0 0 15:41 28.12.2021
4598 Clear 23 1010 16 10000 2.06 130 14:57 28.12.2021
4599 Clear 23 1010 16 10000 2.06 130 14:57 28.12.2021
4600 Clear 24 1010 15 10000 2.57 140 14:38 28.12.2021
4601 Clear 24 1010 15 10000 2.57 140 14:20 28.12.2021
4602 Clear 25 1009 13 10000 3.6 130 13:38 28.12.2021
4603 Clear 26 1009 12 10000 3.6 140 12:56 28.12.2021
4604 Clear 27 1009 12 10000 3.6 140 12:38 28.12.2021
4605 Clear 33 1008 9 10000 6.17 140 10:52 28.12.2021
4606 Clear 34 1007 11 10000 5.66 100 07:39 28.12.2021
4607 Clear 35 1008 11 10000 6.17 110 06:40 28.12.2021
4608 Clear 26 1011 19 10000 4.63 110 23:42 27.12.2021
4609 Clear 22 1011 24 10000 3.6 110 22:31 27.12.2021
4610 Clear 24 1010 20 10000 5.66 110 21:32 27.12.2021
4611 Clear 25 1010 19 10000 4.63 110 20:45 27.12.2021
4612 Clear 24 1010 23 10000 1.54 110 19:56 27.12.2021
4613 Clear 23 1010 27 10000 2.57 120 19:38 27.12.2021
4614 Clear 26 1010 24 10000 5.14 130 17:55 27.12.2021
4615 Clear 25 1010 29 10000 4.12 130 17:29 27.12.2021
4616 Clear 26 1010 27 10000 3.09 50 16:32 27.12.2021
4617 Clear 25 1010 29 10000 1.03 100 15:50 27.12.2021
4618 Clear 27 1010 26 10000 2.57 130 14:29 27.12.2021
4619 Clear 28 1010 23 10000 3.09 130 13:32 27.12.2021
4620 Clear 32 1009 15 10000 4.63 130 11:34 27.12.2021
4621 Clear 34 1008 14 10000 6.69 130 10:27 27.12.2021
4622 Clear 35 1008 14 10000 8.23 130 09:38 27.12.2021
4623 Clear 35 1008 14 10000 7.2 110 07:35 27.12.2021
4624 Clear 35 1009 16 10000 7.2 110 06:30 27.12.2021
4625 Clear 35 1009 16 10000 7.2 110 06:30 27.12.2021
4626 Clear 31 1012 25 10000 7.72 120 01:59 27.12.2021
4627 Clear 27 1013 28 10000 3.6 150 23:52 26.12.2021
4628 Clear 25 1012 29 10000 0 0 23:34 26.12.2021
4629 Clear 20 1012 37 10000 1.54 230 21:48 26.12.2021
4630 Clear 21 1011 35 10000 3.09 180 20:31 26.12.2021
4631 Clear 21 1011 30 10000 3.6 160 19:27 26.12.2021
4632 Clear 22 1011 30 10000 3.09 180 18:23 26.12.2021
4633 Clear 28 1012 18 10000 3.6 150 15:55 26.12.2021
4634 Clear 29 1011 23 10000 3.6 150 13:52 26.12.2021
4635 Clear 31 1011 20 10000 5.14 150 13:32 26.12.2021
4636 Clear 32 1011 18 10000 4.12 140 12:37 26.12.2021
4637 Clear 33 1011 17 10000 4.63 140 11:57 26.12.2021
4638 Clear 37 1009 12 10000 7.2 150 09:44 26.12.2021
4639 Clear 37 1009 12 10000 8.23 160 08:59 26.12.2021
4640 Clear 37 1009 13 10000 5.66 150 08:38 26.12.2021
4641 Clear 37 1009 13 10000 7.72 140 06:47 26.12.2021
4642 Clear 30 1014 21 10000 6.17 120 00:58 26.12.2021
4643 Clear 29 1014 24 10000 5.14 120 23:50 25.12.2021
4644 Clear 28 1014 26 10000 4.63 110 23:26 25.12.2021
4645 Clear 24 1013 33 10000 2.06 120 22:22 25.12.2021
4646 Clear 21 1012 43 10000 2.06 190 20:48 25.12.2021
4647 Clouds 23 1011 33 10000 2.57 350 19:21 25.12.2021
4648 Clouds 22 1011 40 10000 0 0 18:54 25.12.2021
4649 Clouds 25 1011 31 10000 1.54 40 16:58 25.12.2021
4650 Clouds 27 1011 26 10000 2.06 30 15:54 25.12.2021
4651 Clouds 26 1011 36 10000 2.06 160 14:25 25.12.2021
4652 Clouds 31 1010 23 10000 2.06 100 12:43 25.12.2021
4653 Clouds 33 1010 21 10000 0 0 11:27 25.12.2021
4654 Clouds 35 1009 17 10000 4.63 100 09:49 25.12.2021
4655 Clouds 36 1009 16 10000 5.14 140 07:51 25.12.2021
4656 Clouds 32 1013 25 10000 2.57 130 01:45 25.12.2021
4657 Clouds 31 1014 30 10000 3.09 190 00:30 25.12.2021
4658 Clouds 25 1012 50 10000 2.06 340 22:40 24.12.2021
4659 Clouds 26 1011 47 10000 3.6 270 19:38 24.12.2021
4660 Clouds 26 1011 47 10000 3.6 270 19:19 24.12.2021
4661 Clouds 26 1012 50 10000 0 0 16:50 24.12.2021
4662 Clouds 28 1012 42 10000 2.57 360 15:54 24.12.2021
4663 Clouds 28 1012 36 10000 2.57 350 15:34 24.12.2021
4664 Clouds 28 1012 32 10000 2.57 50 14:40 24.12.2021
4665 Clouds 28 1012 32 10000 2.57 50 14:19 24.12.2021
4666 Clouds 29 1012 30 10000 3.6 50 13:34 24.12.2021
4667 Rain 30 1012 28 10000 4.12 60 12:47 24.12.2021
4668 Clouds 31 1011 29 10000 3.6 70 11:52 24.12.2021
4669 Clouds 31 1011 30 10000 3.6 70 11:26 24.12.2021
4670 Clouds 32 1011 27 10000 4.63 50 10:46 24.12.2021
4671 Clouds 32 1010 25 10000 3.6 30 09:33 24.12.2021
4672 Clouds 33 1010 22 10000 5.14 30 08:23 24.12.2021
4673 Clouds 33 1010 21 10000 4.12 30 07:47 24.12.2021
4674 Clouds 30 1013 32 10000 4.63 360 02:33 24.12.2021
4675 Clouds 26 1013 53 10000 7.2 360 23:56 23.12.2021
4676 Clouds 25 1012 57 10000 5.66 320 22:58 23.12.2021
4677 Clouds 24 1011 60 10000 7.2 340 22:37 23.12.2021
4678 Clouds 24 1011 60 10000 7.2 340 22:18 23.12.2021
4679 Clouds 25 1011 53 10000 9.77 350 20:56 23.12.2021
4680 Clouds 25 1011 50 10000 7.2 10 19:47 23.12.2021
4681 Clouds 25 1011 53 10000 8.75 10 18:35 23.12.2021
4682 Clouds 25 1011 53 10000 8.75 20 17:56 23.12.2021
4683 Clouds 25 1012 53 10000 6.69 360 16:43 23.12.2021
4684 Clouds 25 1012 53 10000 6.69 360 16:23 23.12.2021
4685 Clouds 25 1012 69 10000 6.17 10 15:31 23.12.2021
4686 Clouds 25 1013 69 10000 5.14 360 14:49 23.12.2021
4687 Clouds 24 1013 73 10000 4.63 360 14:30 23.12.2021
4688 Clouds 24 1012 73 10000 5.66 330 12:53 23.12.2021
4689 Rain 28 1010 51 10000 5.14 50 10:44 23.12.2021
4690 Rain 33 1007 25 10000 10.29 70 09:35 23.12.2021
4691 Rain 34 1007 26 10000 7.72 70 08:59 23.12.2021
4692 Clouds 38 1007 17 10000 4.63 260 06:51 23.12.2021
4693 Clouds 35 1009 24 10000 4.12 340 04:30 23.12.2021
4694 Clouds 27 1010 41 10000 0 0 22:57 22.12.2021
4695 Clouds 26 1009 41 10000 2.06 50 22:39 22.12.2021
4696 Clouds 26 1009 41 10000 2.57 60 21:54 22.12.2021
4697 Clouds 25 1009 47 10000 3.09 60 21:29 22.12.2021
4698 Clouds 27 1008 41 10000 2.06 30 20:44 22.12.2021
4699 Clouds 27 1008 41 10000 2.06 30 20:25 22.12.2021
4700 Clouds 27 1008 41 10000 2.06 310 19:19 22.12.2021
4701 Clouds 29 1009 37 10000 3.6 270 17:39 22.12.2021
4702 Clouds 30 1009 30 10000 3.6 260 16:38 22.12.2021
4703 Clouds 31 1010 27 10000 6.17 250 15:39 22.12.2021
4704 Clouds 32 1008 17 10000 3.6 110 13:32 22.12.2021
4705 Clouds 33 1007 19 10000 4.12 120 12:31 22.12.2021
4706 Clouds 38 1006 14 10000 3.6 170 09:53 22.12.2021
4707 Clouds 39 1006 13 10000 2.57 180 09:33 22.12.2021
4708 Clouds 38 1007 13 10000 3.09 210 07:22 22.12.2021
4709 Clouds 39 1009 13 10000 3.09 340 05:41 22.12.2021
4710 Clouds 39 1009 13 10000 3.09 340 05:22 22.12.2021
4711 Clouds 38 1009 13 10000 3.09 80 04:45 22.12.2021
4712 Clouds 38 1010 13 10000 4.12 10 04:19 22.12.2021
4713 Clouds 36 1011 11 10000 5.66 120 03:32 22.12.2021
4714 Clouds 31 1012 15 10000 3.6 90 23:58 21.12.2021
4715 Clouds 26 1012 25 10000 2.06 130 22:51 21.12.2021
4716 Clouds 24 1012 31 10000 2.06 100 22:27 21.12.2021
4717 Clouds 23 1011 33 10000 0 0 21:43 21.12.2021
4718 Clouds 23 1011 27 10000 3.09 70 20:53 21.12.2021
4719 Clouds 25 1010 23 10000 3.09 80 20:20 21.12.2021
4720 Clouds 26 1010 22 10000 3.09 90 19:41 21.12.2021
4721 Clouds 27 1011 22 10000 4.12 90 18:38 21.12.2021
4722 Clouds 28 1011 21 10000 3.09 90 17:59 21.12.2021
4723 Clouds 29 1011 21 10000 4.63 90 17:40 21.12.2021
4724 Clouds 29 1011 30 10000 2.57 70 15:46 21.12.2021
4725 Clouds 29 1011 26 10000 2.57 80 14:59 21.12.2021
4726 Clouds 30 1011 26 10000 2.57 70 13:44 21.12.2021
4727 Clouds 31 1010 25 10000 2.57 100 12:58 21.12.2021
4728 Clouds 35 1009 18 10000 3.09 170 10:53 21.12.2021
4729 Clouds 37 1009 15 10000 3.09 200 09:57 21.12.2021
4730 Clouds 37 1009 16 10000 4.12 230 09:18 21.12.2021
4731 Clouds 36 1010 15 10000 3.6 150 07:45 21.12.2021
4732 Clouds 37 1010 14 10000 3.6 100 07:24 21.12.2021
4733 Clouds 36 1013 13 10000 3.6 150 04:37 21.12.2021
4734 Clouds 33 1015 15 10000 4.63 70 02:31 21.12.2021
4735 Clouds 27 1015 24 10000 2.06 120 23:55 20.12.2021
4736 Clouds 23 1015 40 10000 0 0 22:44 20.12.2021
4737 Clouds 20 1015 52 10000 0 0 22:25 20.12.2021
4738 Clouds 19 1014 55 10000 0 0 21:27 20.12.2021
4739 Clear 19 1014 52 10000 0 0 20:55 20.12.2021
4740 Clear 19 1013 55 10000 0 0 20:24 20.12.2021
4741 Clear 22 1013 40 10000 3.09 110 19:38 20.12.2021
4742 Clear 22 1013 40 10000 3.09 110 19:20 20.12.2021
4743 Clear 21 1013 46 10000 0 0 18:33 20.12.2021
4744 Clear 21 1013 43 10000 2.06 70 17:51 20.12.2021
4745 Clear 24 1014 33 10000 2.06 90 16:47 20.12.2021
4746 Clear 23 1014 35 10000 1.54 50 16:18 20.12.2021
4747 Clear 24 1015 33 10000 2.06 60 15:40 20.12.2021
4748 Clear 26 1015 29 10000 3.6 130 13:49 20.12.2021
4749 Clear 29 1014 24 10000 3.6 140 12:30 20.12.2021
4750 Clear 33 1013 18 10000 4.63 130 10:46 20.12.2021
4751 Clear 34 1013 17 10000 5.66 120 09:40 20.12.2021
4752 Clear 34 1013 17 10000 6.17 110 08:50 20.12.2021
4753 Clear 35 1013 16 10000 6.17 110 08:31 20.12.2021
4754 Clear 35 1013 17 10000 5.66 130 07:35 20.12.2021
4755 Clear 34 1014 17 10000 5.66 130 06:39 20.12.2021
4756 Clear 28 1017 24 10000 7.2 130 00:20 20.12.2021
4757 Clear 27 1016 26 10000 4.12 130 22:56 19.12.2021
4758 Clear 25 1016 31 10000 2.57 110 22:32 19.12.2021
4759 Clear 23 1015 31 10000 3.6 130 21:32 19.12.2021
4760 Clear 25 1014 25 10000 3.6 120 20:42 19.12.2021
4761 Clear 25 1014 25 10000 3.6 120 20:23 19.12.2021
4762 Clear 27 1014 22 10000 4.12 140 19:41 19.12.2021
4763 Clear 27 1014 24 10000 3.6 130 18:37 19.12.2021
4764 Clear 29 1013 20 10000 4.12 120 17:53 19.12.2021
4765 Clear 29 1014 21 10000 4.63 120 17:30 19.12.2021
4766 Clear 30 1014 20 10000 4.63 120 16:27 19.12.2021
4767 Clear 32 1014 18 10000 6.69 120 15:52 19.12.2021
4768 Clear 32 1014 18 10000 6.69 120 15:24 19.12.2021
4769 Clear 32 1014 18 10000 4.63 130 14:45 19.12.2021
4770 Clouds 34 1012 17 10000 7.2 140 13:27 19.12.2021
4771 Clouds 35 1011 15 10000 7.72 140 12:52 19.12.2021
4772 Clouds 36 1010 14 10000 8.23 130 12:28 19.12.2021
4773 Clouds 37 1009 13 10000 5.66 170 11:33 19.12.2021
4774 Clouds 39 1008 12 10000 6.69 180 10:48 19.12.2021
4775 Clouds 40 1008 12 10000 7.2 190 10:21 19.12.2021
4776 Clouds 42 1007 11 10000 6.69 150 08:46 19.12.2021
4777 Clear 41 1009 13 10000 3.6 200 05:37 19.12.2021
4778 Clouds 38 1011 18 10000 6.17 180 01:45 19.12.2021
4779 Clouds 36 1011 19 10000 0.51 130 00:54 19.12.2021
4780 Clouds 32 1009 31 10000 2.06 210 22:51 18.12.2021
4781 Clouds 32 1008 27 10000 2.06 140 22:24 18.12.2021
4782 Clouds 32 1007 25 10000 1.03 260 21:41 18.12.2021
4783 Clouds 32 1007 25 10000 1.03 260 21:22 18.12.2021
4784 Clouds 33 1007 22 10000 2.57 220 20:25 18.12.2021
4785 Clouds 35 1007 18 10000 4.63 280 19:27 18.12.2021
4786 Clouds 34 1006 17 10000 4.12 360 18:23 18.12.2021
4787 Clouds 37 1007 13 10000 5.66 360 17:49 18.12.2021
4788 Clouds 36 1008 16 10000 3.09 350 16:26 18.12.2021
4789 Clouds 38 1007 13 10000 3.6 60 15:48 18.12.2021
4790 Clouds 34 1009 21 10000 7.2 250 14:51 18.12.2021
4791 Clouds 35 1008 18 10000 2.57 260 13:29 18.12.2021
4792 Clouds 35 1008 18 10000 2.57 260 13:29 18.12.2021
4793 Clouds 36 1007 16 10000 3.09 80 11:47 18.12.2021
4794 Clouds 41 1006 11 10000 3.6 110 09:52 18.12.2021
4795 Clouds 42 1005 11 10000 3.09 120 08:48 18.12.2021
4796 Clear 43 1006 10 10000 4.63 120 08:27 18.12.2021
4797 Clouds 42 1007 9 10000 5.66 250 05:56 18.12.2021
4798 Clouds 35 1010 18 10000 1.54 190 00:34 18.12.2021
4799 Clouds 32 1010 20 10000 0 0 23:46 17.12.2021
4800 Clouds 24 1008 38 10000 1.54 250 21:58 17.12.2021
4801 Clouds 23 1008 43 10000 1.03 260 21:23 17.12.2021
4802 Clouds 25 1007 36 10000 2.06 70 20:42 17.12.2021
4803 Clouds 26 1007 29 10000 2.57 40 19:45 17.12.2021
4804 Clear 28 1007 24 10000 3.09 50 18:39 17.12.2021
4805 Clear 30 1007 21 10000 3.6 30 17:40 17.12.2021
4806 Clear 29 1008 24 10000 3.6 40 16:50 17.12.2021
4807 Clear 29 1008 24 10000 3.6 40 16:25 17.12.2021
4808 Clear 29 1009 24 10000 3.6 60 15:25 17.12.2021
4809 Clear 30 1008 25 10000 3.6 70 14:41 17.12.2021
4810 Clear 31 1008 23 10000 4.12 70 13:21 17.12.2021
4811 Clear 33 1007 22 10000 2.57 100 12:21 17.12.2021
4812 Clear 39 1006 13 10000 3.6 150 10:38 17.12.2021
4813 Clear 40 1006 12 10000 2.57 70 09:34 17.12.2021
4814 Clear 40 1006 12 10000 2.57 70 09:34 17.12.2021
4815 Clear 40 1006 11 10000 2.06 270 08:30 17.12.2021
4816 Clear 40 1007 11 10000 5.14 200 06:47 17.12.2021
4817 Clear 38 1009 13 10000 2.57 120 04:39 17.12.2021
4818 Clear 30 1011 20 10000 3.6 70 23:47 16.12.2021
4819 Clear 22 1011 56 10000 0 0 22:24 16.12.2021
4820 Clear 20 1010 60 10000 0 0 21:51 16.12.2021
4821 Clear 19 1010 68 10000 0 0 21:30 16.12.2021
4822 Clear 20 1010 60 10000 0 0 20:31 16.12.2021
4823 Clear 21 1010 52 10000 0 0 19:44 16.12.2021
4824 Clear 21 1010 56 10000 2.06 100 18:39 16.12.2021
4825 Clear 22 1010 56 10000 2.06 120 17:56 16.12.2021
4826 Clear 22 1010 56 10000 2.57 120 17:30 16.12.2021
4827 Clear 24 1010 43 10000 0 0 16:21 16.12.2021
4828 Clear 26 1011 31 10000 2.57 50 14:50 16.12.2021
4829 Clear 28 1011 30 10000 2.57 130 13:29 16.12.2021
4830 Clear 31 1010 23 10000 3.09 130 11:20 16.12.2021
4831 Clear 34 1010 18 10000 2.57 160 10:59 16.12.2021
4832 Clear 35 1009 15 10000 3.09 160 10:20 16.12.2021
4833 Clear 36 1009 16 10000 5.14 140 07:48 16.12.2021
4834 Clear 35 1010 17 10000 5.14 130 06:21 16.12.2021
4835 Clear 30 1014 30 10000 6.69 100 00:54 16.12.2021
4836 Clear 27 1014 36 10000 3.6 110 23:25 15.12.2021
4837 Clear 21 1013 60 10000 0 0 22:43 15.12.2021
4838 Clear 19 1013 68 10000 0.51 70 21:55 15.12.2021
4839 Clear 19 1012 63 10000 0 0 21:26 15.12.2021
4840 Clear 20 1012 64 10000 1.54 100 20:18 15.12.2021
4841 Clear 20 1011 64 10000 0 0 19:45 15.12.2021
4842 Clouds 22 1011 56 10000 2.57 120 18:37 15.12.2021
4843 Clouds 22 1011 53 10000 0 0 17:51 15.12.2021
4844 Clouds 22 1011 53 10000 0 0 17:51 15.12.2021
4845 Clouds 22 1011 53 10000 0 0 17:32 15.12.2021
4846 Clouds 24 1012 43 10000 2.57 120 16:27 15.12.2021
4847 Clouds 25 1012 41 10000 3.09 120 15:46 15.12.2021
4848 Clouds 25 1012 41 10000 3.09 130 15:27 15.12.2021
4849 Clouds 27 1012 34 10000 3.6 130 14:18 15.12.2021
4850 Clouds 30 1011 28 10000 3.6 150 12:32 15.12.2021
4851 Clouds 33 1011 22 10000 3.6 150 10:25 15.12.2021
4852 Clouds 34 1010 22 10000 7.72 150 08:54 15.12.2021
4853 Clear 34 1011 21 10000 6.17 140 06:54 15.12.2021
4854 Clear 32 1014 23 10000 8.75 160 01:20 15.12.2021
4855 Clear 29 1013 30 10000 5.14 200 23:42 14.12.2021
4856 Clear 28 1012 30 10000 5.14 200 22:48 14.12.2021
4857 Clear 27 1011 29 10000 5.66 220 22:18 14.12.2021
4858 Clear 24 1008 57 10000 2.06 280 20:27 14.12.2021
4859 Clear 25 1008 53 10000 0 0 19:40 14.12.2021
4860 Clouds 26 1008 50 10000 0 0 18:44 14.12.2021
4861 Clouds 27 1008 39 10000 0 0 17:58 14.12.2021
4862 Clouds 27 1008 39 10000 0 0 17:58 14.12.2021
4863 Clouds 27 1008 44 10000 0 0 17:28 14.12.2021
4864 Clouds 27 1009 47 10000 0 0 16:38 14.12.2021
4865 Clouds 27 1009 36 10000 0 0 15:26 14.12.2021
4866 Clouds 31 1009 22 10000 2.57 100 13:31 14.12.2021
4867 Clouds 33 1008 21 10000 2.57 150 11:58 14.12.2021
4868 Clouds 34 1008 17 10000 3.09 130 11:23 14.12.2021
4869 Clouds 37 1007 12 10000 2.57 140 09:57 14.12.2021
4870 Clouds 38 1007 12 10000 4.63 160 09:35 14.12.2021
4871 Clear 38 1007 11 10000 3.6 170 08:23 14.12.2021
4872 Clear 39 1007 11 10000 4.12 150 07:43 14.12.2021
4873 Clear 33 1011 17 10000 5.14 80 02:25 14.12.2021
4874 Clear 23 1012 43 10000 0 0 22:50 13.12.2021
4875 Clear 19 1011 55 10000 1.54 250 21:52 13.12.2021
4876 Clear 18 1011 63 10000 0 0 20:59 13.12.2021
4877 Clear 19 1010 52 10000 0 0 20:31 13.12.2021
4878 Clear 19 1010 52 10000 0 0 19:52 13.12.2021
4879 Clear 22 1010 35 10000 2.06 90 17:56 13.12.2021
4880 Clear 22 1010 37 10000 2.06 100 17:23 13.12.2021
4881 Clear 23 1011 31 10000 0.51 10 15:49 13.12.2021
4882 Clear 25 1011 29 10000 2.57 80 15:19 13.12.2021
4883 Clouds 27 1010 22 10000 4.12 160 13:38 13.12.2021
4884 Clouds 29 1009 20 10000 3.6 120 12:42 13.12.2021
4885 Clouds 30 1009 19 10000 3.6 120 11:54 13.12.2021
4886 Clouds 32 1009 14 10000 3.6 130 11:35 13.12.2021
4887 Clouds 35 1008 12 10000 3.6 140 10:43 13.12.2021
4888 Clouds 37 1008 12 10000 2.57 170 08:52 13.12.2021
4889 Clouds 36 1008 11 10000 2.57 190 07:37 13.12.2021
4890 Clouds 36 1009 12 10000 3.09 200 05:23 13.12.2021
4891 Clouds 27 1013 36 10000 4.12 250 00:42 13.12.2021
4892 Clouds 20 1011 34 10000 1.54 270 21:59 12.12.2021
4893 Clouds 21 1011 32 10000 3.09 250 21:33 12.12.2021
4894 Clouds 19 1009 45 10000 2.57 180 19:38 12.12.2021
4895 Clear 20 1008 42 10000 2.06 260 18:28 12.12.2021
4896 Clear 23 1009 23 10000 3.09 70 16:54 12.12.2021
4897 Clear 24 1009 20 10000 3.6 90 16:26 12.12.2021
4898 Clear 25 1009 20 10000 3.09 80 15:28 12.12.2021
4899 Clear 25 1009 22 10000 3.09 70 14:54 12.12.2021
4900 Clear 25 1009 23 10000 3.09 80 14:22 12.12.2021
4901 Clear 27 1009 24 10000 4.12 80 12:51 12.12.2021
4902 Clear 29 1008 21 10000 3.6 100 12:23 12.12.2021
4903 Clear 29 1008 21 10000 3.6 100 12:23 12.12.2021
4904 Clear 31 1008 19 10000 3.6 100 11:43 12.12.2021
4905 Clear 33 1008 16 10000 3.09 100 10:44 12.12.2021
4906 Clear 33 1008 16 10000 3.09 100 10:44 12.12.2021
4907 Clear 35 1007 14 10000 3.6 130 10:21 12.12.2021
4908 Clear 36 1008 12 10000 3.09 160 08:48 12.12.2021
4909 Clear 36 1008 13 10000 1.54 230 07:28 12.12.2021
4910 Clear 35 1009 13 10000 1.54 260 05:56 12.12.2021
4911 Clear 35 1010 14 10000 2.57 220 04:53 12.12.2021
4912 Clear 31 1013 13 10000 3.6 20 01:26 12.12.2021
4913 Clear 26 1013 22 10000 3.09 60 23:26 11.12.2021
4914 Clear 20 1012 42 10000 2.57 90 22:21 11.12.2021
4915 Clear 16 1012 55 10000 0 0 21:35 11.12.2021
4916 Clear 16 1011 63 10000 2.57 70 20:19 11.12.2021
4917 Clear 18 1011 55 10000 0 0 19:21 11.12.2021
4918 Clear 17 1011 55 10000 0 0 18:48 11.12.2021
4919 Clear 19 1010 45 10000 2.06 30 17:54 11.12.2021
4920 Clear 21 1011 30 10000 2.06 50 16:37 11.12.2021
4921 Clear 22 1011 30 10000 3.6 70 15:41 11.12.2021
4922 Clear 23 1012 28 10000 2.57 80 14:36 11.12.2021
4923 Clear 27 1011 22 10000 4.12 120 12:31 11.12.2021
4924 Clear 31 1010 16 10000 4.63 110 10:50 11.12.2021
4925 Clear 33 1010 16 10000 2.06 140 09:43 11.12.2021
4926 Clear 31 1013 12 10000 3.09 110 03:58 11.12.2021
4927 Clear 26 1015 15 10000 4.12 60 00:48 11.12.2021
4928 Clear 24 1015 19 10000 5.14 70 23:44 10.12.2021
4929 Clear 21 1015 32 10000 3.09 60 22:47 10.12.2021
4930 Clear 15 1014 51 10000 0 0 21:41 10.12.2021
4931 Clear 16 1013 48 10000 0 0 20:28 10.12.2021
4932 Clear 18 1013 32 10000 3.09 90 19:19 10.12.2021
4933 Clear 18 1013 36 10000 1.03 80 17:46 10.12.2021
4934 Clear 19 1013 32 10000 2.57 90 16:37 10.12.2021
4935 Clear 20 1013 30 10000 3.09 90 15:45 10.12.2021
4936 Clear 20 1014 32 10000 3.09 70 15:26 10.12.2021
4937 Clear 22 1014 24 10000 4.12 100 14:35 10.12.2021
4938 Clear 21 1014 30 10000 3.09 90 13:49 10.12.2021
4939 Clear 23 1013 27 10000 3.6 130 12:56 10.12.2021
4940 Clear 26 1012 22 10000 3.6 120 11:43 10.12.2021
4941 Clear 28 1012 17 10000 4.63 120 10:57 10.12.2021
4942 Clear 30 1011 16 10000 4.63 120 09:46 10.12.2021
4943 Clear 31 1012 16 10000 4.63 110 07:49 10.12.2021
4944 Clear 30 1013 17 10000 5.14 120 04:57 10.12.2021
4945 Clear 27 1016 21 10000 5.14 100 02:42 10.12.2021
4946 Clear 20 1016 30 10000 4.12 100 23:42 09.12.2021
4947 Clear 17 1016 63 10000 0.51 110 22:43 09.12.2021
4948 Clear 17 1016 63 10000 0.51 110 22:22 09.12.2021
4949 Clear 15 1016 67 10000 3.09 120 21:40 09.12.2021
4950 Clear 14 1015 82 10000 0 0 20:36 09.12.2021
4951 Clear 14 1015 82 10000 0.51 200 19:43 09.12.2021
4952 Clear 15 1015 82 10000 2.57 140 19:20 09.12.2021
4953 Clear 16 1015 77 10000 2.57 120 18:19 09.12.2021
4954 Clear 16 1015 82 10000 0 0 17:48 09.12.2021
4955 Clear 16 1015 77 10000 0 0 17:24 09.12.2021
4956 Clear 17 1015 72 10000 0 0 16:36 09.12.2021
4957 Clear 17 1016 67 10000 0 0 15:18 09.12.2021
4958 Clear 19 1016 55 10000 1.03 30 14:36 09.12.2021
4959 Clear 22 1015 43 10000 3.09 110 12:48 09.12.2021
4960 Clear 22 1014 53 10000 2.57 100 11:51 09.12.2021
4961 Clouds 26 1014 29 10000 1.03 90 10:28 09.12.2021
4962 Clouds 24 1014 35 10000 4.63 90 07:34 09.12.2021
4963 Clouds 21 1018 40 10000 4.63 110 03:56 09.12.2021
4964 Clouds 19 1018 55 10000 4.63 130 00:26 09.12.2021
4965 Clouds 18 1017 68 10000 6.17 110 23:37 08.12.2021
4966 Clouds 18 1017 68 10000 2.57 170 22:57 08.12.2021
4967 Clouds 18 1016 63 10000 5.66 70 22:36 08.12.2021
4968 Clouds 19 1016 55 10000 5.14 80 21:38 08.12.2021
4969 Clouds 19 1015 55 10000 5.66 100 20:50 08.12.2021
4970 Clouds 19 1015 59 10000 6.69 100 19:57 08.12.2021
4971 Rain 19 1016 63 10000 3.6 110 19:20 08.12.2021
4972 Clouds 23 1016 35 10000 6.17 140 18:22 08.12.2021
4973 Clouds 24 1015 33 10000 7.72 120 16:53 08.12.2021
4974 Clouds 25 1015 36 10000 4.63 120 15:42 08.12.2021
4975 Clouds 25 1015 36 10000 4.63 120 15:22 08.12.2021
4976 Clouds 27 1015 29 10000 5.66 130 13:26 08.12.2021
4977 Clouds 30 1013 26 10000 5.14 140 10:44 08.12.2021
4978 Clouds 32 1012 25 10000 4.63 110 09:32 08.12.2021
4979 Clouds 32 1012 25 10000 4.12 130 08:34 08.12.2021
4980 Clear 32 1013 27 10000 4.12 60 06:22 08.12.2021
4981 Clouds 26 1016 34 10000 7.72 100 00:41 08.12.2021
4982 Clouds 25 1016 38 10000 5.66 120 23:22 07.12.2021
4983 Clouds 21 1015 60 10000 3.09 120 21:25 07.12.2021
4984 Clouds 22 1014 56 10000 3.6 130 20:25 07.12.2021
4985 Clouds 23 1014 60 10000 3.6 120 18:59 07.12.2021
4986 Clouds 23 1013 68 10000 2.57 120 18:21 07.12.2021
4987 Clouds 23 1013 78 10000 0 0 17:24 07.12.2021
4988 Clouds 23 1014 78 10000 3.09 80 16:42 07.12.2021
4989 Clouds 24 1014 73 10000 2.06 110 15:59 07.12.2021
4990 Clouds 25 1014 61 10000 0 0 14:37 07.12.2021
4991 Clouds 26 1014 57 10000 4.63 330 13:38 07.12.2021
4992 Clouds 27 1013 54 10000 2.06 340 12:22 07.12.2021
4993 Clouds 30 1012 35 10000 3.6 140 10:56 07.12.2021
4994 Clouds 31 1010 33 10000 3.6 130 09:20 07.12.2021
4995 Clouds 32 1011 31 10000 2.57 190 06:50 07.12.2021
4996 Clouds 31 1012 33 10000 3.6 160 05:50 07.12.2021
4997 Clouds 29 1014 45 10000 5.66 80 02:35 07.12.2021
4998 Clouds 22 1014 83 10000 2.06 340 23:21 06.12.2021
4999 Clouds 21 1014 88 10000 1.03 350 22:40 06.12.2021
5000 Clouds 21 1014 88 10000 0 0 21:59 06.12.2021
5001 Clouds 21 1013 88 10000 3.6 170 21:27 06.12.2021
5002 Clouds 20 1012 94 10000 2.06 230 20:32 06.12.2021
5003 Clouds 21 1012 88 10000 0 0 19:24 06.12.2021
5004 Rain 21 1011 83 10000 7.72 70 18:34 06.12.2021
5005 Clouds 21 1012 83 10000 3.6 110 17:53 06.12.2021
5006 Rain 22 1012 78 10000 5.14 70 17:33 06.12.2021
5007 Clouds 22 1012 83 10000 2.57 90 15:51 06.12.2021
5008 Clouds 22 1012 78 10000 2.06 110 14:35 06.12.2021
5009 Clouds 23 1010 68 10000 4.63 100 12:40 06.12.2021
5010 Clouds 21 1011 83 10000 7.72 130 11:55 06.12.2021
5011 Clouds 32 1008 29 10000 7.2 140 09:44 06.12.2021
5012 Clouds 34 1008 26 10000 3.09 150 07:38 06.12.2021
5013 Clear 30 1012 32 10000 4.63 60 02:20 06.12.2021
5014 Clear 21 1013 64 10000 3.6 150 22:20 05.12.2021
5015 Clear 19 1012 63 10000 3.09 70 21:25 05.12.2021
5016 Clear 21 1011 56 10000 3.09 130 20:20 05.12.2021
5017 Clear 20 1012 60 10000 1.54 130 19:58 05.12.2021
5018 Clouds 20 1011 60 10000 0 0 19:23 05.12.2021
5019 Clouds 20 1011 60 10000 2.57 130 18:26 05.12.2021
5020 Clouds 20 1011 60 10000 2.06 70 17:49 05.12.2021
5021 Clouds 22 1012 49 10000 5.14 80 16:58 05.12.2021
5022 Clouds 23 1012 46 10000 5.14 90 16:28 05.12.2021
5023 Clouds 24 1012 41 10000 7.2 90 15:58 05.12.2021
5024 Clouds 24 1013 41 10000 4.63 90 14:47 05.12.2021
5025 Clouds 25 1012 36 10000 6.17 80 14:29 05.12.2021
5026 Clouds 25 1012 31 10000 7.2 70 13:31 05.12.2021
5027 Clouds 25 1012 29 10000 8.23 70 12:41 05.12.2021
5028 Clouds 25 1012 29 10000 8.23 70 12:23 05.12.2021
5029 Clouds 26 1011 27 10000 7.72 90 11:37 05.12.2021
5030 Clouds 26 1011 27 10000 9.26 110 10:21 05.12.2021
5031 Clouds 27 1011 28 10000 8.75 120 09:26 05.12.2021
5032 Clear 31 1014 19 10000 7.72 150 04:56 05.12.2021
5033 Clouds 28 1015 24 10000 8.23 150 01:23 05.12.2021
5034 Clouds 24 1013 27 10000 3.6 120 22:42 04.12.2021
5035 Clouds 23 1012 31 10000 4.12 110 21:37 04.12.2021
5036 Clouds 25 1012 27 10000 4.63 110 20:40 04.12.2021
5037 Clouds 26 1012 27 10000 4.63 120 19:33 04.12.2021
5038 Clouds 25 1012 31 10000 3.6 130 18:43 04.12.2021
5039 Clouds 27 1012 26 10000 3.09 130 17:47 04.12.2021
5040 Clouds 27 1012 26 10000 5.66 90 17:20 04.12.2021
5041 Clouds 28 1013 24 10000 5.14 120 16:46 04.12.2021
5042 Clouds 29 1013 21 10000 6.69 120 16:27 04.12.2021
5043 Clouds 33 1013 22 10000 5.66 140 12:44 04.12.2021
5044 Clouds 33 1011 19 10000 3.09 100 11:34 04.12.2021
5045 Clouds 36 1011 14 10000 5.66 100 10:57 04.12.2021
5046 Clouds 38 1010 13 10000 4.12 130 09:40 04.12.2021
5047 Clear 38 1010 13 10000 6.69 110 08:28 04.12.2021
5048 Clouds 37 1013 16 10000 8.75 40 04:43 04.12.2021
5049 Clear 33 1016 22 10000 6.69 80 00:49 04.12.2021
5050 Clear 29 1015 28 10000 0 0 23:33 03.12.2021
5051 Clear 27 1015 32 10000 0 0 22:51 03.12.2021
5052 Clear 21 1015 56 10000 0.51 340 21:54 03.12.2021
5053 Clear 22 1014 49 10000 2.06 110 21:22 03.12.2021
5054 Clear 21 1014 52 10000 2.06 330 20:42 03.12.2021
5055 Clouds 21 1014 56 10000 0 0 19:21 03.12.2021
5056 Clouds 22 1014 53 10000 2.06 230 18:22 03.12.2021
5057 Clouds 22 1014 49 10000 2.06 260 17:30 03.12.2021
5058 Clouds 28 1015 26 10000 2.57 70 13:35 03.12.2021
5059 Clouds 31 1014 18 10000 3.6 110 12:30 03.12.2021
5060 Clouds 33 1013 15 10000 4.12 110 11:19 03.12.2021
5061 Clouds 38 1012 11 10000 4.63 90 09:21 03.12.2021
5062 Clouds 38 1012 11 10000 7.2 80 07:44 03.12.2021
5063 Clear 38 1013 10 10000 5.66 70 06:41 03.12.2021
5064 Clear 34 1016 17 10000 5.66 50 00:49 03.12.2021
5065 Clear 31 1016 23 10000 4.12 60 23:48 02.12.2021
5066 Clear 24 1016 46 10000 0 0 22:54 02.12.2021
5067 Clear 18 1015 63 10000 0 0 21:41 02.12.2021
5068 Clear 18 1014 63 10000 0 0 20:46 02.12.2021
5069 Clear 19 1014 63 10000 0.51 270 20:22 02.12.2021
5070 Clear 20 1014 52 10000 0 0 18:50 02.12.2021
5071 Clear 21 1014 52 10000 0 0 16:53 02.12.2021
5072 Clear 23 1014 40 10000 0 0 15:41 02.12.2021
5073 Clear 24 1015 38 10000 0 0 14:53 02.12.2021
5074 Clear 26 1014 31 10000 0 0 13:39 02.12.2021
5075 Clear 27 1014 29 10000 0 0 12:46 02.12.2021
5076 Clear 31 1013 15 10000 2.57 100 11:45 02.12.2021
5077 Clear 37 1011 9 10000 7.2 110 09:27 02.12.2021
5078 Clear 38 1012 11 10000 4.63 130 07:20 02.12.2021
5079 Clear 34 1015 14 10000 4.12 70 01:28 02.12.2021
5080 Clear 31 1015 18 10000 2.57 60 00:35 02.12.2021
5081 Clear 19 1014 68 10000 0 0 22:32 01.12.2021
5082 Clear 18 1014 59 10000 2.57 330 21:44 01.12.2021
5083 Clear 18 1012 68 10000 0 0 20:24 01.12.2021
5084 Clear 18 1012 63 10000 0 0 19:46 01.12.2021
5085 Clear 19 1012 55 10000 0 0 18:55 01.12.2021
5086 Clear 20 1012 52 10000 0 0 17:31 01.12.2021
5087 Clear 21 1012 52 10000 0 0 16:34 01.12.2021
5088 Clear 26 1013 25 10000 3.6 80 14:35 01.12.2021
5089 Clear 26 1012 31 10000 2.57 70 13:37 01.12.2021
5090 Clear 33 1011 15 10000 4.12 120 10:45 01.12.2021
5091 Clear 35 1010 12 10000 3.6 120 10:27 01.12.2021
5092 Clear 37 1010 9 10000 2.57 150 08:52 01.12.2021
5093 Clear 37 1009 12 10000 4.63 130 07:59 01.12.2021
5094 Clear 37 1010 12 10000 2.06 340 07:31 01.12.2021
5095 Clear 35 1012 13 10000 3.09 340 03:57 01.12.2021
5096 Clear 35 1013 13 10000 4.63 330 03:27 01.12.2021
5097 Clear 30 1014 19 10000 1.03 280 00:34 01.12.2021
5098 Clear 28 1013 26 10000 0 0 23:29 30.11.2021
5099 Clear 21 1012 46 10000 3.09 40 22:32 30.11.2021
5100 Clear 19 1011 52 10000 3.09 20 20:47 30.11.2021
5101 Clear 16 1011 77 10000 0 0 20:25 30.11.2021
5102 Clear 17 1010 67 10000 2.57 350 19:39 30.11.2021
5103 Clear 17 1010 67 10000 1.54 320 18:53 30.11.2021
5104 Clear 18 1010 63 10000 1.03 190 17:45 30.11.2021
5105 Clear 21 1011 46 10000 2.06 60 16:19 30.11.2021
5106 Clear 24 1011 33 10000 2.57 50 14:34 30.11.2021
5107 Clear 25 1011 31 10000 2.57 70 13:41 30.11.2021
5108 Clear 25 1011 33 10000 3.09 80 12:54 30.11.2021
5109 Clear 27 1010 26 10000 3.6 120 11:59 30.11.2021
5110 Clear 29 1010 21 10000 3.09 130 11:25 30.11.2021
5111 Clear 33 1009 16 10000 2.06 180 10:36 30.11.2021
5112 Clear 35 1008 12 10000 2.06 140 08:57 30.11.2021
5113 Clear 35 1008 11 10000 1.03 310 08:32 30.11.2021
5114 Clear 34 1009 13 10000 2.57 180 07:56 30.11.2021
5115 Clear 35 1009 12 10000 2.57 190 06:37 30.11.2021
5116 Clear 30 1013 19 10000 3.09 80 01:49 30.11.2021
5117 Clear 30 1013 19 10000 3.09 80 01:27 30.11.2021
5118 Clear 24 1014 38 10000 0 0 23:36 29.11.2021
5119 Clear 24 1014 38 10000 0 0 23:18 29.11.2021
5120 Clear 24 1014 38 10000 0 0 23:18 29.11.2021
5121 Clear 17 1013 72 10000 2.06 280 22:38 29.11.2021
5122 Clear 15 1013 77 10000 0 0 21:54 29.11.2021
5123 Clear 15 1012 77 10000 0 0 21:20 29.11.2021
5124 Clear 15 1012 77 10000 0 0 20:46 29.11.2021
5125 Clear 16 1012 77 10000 0 0 19:58 29.11.2021
5126 Clear 16 1012 67 10000 0 0 19:40 29.11.2021
5127 Clear 17 1012 72 10000 0 0 18:59 29.11.2021
5128 Clear 22 1010 28 10000 2.82 68 18:40 29.11.2021
5129 Clear 23 1011 26 10000 2.88 89 17:21 29.11.2021
5130 Clear 23 1011 26 10000 2.88 89 16:44 29.11.2021
5131 Clear 24 1012 25 10000 3.32 104 16:22 29.11.2021
5132 Clear 24 1012 24 10000 3.78 114 14:45 29.11.2021
5133 Clear 25 1013 23 10000 4.48 122 13:52 29.11.2021
5134 Clear 26 1012 21 10000 5.05 134 12:57 29.11.2021
5135 Clear 27 1011 20 10000 5.29 145 11:54 29.11.2021
5136 Clear 28 1010 18 10000 5.26 157 11:22 29.11.2021
5137 Clear 30 1011 17 10000 2.57 170 09:58 29.11.2021
5138 Clear 31 1011 18 10000 2.57 180 07:21 29.11.2021
5139 Clear 30 1012 17 10000 2.57 180 05:48 29.11.2021
5140 Clear 25 1016 31 10000 6.69 100 00:46 29.11.2021
5141 Clear 23 1016 35 10000 3.6 80 23:47 28.11.2021
5142 Clear 21 1016 46 10000 0 0 23:29 28.11.2021
5143 Clear 14 1015 77 10000 0 0 21:57 28.11.2021
5144 Clear 14 1014 77 10000 0 0 21:38 28.11.2021
5145 Clear 14 1014 77 10000 0 0 20:36 28.11.2021
5146 Clear 14 1014 77 10000 0 0 19:37 28.11.2021
5147 Clear 15 1014 72 10000 2.06 340 18:40 28.11.2021
5148 Clear 16 1014 63 10000 2.57 310 17:57 28.11.2021
5149 Clear 16 1014 72 10000 0 0 17:32 28.11.2021
5150 Clear 17 1015 59 10000 0 0 16:45 28.11.2021
5151 Clear 17 1015 63 10000 0 0 16:27 28.11.2021
5152 Clear 18 1015 55 10000 0 0 15:45 28.11.2021
5153 Clear 18 1015 55 10000 0 0 14:51 28.11.2021
5154 Clear 20 1015 40 10000 2.06 170 13:51 28.11.2021
5155 Clear 20 1015 42 10000 2.57 160 12:54 28.11.2021
5156 Clear 23 1014 31 10000 3.09 140 11:21 28.11.2021
5157 Clear 27 1014 21 10000 4.12 150 10:22 28.11.2021
5158 Clear 28 1013 20 10000 3.6 120 09:40 28.11.2021
5159 Clear 28 1013 18 10000 4.12 130 08:21 28.11.2021
5160 Clear 22 1018 30 10000 4.63 100 00:40 28.11.2021
5161 Clear 14 1017 72 10000 1.54 300 21:46 27.11.2021
5162 Clear 13 1016 76 10000 0 0 19:50 27.11.2021
5163 Clear 14 1016 77 10000 2.06 110 18:20 27.11.2021
5164 Clear 18 1017 48 10000 2.57 80 15:59 27.11.2021
5165 Clear 19 1017 45 10000 3.09 100 14:35 27.11.2021
5166 Clear 21 1017 37 10000 4.12 120 13:20 27.11.2021
5167 Clear 25 1015 27 10000 5.14 120 10:57 27.11.2021
5168 Clear 26 1014 27 10000 5.14 140 09:54 27.11.2021
5169 Clear 27 1014 28 10000 3.6 120 08:45 27.11.2021
5170 Clear 26 1015 29 10000 6.69 110 06:35 27.11.2021
5171 Clear 25 1017 31 10000 4.63 120 03:52 27.11.2021
5172 Clear 22 1018 43 10000 6.17 130 00:19 27.11.2021
5173 Clear 16 1017 67 10000 0 0 22:41 26.11.2021
5174 Clear 16 1017 67 10000 0 0 22:19 26.11.2021
5175 Clear 14 1017 82 10000 0 0 21:22 26.11.2021
5176 Clear 14 1016 82 10000 0 0 20:40 26.11.2021
5177 Clear 15 1016 82 10000 0 0 19:55 26.11.2021
5178 Clear 15 1016 82 10000 0 0 18:45 26.11.2021
5179 Clear 17 1016 72 10000 3.09 140 17:26 26.11.2021
5180 Clear 17 1016 72 10000 2.57 130 16:45 26.11.2021
5181 Clear 20 1017 56 10000 3.09 140 14:50 26.11.2021
5182 Clouds 23 1016 46 10000 4.12 140 13:34 26.11.2021
5183 Clouds 25 1015 41 10000 5.14 150 10:44 26.11.2021
5184 Clouds 26 1014 38 10000 5.14 130 09:49 26.11.2021
5185 Clouds 26 1013 38 10000 6.17 140 08:50 26.11.2021
5186 Clouds 26 1014 41 10000 6.17 130 08:19 26.11.2021
5187 Clouds 26 1014 44 10000 6.69 160 06:30 26.11.2021
5188 Clouds 24 1015 53 10000 5.66 140 04:52 26.11.2021
5189 Clouds 22 1016 56 10000 5.14 150 03:39 26.11.2021
5190 Clouds 19 1017 72 10000 5.66 160 23:43 25.11.2021
5191 Clouds 18 1016 77 10000 4.63 170 22:25 25.11.2021
5192 Clouds 19 1015 72 10000 6.17 170 20:43 25.11.2021
5193 Clouds 20 1015 68 10000 4.63 160 19:22 25.11.2021
5194 Clouds 19 1015 77 10000 3.6 180 18:31 25.11.2021
5195 Clouds 19 1015 72 10000 4.63 160 17:28 25.11.2021
5196 Clouds 19 1015 72 10000 4.12 170 16:45 25.11.2021
5197 Clouds 20 1016 68 10000 5.14 160 15:59 25.11.2021
5198 Clouds 21 1016 60 10000 5.66 160 14:30 25.11.2021
5199 Clouds 23 1014 46 10000 5.14 160 12:55 25.11.2021
5200 Clouds 24 1014 43 10000 4.63 170 11:56 25.11.2021
5201 Clouds 25 1013 36 10000 5.14 170 10:43 25.11.2021
5202 Clear 26 1011 34 10000 4.63 190 08:21 25.11.2021
5203 Clouds 23 1014 49 10000 4.63 190 02:58 25.11.2021
5204 Clouds 19 1015 68 10000 6.17 180 00:37 25.11.2021
5205 Clear 16 1014 82 10000 4.12 220 22:29 24.11.2021
5206 Clear 15 1014 88 10000 3.09 240 21:48 24.11.2021
5207 Clear 15 1014 88 10000 3.6 230 21:21 24.11.2021
5208 Clear 15 1013 88 10000 3.09 260 20:26 24.11.2021
5209 Clear 16 1013 82 10000 3.09 220 19:20 24.11.2021
5210 Clear 16 1012 82 10000 3.09 230 18:18 24.11.2021
5211 Clear 17 1013 82 10000 0 0 16:20 24.11.2021
5212 Clear 19 1013 68 10000 2.57 170 14:57 24.11.2021
5213 Clear 19 1013 68 10000 3.09 170 14:21 24.11.2021
5214 Clouds 21 1012 60 10000 5.14 170 12:51 24.11.2021
5215 Clouds 23 1010 49 10000 4.12 200 11:24 24.11.2021
5216 Clear 24 1010 46 10000 4.12 190 10:52 24.11.2021
5217 Clear 24 1010 46 10000 4.12 190 10:52 24.11.2021
5218 Clouds 25 1009 41 10000 6.17 210 10:34 24.11.2021
5219 Clouds 27 1009 39 10000 4.12 210 08:35 24.11.2021
5220 Clouds 26 1009 38 10000 5.66 260 07:31 24.11.2021
5221 Clouds 23 1012 60 10000 5.66 210 03:59 24.11.2021
5222 Clouds 22 1012 73 10000 7.72 210 01:36 24.11.2021
5223 Clouds 21 1011 83 10000 5.66 230 23:33 23.11.2021
5224 Clouds 19 1011 88 10000 3.09 240 22:37 23.11.2021
5225 Rain 19 1010 88 10000 5.14 230 21:45 23.11.2021
5226 Clouds 20 1008 94 10000 5.66 260 20:22 23.11.2021
5227 Clouds 19 1008 100 10000 2.57 320 19:22 23.11.2021
5228 Clouds 19 1008 100 10000 4.63 280 18:33 23.11.2021
5229 Thunderstorm 20 1008 94 10000 5.14 230 17:23 23.11.2021
5230 Clouds 20 1009 94 10000 0.51 50 16:35 23.11.2021
5231 Clouds 20 1009 88 10000 2.57 50 15:25 23.11.2021
5232 Clouds 20 1010 94 10000 3.09 60 14:39 23.11.2021
5233 Clouds 20 1009 88 10000 2.06 60 12:53 23.11.2021
5234 Rain 26 1009 65 10000 4.63 300 10:28 23.11.2021
5235 Clouds 26 1008 65 10000 4.12 330 09:45 23.11.2021
5236 Clouds 27 1007 57 10000 7.2 330 07:51 23.11.2021
5237 Clouds 23 1010 68 10000 6.17 350 04:38 23.11.2021
5238 Clouds 22 1011 73 10000 5.66 10 03:27 23.11.2021
5239 Clouds 19 1013 82 10000 4.12 60 23:26 22.11.2021
5240 Rain 18 1013 88 10000 4.12 60 22:56 22.11.2021
5241 Rain 19 1013 94 10000 3.6 40 22:29 22.11.2021
5242 Rain 20 1013 88 10000 3.09 10 21:44 22.11.2021
5243 Clouds 20 1013 88 10000 3.09 280 20:56 22.11.2021
5244 Rain 20 1013 94 10000 3.09 240 20:21 22.11.2021
5245 Clouds 21 1012 88 10000 5.66 260 19:19 22.11.2021
5246 Rain 24 1012 69 10000 6.69 260 18:40 22.11.2021
5247 Clouds 26 1012 24 10000 3.6 270 17:46 22.11.2021
5248 Clouds 25 1010 23 10000 4.12 90 16:26 22.11.2021
5249 Rain 25 1011 33 10000 4.12 90 14:26 22.11.2021
5250 Clouds 26 1011 36 10000 3.09 100 12:43 22.11.2021
5251 Clouds 29 1009 28 10000 5.14 90 10:43 22.11.2021
5252 Clouds 31 1009 25 10000 6.17 110 09:48 22.11.2021
5253 Clouds 32 1009 23 10000 5.66 110 08:41 22.11.2021
5254 Clouds 32 1010 22 10000 3.6 90 06:43 22.11.2021
5255 Clouds 23 1016 35 10000 7.2 90 23:35 21.11.2021
5256 Clouds 22 1016 37 10000 2.57 100 22:51 21.11.2021
5257 Clear 20 1015 49 10000 1.54 90 22:19 21.11.2021
5258 Clouds 18 1014 55 10000 2.06 80 20:42 21.11.2021
5259 Clouds 18 1014 55 10000 2.06 80 20:21 21.11.2021
5260 Clouds 18 1014 55 10000 3.09 150 18:30 21.11.2021
5261 Clouds 20 1014 45 10000 2.57 100 17:39 21.11.2021
5262 Clouds 20 1015 49 10000 3.09 120 16:46 21.11.2021
5263 Clouds 23 1016 38 10000 3.6 120 14:46 21.11.2021
5264 Clear 24 1015 33 10000 5.14 110 13:49 21.11.2021
5265 Clear 26 1015 34 10000 6.17 110 12:38 21.11.2021
5266 Clear 26 1014 36 10000 5.14 110 11:57 21.11.2021
5267 Clear 26 1014 41 10000 4.63 120 11:35 21.11.2021
5268 Clear 28 1013 34 10000 5.66 100 10:19 21.11.2021
5269 Clear 29 1013 34 10000 5.66 110 08:56 21.11.2021
5270 Clear 29 1013 34 10000 5.14 100 08:26 21.11.2021
5271 Clear 29 1013 37 10000 6.17 150 07:49 21.11.2021
5272 Clouds 28 1013 39 10000 6.17 110 06:18 21.11.2021
5273 Clouds 28 1014 42 10000 7.2 120 05:26 21.11.2021
5274 Clear 26 1016 50 10000 7.2 120 03:19 21.11.2021
5275 Clouds 26 1016 50 10000 7.2 130 02:52 21.11.2021
5276 Clouds 23 1017 64 10000 7.2 120 00:59 21.11.2021
5277 Clouds 22 1017 64 10000 7.2 120 23:59 20.11.2021
5278 Clouds 21 1015 68 10000 6.17 140 21:49 20.11.2021
5279 Clouds 22 1015 60 10000 4.63 150 21:28 20.11.2021
5280 Clouds 23 1014 53 10000 4.63 150 19:22 20.11.2021
5281 Clouds 23 1014 53 10000 4.63 140 18:45 20.11.2021
5282 Clouds 23 1014 53 10000 5.14 140 18:18 20.11.2021
5283 Clouds 24 1014 50 10000 5.66 140 16:59 20.11.2021
5284 Clear 26 1014 44 10000 6.69 150 14:48 20.11.2021
5285 Clear 27 1014 41 10000 5.14 150 14:27 20.11.2021
5286 Clouds 31 1011 27 10000 6.17 140 12:23 20.11.2021
5287 Clouds 33 1009 24 10000 7.72 160 11:18 20.11.2021
5288 Clouds 36 1007 16 10000 3.09 340 09:51 20.11.2021
5289 Clouds 38 1007 11 10000 6.17 300 07:47 20.11.2021
5290 Clear 38 1009 12 10000 8.23 310 05:28 20.11.2021
5291 Clear 38 1009 13 10000 7.72 310 04:50 20.11.2021
5292 Clear 37 1010 12 10000 7.72 340 03:24 20.11.2021
5293 Clear 32 1011 17 10000 6.17 350 00:41 20.11.2021
5294 Clear 27 1010 28 10000 0 0 23:43 19.11.2021
5295 Clear 21 1010 49 10000 0 0 22:39 19.11.2021
5296 Clear 20 1009 49 10000 2.57 290 20:59 19.11.2021
5297 Clear 19 1009 48 10000 1.03 330 20:37 19.11.2021
5298 Clear 19 1009 59 10000 0 0 19:56 19.11.2021
5299 Clear 19 1009 59 10000 3.09 20 18:55 19.11.2021
5300 Clear 20 1009 49 10000 2.57 320 18:24 19.11.2021
5301 Clear 20 1009 56 10000 0 0 17:36 19.11.2021
5302 Clouds 21 1010 52 10000 3.09 290 15:58 19.11.2021
5303 Clear 24 1011 41 10000 0 0 13:56 19.11.2021
5304 Clear 35 1009 10 10000 3.09 350 10:30 19.11.2021
5305 Clear 36 1009 9 10000 3.6 330 09:48 19.11.2021
5306 Clear 37 1009 8 10000 4.63 320 08:26 19.11.2021
5307 Clear 36 1011 7 6000 5.66 330 04:54 19.11.2021
5308 Clear 34 1012 10 10000 6.17 340 02:40 19.11.2021
5309 Clear 29 1013 16 10000 0 0 23:52 18.11.2021
5310 Clear 20 1012 45 10000 2.57 170 22:21 18.11.2021
5311 Clear 17 1011 67 10000 2.57 210 20:50 18.11.2021
5312 Clear 17 1011 67 10000 0 0 20:31 18.11.2021
5313 Clear 21 1011 32 10000 0.51 360 19:55 18.11.2021
5314 Clear 20 1011 42 10000 0 0 19:34 18.11.2021
5315 Clear 21 1011 43 10000 0 0 18:34 18.11.2021
5316 Clear 19 1011 59 10000 0 0 17:51 18.11.2021
5317 Clear 20 1012 60 10000 0 0 16:44 18.11.2021
5318 Clear 21 1012 52 10000 0 0 15:46 18.11.2021
5319 Clear 24 1013 35 10000 3.6 60 13:40 18.11.2021
5320 Clear 26 1012 25 10000 3.09 70 12:34 18.11.2021
5321 Clear 29 1012 18 10000 3.09 110 11:43 18.11.2021
5322 Clear 29 1012 18 10000 3.09 110 11:24 18.11.2021
5323 Clear 34 1011 11 10000 3.09 80 09:44 18.11.2021
5324 Clear 34 1011 10 10000 3.6 50 07:35 18.11.2021
5325 Clear 34 1013 12 10000 4.12 70 05:55 18.11.2021
5326 Clear 34 1013 10 10000 4.12 60 05:36 18.11.2021
5327 Clear 29 1017 14 10000 4.12 40 01:24 18.11.2021
5328 Clear 29 1017 14 10000 4.12 40 01:24 18.11.2021
5329 Clear 22 1017 35 10000 1.54 30 23:18 17.11.2021
5330 Clear 16 1016 72 10000 0.51 330 22:21 17.11.2021
5331 Clear 13 1016 88 10000 0 0 21:39 17.11.2021
5332 Clear 15 1015 72 10000 0 0 20:58 17.11.2021
5333 Clouds 16 1015 72 10000 1.54 220 18:34 17.11.2021
5334 Clouds 17 1016 67 10000 0 0 17:28 17.11.2021
5335 Clouds 20 1017 45 10000 2.57 40 14:52 17.11.2021
5336 Clear 23 1016 28 10000 3.09 70 12:41 17.11.2021
5337 Clear 25 1016 22 10000 3.09 80 11:49 17.11.2021
5338 Clear 29 1015 15 10000 4.63 90 10:32 17.11.2021
5339 Clear 31 1014 13 10000 5.14 120 09:25 17.11.2021
5340 Clear 31 1015 14 10000 4.12 100 07:44 17.11.2021
5341 Clear 29 1017 15 10000 3.09 100 04:47 17.11.2021
5342 Clear 26 1020 18 10000 4.63 80 02:37 17.11.2021
5343 Clear 21 1020 35 10000 0 0 23:27 16.11.2021
5344 Clear 13 1018 76 10000 0 0 21:27 16.11.2021
5345 Clear 14 1018 77 10000 0 0 20:18 16.11.2021
5346 Clear 14 1018 77 10000 0 0 18:54 16.11.2021
5347 Clear 15 1018 72 10000 0 0 18:35 16.11.2021
5348 Clear 15 1018 72 10000 0 0 18:35 16.11.2021
5349 Clear 15 1018 77 10000 0 0 17:43 16.11.2021
5350 Clear 15 1018 77 10000 0 0 16:52 16.11.2021
5351 Clear 17 1018 67 10000 0 0 16:18 16.11.2021
5352 Clear 19 1018 42 10000 2.57 60 15:40 16.11.2021
5353 Clear 22 1018 30 10000 2.57 70 12:34 16.11.2021
5354 Clear 28 1016 16 10000 5.14 120 09:49 16.11.2021
5355 Clear 29 1016 15 10000 5.14 80 08:48 16.11.2021
5356 Clear 29 1016 15 10000 4.63 180 07:34 16.11.2021
5357 Clear 26 1019 21 10000 5.14 70 02:50 16.11.2021
5358 Clear 19 1019 42 10000 0 0 23:23 15.11.2021
5359 Clear 15 1018 72 10000 0 0 22:39 15.11.2021
5360 Clear 13 1018 82 10000 0 0 21:54 15.11.2021
5361 Clear 13 1017 71 10000 0 0 21:29 15.11.2021
5362 Clear 15 1016 58 10000 0.51 80 19:58 15.11.2021
5363 Clear 14 1016 72 10000 0 0 18:48 15.11.2021
5364 Clear 16 1017 59 10000 2.06 80 16:55 15.11.2021
5365 Clear 18 1018 45 10000 3.09 120 15:42 15.11.2021
5366 Clear 18 1018 45 10000 3.09 120 15:24 15.11.2021
5367 Clear 20 1018 40 10000 3.6 120 13:32 15.11.2021
5368 Clear 22 1017 30 10000 3.6 120 11:53 15.11.2021
5369 Clear 26 1015 21 10000 5.14 110 09:28 15.11.2021
5370 Clear 27 1015 21 10000 4.12 130 07:55 15.11.2021
5371 Clouds 26 1017 24 10000 4.12 150 05:23 15.11.2021
5372 Clear 20 1019 37 10000 4.12 90 23:57 14.11.2021
5373 Clear 15 1018 77 10000 0 0 22:37 14.11.2021
5374 Clear 13 1017 82 10000 0 0 19:59 14.11.2021
5375 Clear 13 1017 88 10000 0 0 19:18 14.11.2021
5376 Clear 14 1017 72 10000 0 0 18:54 14.11.2021
5377 Clear 14 1017 72 10000 2.57 20 18:36 14.11.2021
5378 Clear 14 1017 72 10000 2.57 20 18:18 14.11.2021
5379 Clear 15 1017 67 10000 3.09 30 17:57 14.11.2021
5380 Clear 15 1017 72 10000 3.6 150 17:39 14.11.2021
5381 Clear 15 1017 72 10000 3.6 150 17:21 14.11.2021
5382 Clear 15 1017 72 10000 1.54 90 16:49 14.11.2021
5383 Clear 15 1018 67 10000 2.06 60 16:20 14.11.2021
5384 Clear 17 1018 55 10000 2.57 100 15:23 14.11.2021
5385 Clear 17 1019 55 10000 2.06 90 14:49 14.11.2021
5386 Clear 17 1019 51 10000 2.06 90 14:29 14.11.2021
5387 Clear 18 1018 48 10000 2.57 120 13:57 14.11.2021
5388 Clear 18 1018 45 10000 3.09 110 13:39 14.11.2021
5389 Clear 20 1018 34 10000 3.6 150 12:28 14.11.2021
5390 Clear 21 1017 32 10000 3.09 140 11:52 14.11.2021
5391 Clear 24 1016 22 10000 5.14 140 10:42 14.11.2021
5392 Clear 25 1016 19 10000 4.12 160 09:52 14.11.2021
5393 Clear 26 1015 18 10000 4.63 150 08:55 14.11.2021
5394 Clear 27 1016 22 10000 4.12 200 07:23 14.11.2021
5395 Clear 20 1020 42 10000 3.09 110 00:26 14.11.2021
5396 Clear 13 1018 88 10000 0 0 22:26 13.11.2021
5397 Clear 12 1018 87 10000 0 0 21:57 13.11.2021
5398 Clear 11 1018 93 10000 0 0 21:23 13.11.2021
5399 Clear 12 1017 87 10000 1.03 40 19:47 13.11.2021
5400 Clear 12 1016 87 10000 0 0 18:33 13.11.2021
5401 Clear 13 1016 82 10000 0 0 17:55 13.11.2021
5402 Clear 14 1017 72 10000 0 0 16:37 13.11.2021
5403 Clear 15 1018 67 10000 1.54 90 15:34 13.11.2021
5404 Clear 16 1018 59 10000 2.06 110 14:30 13.11.2021
5405 Clear 17 1017 51 10000 3.09 130 13:32 13.11.2021
5406 Clear 18 1017 48 10000 3.09 160 12:24 13.11.2021
5407 Clear 20 1016 37 10000 2.57 150 11:34 13.11.2021
5408 Clear 21 1016 30 10000 3.6 160 10:45 13.11.2021
5409 Clear 22 1016 26 10000 3.09 140 10:20 13.11.2021
5410 Clear 23 1015 21 10000 3.09 190 09:37 13.11.2021
5411 Clear 23 1015 20 10000 4.12 140 08:56 13.11.2021
5412 Clear 23 1015 23 10000 4.12 120 08:23 13.11.2021
5413 Clear 22 1017 24 10000 3.6 180 04:47 13.11.2021
5414 Clear 21 1018 26 10000 3.09 240 04:28 13.11.2021
5415 Clear 18 1020 34 10000 4.63 150 01:30 13.11.2021
5416 Clear 13 1019 76 10000 0 0 22:46 12.11.2021
5417 Clear 10 1018 93 10000 0 0 21:45 12.11.2021
5418 Clear 10 1018 93 10000 0 0 21:45 12.11.2021
5419 Clear 11 1017 82 10000 0 0 19:46 12.11.2021
5420 Clear 11 1017 87 10000 0 0 19:27 12.11.2021
5421 Clear 12 1016 76 10000 2.57 160 18:28 12.11.2021
5422 Clear 13 1017 76 10000 0 0 16:23 12.11.2021
5423 Clear 14 1017 67 10000 2.06 140 15:32 12.11.2021
5424 Clear 17 1016 55 10000 3.6 170 11:33 12.11.2021
5425 Clear 19 1016 39 10000 3.6 190 10:50 12.11.2021
5426 Clear 21 1015 32 10000 4.63 200 09:36 12.11.2021
5427 Clear 21 1014 32 10000 6.17 180 08:38 12.11.2021
5428 Clouds 16 1017 51 10000 5.66 190 02:25 12.11.2021
5429 Clear 13 1016 71 10000 4.63 180 23:39 11.11.2021
5430 Clear 12 1015 82 10000 3.6 190 22:30 11.11.2021
5431 Clear 10 1015 93 10000 2.57 190 21:27 11.11.2021
5432 Clear 11 1014 87 10000 3.09 170 20:38 11.11.2021
5433 Clear 12 1013 82 10000 2.57 180 18:56 11.11.2021
5434 Clear 13 1014 71 10000 4.63 180 17:43 11.11.2021
5435 Clear 14 1014 67 10000 5.14 190 16:40 11.11.2021
5436 Clouds 16 1014 59 10000 5.66 190 14:45 11.11.2021
5437 Clouds 16 1014 63 10000 5.66 170 14:26 11.11.2021
5438 Clouds 17 1013 55 10000 3.6 210 13:37 11.11.2021
5439 Clouds 17 1013 55 10000 3.6 210 13:37 11.11.2021
5440 Clouds 17 1013 55 10000 4.63 200 12:48 11.11.2021
5441 Clear 20 1009 49 10000 7.72 210 10:36 11.11.2021
5442 Clouds 22 1009 46 10000 8.23 220 09:33 11.11.2021
5443 Clear 24 1007 41 10000 7.72 230 07:38 11.11.2021
5444 Clear 21 1008 56 10000 6.69 240 02:36 11.11.2021
5445 Clear 19 1007 68 10000 5.14 270 22:59 10.11.2021
5446 Clear 18 1006 72 10000 4.63 250 22:22 10.11.2021
5447 Clear 18 1006 77 10000 3.09 260 21:18 10.11.2021
5448 Clear 18 1005 82 10000 5.14 220 20:45 10.11.2021
5449 Clouds 20 1004 73 10000 5.66 220 19:46 10.11.2021
5450 Clouds 21 1003 68 10000 4.12 270 17:50 10.11.2021
5451 Clouds 23 1004 64 10000 3.6 270 16:33 10.11.2021
5452 Clouds 23 1004 88 10000 0 0 14:44 10.11.2021
5453 Clouds 23 1004 83 10000 3.6 190 13:40 10.11.2021
5454 Rain 25 1003 69 10000 4.12 280 12:44 10.11.2021
5455 Rain 27 1001 74 10000 7.72 350 10:39 10.11.2021
5456 Rain 28 1000 74 10000 3.09 20 08:45 10.11.2021
5457 Clouds 26 1001 83 10000 6.69 50 07:25 10.11.2021
5458 Clouds 27 1002 74 10000 6.69 60 06:25 10.11.2021
5459 Clouds 27 1003 74 10000 4.63 60 05:44 10.11.2021
5460 Rain 19 1009 100 1700 1.03 60 22:54 09.11.2021
5461 Rain 19 1008 100 5000 0.51 70 21:47 09.11.2021
5462 Clouds 19 1007 100 10000 4.12 40 20:26 09.11.2021
5463 Rain 19 1007 100 9000 4.12 50 19:20 09.11.2021
5464 Rain 19 1009 100 5000 2.57 210 17:30 09.11.2021
5465 Thunderstorm 19 1009 100 5000 6.17 210 15:38 09.11.2021
5466 Rain 24 996 78 10000 0.51 20 13:59 09.11.2021
5467 Clouds 23 996 81 10000 3.6 20 12:50 09.11.2021
5468 Clouds 23 996 84 10000 4.63 70 11:38 09.11.2021
5469 Rain 24 1007 83 10000 3.6 10 10:43 09.11.2021
5470 Rain 24 1007 83 10000 3.6 30 09:24 09.11.2021
5471 Clouds 24 1007 78 10000 0 0 08:18 09.11.2021
5472 Thunderstorm 26 1005 73 10000 4.12 280 05:23 09.11.2021
5473 Clouds 22 1011 78 10000 7.2 350 01:58 09.11.2021
5474 Clouds 22 1011 78 10000 7.2 350 01:39 09.11.2021
5475 Clouds 19 1011 94 10000 5.14 350 23:35 08.11.2021
5476 Clouds 18 1011 100 10000 3.09 60 22:48 08.11.2021
5477 Clouds 17 1011 100 10000 2.57 30 21:46 08.11.2021
5478 Clouds 16 1010 100 10000 0 0 20:38 08.11.2021
5479 Clouds 16 1010 100 10000 0.51 30 19:46 08.11.2021
5480 Clouds 17 1000 99 10000 2.57 80 17:48 08.11.2021
5481 Clear 17 1000 99 10000 2.57 100 15:59 08.11.2021
5482 Clear 18 1011 100 10000 2.06 40 14:57 08.11.2021
5483 Clear 18 1000 99 10000 2.06 60 14:34 08.11.2021
5484 Clouds 19 1010 94 10000 3.09 90 13:22 08.11.2021
5485 Clouds 18 1000 93 10000 2.06 80 11:56 08.11.2021
5486 Clouds 20 1000 85 10000 3.09 80 10:50 08.11.2021
5487 Clouds 22 999 73 10000 0.89 150 09:31 08.11.2021
5488 Clouds 22 999 74 10000 1.34 154 08:52 08.11.2021
5489 Clouds 21 1000 79 10000 1.79 212 07:27 08.11.2021
5490 Rain 32 1006 38 10000 8.37 346 03:38 08.11.2021
5491 Rain 31 1007 41 10000 7.18 358 03:19 08.11.2021
5492 Clouds 22 1001 65 10000 0.89 223 23:33 07.11.2021
5493 Clear 18 1011 94 10000 1.03 110 21:31 07.11.2021
5494 Clouds 18 1011 94 10000 1.54 60 20:36 07.11.2021
5495 Clouds 18 1010 94 10000 2.06 220 19:19 07.11.2021
5496 Clear 19 1011 94 10000 0 0 17:44 07.11.2021
5497 Clear 20 1011 77 10000 0 0 16:42 07.11.2021
5498 Clear 20 1011 83 10000 0 0 15:42 07.11.2021
5499 Clear 21 1012 78 10000 2.57 350 14:28 07.11.2021
5500 Clouds 21 1001 72 10000 3.09 40 12:55 07.11.2021
5501 Clouds 23 1000 61 10000 0.51 70 11:42 07.11.2021
5502 Clouds 24 1010 57 10000 1.54 300 09:21 07.11.2021
5503 Clouds 23 1013 73 10000 4.12 170 03:40 07.11.2021
5504 Clouds 23 1013 78 10000 2.57 190 02:25 07.11.2021
5505 Clouds 21 1012 88 10000 0 0 22:56 06.11.2021
5506 Clouds 21 1011 94 10000 2.57 180 21:59 06.11.2021
5507 Clouds 21 1012 94 10000 2.06 340 21:22 06.11.2021
5508 Rain 21 1011 94 10000 0.51 290 20:29 06.11.2021
5509 Clouds 21 1011 94 8000 2.57 210 17:32 06.11.2021
5510 Clouds 22 1011 94 10000 3.6 200 16:35 06.11.2021
5511 Clouds 22 1011 88 10000 3.09 270 13:45 06.11.2021
5512 Clouds 22 1011 88 10000 5.14 180 12:58 06.11.2021
5513 Rain 22 1010 88 10000 7.72 220 11:24 06.11.2021
5514 Clouds 29 1005 51 10000 7.2 190 08:49 06.11.2021
5515 Clouds 35 1007 24 10000 3.6 320 04:50 06.11.2021
5516 Clouds 31 1010 40 10000 1.03 270 00:36 06.11.2021
5517 Clouds 27 1010 61 10000 2.06 250 23:29 05.11.2021
5518 Clouds 24 1010 73 10000 0 0 22:33 05.11.2021
5519 Clouds 23 1009 78 10000 0 0 20:41 05.11.2021
5520 Clouds 24 1009 69 10000 0 0 19:51 05.11.2021
5521 Clouds 25 1009 65 10000 2.06 290 18:51 05.11.2021
5522 Clouds 24 1009 69 10000 3.09 290 18:29 05.11.2021
5523 Clouds 25 1010 69 10000 3.6 280 16:45 05.11.2021
5524 Clouds 28 1011 51 10000 0 0 14:22 05.11.2021
5525 Clouds 28 1000 45 10000 0 0 12:27 05.11.2021
5526 Clouds 34 1010 24 10000 4.63 270 09:29 05.11.2021
5527 Clouds 35 1010 21 10000 4.63 270 08:28 05.11.2021
5528 Clouds 35 1012 24 10000 3.09 300 05:40 05.11.2021
5529 Clouds 30 1015 30 10000 5.66 80 02:37 05.11.2021
5530 Clouds 30 1015 30 10000 5.66 80 02:18 05.11.2021
5531 Clouds 26 1016 41 10000 3.6 90 23:57 04.11.2021
5532 Clouds 21 1016 78 10000 0 0 22:21 04.11.2021
5533 Clouds 20 1015 83 10000 0 0 21:56 04.11.2021
5534 Clouds 20 1015 73 10000 1.03 70 21:27 04.11.2021
5535 Clouds 21 1014 64 10000 0 0 20:28 04.11.2021
5536 Clouds 21 1014 73 10000 0 0 19:49 04.11.2021
5537 Clouds 21 1015 78 10000 2.06 130 19:25 04.11.2021
5538 Clouds 22 1015 64 10000 3.09 120 18:26 04.11.2021
5539 Clouds 22 1015 78 10000 0 0 17:26 04.11.2021
5540 Clouds 22 1015 78 10000 0 0 17:26 04.11.2021
5541 Clouds 25 1016 57 10000 2.57 120 15:42 04.11.2021
5542 Clouds 25 1016 65 10000 2.06 130 13:45 04.11.2021
5543 Clouds 31 1015 35 10000 3.6 120 10:22 04.11.2021
5544 Clouds 32 1015 35 10000 2.06 140 08:31 04.11.2021
5545 Clouds 32 1016 31 10000 1.03 200 07:36 04.11.2021
5546 Clouds 32 1016 35 10000 4.63 70 06:40 04.11.2021
5547 Clouds 21 1019 88 10000 2.57 230 22:59 03.11.2021
5548 Clouds 19 1019 100 10000 2.57 290 22:19 03.11.2021
5549 Clouds 19 1019 100 10000 0 0 21:36 03.11.2021
5550 Clouds 19 1018 100 10000 0 0 20:39 03.11.2021
5551 Clouds 19 1018 100 10000 0 0 20:21 03.11.2021
5552 Clouds 20 1018 94 10000 2.57 260 19:28 03.11.2021
5553 Clouds 19 1018 100 10000 0 0 18:26 03.11.2021
5554 Clouds 20 1018 94 10000 0.51 330 17:41 03.11.2021
5555 Clouds 20 1019 100 10000 2.57 310 16:42 03.11.2021
5556 Clouds 20 1020 100 10000 3.09 300 15:47 03.11.2021
5557 Clouds 21 1020 94 10000 2.57 250 15:29 03.11.2021
5558 Clouds 21 1019 88 10000 2.06 360 13:18 03.11.2021
5559 Clouds 21 1018 88 10000 1.03 220 11:34 03.11.2021
5560 Clouds 22 1017 83 10000 3.09 320 10:49 03.11.2021
5561 Rain 21 1018 94 10000 4.12 310 09:40 03.11.2021
5562 Rain 21 1018 88 10000 7.72 280 08:41 03.11.2021
5563 Rain 23 1017 83 10000 10.29 330 07:40 03.11.2021
5564 Clouds 30 1017 54 10000 0.51 110 05:45 03.11.2021
5565 Clouds 28 1018 57 10000 2.06 40 04:22 03.11.2021
5566 Clouds 20 1020 94 10000 6.17 10 00:55 03.11.2021
5567 Rain 19 1020 100 10000 3.09 30 22:52 02.11.2021
5568 Rain 19 1020 100 10000 3.09 30 22:52 02.11.2021
5569 Rain 19 1019 100 10000 0 0 21:47 02.11.2021
5570 Rain 20 1019 94 10000 1.54 180 20:35 02.11.2021
5571 Rain 20 1018 94 10000 3.6 260 19:56 02.11.2021
5572 Thunderstorm 20 1016 88 10000 4.12 310 19:20 02.11.2021
5573 Thunderstorm 20 1016 94 10000 4.63 280 18:27 02.11.2021
5574 Thunderstorm 20 1016 94 6000 5.66 290 17:43 02.11.2021
5575 Clouds 22 1015 83 10000 3.09 140 16:34 02.11.2021
5576 Clouds 23 1016 73 10000 3.09 10 15:48 02.11.2021
5577 Clouds 23 1017 73 10000 3.09 330 14:50 02.11.2021
5578 Clouds 23 1017 73 10000 2.06 30 13:29 02.11.2021
5579 Dust 24 1018 64 250 4.63 300 12:46 02.11.2021
5580 Clouds 24 1016 64 10000 2.06 130 11:38 02.11.2021
5581 Rain 24 1016 64 10000 2.57 140 10:54 02.11.2021
5582 Clouds 25 1015 57 10000 4.12 130 10:32 02.11.2021
5583 Clouds 25 1016 61 10000 3.6 140 09:23 02.11.2021
5584 Clouds 25 1016 65 10000 7.2 170 07:45 02.11.2021
5585 Clouds 25 1018 61 10000 5.66 220 04:39 02.11.2021
5586 Clouds 25 1018 61 10000 4.12 190 02:49 02.11.2021
5587 Clouds 22 1017 78 10000 3.09 260 23:32 01.11.2021
5588 Clouds 21 1014 83 10000 0 0 21:28 01.11.2021
5589 Clouds 20 1014 88 10000 0 0 20:40 01.11.2021
5590 Clouds 20 1013 88 10000 1.54 40 19:58 01.11.2021
5591 Clouds 20 1014 94 10000 0 0 19:35 01.11.2021
5592 Clouds 21 1013 83 10000 2.57 40 18:23 01.11.2021
5593 Clouds 21 1014 83 10000 0 0 17:35 01.11.2021
5594 Clouds 21 1014 83 10000 1.54 360 16:50 01.11.2021
5595 Clouds 22 1015 78 10000 2.06 350 15:56 01.11.2021
5596 Clouds 22 1016 78 10000 2.06 310 15:27 01.11.2021
5597 Clouds 22 1016 78 10000 0 0 14:43 01.11.2021
5598 Clouds 23 1016 68 10000 0 0 14:23 01.11.2021
5599 Clouds 23 1016 68 10000 2.57 230 13:49 01.11.2021
5600 Clouds 28 1015 54 10000 5.66 230 12:33 01.11.2021
5601 Clouds 31 1013 35 10000 3.6 350 10:36 01.11.2021
5602 Clouds 32 1013 31 10000 4.63 350 09:35 01.11.2021
5603 Clouds 31 1013 33 10000 3.6 350 07:49 01.11.2021
5604 Clouds 31 1014 33 10000 4.63 320 06:31 01.11.2021
5605 Clouds 27 1017 47 10000 3.09 330 03:44 01.11.2021
5606 Clouds 20 1020 64 10000 2.57 60 00:41 01.11.2021
5607 Clouds 15 1018 94 10000 3.09 60 22:31 31.10.2021
5608 Clouds 15 1018 94 10000 2.06 30 20:50 31.10.2021
5609 Clouds 14 1017 94 10000 2.57 90 18:57 31.10.2021
5610 Clouds 14 1018 94 10000 2.06 80 18:37 31.10.2021
5611 Clouds 14 1018 94 10000 2.57 80 17:23 31.10.2021
5612 Clouds 15 1019 88 10000 3.6 90 15:48 31.10.2021
5613 Clear 16 1020 88 10000 3.09 100 13:56 31.10.2021
5614 Clouds 16 1019 94 10000 3.09 110 12:49 31.10.2021
5615 Clouds 18 1019 72 10000 2.57 60 11:38 31.10.2021
5616 Clouds 19 1018 68 10000 4.12 50 10:41 31.10.2021
5617 Clouds 20 1018 64 10000 4.12 20 09:20 31.10.2021
5618 Rain 18 1018 88 10000 4.63 40 06:59 31.10.2021
5619 Clouds 18 1021 59 10000 0.51 110 00:54 31.10.2021
5620 Clouds 16 1020 77 10000 0 0 22:36 30.10.2021
5621 Clouds 16 1020 67 10000 2.57 90 21:34 30.10.2021
5622 Clouds 20 1018 33 10000 8.49 100 20:21 30.10.2021
5623 Clouds 16 1021 72 10000 3.6 130 18:36 30.10.2021
5624 Rain 18 1023 59 10000 3.6 130 16:42 30.10.2021
5625 Clouds 21 1022 30 10000 6.69 130 14:36 30.10.2021
5626 Clouds 22 1022 28 10000 5.66 160 13:39 30.10.2021
5627 Clouds 22 1022 28 10000 5.66 160 13:20 30.10.2021
5628 Clouds 23 1019 25 10000 7.72 150 11:51 30.10.2021
5629 Rain 24 1018 23 10000 8.23 140 11:31 30.10.2021
5630 Clouds 25 1019 22 10000 6.69 140 10:24 30.10.2021
5631 Clouds 26 1019 21 10000 6.17 160 08:48 30.10.2021
5632 Clouds 27 1019 18 10000 7.72 130 05:50 30.10.2021
5633 Clouds 27 1019 18 10000 7.72 130 05:19 30.10.2021
5634 Clouds 21 1020 26 10000 5.14 110 23:47 29.10.2021
5635 Clouds 18 1018 29 10000 4.12 150 22:36 29.10.2021
5636 Clouds 16 1017 31 10000 2.57 130 21:23 29.10.2021
5637 Clouds 17 1017 34 10000 3.09 50 20:42 29.10.2021
5638 Clouds 18 1016 29 10000 2.06 80 19:44 29.10.2021
5639 Clouds 19 1017 27 10000 3.6 60 18:26 29.10.2021
5640 Clouds 21 1017 26 10000 3.6 110 16:50 29.10.2021
5641 Clouds 25 1016 20 10000 7.2 110 14:29 29.10.2021
5642 Clouds 29 1014 15 10000 3.6 120 10:52 29.10.2021
5643 Clouds 29 1014 15 10000 4.12 120 10:33 29.10.2021
5644 Clouds 29 1014 14 10000 5.66 120 07:23 29.10.2021
5645 Clouds 23 1017 20 10000 6.17 120 00:35 29.10.2021
5646 Clouds 24 1015 22 10000 6.17 140 22:51 28.10.2021
5647 Clouds 24 1013 23 10000 2.06 140 21:32 28.10.2021
5648 Clouds 26 1011 21 10000 5.66 170 20:20 28.10.2021
5649 Clouds 25 1011 25 10000 3.09 190 18:57 28.10.2021
5650 Clouds 25 1011 29 10000 2.57 210 17:57 28.10.2021
5651 Clouds 26 1010 31 10000 0 0 16:54 28.10.2021
5652 Clouds 28 1011 28 10000 0 0 15:20 28.10.2021
5653 Clouds 32 1010 19 10000 3.09 170 13:35 28.10.2021
5654 Clouds 31 1009 22 10000 2.57 190 12:53 28.10.2021
5655 Clouds 33 1009 18 10000 3.09 230 12:33 28.10.2021
5656 Clouds 36 1007 14 10000 5.14 240 10:48 28.10.2021
5657 Clouds 37 1006 13 10000 7.72 300 09:38 28.10.2021
5658 Clouds 38 1006 14 10000 8.75 310 08:37 28.10.2021
5659 Clouds 39 1006 13 10000 7.72 310 07:47 28.10.2021
5660 Clouds 36 1010 20 10000 7.72 310 04:19 28.10.2021
5661 Clouds 29 1010 39 10000 5.14 300 23:26 27.10.2021
5662 Clouds 28 1010 42 10000 6.17 320 22:29 27.10.2021
5663 Clouds 29 1010 37 10000 5.14 310 21:32 27.10.2021
5664 Clear 28 1010 39 10000 4.63 300 20:48 27.10.2021
5665 Clouds 26 1010 41 10000 4.12 290 19:50 27.10.2021
5666 Clouds 26 1010 44 10000 2.06 290 18:56 27.10.2021
5667 Clouds 28 1010 39 10000 3.6 360 18:37 27.10.2021
5668 Clouds 26 1012 41 10000 3.09 10 16:26 27.10.2021
5669 Clouds 27 1013 39 10000 2.57 10 15:29 27.10.2021
5670 Clouds 27 1013 39 10000 2.57 270 14:38 27.10.2021
5671 Clouds 33 1011 27 10000 7.72 300 11:19 27.10.2021
5672 Clouds 34 1010 24 10000 7.72 320 10:57 27.10.2021
5673 Clouds 34 1010 22 10000 8.23 310 09:38 27.10.2021
5674 Clouds 33 1011 27 10000 13.38 310 07:51 27.10.2021
5675 Clouds 37 1010 19 10000 14.92 310 06:36 27.10.2021
5676 Clouds 33 1013 22 10000 10.29 320 01:29 27.10.2021
5677 Clouds 32 1012 23 10000 7.2 330 00:55 27.10.2021
5678 Clouds 30 1012 26 10000 7.2 330 23:56 26.10.2021
5679 Clouds 29 1011 28 10000 5.66 340 22:55 26.10.2021
5680 Clouds 30 1011 26 10000 6.69 340 22:27 26.10.2021
5681 Clouds 29 1011 28 10000 4.63 340 21:51 26.10.2021
5682 Clouds 29 1011 28 10000 3.6 340 20:26 26.10.2021
5683 Clouds 30 1011 28 10000 6.69 340 19:25 26.10.2021
5684 Clouds 30 1011 28 10000 4.63 340 18:30 26.10.2021
5685 Clouds 26 1012 36 10000 0 0 15:53 26.10.2021
5686 Clouds 28 1012 32 10000 2.57 50 14:18 26.10.2021
5687 Clouds 34 1010 22 10000 2.06 190 11:31 26.10.2021
5688 Clouds 37 1009 16 10000 4.63 330 09:28 26.10.2021
5689 Clouds 36 1010 17 10000 5.14 350 07:23 26.10.2021
5690 Clear 26 1015 47 10000 3.6 30 00:31 26.10.2021
5691 Clear 25 1015 36 10000 2.57 70 23:48 25.10.2021
5692 Clouds 22 1014 49 10000 3.09 50 22:36 25.10.2021
5693 Clouds 22 1014 46 10000 3.6 50 21:48 25.10.2021
5694 Clear 23 1014 40 10000 2.57 40 21:23 25.10.2021
5695 Clouds 24 1013 38 10000 2.57 30 19:44 25.10.2021
5696 Clouds 24 1013 31 10000 3.6 40 19:24 25.10.2021
5697 Clouds 24 1013 27 10000 3.6 50 18:42 25.10.2021
5698 Clouds 25 1014 25 10000 4.63 70 17:42 25.10.2021
5699 Clouds 26 1014 24 10000 3.6 90 15:24 25.10.2021
5700 Clouds 29 1013 20 10000 6.17 100 13:29 25.10.2021
5701 Clouds 32 1011 17 10000 6.17 90 11:25 25.10.2021
5702 Clear 34 1011 15 10000 4.63 90 09:22 25.10.2021
5703 Clouds 33 1012 15 10000 6.17 100 07:26 25.10.2021
5704 Clouds 30 1015 19 10000 3.09 20 05:24 25.10.2021
5705 Clouds 21 1019 32 10000 4.63 90 00:52 25.10.2021
5706 Clear 20 1018 37 10000 4.12 110 00:34 25.10.2021
5707 Clear 16 1018 51 10000 2.06 110 23:42 24.10.2021
5708 Clear 16 1017 48 10000 0 0 22:39 24.10.2021
5709 Clear 16 1017 48 10000 0 0 22:20 24.10.2021
5710 Clouds 17 1016 48 10000 2.57 130 21:18 24.10.2021
5711 Clear 18 1016 45 10000 4.12 100 20:36 24.10.2021
5712 Clouds 17 1016 51 10000 3.09 80 19:40 24.10.2021
5713 Clouds 19 1017 52 10000 3.09 100 18:29 24.10.2021
5714 Clouds 19 1018 52 10000 0 0 17:44 24.10.2021
5715 Clouds 20 1018 45 10000 3.6 150 15:56 24.10.2021
5716 Clouds 22 1018 30 10000 4.63 120 14:42 24.10.2021
5717 Clouds 23 1017 28 10000 3.6 130 12:58 24.10.2021
5718 Clouds 24 1016 27 10000 7.72 120 11:45 24.10.2021
5719 Clouds 24 1016 27 10000 8.23 140 11:25 24.10.2021
5720 Clouds 27 1016 24 10000 7.72 120 10:28 24.10.2021
5721 Clouds 27 1016 21 10000 7.72 130 07:59 24.10.2021
5722 Clouds 23 1020 25 10000 8.23 110 01:25 24.10.2021
5723 Clouds 21 1020 30 10000 6.69 120 23:49 23.10.2021
5724 Clouds 20 1019 32 10000 5.14 130 22:29 23.10.2021
5725 Clouds 21 1018 35 10000 6.17 130 20:37 23.10.2021
5726 Clouds 23 1017 31 10000 4.12 120 18:59 23.10.2021
5727 Clouds 24 1017 29 10000 5.66 120 18:30 23.10.2021
5728 Clouds 24 1017 31 10000 4.63 130 17:43 23.10.2021
5729 Clouds 25 1018 27 10000 6.69 130 16:35 23.10.2021
5730 Clouds 26 1017 25 10000 5.66 130 14:35 23.10.2021
5731 Clouds 31 1015 18 10000 7.2 110 09:45 23.10.2021
5732 Clouds 23 1019 33 10000 9.26 130 00:25 23.10.2021
5733 Clouds 25 1017 23 10000 5.14 130 23:22 22.10.2021
5734 Clear 25 1014 23 10000 3.09 110 20:50 22.10.2021
5735 Clouds 28 1014 20 10000 5.14 80 18:45 22.10.2021
5736 Clouds 28 1014 18 10000 5.14 110 17:44 22.10.2021
5737 Clear 28 1014 20 10000 3.6 130 15:50 22.10.2021
5738 Clouds 30 1013 21 10000 3.6 120 14:23 22.10.2021
5739 Clouds 35 1010 15 10000 5.66 130 11:33 22.10.2021
5740 Clouds 36 1010 14 10000 3.6 130 10:48 22.10.2021
5741 Clouds 36 1009 14 10000 3.6 140 09:56 22.10.2021
5742 Clouds 36 1010 14 10000 3.6 110 08:36 22.10.2021
5743 Clear 36 1011 14 10000 3.6 130 07:25 22.10.2021
5744 Clear 33 1014 15 10000 7.2 110 03:32 22.10.2021
5745 Clear 23 1014 27 10000 3.09 100 00:19 22.10.2021
5746 Clear 18 1013 36 10000 0 0 23:39 21.10.2021
5747 Clear 17 1012 39 10000 0 0 22:21 21.10.2021
5748 Clear 18 1012 34 10000 1.03 300 20:42 21.10.2021
5749 Clear 18 1012 34 10000 1.03 300 20:19 21.10.2021
5750 Clear 19 1012 34 10000 0 0 19:29 21.10.2021
5751 Clear 20 1012 32 10000 0 0 18:46 21.10.2021
5752 Clear 20 1012 32 10000 0 0 18:19 21.10.2021
5753 Clear 22 1012 26 10000 2.06 90 17:39 21.10.2021
5754 Clear 25 1012 23 10000 2.57 130 15:54 21.10.2021
5755 Clear 26 1012 22 10000 3.6 130 15:20 21.10.2021
5756 Clear 28 1012 20 10000 3.09 110 14:38 21.10.2021
5757 Clear 28 1011 18 10000 3.6 120 13:19 21.10.2021
5758 Clear 33 1010 14 10000 4.63 130 11:24 21.10.2021
5759 Clear 34 1009 13 10000 3.09 160 08:55 21.10.2021
5760 Clear 33 1010 15 10000 4.12 180 07:29 21.10.2021
5761 Clear 29 1014 21 10000 4.12 110 03:31 21.10.2021
5762 Clear 20 1013 52 10000 3.09 180 23:29 20.10.2021
5763 Clear 21 1012 49 10000 2.57 170 21:52 20.10.2021
5764 Clear 22 1011 46 10000 2.57 180 21:30 20.10.2021
5765 Clear 23 1011 43 10000 4.12 160 20:54 20.10.2021
5766 Clouds 23 1011 43 10000 3.09 160 20:28 20.10.2021
5767 Clouds 24 1011 41 10000 3.6 130 19:51 20.10.2021
5768 Clouds 26 1011 36 10000 3.6 130 18:54 20.10.2021
5769 Clouds 27 1012 34 10000 5.14 130 17:45 20.10.2021
5770 Clouds 31 1012 23 10000 4.63 140 15:26 20.10.2021
5771 Clouds 39 1007 12 10000 4.63 290 10:43 20.10.2021
5772 Clouds 39 1007 12 10000 5.66 280 08:53 20.10.2021
5773 Clear 37 1012 19 10000 8.23 360 03:21 20.10.2021
5774 Clouds 30 1013 28 10000 0 0 00:43 20.10.2021
5775 Clouds 29 1013 30 10000 1.03 150 23:59 19.10.2021
5776 Clouds 28 1012 32 10000 2.57 40 21:43 19.10.2021
5777 Clouds 29 1012 30 10000 2.57 50 20:54 19.10.2021
5778 Clouds 27 1012 34 10000 2.57 60 20:22 19.10.2021
5779 Clouds 28 1013 30 10000 2.57 40 19:41 19.10.2021
5780 Clouds 29 1013 30 10000 3.09 40 18:53 19.10.2021
5781 Clouds 29 1013 30 10000 3.09 40 18:53 19.10.2021
5782 Clouds 27 1013 29 10000 3.09 70 17:58 19.10.2021
5783 Clouds 30 1014 19 10000 3.6 70 15:39 19.10.2021
5784 Clouds 30 1014 19 10000 3.6 70 15:19 19.10.2021
5785 Clouds 31 1014 16 10000 2.06 120 14:26 19.10.2021
5786 Clouds 34 1013 14 10000 5.66 110 13:29 19.10.2021
5787 Clouds 37 1011 12 10000 3.09 190 11:32 19.10.2021
5788 Clouds 37 1011 12 10000 3.09 190 11:32 19.10.2021
5789 Clouds 38 1010 11 10000 4.12 260 10:23 19.10.2021
5790 Clouds 38 1010 11 10000 4.63 290 08:58 19.10.2021
5791 Clouds 39 1012 11 10000 6.17 310 06:34 19.10.2021
5792 Clouds 30 1014 17 10000 0 0 00:24 19.10.2021
5793 Clouds 26 1014 22 10000 2.06 300 23:49 18.10.2021
5794 Clouds 22 1014 28 10000 2.57 300 23:19 18.10.2021
5795 Clouds 20 1014 32 10000 2.06 330 22:51 18.10.2021
5796 Clouds 20 1013 30 10000 0 0 21:19 18.10.2021
5797 Clouds 21 1012 28 10000 1.03 220 20:41 18.10.2021
5798 Clouds 21 1013 26 10000 0 0 19:50 18.10.2021
5799 Clouds 21 1013 26 10000 0 0 19:50 18.10.2021
5800 Clouds 22 1012 26 10000 0 0 19:28 18.10.2021
5801 Clouds 23 1013 25 10000 0 0 18:52 18.10.2021
5802 Clouds 27 1014 18 10000 0 0 15:25 18.10.2021
5803 Clouds 31 1012 14 10000 2.57 150 12:55 18.10.2021
5804 Clouds 37 1010 11 10000 5.66 240 10:36 18.10.2021
5805 Clouds 38 1009 10 10000 5.66 250 09:27 18.10.2021
5806 Clear 32 1013 31 10000 7.2 320 02:28 18.10.2021
5807 Clear 24 1012 41 10000 4.12 340 23:30 17.10.2021
5808 Clear 16 1011 33 10000 0 0 21:52 17.10.2021
5809 Clear 18 1010 32 10000 2.06 260 20:59 17.10.2021
5810 Clear 18 1010 32 10000 1.03 10 20:35 17.10.2021
5811 Clouds 18 1010 32 10000 0.51 290 19:39 17.10.2021
5812 Clouds 23 1009 36 10000 3.73 326 18:57 17.10.2021
5813 Clouds 20 1011 28 10000 0 0 17:32 17.10.2021
5814 Clouds 24 1011 20 10000 3.09 130 14:59 17.10.2021
5815 Clouds 25 1010 22 10000 0.51 250 14:24 17.10.2021
5816 Clouds 29 1010 15 10000 0 0 13:38 17.10.2021
5817 Clouds 32 1009 12 10000 1.54 270 11:55 17.10.2021
5818 Clouds 35 1008 10 10000 5.14 280 10:23 17.10.2021
5819 Clouds 34 1008 12 10000 6.69 330 09:28 17.10.2021
5820 Clouds 33 1010 13 10000 7.2 10 06:58 17.10.2021
5821 Clouds 21 1015 26 10000 5.66 90 00:52 17.10.2021
5822 Clouds 20 1015 28 10000 4.12 90 00:21 17.10.2021
5823 Clear 17 1012 31 10000 3.09 60 21:30 16.10.2021
5824 Clear 18 1012 29 10000 3.6 130 20:31 16.10.2021
5825 Clear 18 1011 27 10000 3.6 120 19:44 16.10.2021
5826 Clear 18 1011 27 10000 3.6 120 19:21 16.10.2021
5827 Clear 18 1011 27 10000 3.09 100 18:53 16.10.2021
5828 Clear 19 1012 26 10000 3.6 90 18:29 16.10.2021
5829 Clear 20 1012 24 10000 4.63 90 17:54 16.10.2021
5830 Clear 21 1013 23 10000 5.14 90 17:22 16.10.2021
5831 Clear 21 1013 21 10000 3.6 80 14:52 16.10.2021
5832 Clear 29 1011 12 10000 3.6 100 11:52 16.10.2021
5833 Clear 31 1011 10 10000 1.54 270 10:36 16.10.2021
5834 Clear 31 1012 11 10000 3.6 230 07:50 16.10.2021
5835 Clear 21 1018 26 10000 6.17 70 01:25 16.10.2021
5836 Clear 13 1017 41 10000 0 0 23:53 15.10.2021
5837 Clear 9 1016 46 10000 0 0 22:38 15.10.2021
5838 Clear 9 1016 46 10000 0 0 22:18 15.10.2021
5839 Clear 10 1016 43 10000 0 0 21:25 15.10.2021
5840 Clear 10 1015 43 10000 0 0 20:45 15.10.2021
5841 Clear 13 1016 38 10000 2.06 80 19:26 15.10.2021
5842 Clear 14 1016 35 10000 3.09 70 18:40 15.10.2021
5843 Clear 15 1017 31 10000 0 0 16:28 15.10.2021
5844 Clear 17 1017 27 10000 2.57 120 15:28 15.10.2021
5845 Clear 22 1015 18 10000 3.6 120 12:41 15.10.2021
5846 Clear 24 1014 15 10000 2.57 120 11:26 15.10.2021
5847 Clear 25 1014 14 10000 0.51 20 10:42 15.10.2021
5848 Clear 25 1014 14 10000 1.54 290 08:58 15.10.2021
5849 Clear 23 1017 21 10000 5.66 130 05:31 15.10.2021
5850 Clear 17 1019 29 10000 5.14 130 00:44 15.10.2021
5851 Clear 12 1018 32 10000 0 0 23:49 14.10.2021
5852 Clear 9 1017 40 10000 2.06 230 22:50 14.10.2021
5853 Clear 10 1016 37 10000 1.54 230 21:43 14.10.2021
5854 Clear 12 1016 32 10000 2.57 200 20:36 14.10.2021
5855 Clear 12 1016 32 10000 2.57 200 20:18 14.10.2021
5856 Clear 12 1015 35 10000 3.09 210 19:26 14.10.2021
5857 Clear 13 1015 35 10000 0 0 17:26 14.10.2021
5858 Clear 14 1015 35 10000 1.54 320 16:48 14.10.2021
5859 Clear 17 1016 27 10000 2.06 170 15:33 14.10.2021
5860 Clear 19 1015 24 10000 3.09 170 14:41 14.10.2021
5861 Clear 21 1015 21 10000 3.6 170 13:35 14.10.2021
5862 Clear 25 1013 14 10000 5.14 180 11:43 14.10.2021
5863 Clear 27 1012 12 10000 3.6 270 09:55 14.10.2021
5864 Clear 27 1010 15 10000 5.56 211 06:47 14.10.2021
5865 Clear 19 1015 25 10000 6.58 184 00:54 14.10.2021
5866 Clear 16 1015 26 10000 4.33 188 00:22 14.10.2021
5867 Clear 11 1013 35 10000 3.09 250 21:45 13.10.2021
5868 Clear 10 1013 37 10000 3.6 270 21:27 13.10.2021
5869 Clear 13 1012 33 10000 2.06 290 19:48 13.10.2021
5870 Clear 14 1012 30 10000 2.57 330 18:49 13.10.2021
5871 Clear 14 1012 30 10000 2.57 330 18:49 13.10.2021
5872 Clear 14 1013 30 10000 2.57 290 17:36 13.10.2021
5873 Clear 16 1013 27 10000 0 0 15:23 13.10.2021
5874 Clear 17 1013 25 10000 0 0 14:44 13.10.2021
5875 Clear 21 1012 21 10000 3.6 120 12:54 13.10.2021
5876 Clear 24 1012 16 10000 3.09 130 11:55 13.10.2021
5877 Clear 27 1011 13 10000 1.54 220 10:21 13.10.2021
5878 Clear 26 1012 17 10000 3.6 210 07:56 13.10.2021
5879 Clear 23 1014 23 10000 4.63 170 05:41 13.10.2021
5880 Clear 20 1016 21 10000 6.17 150 02:24 13.10.2021
5881 Clear 17 1015 34 10000 4.12 200 23:54 12.10.2021
5882 Clear 16 1014 41 10000 2.57 210 23:28 12.10.2021
5883 Clear 18 1012 42 10000 3.09 210 22:42 12.10.2021
5884 Clear 18 1009 48 10000 1.03 340 20:55 12.10.2021
5885 Clear 18 1009 45 10000 3.09 360 20:32 12.10.2021
5886 Clear 19 1009 42 10000 2.57 360 19:51 12.10.2021
5887 Clear 18 1010 45 10000 3.6 10 18:27 12.10.2021
5888 Clear 17 1011 45 10000 0 0 17:35 12.10.2021
5889 Clear 19 1012 37 10000 0 0 16:36 12.10.2021
5890 Clear 20 1012 34 10000 3.09 70 15:43 12.10.2021
5891 Clear 22 1012 28 10000 3.6 90 14:25 12.10.2021
5892 Clouds 24 1011 27 10000 3.6 160 13:41 12.10.2021
5893 Clear 28 1009 23 10000 4.12 170 11:36 12.10.2021
5894 Clear 30 1008 17 10000 5.14 270 09:41 12.10.2021
5895 Clouds 30 1008 20 10000 2.57 220 08:35 12.10.2021
5896 Clear 29 1009 23 10000 3.09 340 06:46 12.10.2021
5897 Clear 26 1011 25 10000 3.09 310 04:52 12.10.2021
5898 Clear 25 1012 27 10000 2.57 340 04:28 12.10.2021
5899 Clear 10 1013 100 10000 0 0 23:59 11.10.2021
5900 Clear 8 1013 100 10000 0 0 23:37 11.10.2021
5901 Clear 8 1013 100 10000 0 0 22:52 11.10.2021
5902 Clear 9 1012 100 10000 0 0 21:32 11.10.2021
5903 Clear 9 1012 100 10000 0 0 20:31 11.10.2021
5904 Clear 10 1012 100 10000 2.06 70 19:36 11.10.2021
5905 Clear 11 1013 93 10000 2.57 10 18:23 11.10.2021
5906 Clear 12 1014 87 10000 3.09 130 16:41 11.10.2021
5907 Clear 12 1014 87 10000 3.09 130 16:21 11.10.2021
5908 Clear 12 1014 87 10000 3.09 130 16:21 11.10.2021
5909 Clear 12 1015 87 10000 2.57 90 15:44 11.10.2021
5910 Clear 13 1015 82 10000 2.57 100 14:54 11.10.2021
5911 Clouds 14 1015 77 10000 2.57 130 14:20 11.10.2021
5912 Clouds 15 1015 77 10000 2.57 140 13:35 11.10.2021
5913 Clouds 18 1014 63 10000 6.69 150 11:24 11.10.2021
5914 Rain 21 1013 49 10000 3.6 140 09:47 11.10.2021
5915 Clouds 20 1013 56 10000 2.57 90 08:31 11.10.2021
5916 Clouds 12 1018 94 10000 4.12 150 01:46 11.10.2021
5917 Rain 12 1017 94 10000 4.12 150 00:58 11.10.2021
5918 Rain 12 1017 94 10000 4.12 150 00:39 11.10.2021
5919 Drizzle 12 1015 100 5000 4.63 170 22:41 10.10.2021
5920 Rain 12 1014 100 3900 4.63 170 21:49 10.10.2021
5921 Drizzle 12 1014 100 3900 5.14 160 21:19 10.10.2021
5922 Clouds 14 1013 94 5000 4.12 140 20:39 10.10.2021
5923 Clouds 14 1013 88 10000 4.63 130 20:19 10.10.2021
5924 Rain 15 1013 77 10000 5.66 130 19:41 10.10.2021
5925 Rain 16 1013 77 10000 4.63 120 18:57 10.10.2021
5926 Clouds 16 1013 77 10000 5.66 110 18:19 10.10.2021
5927 Clouds 16 1015 77 10000 6.17 120 15:48 10.10.2021
5928 Rain 17 1014 72 10000 7.2 130 14:57 10.10.2021
5929 Clouds 17 1014 72 10000 7.2 140 13:40 10.10.2021
5930 Rain 18 1013 77 10000 6.69 130 12:43 10.10.2021
5931 Clouds 19 1013 72 10000 7.72 130 11:30 10.10.2021
5932 Clouds 19 1013 72 10000 7.72 130 11:30 10.10.2021
5933 Clouds 23 1012 53 10000 8.23 130 10:26 10.10.2021
5934 Clouds 23 1011 46 10000 5.66 120 09:18 10.10.2021
5935 Rain 24 1011 43 10000 5.66 80 08:50 10.10.2021
5936 Clouds 23 1013 43 10000 8.75 50 04:31 10.10.2021
5937 Clouds 23 1015 40 10000 8.75 90 02:19 10.10.2021
5938 Clouds 20 1015 49 10000 3.6 120 00:41 10.10.2021
5939 Clouds 20 1015 49 10000 2.57 150 23:26 09.10.2021
5940 Clouds 20 1014 45 10000 3.6 160 21:53 09.10.2021
5941 Clouds 21 1013 46 10000 2.57 150 21:29 09.10.2021
5942 Clouds 23 1011 35 10000 8.23 170 19:52 09.10.2021
5943 Clouds 24 1011 31 10000 7.72 180 19:34 09.10.2021
5944 Clouds 27 1010 26 10000 2.57 120 18:40 09.10.2021
5945 Clouds 27 1010 24 10000 5.66 120 17:51 09.10.2021
5946 Clouds 27 1009 19 10000 2.57 350 16:19 09.10.2021
5947 Clear 28 1009 17 10000 3.09 300 13:48 09.10.2021
5948 Clear 29 1009 15 10000 2.57 270 13:25 09.10.2021
5949 Clear 32 1008 11 10000 3.6 280 11:58 09.10.2021
5950 Clear 36 1007 8 10000 6.69 270 10:43 09.10.2021
5951 Clear 37 1007 7 10000 6.17 290 10:18 09.10.2021
5952 Clouds 38 1007 8 10000 9.26 300 08:33 09.10.2021
5953 Clear 38 1007 9 10000 8.75 300 07:50 09.10.2021
5954 Clear 38 1007 9 10000 8.75 300 07:50 09.10.2021
5955 Clear 38 1008 9 10000 8.23 300 06:22 09.10.2021
5956 Clear 36 1010 9 10000 8.23 310 04:31 09.10.2021
5957 Clear 33 1011 17 10000 5.66 320 02:43 09.10.2021
5958 Clouds 22 1011 49 10000 2.06 260 23:58 08.10.2021
5959 Clouds 21 1011 52 10000 3.6 250 23:31 08.10.2021
5960 Clouds 24 1010 43 10000 5.14 290 22:42 08.10.2021
5961 Clouds 22 1010 53 10000 0 0 21:39 08.10.2021
5962 Clouds 22 1010 56 10000 0 0 19:44 08.10.2021
5963 Clouds 24 1010 43 10000 3.09 120 17:36 08.10.2021
5964 Clouds 25 1011 44 10000 2.57 120 16:53 08.10.2021
5965 Clouds 25 1011 44 10000 2.57 120 16:53 08.10.2021
5966 Clouds 25 1011 38 10000 3.6 70 16:24 08.10.2021
5967 Clouds 29 1011 30 10000 3.09 20 14:18 08.10.2021
5968 Clouds 28 1011 32 10000 3.09 30 13:36 08.10.2021
5969 Clear 33 1010 21 10000 3.6 310 11:41 08.10.2021
5970 Clear 35 1009 16 10000 5.14 300 10:42 08.10.2021
5971 Clear 35 1009 16 10000 5.14 310 09:46 08.10.2021
5972 Clear 20 1015 64 10000 4.63 100 00:35 08.10.2021
5973 Clear 17 1014 77 10000 3.6 120 23:22 07.10.2021
5974 Clear 18 1014 72 10000 0 0 21:46 07.10.2021
5975 Clear 18 1014 72 10000 0 0 21:27 07.10.2021
5976 Clear 17 1013 82 10000 0.51 130 20:28 07.10.2021
5977 Clear 18 1014 77 10000 3.09 140 19:30 07.10.2021
5978 Clear 20 1014 68 10000 1.03 110 18:24 07.10.2021
5979 Clear 20 1014 68 10000 2.57 90 17:27 07.10.2021
5980 Clear 23 1014 56 10000 5.14 110 15:53 07.10.2021
5981 Clouds 24 1014 50 10000 4.63 110 14:21 07.10.2021
5982 Clouds 25 1014 47 10000 4.63 120 13:38 07.10.2021
5983 Clouds 26 1013 44 10000 5.66 140 12:45 07.10.2021
5984 Clouds 29 1012 34 10000 5.66 130 10:56 07.10.2021
5985 Clouds 29 1012 34 10000 5.14 100 10:19 07.10.2021
5986 Clouds 30 1011 35 10000 5.66 120 09:34 07.10.2021
5987 Clouds 30 1011 35 10000 4.12 110 08:51 07.10.2021
5988 Clear 29 1012 37 10000 3.6 60 07:44 07.10.2021
5989 Clear 28 1012 36 10000 6.17 90 07:20 07.10.2021
5990 Clear 22 1016 64 10000 6.69 110 02:50 07.10.2021
5991 Clouds 18 1015 77 10000 3.6 110 00:29 07.10.2021
5992 Rain 16 1014 88 10000 3.6 70 22:51 06.10.2021
5993 Clouds 16 1013 88 10000 3.09 70 22:21 06.10.2021
5994 Clouds 16 1013 94 10000 5.14 80 20:40 06.10.2021
5995 Clouds 16 1013 88 6000 2.57 360 19:55 06.10.2021
5996 Clouds 16 1013 82 10000 6.17 90 18:41 06.10.2021
5997 Clouds 21 1013 56 10000 6.17 150 16:58 06.10.2021
5998 Clouds 23 1011 68 10000 3.09 170 15:30 06.10.2021
5999 Clouds 23 1010 68 10000 9.26 350 14:22 06.10.2021
6000 Clouds 24 1010 69 10000 7.72 10 12:59 06.10.2021
6001 Clouds 25 1010 61 10000 5.66 360 12:41 06.10.2021
6002 Clouds 25 1010 61 10000 5.66 360 12:21 06.10.2021
6003 Clouds 21 1010 88 6000 13.89 290 10:18 06.10.2021
6004 Clouds 33 1007 24 10000 3.6 40 09:39 06.10.2021
6005 Clouds 30 1007 37 10000 4.63 10 08:42 06.10.2021
6006 Clouds 36 1007 13 10000 9.77 340 07:44 06.10.2021
6007 Clouds 37 1009 12 10000 11.83 340 05:26 06.10.2021
6008 Clear 24 1011 17 10000 3.6 60 00:28 06.10.2021
6009 Clear 18 1011 29 10000 0 0 23:57 05.10.2021
6010 Clear 16 1011 31 10000 2.06 70 23:38 05.10.2021
6011 Clear 16 1010 31 10000 0 0 23:20 05.10.2021
6012 Clear 18 1010 27 10000 2.57 70 22:27 05.10.2021
6013 Clear 18 1010 27 10000 2.57 70 22:27 05.10.2021
6014 Clear 17 1010 29 10000 2.57 110 21:47 05.10.2021
6015 Clear 20 1010 24 10000 2.57 50 20:41 05.10.2021
6016 Clouds 20 1010 24 10000 2.57 50 20:23 05.10.2021
6017 Clouds 20 1010 24 10000 2.06 70 19:42 05.10.2021
6018 Clouds 20 1011 26 10000 2.06 80 18:49 05.10.2021
6019 Clouds 24 1012 20 10000 5.14 60 16:36 05.10.2021
6020 Clouds 27 1012 16 10000 7.72 90 14:34 05.10.2021
6021 Clouds 28 1012 15 10000 6.17 100 13:33 05.10.2021
6022 Clouds 29 1011 14 10000 7.2 100 12:38 05.10.2021
6023 Clouds 30 1010 13 10000 7.2 90 11:59 05.10.2021
6024 Clouds 33 1010 12 10000 3.09 120 10:39 05.10.2021
6025 Clear 33 1010 12 10000 1.54 40 08:56 05.10.2021
6026 Clear 28 1015 15 10000 6.69 70 03:56 05.10.2021
6027 Clear 16 1014 31 10000 3.6 90 23:53 04.10.2021
6028 Clear 16 1014 29 10000 5.14 100 21:59 04.10.2021
6029 Clear 16 1013 29 10000 3.6 80 19:34 04.10.2021
6030 Clear 17 1014 27 10000 3.09 90 18:26 04.10.2021
6031 Clear 18 1015 24 10000 3.6 80 16:23 04.10.2021
6032 Clear 19 1015 22 10000 4.12 90 15:31 04.10.2021
6033 Clear 22 1015 18 10000 5.14 110 14:42 04.10.2021
6034 Clear 22 1014 18 10000 3.6 120 13:48 04.10.2021
6035 Clear 22 1014 18 10000 3.6 120 13:24 04.10.2021
6036 Clear 26 1012 14 10000 4.63 130 11:35 04.10.2021
6037 Clear 27 1012 13 10000 5.14 140 10:48 04.10.2021
6038 Clear 28 1011 14 10000 4.12 100 09:51 04.10.2021
6039 Clear 30 1011 12 10000 4.63 100 08:39 04.10.2021
6040 Clear 28 1012 14 10000 4.12 130 06:56 04.10.2021
6041 Clear 17 1014 36 10000 0 0 00:28 04.10.2021
6042 Clear 12 1012 47 10000 0 0 22:33 03.10.2021
6043 Clear 12 1012 47 10000 0 0 21:37 03.10.2021
6044 Clear 13 1011 47 10000 0 0 20:54 03.10.2021
6045 Clear 14 1011 41 10000 0 0 19:56 03.10.2021
6046 Clear 15 1011 38 10000 0 0 18:33 03.10.2021
6047 Clear 16 1011 39 10000 0 0 17:41 03.10.2021
6048 Clear 19 1012 32 10000 2.06 150 15:45 03.10.2021
6049 Clear 22 1012 28 10000 4.12 170 14:42 03.10.2021
6050 Clear 23 1011 27 10000 3.6 170 13:40 03.10.2021
6051 Clear 23 1011 27 10000 3.6 170 13:20 03.10.2021
6052 Clear 26 1009 22 10000 5.14 160 11:49 03.10.2021
6053 Clear 28 1008 20 10000 5.14 160 10:33 03.10.2021
6054 Clear 28 1009 20 10000 3.6 180 07:39 03.10.2021
6055 Clear 19 1012 48 10000 5.66 150 00:26 03.10.2021
6056 Clear 20 1010 49 10000 5.14 160 22:23 02.10.2021
6057 Clear 22 1008 33 10000 4.63 220 20:50 02.10.2021
6058 Clear 24 1006 19 10000 5.14 250 18:58 02.10.2021
6059 Clear 23 1006 18 10000 3.6 270 18:28 02.10.2021
6060 Clear 25 1006 16 10000 2.57 290 17:38 02.10.2021
6061 Clear 26 1007 15 10000 2.57 310 16:40 02.10.2021
6062 Clear 28 1006 13 10000 4.12 310 14:36 02.10.2021
6063 Clear 19 1016 24 10000 1.03 250 15:38 30.09.2021
6064 Clear 20 1016 21 10000 2.06 190 14:42 30.09.2021
6065 Rain 24 1015 16 10000 2.57 160 12:20 30.09.2021
6066 Clear 27 1014 12 10000 4.63 190 11:25 30.09.2021
6067 Clear 29 1013 12 10000 6.69 200 10:26 30.09.2021
6068 Clear 30 1012 12 10000 6.17 240 08:32 30.09.2021
6069 Clear 30 1012 12 10000 6.17 210 07:48 30.09.2021
6070 Clear 28 1015 15 10000 3.09 270 05:25 30.09.2021
6071 Clear 23 1017 21 10000 5.66 140 02:33 30.09.2021
6072 Clear 18 1017 29 10000 2.57 260 00:35 30.09.2021
6073 Clear 13 1015 38 10000 2.57 310 22:48 29.09.2021
6074 Clear 13 1014 38 10000 3.09 250 21:52 29.09.2021
6075 Clear 16 1013 31 10000 2.57 320 20:38 29.09.2021
6076 Clear 16 1013 31 10000 2.57 320 20:19 29.09.2021
6077 Clear 15 1013 33 10000 3.09 300 19:22 29.09.2021
6078 Clear 15 1013 33 10000 2.06 270 18:18 29.09.2021
6079 Clear 18 1014 27 10000 2.06 280 16:55 29.09.2021
6080 Clear 17 1014 27 10000 1.54 330 16:25 29.09.2021
6081 Clear 18 1014 27 10000 0 0 15:24 29.09.2021
6082 Clear 19 1014 26 10000 0 0 14:36 29.09.2021
6083 Clear 23 1013 18 10000 3.09 170 13:33 29.09.2021
6084 Clear 25 1013 16 10000 3.09 170 12:38 29.09.2021
6085 Clear 28 1012 14 10000 3.6 160 11:18 29.09.2021
6086 Clear 30 1011 12 10000 3.6 150 10:27 29.09.2021
6087 Clear 30 1011 11 10000 2.06 160 09:40 29.09.2021
6088 Clear 30 1012 12 10000 2.57 310 07:48 29.09.2021
6089 Clear 28 1013 14 10000 3.09 220 06:27 29.09.2021
6090 Clear 16 1016 27 10000 2.57 240 23:59 28.09.2021
6091 Clear 15 1014 29 10000 2.57 270 22:25 28.09.2021
6092 Clear 16 1014 27 10000 2.57 270 21:46 28.09.2021
6093 Clear 15 1013 29 10000 3.6 260 20:48 28.09.2021
6094 Clear 17 1013 25 10000 3.09 270 19:48 28.09.2021
6095 Clear 18 1013 24 10000 2.57 300 19:25 28.09.2021
6096 Clear 18 1012 25 10000 3.09 270 18:40 28.09.2021
6097 Clear 22 1012 20 10000 2.06 270 16:43 28.09.2021
6098 Clear 23 1012 18 10000 3.6 270 14:53 28.09.2021
6099 Clouds 26 1011 15 10000 4.12 270 13:25 28.09.2021
6100 Clouds 30 1009 11 10000 6.69 260 12:24 28.09.2021
6101 Clouds 30 1009 12 10000 6.17 260 11:47 28.09.2021
6102 Clouds 32 1008 9 10000 8.23 260 11:25 28.09.2021
6103 Clouds 34 1007 10 10000 8.75 270 10:26 28.09.2021
6104 Clouds 35 1007 10 10000 7.72 270 09:25 28.09.2021
6105 Clouds 35 1007 10 10000 7.72 280 08:43 28.09.2021
6106 Clouds 34 1007 10 10000 7.2 280 07:49 28.09.2021
6107 Clouds 34 1009 10 10000 6.69 290 06:23 28.09.2021
6108 Clouds 27 1011 16 10000 3.09 230 01:29 28.09.2021
6109 Clouds 24 1011 20 10000 2.06 250 00:28 28.09.2021
6110 Clouds 22 1010 23 10000 2.06 260 23:44 27.09.2021
6111 Clouds 23 1010 21 10000 3.09 260 23:23 27.09.2021
6112 Clouds 24 1010 19 10000 4.12 290 22:20 27.09.2021
6113 Clouds 26 1007 14 10000 6.17 340 20:49 27.09.2021
6114 Clouds 27 1007 14 10000 4.12 340 20:23 27.09.2021
6115 Clouds 26 1008 17 10000 6.17 350 19:30 27.09.2021
6116 Clouds 26 1008 14 10000 4.63 350 18:52 27.09.2021
6117 Clouds 27 1010 14 10000 4.63 340 17:33 27.09.2021
6118 Clouds 27 1010 13 10000 4.63 330 16:51 27.09.2021
6119 Clouds 29 1010 12 10000 4.63 330 15:46 27.09.2021
6120 Clouds 28 1011 13 10000 4.12 350 15:27 27.09.2021
6121 Clouds 30 1010 12 10000 5.14 320 13:34 27.09.2021
6122 Clouds 31 1009 11 10000 5.14 320 12:20 27.09.2021
6123 Clouds 34 1008 10 10000 7.2 300 10:42 27.09.2021
6124 Clouds 35 1008 8 10000 8.23 320 09:31 27.09.2021
6125 Clouds 34 1010 8 10000 5.14 350 06:33 27.09.2021
6126 Clouds 31 1013 8 10000 6.17 360 03:29 27.09.2021
6127 Clouds 20 1013 17 10000 4.12 50 22:39 26.09.2021
6128 Clear 20 1013 17 10000 4.12 50 21:53 26.09.2021
6129 Clear 19 1013 19 10000 4.12 40 21:26 26.09.2021
6130 Clear 19 1013 18 10000 4.12 60 20:24 26.09.2021
6131 Clear 20 1014 17 10000 3.6 60 19:52 26.09.2021
6132 Clear 20 1014 17 10000 3.6 50 18:48 26.09.2021
6133 Clear 20 1014 17 10000 3.6 30 17:57 26.09.2021
6134 Clear 20 1014 17 10000 2.06 20 17:36 26.09.2021
6135 Clear 20 1014 17 10000 2.06 20 17:18 26.09.2021
6136 Clear 18 1015 17 10000 2.57 70 16:21 26.09.2021
6137 Clear 20 1015 15 10000 3.6 90 15:22 26.09.2021
6138 Clear 23 1015 13 10000 4.12 90 13:57 26.09.2021
6139 Clear 24 1014 12 10000 3.6 80 13:29 26.09.2021
6140 Clear 26 1014 11 10000 4.12 90 12:25 26.09.2021
6141 Clear 27 1013 11 10000 4.12 100 11:51 26.09.2021
6142 Clear 31 1012 8 10000 5.14 100 10:38 26.09.2021
6143 Clear 31 1012 8 10000 4.12 70 09:21 26.09.2021
6144 Clear 31 1013 8 10000 3.6 340 07:57 26.09.2021
6145 Clear 16 1018 29 10000 3.09 110 00:28 26.09.2021
6146 Clear 13 1018 28 10000 3.09 100 23:40 25.09.2021
6147 Clear 14 1017 28 10000 3.09 90 22:38 25.09.2021
6148 Clear 14 1017 26 10000 2.57 80 21:56 25.09.2021
6149 Clear 13 1017 28 10000 2.06 130 21:33 25.09.2021
6150 Clear 13 1017 28 10000 2.06 130 21:33 25.09.2021
6151 Clear 12 1017 30 10000 2.06 120 20:51 25.09.2021
6152 Clouds 16 1017 21 10000 3.09 90 19:32 25.09.2021
6153 Clouds 16 1018 20 10000 3.09 70 18:26 25.09.2021
6154 Clouds 16 1018 21 10000 0 0 16:51 25.09.2021
6155 Clouds 22 1018 13 10000 4.12 110 14:24 25.09.2021
6156 Clouds 22 1018 13 10000 4.12 110 13:46 25.09.2021
6157 Clouds 24 1017 12 10000 4.12 130 12:29 25.09.2021
6158 Clouds 28 1016 9 10000 6.17 120 10:36 25.09.2021
6159 Clouds 29 1015 8 10000 6.17 130 09:47 25.09.2021
6160 Clouds 29 1015 8 10000 3.6 110 08:38 25.09.2021
6161 Clouds 29 1016 8 10000 2.06 190 07:20 25.09.2021
6162 Clouds 19 1019 15 10000 0 0 00:49 25.09.2021
6163 Clouds 10 1017 34 10000 0 0 21:57 24.09.2021
6164 Clouds 10 1016 34 10000 0 0 20:50 24.09.2021
6165 Clouds 11 1016 30 10000 0 0 20:19 24.09.2021
6166 Clouds 13 1017 22 10000 0.51 30 18:35 24.09.2021
6167 Clouds 14 1017 23 10000 0 0 17:56 24.09.2021
6168 Clouds 13 1017 24 10000 0 0 17:37 24.09.2021
6169 Clouds 13 1017 24 10000 0 0 17:18 24.09.2021
6170 Clouds 19 1018 14 10000 0 0 14:48 24.09.2021
6171 Clear 19 1017 14 10000 3.6 170 13:19 24.09.2021
6172 Clear 21 1016 13 10000 3.6 140 12:41 24.09.2021
6173 Clear 21 1016 13 10000 3.6 140 12:23 24.09.2021
6174 Clear 27 1015 8 10000 2.57 80 10:28 24.09.2021
6175 Clear 28 1015 8 10000 2.06 290 08:57 24.09.2021
6176 Clear 27 1015 7 10000 3.09 150 07:39 24.09.2021
6177 Clear 26 1016 8 10000 2.06 200 06:50 24.09.2021
6178 Clear 27 1017 9 10000 2.57 230 05:21 24.09.2021
6179 Clear 14 1019 26 10000 0 0 00:44 24.09.2021
6180 Clouds 6 1018 45 10000 1.54 260 22:35 23.09.2021
6181 Clouds 7 1018 42 10000 2.06 270 21:56 23.09.2021
6182 Clear 9 1018 37 10000 2.57 300 20:36 23.09.2021
6183 Clear 9 1018 37 10000 2.57 300 20:18 23.09.2021
6184 Clear 10 1019 32 10000 2.57 280 18:25 23.09.2021
6185 Clear 13 1020 26 10000 2.06 160 15:37 23.09.2021
6186 Clear 13 1020 26 10000 2.06 160 15:18 23.09.2021
6187 Clear 17 1020 19 10000 3.6 110 13:49 23.09.2021
6188 Clouds 18 1020 16 10000 3.6 110 13:22 23.09.2021
6189 Clouds 19 1019 14 10000 3.6 110 12:53 23.09.2021
6190 Clouds 19 1019 15 10000 3.6 130 12:23 23.09.2021
6191 Clouds 20 1019 14 10000 3.6 140 11:55 23.09.2021
6192 Clouds 24 1018 10 10000 3.6 150 10:27 23.09.2021
6193 Clouds 24 1018 10 10000 3.6 150 09:53 23.09.2021
6194 Clear 25 1018 10 10000 4.12 120 08:31 23.09.2021
6195 Clouds 20 1023 15 10000 3.09 40 04:41 23.09.2021
6196 Clear 7 1023 39 10000 0 0 23:36 22.09.2021
6197 Clear 3 1023 56 10000 0 0 22:37 22.09.2021
6198 Clear 4 1023 56 10000 0 0 21:56 22.09.2021
6199 Clear 3 1023 60 10000 1.54 80 21:34 22.09.2021
6200 Clear 3 1023 60 10000 1.54 80 21:34 22.09.2021
6201 Clear 5 1023 52 10000 0 0 20:57 22.09.2021
6202 Clear 6 1024 42 10000 0 0 19:33 22.09.2021
6203 Clear 6 1024 45 10000 0 0 18:40 22.09.2021
6204 Clear 6 1024 45 10000 0 0 18:40 22.09.2021
6205 Clear 8 1024 34 10000 0 0 17:48 22.09.2021
6206 Clear 11 1025 26 10000 4.42 123 16:40 22.09.2021
6207 Clear 12 1026 26 10000 3.6 150 15:29 22.09.2021
6208 Clear 14 1025 23 10000 4.12 150 13:58 22.09.2021
6209 Clear 16 1025 17 10000 4.12 130 12:19 22.09.2021
6210 Clear 19 1024 14 10000 6.17 120 10:53 22.09.2021
6211 Clear 20 1023 14 10000 7.2 110 09:25 22.09.2021
6212 Clear 21 1023 13 10000 7.72 120 08:30 22.09.2021
6213 Clear 21 1023 13 10000 7.72 120 08:30 22.09.2021
6214 Clouds 20 1024 15 10000 7.72 140 07:21 22.09.2021
6215 Clouds 18 1026 19 10000 7.72 140 05:56 22.09.2021
6216 Clouds 17 1026 20 10000 7.72 110 05:34 22.09.2021
6217 Clouds 16 1028 23 10000 8.75 120 03:52 22.09.2021
6218 Clouds 8 1028 49 10000 3.6 90 00:22 22.09.2021
6219 Clouds 5 1027 60 10000 3.09 150 22:56 21.09.2021
6220 Clouds 8 1027 49 10000 3.09 130 21:36 21.09.2021
6221 Clouds 9 1028 39 10000 6.93 123 20:26 21.09.2021
6222 Clouds 10 1028 43 10000 4.12 120 19:22 21.09.2021
6223 Clouds 10 1028 36 10000 8 128 17:36 21.09.2021
6224 Clouds 10 1029 40 10000 3.09 150 16:35 21.09.2021
6225 Clouds 11 1029 35 10000 3.6 140 15:44 21.09.2021
6226 Clear 12 1029 32 10000 3.6 140 14:58 21.09.2021
6227 Clouds 14 1029 28 10000 4.63 130 13:56 21.09.2021
6228 Clouds 14 1028 28 10000 4.63 130 13:36 21.09.2021
6229 Clouds 15 1028 26 10000 6.17 130 12:35 21.09.2021
6230 Clouds 18 1027 20 10000 8.23 130 10:26 21.09.2021
6231 Clear 19 1027 22 10000 8.23 130 08:28 21.09.2021
6232 Clear 18 1028 25 10000 7.2 130 06:53 21.09.2021
6233 Clear 11 1030 40 10000 5.14 150 23:59 20.09.2021
6234 Clear 12 1029 37 10000 5.14 140 22:25 20.09.2021
6235 Clear 12 1028 40 10000 4.12 140 21:38 20.09.2021
6236 Clear 13 1028 38 10000 4.12 130 20:31 20.09.2021
6237 Clear 13 1028 38 10000 4.12 130 20:31 20.09.2021
6238 Clear 14 1028 35 10000 5.66 130 19:30 20.09.2021
6239 Clear 16 1027 44 10000 5.14 140 17:46 20.09.2021
6240 Clear 17 1027 45 10000 4.12 130 16:43 20.09.2021
6241 Clear 19 1027 39 10000 5.66 130 15:49 20.09.2021
6242 Clouds 19 1027 39 10000 6.17 140 15:24 20.09.2021
6243 Clouds 20 1026 34 10000 5.66 140 14:24 20.09.2021
6244 Clouds 21 1025 30 10000 4.63 130 12:35 20.09.2021
6245 Clouds 21 1025 30 10000 4.63 130 12:35 20.09.2021
6246 Clouds 22 1024 24 10000 8.75 150 11:25 20.09.2021
6247 Clouds 26 1022 21 10000 8.75 140 09:59 20.09.2021
6248 Clouds 27 1022 21 10000 8.75 130 09:36 20.09.2021
6249 Clouds 27 1022 21 10000 8.75 130 09:18 20.09.2021
6250 Clouds 25 1023 23 10000 4.63 90 06:55 20.09.2021
6251 Clouds 17 1022 72 10000 2.57 200 23:49 19.09.2021
6252 Clouds 17 1020 72 10000 0 0 22:26 19.09.2021
6253 Clouds 17 1020 72 10000 0 0 22:26 19.09.2021
6254 Clouds 17 1020 72 10000 0 0 21:40 19.09.2021
6255 Clouds 16 1020 77 10000 0 0 20:34 19.09.2021
6256 Clouds 16 1019 77 10000 0.51 100 19:22 19.09.2021
6257 Clouds 17 1020 67 10000 3.09 130 18:26 19.09.2021
6258 Clouds 17 1020 67 10000 2.57 110 17:22 19.09.2021
6259 Clouds 20 1021 45 10000 2.06 90 15:55 19.09.2021
6260 Clouds 20 1021 45 10000 2.06 90 15:55 19.09.2021
6261 Clouds 22 1021 43 10000 2.57 60 14:51 19.09.2021
6262 Clouds 23 1021 40 10000 0 0 14:30 19.09.2021
6263 Clouds 23 1020 38 10000 3.6 70 13:20 19.09.2021
6264 Clouds 24 1020 33 10000 2.06 90 12:47 19.09.2021
6265 Clouds 26 1019 27 10000 3.6 110 11:27 19.09.2021
6266 Clouds 28 1019 24 10000 5.14 110 10:35 19.09.2021
6267 Clouds 28 1019 24 10000 4.12 90 09:38 19.09.2021
6268 Clouds 27 1020 28 10000 3.6 100 07:31 19.09.2021
6269 Clouds 24 1023 31 10000 5.66 90 04:21 19.09.2021
6270 Clouds 12 1023 87 10000 2.57 140 23:36 18.09.2021
6271 Clouds 11 1022 87 10000 1.03 120 21:59 18.09.2021
6272 Clouds 11 1022 87 10000 0 0 20:48 18.09.2021
6273 Clouds 11 1022 87 10000 2.57 140 20:27 18.09.2021
6274 Clouds 12 1022 87 10000 2.57 140 19:39 18.09.2021
6275 Clouds 12 1022 87 10000 2.57 140 19:20 18.09.2021
6276 Clouds 13 1022 82 10000 0 0 18:31 18.09.2021
6277 Clear 14 1023 72 10000 2.06 360 17:25 18.09.2021
6278 Clear 15 1023 67 10000 2.57 110 15:48 18.09.2021
6279 Clear 17 1023 55 10000 3.6 130 13:46 18.09.2021
6280 Clear 17 1023 55 10000 3.6 130 13:27 18.09.2021
6281 Clear 18 1022 52 10000 4.12 120 12:48 18.09.2021
6282 Clear 20 1021 42 10000 5.14 120 11:36 18.09.2021
6283 Clear 21 1021 40 10000 5.66 130 10:31 18.09.2021
6284 Clear 21 1021 43 10000 5.66 130 09:25 18.09.2021
6285 Clouds 20 1021 42 10000 6.17 110 08:31 18.09.2021
6286 Clouds 20 1021 42 10000 6.17 110 08:30 18.09.2021
6287 Clouds 20 1021 42 10000 6.17 110 08:30 18.09.2021
6288 Clouds 20 1021 42 10000 6.17 110 08:30 18.09.2021
6289 Clouds 17 1022 44 10000 9.52 159 00:56 18.09.2021
6290 Clouds 17 1022 44 10000 9.52 159 00:35 18.09.2021
6291 Clouds 18 1021 63 10000 9.06 175 23:44 17.09.2021
6292 Clouds 18 1019 84 10000 5.95 193 22:32 17.09.2021
6293 Clouds 19 1018 94 10000 2.57 250 21:47 17.09.2021
6294 Clouds 19 1016 94 10000 3.6 330 20:18 17.09.2021
6295 Clouds 19 1017 94 10000 4.12 360 18:45 17.09.2021
6296 Clouds 20 1018 94 10000 4.63 270 16:47 17.09.2021
6297 Clouds 21 1018 78 10000 3.09 230 15:32 17.09.2021
6298 Clouds 25 1014 38 10000 2.06 110 12:32 17.09.2021
6299 Clouds 29 1013 30 10000 2.57 60 10:40 17.09.2021
6300 Clouds 29 1014 30 10000 4.12 190 07:50 17.09.2021
6301 Clouds 30 1014 17 10000 4.12 310 06:29 17.09.2021
6302 Clouds 28 1014 17 10000 7.2 330 00:34 17.09.2021
6303 Clouds 28 1012 17 10000 8.75 340 22:45 16.09.2021
6304 Clouds 28 1012 17 10000 7.2 340 22:24 16.09.2021
6305 Clouds 28 1011 18 10000 4.63 340 21:36 16.09.2021
6306 Clouds 27 1011 21 10000 4.63 340 20:36 16.09.2021
6307 Clouds 29 1011 18 10000 6.69 340 19:18 16.09.2021
6308 Clouds 29 1012 17 10000 7.2 350 18:19 16.09.2021
6309 Clouds 29 1012 17 10000 7.2 350 18:19 16.09.2021
6310 Clouds 30 1013 17 10000 7.2 350 17:19 16.09.2021
6311 Clouds 29 1013 15 10000 4.63 350 14:51 16.09.2021
6312 Clouds 30 1013 14 10000 4.12 350 13:47 16.09.2021
6313 Clouds 31 1012 13 10000 4.12 350 12:47 16.09.2021
6314 Clouds 31 1011 14 10000 3.09 350 11:55 16.09.2021
6315 Clouds 33 1011 13 10000 4.63 340 11:24 16.09.2021
6316 Clouds 35 1011 10 10000 5.14 330 10:29 16.09.2021
6317 Clouds 36 1010 11 10000 7.2 310 09:31 16.09.2021
6318 Clear 36 1011 11 10000 5.66 350 07:59 16.09.2021
6319 Clear 36 1012 11 10000 8.23 300 06:58 16.09.2021
6320 Clear 35 1013 10 10000 8.23 320 06:38 16.09.2021
6321 Clear 34 1014 12 10000 7.72 330 03:22 16.09.2021
6322 Clouds 21 1016 26 10000 0 0 00:53 16.09.2021
6323 Clouds 14 1016 44 10000 0 0 23:30 15.09.2021
6324 Clouds 15 1015 41 10000 0 0 22:39 15.09.2021
6325 Clouds 15 1015 41 10000 0 0 21:31 15.09.2021
6326 Clouds 17 1015 34 10000 0 0 20:42 15.09.2021
6327 Clouds 18 1015 32 10000 2.06 120 19:33 15.09.2021
6328 Clouds 21 1015 26 10000 3.6 60 18:45 15.09.2021
6329 Clouds 21 1016 26 10000 3.09 70 17:39 15.09.2021
6330 Clouds 23 1017 21 10000 4.12 90 16:30 15.09.2021
6331 Clouds 25 1017 20 10000 3.6 100 15:22 15.09.2021
6332 Clouds 26 1016 21 10000 4.12 150 14:41 15.09.2021
6333 Clouds 26 1016 21 10000 0 0 13:45 15.09.2021
6334 Clouds 27 1016 18 10000 0 0 13:27 15.09.2021
6335 Clouds 28 1015 16 10000 0.51 330 12:33 15.09.2021
6336 Clear 28 1015 16 10000 2.06 300 11:50 15.09.2021
6337 Clear 33 1014 11 10000 2.57 300 10:57 15.09.2021
6338 Clear 33 1014 12 10000 2.57 280 10:30 15.09.2021
6339 Clear 35 1014 12 10000 3.6 320 08:47 15.09.2021
6340 Clear 34 1015 11 10000 4.63 270 07:26 15.09.2021
6341 Clouds 20 1019 21 10000 1.03 100 00:55 15.09.2021
6342 Clouds 16 1017 27 10000 0.51 170 22:24 14.09.2021
6343 Clouds 14 1016 33 10000 0 0 21:21 14.09.2021
6344 Clouds 14 1016 33 10000 0 0 21:21 14.09.2021
6345 Clouds 14 1016 33 10000 2.57 80 20:18 14.09.2021
6346 Clouds 16 1017 27 10000 4.12 90 18:57 14.09.2021
6347 Clouds 18 1018 25 10000 3.6 90 17:33 14.09.2021
6348 Clouds 18 1018 25 10000 3.6 100 16:37 14.09.2021
6349 Clouds 22 1018 20 10000 4.12 70 14:32 14.09.2021
6350 Clouds 23 1018 18 10000 4.63 70 13:53 14.09.2021
6351 Clouds 27 1016 14 10000 7.72 90 11:41 14.09.2021
6352 Clouds 30 1016 17 10000 3.6 90 10:20 14.09.2021
6353 Clouds 30 1016 15 10000 5.66 90 09:45 14.09.2021
6354 Clouds 30 1016 16 10000 3.6 70 07:28 14.09.2021
6355 Clear 15 1021 26 10000 5.66 90 00:57 14.09.2021
6356 Clouds 12 1020 32 10000 3.6 70 23:18 13.09.2021
6357 Clear 12 1019 32 10000 4.63 80 22:27 13.09.2021
6358 Clear 13 1018 30 10000 5.14 90 21:54 13.09.2021
6359 Clouds 13 1018 33 10000 6.17 90 21:19 13.09.2021
6360 Clouds 14 1019 33 10000 4.63 90 19:34 13.09.2021
6361 Clouds 15 1019 31 10000 5.66 90 18:43 13.09.2021
6362 Clear 15 1020 31 10000 4.63 100 17:21 13.09.2021
6363 Clear 15 1020 31 10000 3.09 90 15:55 13.09.2021
6364 Clear 18 1020 27 10000 4.12 110 14:30 13.09.2021
6365 Clear 22 1018 20 10000 7.2 100 11:21 13.09.2021
6366 Clear 24 1017 17 10000 7.2 90 09:54 13.09.2021
6367 Clear 23 1017 20 10000 6.69 100 07:46 13.09.2021
6368 Clear 14 1021 38 10000 4.63 110 23:50 12.09.2021
6369 Clear 15 1020 38 10000 6.69 110 22:42 12.09.2021
6370 Clear 15 1020 38 10000 6.69 110 22:20 12.09.2021
6371 Clear 16 1018 48 10000 5.66 120 20:41 12.09.2021
6372 Clear 14 1018 58 10000 3.09 130 19:54 12.09.2021
6373 Clear 13 1018 58 10000 2.57 130 19:29 12.09.2021
6374 Clear 13 1018 58 10000 2.06 140 18:50 12.09.2021
6375 Clear 17 1018 45 10000 4.63 120 16:58 12.09.2021
6376 Clear 17 1018 42 10000 3.6 120 15:37 12.09.2021
6377 Clear 19 1018 34 10000 4.63 130 14:32 12.09.2021
6378 Clear 23 1016 25 10000 5.14 140 11:49 12.09.2021
6379 Clear 26 1014 18 10000 6.69 150 10:18 12.09.2021
6380 Clear 28 1014 17 10000 5.66 160 08:38 12.09.2021
6381 Clear 23 1017 13 10000 3.6 210 02:56 12.09.2021
6382 Clear 17 1015 22 10000 3.09 300 00:46 12.09.2021
6383 Clear 12 1013 37 10000 3.09 300 22:29 11.09.2021
6384 Clear 12 1012 37 10000 2.57 320 21:37 11.09.2021
6385 Clear 15 1013 31 10000 2.57 310 19:33 11.09.2021
6386 Clear 15 1014 31 10000 2.57 290 17:53 11.09.2021
6387 Clear 15 1014 31 10000 1.54 340 16:24 11.09.2021
6388 Clear 18 1014 25 10000 1.03 200 14:27 11.09.2021
6389 Clear 20 1014 21 10000 2.06 330 13:20 11.09.2021
6390 Clear 26 1012 12 10000 1.54 210 11:34 11.09.2021
6391 Haze 30 1012 8 1700 3.6 210 09:41 11.09.2021
6392 Clear 30 1013 9 10000 2.57 270 07:53 11.09.2021
6393 Clear 30 1013 9 10000 2.57 300 07:34 11.09.2021
6394 Clear 19 1018 27 10000 0 0 01:20 11.09.2021
6395 Clear 8 1017 53 10000 0 0 22:26 10.09.2021
6396 Clear 9 1017 43 10000 0 0 21:55 10.09.2021
6397 Clear 12 1017 32 10000 2.57 300 20:31 10.09.2021
6398 Clear 13 1018 33 10000 0 0 18:28 10.09.2021
6399 Clear 13 1019 33 10000 0 0 16:57 10.09.2021
6400 Clear 15 1019 26 10000 0.51 30 14:52 10.09.2021
6401 Clear 21 1019 14 10000 2.06 140 12:43 10.09.2021
6402 Clear 29 1018 9 10000 3.09 140 09:27 10.09.2021
6403 Clear 28 1019 9 10000 1.54 30 07:50 10.09.2021
6404 Clear 23 1024 14 10000 3.6 70 02:31 10.09.2021
6405 Clear 7 1022 49 10000 0.51 320 22:33 09.09.2021
6406 Clear 8 1022 42 10000 2.57 310 21:46 09.09.2021
6407 Clear 8 1023 42 10000 2.57 290 20:47 09.09.2021
6408 Clear 9 1023 34 10000 2.57 270 19:58 09.09.2021
6409 Clear 10 1024 32 10000 0 0 18:32 09.09.2021
6410 Clear 12 1024 28 10000 2.06 90 16:40 09.09.2021
6411 Clear 14 1024 21 10000 1.54 60 15:43 09.09.2021
6412 Clear 20 1023 12 10000 3.09 90 12:53 09.09.2021
6413 Clear 22 1023 10 10000 2.57 90 11:45 09.09.2021
6414 Clear 27 1022 7 10000 5.66 80 09:50 09.09.2021
6415 Clear 27 1022 7 10000 3.6 90 08:49 09.09.2021
6416 Clear 28 1024 9 10000 5.14 90 06:26 09.09.2021
6417 Clear 19 1028 19 10000 2.06 310 02:36 09.09.2021
6418 Clear 6 1026 52 10000 1.03 270 22:42 08.09.2021
6419 Clear 6 1026 52 10000 2.06 280 21:31 08.09.2021
6420 Clear 8 1026 42 10000 2.06 290 19:56 08.09.2021
6421 Clear 9 1026 40 10000 0 0 18:58 08.09.2021
6422 Clear 9 1026 43 10000 0 0 18:29 08.09.2021
6423 Clear 10 1026 43 10000 2.06 180 17:56 08.09.2021
6424 Clear 12 1027 28 10000 1.03 320 16:32 08.09.2021
6425 Clear 17 1026 17 10000 3.6 110 14:25 08.09.2021
6426 Clear 16 1026 23 10000 3.6 130 12:46 08.09.2021
6427 Clear 18 1025 19 10000 3.6 110 12:26 08.09.2021
6428 Clear 22 1025 12 10000 3.6 110 11:29 08.09.2021
6429 Clear 25 1025 10 10000 5.66 90 10:33 08.09.2021
6430 Clear 25 1025 9 10000 5.66 90 09:59 08.09.2021
6431 Clear 25 1025 10 10000 7.2 80 07:55 08.09.2021
6432 Clear 25 1025 12 10000 7.2 80 07:32 08.09.2021
6433 Clear 21 1029 21 10000 5.66 100 04:19 08.09.2021
6434 Clear 5 1028 70 10000 0 0 22:38 07.09.2021
6435 Clear 7 1028 65 10000 3.09 130 21:51 07.09.2021
6436 Clear 9 1028 57 10000 0.51 100 19:47 07.09.2021
6437 Clear 8 1028 61 10000 0 0 18:40 07.09.2021
6438 Clear 10 1028 50 10000 1.03 110 17:47 07.09.2021
6439 Clear 11 1028 50 10000 2.06 130 16:33 07.09.2021
6440 Clear 11 1028 50 10000 2.57 130 15:35 07.09.2021
6441 Clear 13 1028 41 10000 3.09 130 14:41 07.09.2021
6442 Clear 18 1027 25 10000 4.63 120 12:38 07.09.2021
6443 Clear 19 1027 24 10000 6.17 120 11:36 07.09.2021
6444 Clear 21 1026 19 10000 7.72 110 10:40 07.09.2021
6445 Clear 21 1026 19 10000 8.23 120 08:23 07.09.2021
6446 Clear 20 1028 22 10000 7.72 100 06:44 07.09.2021
6447 Clear 18 1029 27 10000 7.72 110 05:24 07.09.2021
6448 Clear 15 1031 41 10000 8.75 90 02:32 07.09.2021
6449 Clear 9 1030 61 10000 2.06 120 00:40 07.09.2021
6450 Clear 7 1029 65 10000 3.09 150 23:31 06.09.2021
6451 Clear 7 1029 65 10000 2.57 190 22:53 06.09.2021
6452 Clear 7 1029 61 10000 0 0 22:32 06.09.2021
6453 Clear 6 1028 70 10000 3.6 140 20:55 06.09.2021
6454 Clear 9 1028 57 10000 4.12 130 19:22 06.09.2021
6455 Clear 9 1028 57 10000 4.12 130 19:22 06.09.2021
6456 Clear 9 1028 57 10000 4.12 130 19:22 06.09.2021
6457 Clear 9 1028 57 10000 4.12 130 18:46 06.09.2021
6458 Clear 10 1029 50 10000 4.12 130 18:18 06.09.2021
6459 Clear 10 1029 50 10000 3.6 150 17:35 06.09.2021
6460 Clear 11 1029 43 10000 3.6 140 15:43 06.09.2021
6461 Clear 13 1029 35 10000 4.12 120 13:47 06.09.2021
6462 Clear 15 1028 29 10000 4.12 130 12:46 06.09.2021
6463 Clear 18 1027 24 10000 6.69 140 10:44 06.09.2021
6464 Clear 20 1026 21 10000 7.72 120 07:58 06.09.2021
6465 Clear 17 1030 29 10000 7.72 120 04:43 06.09.2021
6466 Clear 3 1030 75 10000 3.6 170 23:26 05.09.2021
6467 Clear 4 1029 70 10000 3.09 160 22:34 05.09.2021
6468 Clear 4 1029 75 10000 0 0 21:57 05.09.2021
6469 Clear 4 1028 75 10000 0 0 21:29 05.09.2021
6470 Clear 4 1028 75 10000 2.06 150 19:48 05.09.2021
6471 Clear 7 1028 61 10000 3.09 170 18:32 05.09.2021
6472 Clear 8 1029 57 10000 4.12 150 17:22 05.09.2021
6473 Clear 9 1029 53 10000 3.6 150 15:24 05.09.2021
6474 Clouds 12 1028 40 10000 3.6 120 13:40 05.09.2021
6475 Clouds 14 1027 30 10000 5.66 130 11:45 05.09.2021
6476 Clouds 16 1026 27 10000 7.72 130 10:47 05.09.2021
6477 Clouds 16 1026 27 10000 7.72 130 10:22 05.09.2021
6478 Clouds 17 1026 27 10000 7.72 120 08:37 05.09.2021
6479 Clouds 16 1027 27 10000 8.23 120 06:45 05.09.2021
6480 Clouds 9 1027 76 10000 0.51 180 00:42 05.09.2021
6481 Clouds 8 1027 81 10000 1.03 180 23:59 04.09.2021
6482 Clouds 8 1026 76 10000 0 0 23:26 04.09.2021
6483 Clouds 8 1026 76 10000 1.54 170 22:35 04.09.2021
6484 Clouds 8 1026 76 10000 1.54 170 22:35 04.09.2021
6485 Clouds 8 1025 76 10000 2.06 210 21:20 04.09.2021
6486 Clouds 10 1026 57 10000 2.57 150 19:40 04.09.2021
6487 Clouds 11 1027 50 10000 3.6 140 17:25 04.09.2021
6488 Clouds 12 1027 47 10000 5.66 150 15:41 04.09.2021
6489 Clouds 15 1024 38 10000 5.66 130 11:54 04.09.2021
6490 Clouds 16 1023 36 10000 7.2 130 10:55 04.09.2021
6491 Clouds 17 1022 34 10000 6.69 140 08:39 04.09.2021
6492 Clouds 13 1023 54 10000 4.63 140 00:50 04.09.2021
6493 Clouds 13 1022 67 10000 4.63 150 00:19 04.09.2021
6494 Clouds 13 1022 71 10000 4.12 140 23:22 03.09.2021
6495 Clouds 13 1020 88 10000 2.57 150 21:43 03.09.2021
6496 Clouds 13 1020 88 10000 2.06 180 21:23 03.09.2021
6497 Clouds 13 1020 88 10000 1.54 200 20:34 03.09.2021
6498 Clouds 13 1020 88 10000 1.54 180 19:44 03.09.2021
6499 Clouds 13 1020 82 10000 0 0 18:33 03.09.2021
6500 Clouds 13 1021 82 10000 0 0 17:32 03.09.2021
6501 Clouds 13 1021 82 10000 2.06 110 15:46 03.09.2021
6502 Clouds 13 1020 82 10000 3.6 110 14:47 03.09.2021
6503 Clouds 14 1017 82 10000 5.14 100 11:21 03.09.2021
6504 Clouds 14 1017 82 10000 5.14 100 11:21 03.09.2021
6505 Clouds 14 1017 82 6000 4.12 90 10:18 03.09.2021
6506 Clouds 22 1014 50 10000 3.61 138 08:22 03.09.2021
6507 Clouds 18 1018 68 10000 4.12 150 06:51 03.09.2021
6508 Clouds 24 1014 57 10000 7.72 340 23:58 02.09.2021
6509 Clouds 24 1013 50 10000 7.72 340 22:22 02.09.2021
6510 Clouds 25 1012 41 10000 7.2 340 20:59 02.09.2021
6511 Clouds 25 1013 36 10000 5.66 340 18:52 02.09.2021
6512 Clouds 26 1014 27 10000 5.14 350 16:57 02.09.2021
6513 Clouds 27 1014 26 10000 4.12 350 15:32 02.09.2021
6514 Clouds 28 1014 20 10000 3.09 360 13:42 02.09.2021
6515 Clouds 29 1013 17 10000 2.57 360 11:46 02.09.2021
6516 Clouds 30 1013 16 10000 2.57 350 11:24 02.09.2021
6517 Clouds 32 1012 12 10000 3.6 330 09:20 02.09.2021
6518 Clouds 32 1013 12 10000 5.66 310 07:36 02.09.2021
6519 Clouds 32 1014 12 10000 7.72 350 05:53 02.09.2021
6520 Clear 28 1017 15 10000 8.23 10 02:37 02.09.2021
6521 Clear 27 1017 17 10000 7.2 360 01:50 02.09.2021
6522 Rain 14 1017 23 10000 0 0 23:41 01.09.2021
6523 Clear 14 1017 23 10000 0 0 23:23 01.09.2021
6524 Clear 12 1016 22 10000 0 0 22:30 01.09.2021
6525 Clear 12 1016 22 10000 0 0 21:32 01.09.2021
6526 Clouds 16 1016 17 10000 0 0 19:37 01.09.2021
6527 Clouds 17 1016 16 10000 1.03 80 17:55 01.09.2021
6528 Clouds 17 1017 15 10000 4.12 70 16:59 01.09.2021
6529 Clouds 17 1017 15 10000 3.6 50 16:36 01.09.2021
6530 Clouds 19 1018 13 10000 2.57 70 14:59 01.09.2021
6531 Clouds 27 1016 9 10000 2.06 20 11:47 01.09.2021
6532 Clouds 31 1015 7 10000 3.6 360 10:23 01.09.2021
6533 Clear 32 1015 7 10000 3.6 120 08:27 01.09.2021
6534 Clear 32 1017 7 10000 3.09 120 06:42 01.09.2021
6535 Clear 9 1019 27 10000 0 0 23:32 31.08.2021
6536 Clouds 8 1019 27 10000 0 0 22:21 31.08.2021
6537 Clear 9 1019 25 10000 0 0 19:52 31.08.2021
6538 Clear 12 1019 22 10000 0 0 19:23 31.08.2021
6539 Clear 12 1020 20 10000 0 0 17:44 31.08.2021
6540 Clear 13 1020 19 10000 0 0 17:25 31.08.2021
6541 Clear 14 1020 19 10000 2.57 100 16:28 31.08.2021
6542 Clear 16 1020 16 10000 2.06 130 15:25 31.08.2021
6543 Clear 23 1018 11 10000 3.09 100 12:19 31.08.2021
6544 Clear 26 1017 9 10000 3.6 120 11:19 31.08.2021
6545 Clear 28 1017 8 10000 3.6 110 10:43 31.08.2021
6546 Clear 30 1016 8 10000 2.57 130 09:41 31.08.2021
6547 Clear 30 1016 8 10000 3.09 200 07:48 31.08.2021
6548 Clear 30 1018 8 10000 3.09 90 05:56 31.08.2021
6549 Clear 7 1019 31 10000 2.06 270 23:36 30.08.2021
6550 Clear 8 1018 29 10000 2.57 280 22:32 30.08.2021
6551 Clear 7 1017 26 10000 0 0 21:35 30.08.2021
6552 Clear 9 1017 25 10000 0 0 20:40 30.08.2021
6553 Clear 9 1017 25 10000 1.54 260 19:33 30.08.2021
6554 Clear 10 1018 23 10000 1.54 250 18:58 30.08.2021
6555 Clear 10 1018 23 10000 0 0 17:49 30.08.2021
6556 Clear 12 1018 20 10000 0 0 16:27 30.08.2021
6557 Clear 13 1018 19 10000 0 0 15:40 30.08.2021
6558 Clear 16 1018 14 10000 0 0 13:55 30.08.2021
6559 Clear 20 1017 13 10000 2.57 110 12:58 30.08.2021
6560 Clear 27 1015 8 10000 3.6 210 10:42 30.08.2021
6561 Clouds 20 1019 22 10000 3.09 90 03:24 30.08.2021
6562 Clouds 11 1015 37 10000 2.57 270 21:35 29.08.2021
6563 Clouds 10 1015 40 10000 2.57 300 20:46 29.08.2021
6564 Clouds 11 1015 37 10000 1.54 290 19:27 29.08.2021
6565 Clouds 12 1016 35 10000 1.03 270 17:58 29.08.2021
6566 Clouds 15 1016 29 10000 2.06 110 15:54 29.08.2021
6567 Clouds 18 1015 24 10000 5.14 100 14:27 29.08.2021
6568 Clouds 18 1015 24 10000 5.14 100 14:27 29.08.2021
6569 Clouds 18 1016 25 10000 0.51 140 13:47 29.08.2021
6570 Clouds 21 1015 19 10000 3.6 140 12:42 29.08.2021
6571 Clouds 21 1014 19 10000 3.6 130 11:53 29.08.2021
6572 Clouds 23 1014 18 10000 4.63 100 11:32 29.08.2021
6573 Clouds 25 1013 15 10000 5.66 100 10:46 29.08.2021
6574 Clouds 25 1013 15 10000 5.66 90 10:27 29.08.2021
6575 Clouds 26 1013 15 10000 6.69 110 09:21 29.08.2021
6576 Clear 19 1019 24 10000 6.17 100 02:37 29.08.2021
6577 Clear 9 1018 49 10000 2.06 290 22:25 28.08.2021
6578 Clear 12 1017 37 10000 3.09 350 20:30 28.08.2021
6579 Clouds 12 1017 37 10000 2.57 240 18:51 28.08.2021
6580 Clouds 12 1017 35 10000 1.03 270 18:21 28.08.2021
6581 Clouds 14 1017 30 10000 2.57 320 17:27 28.08.2021
6582 Clouds 15 1017 31 10000 2.57 260 16:21 28.08.2021
6583 Clouds 17 1016 27 10000 0 0 14:42 28.08.2021
6584 Clouds 19 1016 24 10000 0 0 13:46 28.08.2021
6585 Clouds 21 1015 21 10000 2.57 150 12:45 28.08.2021
6586 Clouds 24 1014 17 10000 3.6 180 11:57 28.08.2021
6587 Clouds 28 1013 10 10000 3.6 280 10:43 28.08.2021
6588 Clear 29 1012 10 10000 4.63 300 09:24 28.08.2021
6589 Clear 29 1013 10 10000 6.17 310 07:25 28.08.2021
6590 Clouds 19 1014 14 10000 9.26 350 22:42 27.08.2021
6591 Clouds 19 1014 14 10000 8.75 350 21:24 27.08.2021
6592 Clouds 19 1014 15 10000 9.26 350 20:33 27.08.2021
6593 Clouds 17 1014 20 10000 5.14 360 18:58 27.08.2021
6594 Clouds 17 1015 22 10000 3.6 30 18:37 27.08.2021
6595 Clouds 18 1015 22 10000 2.06 10 17:20 27.08.2021
6596 Clouds 14 1016 23 10000 2.57 90 15:55 27.08.2021
6597 Clouds 17 1016 22 10000 2.57 50 14:43 27.08.2021
6598 Clear 19 1016 19 10000 0 0 12:54 27.08.2021
6599 Clear 23 1014 14 10000 0 0 11:26 27.08.2021
6600 Clear 26 1014 11 10000 0 0 10:43 27.08.2021
6601 Clear 27 1014 11 10000 3.6 320 09:37 27.08.2021
6602 Clear 27 1014 11 10000 3.09 210 08:46 27.08.2021
6603 Clear 26 1015 11 10000 1.54 160 06:47 27.08.2021
6604 Clear 24 1017 12 10000 4.12 330 04:56 27.08.2021
6605 Clear 13 1018 28 10000 0 0 00:35 27.08.2021
6606 Clear 3 1017 38 10000 0 0 22:43 26.08.2021
6607 Clear 3 1017 38 10000 0 0 22:18 26.08.2021
6608 Clear 4 1017 38 10000 2.06 20 20:35 26.08.2021
6609 Clear 5 1017 36 10000 0 0 18:50 26.08.2021
6610 Clear 6 1018 31 10000 0 0 17:45 26.08.2021
6611 Clear 8 1018 27 10000 2.06 30 16:33 26.08.2021
6612 Clear 9 1018 31 10000 1.54 30 15:54 26.08.2021
6613 Clear 13 1017 24 10000 2.06 70 13:44 26.08.2021
6614 Clear 15 1017 21 10000 2.57 90 12:52 26.08.2021
6615 Clear 16 1017 20 10000 2.57 100 12:24 26.08.2021
6616 Clear 21 1016 13 10000 3.09 90 10:18 26.08.2021
6617 Clear 21 1016 14 10000 2.57 130 08:34 26.08.2021
6618 Clear 16 1022 23 10000 3.6 80 03:27 26.08.2021
6619 Clear 0 1020 47 10000 0 0 22:49 25.08.2021
6620 Clear 1 1020 44 10000 0 0 22:30 25.08.2021
6621 Clear 2 1020 48 10000 0 0 21:29 25.08.2021
6622 Clear 2 1020 44 10000 0 0 20:46 25.08.2021
6623 Clear 3 1020 41 10000 0 0 20:26 25.08.2021
6624 Clear 5 1021 38 10000 0 0 18:42 25.08.2021
6625 Clear 4 1021 38 10000 0 0 17:29 25.08.2021
6626 Clear 8 1022 34 10000 1.54 100 15:43 25.08.2021
6627 Clear 7 1022 31 10000 1.54 100 14:47 25.08.2021
6628 Clear 9 1022 29 10000 2.57 110 14:18 25.08.2021
6629 Clear 12 1021 24 10000 3.09 130 12:55 25.08.2021
6630 Clear 15 1020 20 10000 4.12 90 11:25 25.08.2021
6631 Clear 15 1020 20 10000 4.12 90 11:25 25.08.2021
6632 Clear 17 1019 17 10000 6.17 80 10:30 25.08.2021
6633 Clear 18 1019 17 10000 6.17 110 09:43 25.08.2021
6634 Clear 18 1019 17 10000 6.17 110 08:40 25.08.2021
6635 Clouds 17 1020 19 10000 4.63 90 07:44 25.08.2021
6636 Clouds 13 1024 28 10000 6.69 90 03:28 25.08.2021
6637 Clouds 1 1023 60 10000 1.54 80 23:40 24.08.2021
6638 Clouds 2 1023 60 10000 1.54 40 21:48 24.08.2021
6639 Clouds 3 1023 56 10000 0 0 20:38 24.08.2021
6640 Clouds 3 1023 56 10000 1.54 230 19:44 24.08.2021
6641 Clear 6 1024 52 10000 0 0 17:57 24.08.2021
6642 Clear 6 1024 49 10000 2.06 210 17:22 24.08.2021
6643 Clear 6 1024 49 10000 2.57 180 16:38 24.08.2021
6644 Clouds 9 1024 40 10000 3.6 140 14:24 24.08.2021
6645 Clouds 11 1024 35 10000 3.6 130 13:23 24.08.2021
6646 Clouds 14 1022 26 10000 4.63 130 11:25 24.08.2021
6647 Clouds 15 1022 25 10000 5.66 120 10:47 24.08.2021
6648 Clouds 16 1022 23 10000 6.69 130 10:25 24.08.2021
6649 Clear 17 1021 23 10000 7.72 130 08:46 24.08.2021
6650 Clouds 16 1023 27 10000 6.69 130 06:35 24.08.2021
6651 Clouds 14 1026 33 10000 8.75 120 03:59 24.08.2021
6652 Clouds 7 1024 42 10000 2.06 170 23:59 23.08.2021
6653 Clouds 6 1024 42 10000 2.06 140 22:51 23.08.2021
6654 Clouds 7 1024 42 10000 3.09 140 21:52 23.08.2021
6655 Clouds 6 1024 42 10000 2.06 150 20:27 23.08.2021
6656 Clouds 6 1024 42 10000 3.09 140 18:47 23.08.2021
6657 Clouds 7 1024 39 10000 3.6 160 16:29 23.08.2021
6658 Clear 11 1024 32 10000 2.57 170 13:58 23.08.2021
6659 Clear 14 1023 26 10000 3.6 160 12:34 23.08.2021
6660 Clear 15 1022 25 10000 4.63 160 11:48 23.08.2021
6661 Clear 18 1021 20 10000 6.17 170 10:36 23.08.2021
6662 Clear 19 1021 19 10000 6.17 160 09:24 23.08.2021
6663 Clear 19 1021 22 10000 6.17 170 07:54 23.08.2021
6664 Clear 19 1021 26 10000 7.2 170 06:47 23.08.2021
6665 Clear 18 1023 34 10000 6.69 160 04:46 23.08.2021
6666 Clouds 16 1022 41 10000 7.2 170 00:48 23.08.2021
6667 Clouds 17 1019 34 10000 4.63 190 22:43 22.08.2021
6668 Clouds 18 1017 27 10000 3.09 190 21:37 22.08.2021
6669 Clouds 19 1016 26 10000 3.6 180 20:20 22.08.2021
6670 Clouds 16 1015 23 10000 3.09 330 18:37 22.08.2021
6671 Clouds 17 1015 22 10000 3.09 300 16:22 22.08.2021
6672 Clouds 17 1015 22 10000 0 0 14:55 22.08.2021
6673 Clear 22 1015 16 10000 2.57 350 13:59 22.08.2021
6674 Clear 21 1015 16 10000 2.57 350 13:20 22.08.2021